<?xml version="1.0" encoding="UTF-8" standalone="no" ?>
<gpx xmlns="http://www.topografix.com/GPX/1/1" xmlns:xsi="http://www.w3.org/2001/XMLSchema-instance" xsi:schemaLocation="http://www.topografix.com/GPX/1/1 http://www.topografix.com/GPX/1/1/gpx.xsd" version="1.1" creator="VisuGPX - https://www.visugpx.com">
  <metadata>
    <name>Chabanière Cyclisme</name>
  </metadata>
  <trk>
    <name><![CDATA[Chabanière Cyclisme]]></name>
    <trkseg>
      <trkpt lat="45.59965" lon="4.60512">
        <ele>534</ele>
        <time>2022-04-24T07:04:08.000Z</time>
      </trkpt>
      <trkpt lat="45.59964" lon="4.60512">
        <ele>534</ele>
        <time>2022-04-24T07:04:09.000Z</time>
      </trkpt>
      <trkpt lat="45.59952" lon="4.6051">
        <ele>534</ele>
        <time>2022-04-24T07:05:33.000Z</time>
      </trkpt>
      <trkpt lat="45.59952" lon="4.6051">
        <ele>534</ele>
        <time>2022-04-24T07:05:35.000Z</time>
      </trkpt>
      <trkpt lat="45.59952" lon="4.60511">
        <ele>534</ele>
        <time>2022-04-24T07:05:37.000Z</time>
      </trkpt>
      <trkpt lat="45.59951" lon="4.60513">
        <ele>534</ele>
        <time>2022-04-24T07:05:38.000Z</time>
      </trkpt>
      <trkpt lat="45.59953" lon="4.60522">
        <ele>534</ele>
        <time>2022-04-24T07:05:40.000Z</time>
      </trkpt>
      <trkpt lat="45.59954" lon="4.60525">
        <ele>534</ele>
        <time>2022-04-24T07:05:41.000Z</time>
      </trkpt>
      <trkpt lat="45.59953" lon="4.60532">
        <ele>534</ele>
        <time>2022-04-24T07:05:43.000Z</time>
      </trkpt>
      <trkpt lat="45.59957" lon="4.60536">
        <ele>533.79998779297</ele>
        <time>2022-04-24T07:05:45.000Z</time>
      </trkpt>
      <trkpt lat="45.59966" lon="4.60547">
        <ele>533.40002441406</ele>
        <time>2022-04-24T07:05:50.000Z</time>
      </trkpt>
      <trkpt lat="45.5997" lon="4.60553">
        <ele>533.20001220703</ele>
        <time>2022-04-24T07:05:53.000Z</time>
      </trkpt>
      <trkpt lat="45.59975" lon="4.60559">
        <ele>533</ele>
        <time>2022-04-24T07:05:56.000Z</time>
      </trkpt>
      <trkpt lat="45.59988" lon="4.60574">
        <ele>531.79998779297</ele>
        <time>2022-04-24T07:06:04.000Z</time>
      </trkpt>
      <trkpt lat="45.59995" lon="4.60583">
        <ele>531.20001220703</ele>
        <time>2022-04-24T07:06:10.000Z</time>
      </trkpt>
      <trkpt lat="45.59998" lon="4.60587">
        <ele>531</ele>
        <time>2022-04-24T07:06:11.000Z</time>
      </trkpt>
      <trkpt lat="45.59998" lon="4.60587">
        <ele>531</ele>
        <time>2022-04-24T07:06:16.000Z</time>
      </trkpt>
      <trkpt lat="45.59998" lon="4.60587">
        <ele>531</ele>
        <time>2022-04-24T07:06:17.000Z</time>
      </trkpt>
      <trkpt lat="45.60008" lon="4.60588">
        <ele>530.59997558594</ele>
        <time>2022-04-24T07:06:19.000Z</time>
      </trkpt>
      <trkpt lat="45.60012" lon="4.60574">
        <ele>531.20001220703</ele>
        <time>2022-04-24T07:06:22.000Z</time>
      </trkpt>
      <trkpt lat="45.60015" lon="4.60562">
        <ele>531.79998779297</ele>
        <time>2022-04-24T07:06:25.000Z</time>
      </trkpt>
      <trkpt lat="45.60016" lon="4.60558">
        <ele>532</ele>
        <time>2022-04-24T07:06:26.000Z</time>
      </trkpt>
      <trkpt lat="45.6002" lon="4.60546">
        <ele>532.20001220703</ele>
        <time>2022-04-24T07:06:30.000Z</time>
      </trkpt>
      <trkpt lat="45.60022" lon="4.60541">
        <ele>532.59997558594</ele>
        <time>2022-04-24T07:06:32.000Z</time>
      </trkpt>
      <trkpt lat="45.60026" lon="4.60528">
        <ele>533.20001220703</ele>
        <time>2022-04-24T07:06:37.000Z</time>
      </trkpt>
      <trkpt lat="45.60037" lon="4.60512">
        <ele>533.40002441406</ele>
        <time>2022-04-24T07:06:43.000Z</time>
      </trkpt>
      <trkpt lat="45.60042" lon="4.60504">
        <ele>534.40002441406</ele>
        <time>2022-04-24T07:06:47.000Z</time>
      </trkpt>
      <trkpt lat="45.60045" lon="4.605">
        <ele>534.59997558594</ele>
        <time>2022-04-24T07:06:49.000Z</time>
      </trkpt>
      <trkpt lat="45.60049" lon="4.60493">
        <ele>535</ele>
        <time>2022-04-24T07:06:52.000Z</time>
      </trkpt>
      <trkpt lat="45.60051" lon="4.60488">
        <ele>535.59997558594</ele>
        <time>2022-04-24T07:06:54.000Z</time>
      </trkpt>
      <trkpt lat="45.60052" lon="4.60486">
        <ele>535.79998779297</ele>
        <time>2022-04-24T07:06:55.000Z</time>
      </trkpt>
      <trkpt lat="45.60054" lon="4.6048">
        <ele>536.40002441406</ele>
        <time>2022-04-24T07:06:58.000Z</time>
      </trkpt>
      <trkpt lat="45.60057" lon="4.60473">
        <ele>537</ele>
        <time>2022-04-24T07:07:01.000Z</time>
      </trkpt>
      <trkpt lat="45.60059" lon="4.60463">
        <ele>538.40002441406</ele>
        <time>2022-04-24T07:07:05.000Z</time>
      </trkpt>
      <trkpt lat="45.60061" lon="4.60455">
        <ele>539.40002441406</ele>
        <time>2022-04-24T07:07:08.000Z</time>
      </trkpt>
      <trkpt lat="45.60063" lon="4.60447">
        <ele>540.40002441406</ele>
        <time>2022-04-24T07:07:11.000Z</time>
      </trkpt>
      <trkpt lat="45.60064" lon="4.6044">
        <ele>540.59997558594</ele>
        <time>2022-04-24T07:07:14.000Z</time>
      </trkpt>
      <trkpt lat="45.60067" lon="4.60428">
        <ele>541.40002441406</ele>
        <time>2022-04-24T07:07:19.000Z</time>
      </trkpt>
      <trkpt lat="45.60068" lon="4.60423">
        <ele>541.79998779297</ele>
        <time>2022-04-24T07:07:21.000Z</time>
      </trkpt>
      <trkpt lat="45.60072" lon="4.60408">
        <ele>543.59997558594</ele>
        <time>2022-04-24T07:07:27.000Z</time>
      </trkpt>
      <trkpt lat="45.60075" lon="4.60403">
        <ele>544.40002441406</ele>
        <time>2022-04-24T07:07:28.000Z</time>
      </trkpt>
      <trkpt lat="45.60077" lon="4.60403">
        <ele>544.59997558594</ele>
        <time>2022-04-24T07:07:29.000Z</time>
      </trkpt>
      <trkpt lat="45.60086" lon="4.60406">
        <ele>545</ele>
        <time>2022-04-24T07:07:33.000Z</time>
      </trkpt>
      <trkpt lat="45.601" lon="4.60409">
        <ele>545.20001220703</ele>
        <time>2022-04-24T07:07:40.000Z</time>
      </trkpt>
      <trkpt lat="45.60115" lon="4.60413">
        <ele>545.40002441406</ele>
        <time>2022-04-24T07:07:46.000Z</time>
      </trkpt>
      <trkpt lat="45.60131" lon="4.60417">
        <ele>544.59997558594</ele>
        <time>2022-04-24T07:07:52.000Z</time>
      </trkpt>
      <trkpt lat="45.60149" lon="4.60416">
        <ele>543.40002441406</ele>
        <time>2022-04-24T07:07:58.000Z</time>
      </trkpt>
      <trkpt lat="45.60166" lon="4.60401">
        <ele>542.20001220703</ele>
        <time>2022-04-24T07:08:04.000Z</time>
      </trkpt>
      <trkpt lat="45.60175" lon="4.60389">
        <ele>541.59997558594</ele>
        <time>2022-04-24T07:08:07.000Z</time>
      </trkpt>
      <trkpt lat="45.60182" lon="4.6038">
        <ele>541.59997558594</ele>
        <time>2022-04-24T07:08:09.000Z</time>
      </trkpt>
      <trkpt lat="45.60201" lon="4.60355">
        <ele>540</ele>
        <time>2022-04-24T07:08:14.000Z</time>
      </trkpt>
      <trkpt lat="45.60209" lon="4.60345">
        <ele>539.40002441406</ele>
        <time>2022-04-24T07:08:16.000Z</time>
      </trkpt>
      <trkpt lat="45.60226" lon="4.60322">
        <ele>538.40002441406</ele>
        <time>2022-04-24T07:08:20.000Z</time>
      </trkpt>
      <trkpt lat="45.6024" lon="4.60305">
        <ele>538.79998779297</ele>
        <time>2022-04-24T07:08:23.000Z</time>
      </trkpt>
      <trkpt lat="45.60251" lon="4.60295">
        <ele>539.40002441406</ele>
        <time>2022-04-24T07:08:25.000Z</time>
      </trkpt>
      <trkpt lat="45.60263" lon="4.60289">
        <ele>539.79998779297</ele>
        <time>2022-04-24T07:08:27.000Z</time>
      </trkpt>
      <trkpt lat="45.60275" lon="4.60295">
        <ele>539</ele>
        <time>2022-04-24T07:08:29.000Z</time>
      </trkpt>
      <trkpt lat="45.60279" lon="4.60301">
        <ele>538</ele>
        <time>2022-04-24T07:08:30.000Z</time>
      </trkpt>
      <trkpt lat="45.60283" lon="4.60306">
        <ele>537.79998779297</ele>
        <time>2022-04-24T07:08:31.000Z</time>
      </trkpt>
      <trkpt lat="45.60289" lon="4.6032">
        <ele>537.59997558594</ele>
        <time>2022-04-24T07:08:33.000Z</time>
      </trkpt>
      <trkpt lat="45.60302" lon="4.60357">
        <ele>537.40002441406</ele>
        <time>2022-04-24T07:08:39.000Z</time>
      </trkpt>
      <trkpt lat="45.60312" lon="4.60383">
        <ele>538</ele>
        <time>2022-04-24T07:08:44.000Z</time>
      </trkpt>
      <trkpt lat="45.6032" lon="4.60396">
        <ele>539</ele>
        <time>2022-04-24T07:08:47.000Z</time>
      </trkpt>
      <trkpt lat="45.60339" lon="4.60424">
        <ele>541</ele>
        <time>2022-04-24T07:08:54.000Z</time>
      </trkpt>
      <trkpt lat="45.60347" lon="4.60435">
        <ele>541.59997558594</ele>
        <time>2022-04-24T07:08:57.000Z</time>
      </trkpt>
      <trkpt lat="45.60354" lon="4.60446">
        <ele>542</ele>
        <time>2022-04-24T07:09:00.000Z</time>
      </trkpt>
      <trkpt lat="45.60362" lon="4.60457">
        <ele>542.59997558594</ele>
        <time>2022-04-24T07:09:03.000Z</time>
      </trkpt>
      <trkpt lat="45.60369" lon="4.60467">
        <ele>543</ele>
        <time>2022-04-24T07:09:06.000Z</time>
      </trkpt>
      <trkpt lat="45.60382" lon="4.60486">
        <ele>544.20001220703</ele>
        <time>2022-04-24T07:09:11.000Z</time>
      </trkpt>
      <trkpt lat="45.60399" lon="4.6051">
        <ele>545.79998779297</ele>
        <time>2022-04-24T07:09:18.000Z</time>
      </trkpt>
      <trkpt lat="45.60412" lon="4.60529">
        <ele>546.79998779297</ele>
        <time>2022-04-24T07:09:24.000Z</time>
      </trkpt>
      <trkpt lat="45.6043" lon="4.60554">
        <ele>548.20001220703</ele>
        <time>2022-04-24T07:09:32.000Z</time>
      </trkpt>
      <trkpt lat="45.6045" lon="4.60583">
        <ele>548.59997558594</ele>
        <time>2022-04-24T07:09:41.000Z</time>
      </trkpt>
      <trkpt lat="45.60467" lon="4.60608">
        <ele>549.40002441406</ele>
        <time>2022-04-24T07:09:48.000Z</time>
      </trkpt>
      <trkpt lat="45.60487" lon="4.60636">
        <ele>551.40002441406</ele>
        <time>2022-04-24T07:09:57.000Z</time>
      </trkpt>
      <trkpt lat="45.60507" lon="4.60664">
        <ele>554</ele>
        <time>2022-04-24T07:10:06.000Z</time>
      </trkpt>
      <trkpt lat="45.60528" lon="4.60695">
        <ele>555.79998779297</ele>
        <time>2022-04-24T07:10:16.000Z</time>
      </trkpt>
      <trkpt lat="45.60543" lon="4.60717">
        <ele>557</ele>
        <time>2022-04-24T07:10:23.000Z</time>
      </trkpt>
      <trkpt lat="45.60559" lon="4.60739">
        <ele>558</ele>
        <time>2022-04-24T07:10:30.000Z</time>
      </trkpt>
      <trkpt lat="45.60574" lon="4.60755">
        <ele>559</ele>
        <time>2022-04-24T07:10:36.000Z</time>
      </trkpt>
      <trkpt lat="45.60593" lon="4.60765">
        <ele>560.40002441406</ele>
        <time>2022-04-24T07:10:43.000Z</time>
      </trkpt>
      <trkpt lat="45.60612" lon="4.60766">
        <ele>562.40002441406</ele>
        <time>2022-04-24T07:10:49.000Z</time>
      </trkpt>
      <trkpt lat="45.60632" lon="4.60763">
        <ele>562.79998779297</ele>
        <time>2022-04-24T07:10:56.000Z</time>
      </trkpt>
      <trkpt lat="45.60653" lon="4.6075">
        <ele>563.59997558594</ele>
        <time>2022-04-24T07:11:04.000Z</time>
      </trkpt>
      <trkpt lat="45.60669" lon="4.60739">
        <ele>564.59997558594</ele>
        <time>2022-04-24T07:11:10.000Z</time>
      </trkpt>
      <trkpt lat="45.60687" lon="4.60728">
        <ele>566.40002441406</ele>
        <time>2022-04-24T07:11:16.000Z</time>
      </trkpt>
      <trkpt lat="45.60707" lon="4.60721">
        <ele>567.40002441406</ele>
        <time>2022-04-24T07:11:21.000Z</time>
      </trkpt>
      <trkpt lat="45.60712" lon="4.60721">
        <ele>567</ele>
        <time>2022-04-24T07:11:22.000Z</time>
      </trkpt>
      <trkpt lat="45.60716" lon="4.60723">
        <ele>566.20001220703</ele>
        <time>2022-04-24T07:11:23.000Z</time>
      </trkpt>
      <trkpt lat="45.60724" lon="4.6073">
        <ele>564.59997558594</ele>
        <time>2022-04-24T07:11:25.000Z</time>
      </trkpt>
      <trkpt lat="45.60728" lon="4.60735">
        <ele>564.20001220703</ele>
        <time>2022-04-24T07:11:26.000Z</time>
      </trkpt>
      <trkpt lat="45.60728" lon="4.60735">
        <ele>564.20001220703</ele>
        <time>2022-04-24T07:11:27.000Z</time>
      </trkpt>
      <trkpt lat="45.60733" lon="4.60753">
        <ele>563</ele>
        <time>2022-04-24T07:11:29.000Z</time>
      </trkpt>
      <trkpt lat="45.60734" lon="4.6077">
        <ele>562.40002441406</ele>
        <time>2022-04-24T07:11:32.000Z</time>
      </trkpt>
      <trkpt lat="45.60735" lon="4.60787">
        <ele>562</ele>
        <time>2022-04-24T07:11:35.000Z</time>
      </trkpt>
      <trkpt lat="45.60741" lon="4.60808">
        <ele>563</ele>
        <time>2022-04-24T07:11:40.000Z</time>
      </trkpt>
      <trkpt lat="45.60746" lon="4.60829">
        <ele>565</ele>
        <time>2022-04-24T07:11:46.000Z</time>
      </trkpt>
      <trkpt lat="45.60752" lon="4.60859">
        <ele>567.40002441406</ele>
        <time>2022-04-24T07:11:55.000Z</time>
      </trkpt>
      <trkpt lat="45.60759" lon="4.60877">
        <ele>569.20001220703</ele>
        <time>2022-04-24T07:12:02.000Z</time>
      </trkpt>
      <trkpt lat="45.60764" lon="4.60887">
        <ele>570.20001220703</ele>
        <time>2022-04-24T07:12:07.000Z</time>
      </trkpt>
      <trkpt lat="45.60767" lon="4.60893">
        <ele>571.20001220703</ele>
        <time>2022-04-24T07:12:10.000Z</time>
      </trkpt>
      <trkpt lat="45.60772" lon="4.609">
        <ele>572.79998779297</ele>
        <time>2022-04-24T07:12:14.000Z</time>
      </trkpt>
      <trkpt lat="45.60774" lon="4.60904">
        <ele>573.59997558594</ele>
        <time>2022-04-24T07:12:16.000Z</time>
      </trkpt>
      <trkpt lat="45.60778" lon="4.60911">
        <ele>574.79998779297</ele>
        <time>2022-04-24T07:12:19.000Z</time>
      </trkpt>
      <trkpt lat="45.60782" lon="4.60918">
        <ele>576.20001220703</ele>
        <time>2022-04-24T07:12:23.000Z</time>
      </trkpt>
      <trkpt lat="45.60787" lon="4.60927">
        <ele>578.20001220703</ele>
        <time>2022-04-24T07:12:28.000Z</time>
      </trkpt>
      <trkpt lat="45.60789" lon="4.60929">
        <ele>578.59997558594</ele>
        <time>2022-04-24T07:12:29.000Z</time>
      </trkpt>
      <trkpt lat="45.60795" lon="4.60939">
        <ele>580.79998779297</ele>
        <time>2022-04-24T07:12:34.000Z</time>
      </trkpt>
      <trkpt lat="45.60799" lon="4.60944">
        <ele>581.79998779297</ele>
        <time>2022-04-24T07:12:37.000Z</time>
      </trkpt>
      <trkpt lat="45.60807" lon="4.60957">
        <ele>584.79998779297</ele>
        <time>2022-04-24T07:12:44.000Z</time>
      </trkpt>
      <trkpt lat="45.60815" lon="4.60971">
        <ele>588.20001220703</ele>
        <time>2022-04-24T07:12:51.000Z</time>
      </trkpt>
      <trkpt lat="45.60821" lon="4.60982">
        <ele>590.59997558594</ele>
        <time>2022-04-24T07:12:57.000Z</time>
      </trkpt>
      <trkpt lat="45.60828" lon="4.60996">
        <ele>593</ele>
        <time>2022-04-24T07:13:04.000Z</time>
      </trkpt>
      <trkpt lat="45.60833" lon="4.61008">
        <ele>594.59997558594</ele>
        <time>2022-04-24T07:13:10.000Z</time>
      </trkpt>
      <trkpt lat="45.60835" lon="4.61017">
        <ele>594.79998779297</ele>
        <time>2022-04-24T07:13:17.000Z</time>
      </trkpt>
      <trkpt lat="45.60842" lon="4.61028">
        <ele>596.79998779297</ele>
        <time>2022-04-24T07:13:23.000Z</time>
      </trkpt>
      <trkpt lat="45.60833" lon="4.61048">
        <ele>593.40002441406</ele>
        <time>2022-04-24T07:13:29.000Z</time>
      </trkpt>
      <trkpt lat="45.60833" lon="4.61064">
        <ele>592.40002441406</ele>
        <time>2022-04-24T07:13:35.000Z</time>
      </trkpt>
      <trkpt lat="45.60849" lon="4.61066">
        <ele>597.40002441406</ele>
        <time>2022-04-24T07:13:37.000Z</time>
      </trkpt>
      <trkpt lat="45.6085" lon="4.61074">
        <ele>597.40002441406</ele>
        <time>2022-04-24T07:13:39.000Z</time>
      </trkpt>
      <trkpt lat="45.60857" lon="4.61102">
        <ele>596.79998779297</ele>
        <time>2022-04-24T07:13:48.000Z</time>
      </trkpt>
      <trkpt lat="45.60865" lon="4.61123">
        <ele>597</ele>
        <time>2022-04-24T07:13:55.000Z</time>
      </trkpt>
      <trkpt lat="45.60872" lon="4.61141">
        <ele>596.40002441406</ele>
        <time>2022-04-24T07:14:01.000Z</time>
      </trkpt>
      <trkpt lat="45.60882" lon="4.61164">
        <ele>597.40002441406</ele>
        <time>2022-04-24T07:14:08.000Z</time>
      </trkpt>
      <trkpt lat="45.60893" lon="4.61187">
        <ele>598.20001220703</ele>
        <time>2022-04-24T07:14:14.000Z</time>
      </trkpt>
      <trkpt lat="45.60913" lon="4.61212">
        <ele>597</ele>
        <time>2022-04-24T07:14:21.000Z</time>
      </trkpt>
      <trkpt lat="45.60939" lon="4.61225">
        <ele>598</ele>
        <time>2022-04-24T07:14:28.000Z</time>
      </trkpt>
      <trkpt lat="45.60955" lon="4.61232">
        <ele>598</ele>
        <time>2022-04-24T07:14:33.000Z</time>
      </trkpt>
      <trkpt lat="45.60968" lon="4.61239">
        <ele>597.40002441406</ele>
        <time>2022-04-24T07:14:39.000Z</time>
      </trkpt>
      <trkpt lat="45.60979" lon="4.61244">
        <ele>596.59997558594</ele>
        <time>2022-04-24T07:14:43.000Z</time>
      </trkpt>
      <trkpt lat="45.60981" lon="4.61245">
        <ele>596.40002441406</ele>
        <time>2022-04-24T07:14:44.000Z</time>
      </trkpt>
      <trkpt lat="45.60989" lon="4.61245">
        <ele>596</ele>
        <time>2022-04-24T07:14:47.000Z</time>
      </trkpt>
      <trkpt lat="45.60994" lon="4.61244">
        <ele>596</ele>
        <time>2022-04-24T07:14:49.000Z</time>
      </trkpt>
      <trkpt lat="45.60998" lon="4.61244">
        <ele>596</ele>
        <time>2022-04-24T07:14:50.000Z</time>
      </trkpt>
      <trkpt lat="45.61003" lon="4.61243">
        <ele>596.20001220703</ele>
        <time>2022-04-24T07:14:52.000Z</time>
      </trkpt>
      <trkpt lat="45.61015" lon="4.6124">
        <ele>595.59997558594</ele>
        <time>2022-04-24T07:14:57.000Z</time>
      </trkpt>
      <trkpt lat="45.61023" lon="4.61238">
        <ele>595</ele>
        <time>2022-04-24T07:15:02.000Z</time>
      </trkpt>
      <trkpt lat="45.61041" lon="4.61242">
        <ele>592.59997558594</ele>
        <time>2022-04-24T07:15:07.000Z</time>
      </trkpt>
      <trkpt lat="45.61066" lon="4.61246">
        <ele>589.59997558594</ele>
        <time>2022-04-24T07:15:14.000Z</time>
      </trkpt>
      <trkpt lat="45.61068" lon="4.61246">
        <ele>589.40002441406</ele>
        <time>2022-04-24T07:15:15.000Z</time>
      </trkpt>
      <trkpt lat="45.61074" lon="4.61246">
        <ele>589</ele>
        <time>2022-04-24T07:15:17.000Z</time>
      </trkpt>
      <trkpt lat="45.61078" lon="4.61245">
        <ele>588.79998779297</ele>
        <time>2022-04-24T07:15:18.000Z</time>
      </trkpt>
      <trkpt lat="45.61086" lon="4.61241">
        <ele>588.79998779297</ele>
        <time>2022-04-24T07:15:20.000Z</time>
      </trkpt>
      <trkpt lat="45.61104" lon="4.61224">
        <ele>589.20001220703</ele>
        <time>2022-04-24T07:15:25.000Z</time>
      </trkpt>
      <trkpt lat="45.61124" lon="4.61215">
        <ele>588</ele>
        <time>2022-04-24T07:15:31.000Z</time>
      </trkpt>
      <trkpt lat="45.61139" lon="4.61211">
        <ele>586.79998779297</ele>
        <time>2022-04-24T07:15:34.000Z</time>
      </trkpt>
      <trkpt lat="45.61148" lon="4.61211">
        <ele>586.79998779297</ele>
        <time>2022-04-24T07:15:36.000Z</time>
      </trkpt>
      <trkpt lat="45.61159" lon="4.61212">
        <ele>587</ele>
        <time>2022-04-24T07:15:40.000Z</time>
      </trkpt>
      <trkpt lat="45.61174" lon="4.61213">
        <ele>587.59997558594</ele>
        <time>2022-04-24T07:15:47.000Z</time>
      </trkpt>
      <trkpt lat="45.61188" lon="4.61209">
        <ele>589</ele>
        <time>2022-04-24T07:15:53.000Z</time>
      </trkpt>
      <trkpt lat="45.61198" lon="4.6121">
        <ele>589.59997558594</ele>
        <time>2022-04-24T07:15:58.000Z</time>
      </trkpt>
      <trkpt lat="45.61212" lon="4.61217">
        <ele>590</ele>
        <time>2022-04-24T07:16:04.000Z</time>
      </trkpt>
      <trkpt lat="45.61224" lon="4.61224">
        <ele>590</ele>
        <time>2022-04-24T07:16:10.000Z</time>
      </trkpt>
      <trkpt lat="45.61234" lon="4.61235">
        <ele>590.59997558594</ele>
        <time>2022-04-24T07:16:16.000Z</time>
      </trkpt>
      <trkpt lat="45.61249" lon="4.61242">
        <ele>592</ele>
        <time>2022-04-24T07:16:23.000Z</time>
      </trkpt>
      <trkpt lat="45.6126" lon="4.61248">
        <ele>593.59997558594</ele>
        <time>2022-04-24T07:16:29.000Z</time>
      </trkpt>
      <trkpt lat="45.61269" lon="4.61255">
        <ele>595.40002441406</ele>
        <time>2022-04-24T07:16:34.000Z</time>
      </trkpt>
      <trkpt lat="45.61276" lon="4.61262">
        <ele>597.40002441406</ele>
        <time>2022-04-24T07:16:39.000Z</time>
      </trkpt>
      <trkpt lat="45.61284" lon="4.61279">
        <ele>599.79998779297</ele>
        <time>2022-04-24T07:16:46.000Z</time>
      </trkpt>
      <trkpt lat="45.61288" lon="4.61287">
        <ele>601</ele>
        <time>2022-04-24T07:16:50.000Z</time>
      </trkpt>
      <trkpt lat="45.61292" lon="4.61294">
        <ele>602.20001220703</ele>
        <time>2022-04-24T07:16:54.000Z</time>
      </trkpt>
      <trkpt lat="45.61297" lon="4.61301">
        <ele>603.59997558594</ele>
        <time>2022-04-24T07:16:58.000Z</time>
      </trkpt>
      <trkpt lat="45.613" lon="4.61305">
        <ele>604.59997558594</ele>
        <time>2022-04-24T07:17:01.000Z</time>
      </trkpt>
      <trkpt lat="45.61305" lon="4.61311">
        <ele>605.79998779297</ele>
        <time>2022-04-24T07:17:05.000Z</time>
      </trkpt>
      <trkpt lat="45.61307" lon="4.61314">
        <ele>606.40002441406</ele>
        <time>2022-04-24T07:17:07.000Z</time>
      </trkpt>
      <trkpt lat="45.61315" lon="4.61322">
        <ele>608.20001220703</ele>
        <time>2022-04-24T07:17:13.000Z</time>
      </trkpt>
      <trkpt lat="45.61323" lon="4.6133">
        <ele>610.20001220703</ele>
        <time>2022-04-24T07:17:19.000Z</time>
      </trkpt>
      <trkpt lat="45.6133" lon="4.61338">
        <ele>612.20001220703</ele>
        <time>2022-04-24T07:17:25.000Z</time>
      </trkpt>
      <trkpt lat="45.61339" lon="4.61348">
        <ele>614.79998779297</ele>
        <time>2022-04-24T07:17:32.000Z</time>
      </trkpt>
      <trkpt lat="45.61345" lon="4.61351">
        <ele>616.59997558594</ele>
        <time>2022-04-24T07:17:37.000Z</time>
      </trkpt>
      <trkpt lat="45.61354" lon="4.61358">
        <ele>619</ele>
        <time>2022-04-24T07:17:44.000Z</time>
      </trkpt>
      <trkpt lat="45.6136" lon="4.61366">
        <ele>620.59997558594</ele>
        <time>2022-04-24T07:17:51.000Z</time>
      </trkpt>
      <trkpt lat="45.61367" lon="4.6138">
        <ele>622.79998779297</ele>
        <time>2022-04-24T07:17:59.000Z</time>
      </trkpt>
      <trkpt lat="45.61374" lon="4.6139">
        <ele>625.40002441406</ele>
        <time>2022-04-24T07:18:06.000Z</time>
      </trkpt>
      <trkpt lat="45.61382" lon="4.61402">
        <ele>627.79998779297</ele>
        <time>2022-04-24T07:18:14.000Z</time>
      </trkpt>
      <trkpt lat="45.6139" lon="4.61412">
        <ele>630.59997558594</ele>
        <time>2022-04-24T07:18:22.000Z</time>
      </trkpt>
      <trkpt lat="45.61398" lon="4.61421">
        <ele>632.79998779297</ele>
        <time>2022-04-24T07:18:30.000Z</time>
      </trkpt>
      <trkpt lat="45.61405" lon="4.61429">
        <ele>634</ele>
        <time>2022-04-24T07:18:37.000Z</time>
      </trkpt>
      <trkpt lat="45.61411" lon="4.61437">
        <ele>635.40002441406</ele>
        <time>2022-04-24T07:18:43.000Z</time>
      </trkpt>
      <trkpt lat="45.61419" lon="4.6145">
        <ele>636.59997558594</ele>
        <time>2022-04-24T07:18:50.000Z</time>
      </trkpt>
      <trkpt lat="45.61425" lon="4.61464">
        <ele>637.59997558594</ele>
        <time>2022-04-24T07:18:57.000Z</time>
      </trkpt>
      <trkpt lat="45.61429" lon="4.61475">
        <ele>638.40002441406</ele>
        <time>2022-04-24T07:19:05.000Z</time>
      </trkpt>
      <trkpt lat="45.61438" lon="4.61479">
        <ele>640.20001220703</ele>
        <time>2022-04-24T07:19:10.000Z</time>
      </trkpt>
      <trkpt lat="45.61446" lon="4.61475">
        <ele>642.59997558594</ele>
        <time>2022-04-24T07:19:15.000Z</time>
      </trkpt>
      <trkpt lat="45.61447" lon="4.61475">
        <ele>642.79998779297</ele>
        <time>2022-04-24T07:19:16.000Z</time>
      </trkpt>
      <trkpt lat="45.61454" lon="4.6147">
        <ele>644.40002441406</ele>
        <time>2022-04-24T07:19:21.000Z</time>
      </trkpt>
      <trkpt lat="45.61458" lon="4.61465">
        <ele>645.20001220703</ele>
        <time>2022-04-24T07:19:25.000Z</time>
      </trkpt>
      <trkpt lat="45.6146" lon="4.61463">
        <ele>645.59997558594</ele>
        <time>2022-04-24T07:19:27.000Z</time>
      </trkpt>
      <trkpt lat="45.61468" lon="4.61455">
        <ele>647.79998779297</ele>
        <time>2022-04-24T07:19:34.000Z</time>
      </trkpt>
      <trkpt lat="45.61473" lon="4.61449">
        <ele>649.59997558594</ele>
        <time>2022-04-24T07:19:39.000Z</time>
      </trkpt>
      <trkpt lat="45.61481" lon="4.61441">
        <ele>650.79998779297</ele>
        <time>2022-04-24T07:19:45.000Z</time>
      </trkpt>
      <trkpt lat="45.61487" lon="4.61435">
        <ele>651.79998779297</ele>
        <time>2022-04-24T07:19:51.000Z</time>
      </trkpt>
      <trkpt lat="45.61495" lon="4.61432">
        <ele>653</ele>
        <time>2022-04-24T07:19:58.000Z</time>
      </trkpt>
      <trkpt lat="45.61503" lon="4.61432">
        <ele>653.79998779297</ele>
        <time>2022-04-24T07:20:03.000Z</time>
      </trkpt>
      <trkpt lat="45.61513" lon="4.61428">
        <ele>654.20001220703</ele>
        <time>2022-04-24T07:20:10.000Z</time>
      </trkpt>
      <trkpt lat="45.61519" lon="4.61423">
        <ele>656.20001220703</ele>
        <time>2022-04-24T07:20:13.000Z</time>
      </trkpt>
      <trkpt lat="45.61523" lon="4.61417">
        <ele>658</ele>
        <time>2022-04-24T07:20:16.000Z</time>
      </trkpt>
      <trkpt lat="45.61528" lon="4.61409">
        <ele>659.79998779297</ele>
        <time>2022-04-24T07:20:20.000Z</time>
      </trkpt>
      <trkpt lat="45.61532" lon="4.61401">
        <ele>661.20001220703</ele>
        <time>2022-04-24T07:20:24.000Z</time>
      </trkpt>
      <trkpt lat="45.61535" lon="4.61395">
        <ele>661.79998779297</ele>
        <time>2022-04-24T07:20:27.000Z</time>
      </trkpt>
      <trkpt lat="45.61538" lon="4.61389">
        <ele>662.59997558594</ele>
        <time>2022-04-24T07:20:30.000Z</time>
      </trkpt>
      <trkpt lat="45.61541" lon="4.6138">
        <ele>663.59997558594</ele>
        <time>2022-04-24T07:20:35.000Z</time>
      </trkpt>
      <trkpt lat="45.61546" lon="4.61369">
        <ele>665</ele>
        <time>2022-04-24T07:20:40.000Z</time>
      </trkpt>
      <trkpt lat="45.61549" lon="4.61358">
        <ele>666.40002441406</ele>
        <time>2022-04-24T07:20:46.000Z</time>
      </trkpt>
      <trkpt lat="45.61553" lon="4.61346">
        <ele>668.40002441406</ele>
        <time>2022-04-24T07:20:51.000Z</time>
      </trkpt>
      <trkpt lat="45.61557" lon="4.61331">
        <ele>670.79998779297</ele>
        <time>2022-04-24T07:20:58.000Z</time>
      </trkpt>
      <trkpt lat="45.6156" lon="4.61322">
        <ele>671.59997558594</ele>
        <time>2022-04-24T07:21:02.000Z</time>
      </trkpt>
      <trkpt lat="45.61565" lon="4.61306">
        <ele>672.40002441406</ele>
        <time>2022-04-24T07:21:08.000Z</time>
      </trkpt>
      <trkpt lat="45.61569" lon="4.61294">
        <ele>673.40002441406</ele>
        <time>2022-04-24T07:21:13.000Z</time>
      </trkpt>
      <trkpt lat="45.61571" lon="4.61287">
        <ele>673.40002441406</ele>
        <time>2022-04-24T07:21:17.000Z</time>
      </trkpt>
      <trkpt lat="45.61572" lon="4.61285">
        <ele>673.40002441406</ele>
        <time>2022-04-24T07:21:19.000Z</time>
      </trkpt>
      <trkpt lat="45.61574" lon="4.61279">
        <ele>673.40002441406</ele>
        <time>2022-04-24T07:23:37.000Z</time>
      </trkpt>
      <trkpt lat="45.61575" lon="4.61275">
        <ele>673.40002441406</ele>
        <time>2022-04-24T07:23:38.000Z</time>
      </trkpt>
      <trkpt lat="45.61578" lon="4.61263">
        <ele>674.40002441406</ele>
        <time>2022-04-24T07:23:42.000Z</time>
      </trkpt>
      <trkpt lat="45.61581" lon="4.61257">
        <ele>675.20001220703</ele>
        <time>2022-04-24T07:23:45.000Z</time>
      </trkpt>
      <trkpt lat="45.61582" lon="4.61253">
        <ele>675.59997558594</ele>
        <time>2022-04-24T07:23:47.000Z</time>
      </trkpt>
      <trkpt lat="45.61585" lon="4.61245">
        <ele>676</ele>
        <time>2022-04-24T07:23:50.000Z</time>
      </trkpt>
      <trkpt lat="45.61588" lon="4.61236">
        <ele>676.20001220703</ele>
        <time>2022-04-24T07:23:54.000Z</time>
      </trkpt>
      <trkpt lat="45.61591" lon="4.6123">
        <ele>676.20001220703</ele>
        <time>2022-04-24T07:23:56.000Z</time>
      </trkpt>
      <trkpt lat="45.61594" lon="4.61221">
        <ele>676.40002441406</ele>
        <time>2022-04-24T07:23:59.000Z</time>
      </trkpt>
      <trkpt lat="45.61595" lon="4.61217">
        <ele>676.40002441406</ele>
        <time>2022-04-24T07:24:00.000Z</time>
      </trkpt>
      <trkpt lat="45.616" lon="4.61204">
        <ele>676.79998779297</ele>
        <time>2022-04-24T07:24:04.000Z</time>
      </trkpt>
      <trkpt lat="45.61606" lon="4.61191">
        <ele>677.20001220703</ele>
        <time>2022-04-24T07:24:08.000Z</time>
      </trkpt>
      <trkpt lat="45.61612" lon="4.61175">
        <ele>677.20001220703</ele>
        <time>2022-04-24T07:24:13.000Z</time>
      </trkpt>
      <trkpt lat="45.61612" lon="4.61172">
        <ele>677.20001220703</ele>
        <time>2022-04-24T07:24:14.000Z</time>
      </trkpt>
      <trkpt lat="45.61616" lon="4.61164">
        <ele>677.20001220703</ele>
        <time>2022-04-24T07:24:17.000Z</time>
      </trkpt>
      <trkpt lat="45.61618" lon="4.61146">
        <ele>678.59997558594</ele>
        <time>2022-04-24T07:24:23.000Z</time>
      </trkpt>
      <trkpt lat="45.61624" lon="4.61126">
        <ele>679.20001220703</ele>
        <time>2022-04-24T07:24:29.000Z</time>
      </trkpt>
      <trkpt lat="45.6163" lon="4.6111">
        <ele>679.40002441406</ele>
        <time>2022-04-24T07:24:35.000Z</time>
      </trkpt>
      <trkpt lat="45.61638" lon="4.61097">
        <ele>679.79998779297</ele>
        <time>2022-04-24T07:24:40.000Z</time>
      </trkpt>
      <trkpt lat="45.61647" lon="4.61083">
        <ele>680.59997558594</ele>
        <time>2022-04-24T07:24:44.000Z</time>
      </trkpt>
      <trkpt lat="45.61655" lon="4.61072">
        <ele>681.40002441406</ele>
        <time>2022-04-24T07:24:49.000Z</time>
      </trkpt>
      <trkpt lat="45.61656" lon="4.6107">
        <ele>681.79998779297</ele>
        <time>2022-04-24T07:24:53.000Z</time>
      </trkpt>
      <trkpt lat="45.61662" lon="4.61065">
        <ele>681.79998779297</ele>
        <time>2022-04-24T07:24:59.000Z</time>
      </trkpt>
      <trkpt lat="45.61667" lon="4.61061">
        <ele>681.79998779297</ele>
        <time>2022-04-24T07:25:03.000Z</time>
      </trkpt>
      <trkpt lat="45.61669" lon="4.6106">
        <ele>682</ele>
        <time>2022-04-24T07:25:04.000Z</time>
      </trkpt>
      <trkpt lat="45.61681" lon="4.6105">
        <ele>681.40002441406</ele>
        <time>2022-04-24T07:25:09.000Z</time>
      </trkpt>
      <trkpt lat="45.61685" lon="4.61046">
        <ele>681.40002441406</ele>
        <time>2022-04-24T07:25:11.000Z</time>
      </trkpt>
      <trkpt lat="45.61694" lon="4.61038">
        <ele>682.40002441406</ele>
        <time>2022-04-24T07:25:15.000Z</time>
      </trkpt>
      <trkpt lat="45.61696" lon="4.61036">
        <ele>682.59997558594</ele>
        <time>2022-04-24T07:25:16.000Z</time>
      </trkpt>
      <trkpt lat="45.61707" lon="4.61026">
        <ele>683</ele>
        <time>2022-04-24T07:25:21.000Z</time>
      </trkpt>
      <trkpt lat="45.61709" lon="4.61024">
        <ele>683</ele>
        <time>2022-04-24T07:25:22.000Z</time>
      </trkpt>
      <trkpt lat="45.61716" lon="4.61018">
        <ele>683</ele>
        <time>2022-04-24T07:25:25.000Z</time>
      </trkpt>
      <trkpt lat="45.61721" lon="4.61014">
        <ele>683.59997558594</ele>
        <time>2022-04-24T07:25:28.000Z</time>
      </trkpt>
      <trkpt lat="45.61721" lon="4.61014">
        <ele>683.59997558594</ele>
        <time>2022-04-24T07:25:32.000Z</time>
      </trkpt>
      <trkpt lat="45.61721" lon="4.61014">
        <ele>683.59997558594</ele>
        <time>2022-04-24T07:25:36.000Z</time>
      </trkpt>
      <trkpt lat="45.61721" lon="4.61014">
        <ele>683.59997558594</ele>
        <time>2022-04-24T07:25:42.000Z</time>
      </trkpt>
      <trkpt lat="45.6174" lon="4.61016">
        <ele>680.40002441406</ele>
        <time>2022-04-24T07:25:46.000Z</time>
      </trkpt>
      <trkpt lat="45.61754" lon="4.61018">
        <ele>678.20001220703</ele>
        <time>2022-04-24T07:25:53.000Z</time>
      </trkpt>
      <trkpt lat="45.61764" lon="4.61019">
        <ele>676.20001220703</ele>
        <time>2022-04-24T07:25:58.000Z</time>
      </trkpt>
      <trkpt lat="45.61771" lon="4.61021">
        <ele>674.79998779297</ele>
        <time>2022-04-24T07:26:02.000Z</time>
      </trkpt>
      <trkpt lat="45.61773" lon="4.61021">
        <ele>674.59997558594</ele>
        <time>2022-04-24T07:26:03.000Z</time>
      </trkpt>
      <trkpt lat="45.61787" lon="4.61022">
        <ele>673.59997558594</ele>
        <time>2022-04-24T07:26:09.000Z</time>
      </trkpt>
      <trkpt lat="45.61797" lon="4.61023">
        <ele>672.79998779297</ele>
        <time>2022-04-24T07:26:13.000Z</time>
      </trkpt>
      <trkpt lat="45.61808" lon="4.61024">
        <ele>671.59997558594</ele>
        <time>2022-04-24T07:26:18.000Z</time>
      </trkpt>
      <trkpt lat="45.6182" lon="4.61024">
        <ele>670.40002441406</ele>
        <time>2022-04-24T07:26:22.000Z</time>
      </trkpt>
      <trkpt lat="45.61836" lon="4.61021">
        <ele>669.59997558594</ele>
        <time>2022-04-24T07:26:28.000Z</time>
      </trkpt>
      <trkpt lat="45.61852" lon="4.61014">
        <ele>669.59997558594</ele>
        <time>2022-04-24T07:26:31.000Z</time>
      </trkpt>
      <trkpt lat="45.61857" lon="4.61011">
        <ele>669.79998779297</ele>
        <time>2022-04-24T07:26:32.000Z</time>
      </trkpt>
      <trkpt lat="45.61874" lon="4.61001">
        <ele>671.59997558594</ele>
        <time>2022-04-24T07:26:36.000Z</time>
      </trkpt>
      <trkpt lat="45.61882" lon="4.60998">
        <ele>672.40002441406</ele>
        <time>2022-04-24T07:26:40.000Z</time>
      </trkpt>
      <trkpt lat="45.61892" lon="4.60994">
        <ele>673</ele>
        <time>2022-04-24T07:26:46.000Z</time>
      </trkpt>
      <trkpt lat="45.61902" lon="4.6099">
        <ele>674</ele>
        <time>2022-04-24T07:26:51.000Z</time>
      </trkpt>
      <trkpt lat="45.61904" lon="4.60989">
        <ele>674</ele>
        <time>2022-04-24T07:26:52.000Z</time>
      </trkpt>
      <trkpt lat="45.61911" lon="4.60987">
        <ele>674.20001220703</ele>
        <time>2022-04-24T07:26:55.000Z</time>
      </trkpt>
      <trkpt lat="45.61915" lon="4.60986">
        <ele>674.40002441406</ele>
        <time>2022-04-24T07:26:57.000Z</time>
      </trkpt>
      <trkpt lat="45.6192" lon="4.60984">
        <ele>674.59997558594</ele>
        <time>2022-04-24T07:27:01.000Z</time>
      </trkpt>
      <trkpt lat="45.6192" lon="4.60984">
        <ele>674.59997558594</ele>
        <time>2022-04-24T07:27:03.000Z</time>
      </trkpt>
      <trkpt lat="45.6192" lon="4.60984">
        <ele>674.59997558594</ele>
        <time>2022-04-24T07:27:04.000Z</time>
      </trkpt>
      <trkpt lat="45.6192" lon="4.60984">
        <ele>674.59997558594</ele>
        <time>2022-04-24T07:27:08.000Z</time>
      </trkpt>
      <trkpt lat="45.6192" lon="4.60984">
        <ele>674.59997558594</ele>
        <time>2022-04-24T07:27:12.000Z</time>
      </trkpt>
      <trkpt lat="45.6192" lon="4.60984">
        <ele>674.59997558594</ele>
        <time>2022-04-24T07:27:17.000Z</time>
      </trkpt>
      <trkpt lat="45.6192" lon="4.60984">
        <ele>674.59997558594</ele>
        <time>2022-04-24T07:27:23.000Z</time>
      </trkpt>
      <trkpt lat="45.6192" lon="4.60984">
        <ele>674.59997558594</ele>
        <time>2022-04-24T07:27:29.000Z</time>
      </trkpt>
      <trkpt lat="45.6192" lon="4.60984">
        <ele>674.59997558594</ele>
        <time>2022-04-24T07:27:30.000Z</time>
      </trkpt>
      <trkpt lat="45.6192" lon="4.60984">
        <ele>674.59997558594</ele>
        <time>2022-04-24T07:27:33.000Z</time>
      </trkpt>
      <trkpt lat="45.6192" lon="4.60984">
        <ele>674.59997558594</ele>
        <time>2022-04-24T07:27:38.000Z</time>
      </trkpt>
      <trkpt lat="45.6192" lon="4.60984">
        <ele>674.59997558594</ele>
        <time>2022-04-24T07:27:42.000Z</time>
      </trkpt>
      <trkpt lat="45.61919" lon="4.60984">
        <ele>674.40002441406</ele>
        <time>2022-04-24T07:27:46.000Z</time>
      </trkpt>
      <trkpt lat="45.61916" lon="4.60985">
        <ele>674.40002441406</ele>
        <time>2022-04-24T07:28:07.000Z</time>
      </trkpt>
      <trkpt lat="45.61911" lon="4.60987">
        <ele>674.40002441406</ele>
        <time>2022-04-24T07:28:11.000Z</time>
      </trkpt>
      <trkpt lat="45.6191" lon="4.60987">
        <ele>674.20001220703</ele>
        <time>2022-04-24T07:28:12.000Z</time>
      </trkpt>
      <trkpt lat="45.61908" lon="4.60988">
        <ele>674.20001220703</ele>
        <time>2022-04-24T07:28:14.000Z</time>
      </trkpt>
      <trkpt lat="45.61907" lon="4.60988">
        <ele>674.20001220703</ele>
        <time>2022-04-24T07:28:15.000Z</time>
      </trkpt>
      <trkpt lat="45.61904" lon="4.60989">
        <ele>674</ele>
        <time>2022-04-24T07:28:17.000Z</time>
      </trkpt>
      <trkpt lat="45.61901" lon="4.6099">
        <ele>673.79998779297</ele>
        <time>2022-04-24T07:28:20.000Z</time>
      </trkpt>
      <trkpt lat="45.61896" lon="4.60992">
        <ele>673.40002441406</ele>
        <time>2022-04-24T07:28:25.000Z</time>
      </trkpt>
      <trkpt lat="45.61891" lon="4.60994">
        <ele>673</ele>
        <time>2022-04-24T07:28:30.000Z</time>
      </trkpt>
      <trkpt lat="45.61886" lon="4.60996">
        <ele>672.79998779297</ele>
        <time>2022-04-24T07:28:35.000Z</time>
      </trkpt>
      <trkpt lat="45.61883" lon="4.60998">
        <ele>672.59997558594</ele>
        <time>2022-04-24T07:28:37.000Z</time>
      </trkpt>
      <trkpt lat="45.61911" lon="4.60859">
        <ele>726.79998779297</ele>
        <time>2022-04-24T07:28:39.000Z</time>
      </trkpt>
      <trkpt lat="45.61909" lon="4.6086">
        <ele>726.59997558594</ele>
        <time>2022-04-24T07:28:41.000Z</time>
      </trkpt>
      <trkpt lat="45.61906" lon="4.60859">
        <ele>727</ele>
        <time>2022-04-24T07:28:44.000Z</time>
      </trkpt>
      <trkpt lat="45.61895" lon="4.60855">
        <ele>728.79998779297</ele>
        <time>2022-04-24T07:28:50.000Z</time>
      </trkpt>
      <trkpt lat="45.61882" lon="4.60855">
        <ele>730.79998779297</ele>
        <time>2022-04-24T07:28:55.000Z</time>
      </trkpt>
      <trkpt lat="45.61873" lon="4.60857">
        <ele>731</ele>
        <time>2022-04-24T07:29:00.000Z</time>
      </trkpt>
      <trkpt lat="45.61868" lon="4.60857">
        <ele>731.40002441406</ele>
        <time>2022-04-24T07:29:05.000Z</time>
      </trkpt>
      <trkpt lat="45.61845" lon="4.6086">
        <ele>733.79998779297</ele>
        <time>2022-04-24T07:30:21.000Z</time>
      </trkpt>
      <trkpt lat="45.61843" lon="4.6086">
        <ele>734.20001220703</ele>
        <time>2022-04-24T07:30:22.000Z</time>
      </trkpt>
      <trkpt lat="45.61841" lon="4.6086">
        <ele>734.59997558594</ele>
        <time>2022-04-24T07:30:23.000Z</time>
      </trkpt>
      <trkpt lat="45.61839" lon="4.60861">
        <ele>734.59997558594</ele>
        <time>2022-04-24T07:30:24.000Z</time>
      </trkpt>
      <trkpt lat="45.6183" lon="4.60861">
        <ele>734.40002441406</ele>
        <time>2022-04-24T07:30:29.000Z</time>
      </trkpt>
      <trkpt lat="45.61822" lon="4.60861">
        <ele>733.79998779297</ele>
        <time>2022-04-24T07:30:35.000Z</time>
      </trkpt>
      <trkpt lat="45.61815" lon="4.60866">
        <ele>731.40002441406</ele>
        <time>2022-04-24T07:30:36.000Z</time>
      </trkpt>
      <trkpt lat="45.61809" lon="4.60858">
        <ele>734</ele>
        <time>2022-04-24T07:30:41.000Z</time>
      </trkpt>
      <trkpt lat="45.61807" lon="4.60854">
        <ele>735</ele>
        <time>2022-04-24T07:30:45.000Z</time>
      </trkpt>
      <trkpt lat="45.61807" lon="4.60854">
        <ele>735</ele>
        <time>2022-04-24T07:30:46.000Z</time>
      </trkpt>
      <trkpt lat="45.61794" lon="4.60837">
        <ele>738.79998779297</ele>
        <time>2022-04-24T07:31:49.000Z</time>
      </trkpt>
      <trkpt lat="45.61791" lon="4.60832">
        <ele>739.79998779297</ele>
        <time>2022-04-24T07:31:51.000Z</time>
      </trkpt>
      <trkpt lat="45.61787" lon="4.60826">
        <ele>741.20001220703</ele>
        <time>2022-04-24T07:31:53.000Z</time>
      </trkpt>
      <trkpt lat="45.61782" lon="4.60819">
        <ele>742.79998779297</ele>
        <time>2022-04-24T07:31:56.000Z</time>
      </trkpt>
      <trkpt lat="45.61777" lon="4.60805">
        <ele>746.20001220703</ele>
        <time>2022-04-24T07:32:00.000Z</time>
      </trkpt>
      <trkpt lat="45.61777" lon="4.60802">
        <ele>746.79998779297</ele>
        <time>2022-04-24T07:32:01.000Z</time>
      </trkpt>
      <trkpt lat="45.61779" lon="4.60787">
        <ele>750.40002441406</ele>
        <time>2022-04-24T07:32:06.000Z</time>
      </trkpt>
      <trkpt lat="45.61781" lon="4.60774">
        <ele>753.40002441406</ele>
        <time>2022-04-24T07:32:11.000Z</time>
      </trkpt>
      <trkpt lat="45.61782" lon="4.60769">
        <ele>754.59997558594</ele>
        <time>2022-04-24T07:32:14.000Z</time>
      </trkpt>
      <trkpt lat="45.61783" lon="4.60763">
        <ele>756.20001220703</ele>
        <time>2022-04-24T07:32:18.000Z</time>
      </trkpt>
      <trkpt lat="45.61783" lon="4.60763">
        <ele>756.20001220703</ele>
        <time>2022-04-24T07:35:03.000Z</time>
      </trkpt>
      <trkpt lat="45.61777" lon="4.60755">
        <ele>757.40002441406</ele>
        <time>2022-04-24T07:35:04.000Z</time>
      </trkpt>
      <trkpt lat="45.61777" lon="4.60754">
        <ele>757.40002441406</ele>
        <time>2022-04-24T07:35:05.000Z</time>
      </trkpt>
      <trkpt lat="45.61763" lon="4.60752">
        <ele>757</ele>
        <time>2022-04-24T07:35:08.000Z</time>
      </trkpt>
      <trkpt lat="45.61748" lon="4.60749">
        <ele>756.59997558594</ele>
        <time>2022-04-24T07:35:11.000Z</time>
      </trkpt>
      <trkpt lat="45.61743" lon="4.60749">
        <ele>756.40002441406</ele>
        <time>2022-04-24T07:35:12.000Z</time>
      </trkpt>
      <trkpt lat="45.61739" lon="4.60748">
        <ele>756.20001220703</ele>
        <time>2022-04-24T07:35:15.000Z</time>
      </trkpt>
      <trkpt lat="45.61738" lon="4.60748">
        <ele>756.20001220703</ele>
        <time>2022-04-24T07:35:17.000Z</time>
      </trkpt>
      <trkpt lat="45.61732" lon="4.60751">
        <ele>755</ele>
        <time>2022-04-24T07:35:19.000Z</time>
      </trkpt>
      <trkpt lat="45.6172" lon="4.60757">
        <ele>752.40002441406</ele>
        <time>2022-04-24T07:35:22.000Z</time>
      </trkpt>
      <trkpt lat="45.61718" lon="4.60758">
        <ele>751.59997558594</ele>
        <time>2022-04-24T07:35:23.000Z</time>
      </trkpt>
      <trkpt lat="45.61714" lon="4.6076">
        <ele>750.59997558594</ele>
        <time>2022-04-24T07:35:25.000Z</time>
      </trkpt>
      <trkpt lat="45.61711" lon="4.60761">
        <ele>749.59997558594</ele>
        <time>2022-04-24T07:35:27.000Z</time>
      </trkpt>
      <trkpt lat="45.61703" lon="4.60764">
        <ele>748</ele>
        <time>2022-04-24T07:35:30.000Z</time>
      </trkpt>
      <trkpt lat="45.61693" lon="4.60767">
        <ele>746</ele>
        <time>2022-04-24T07:35:34.000Z</time>
      </trkpt>
      <trkpt lat="45.61683" lon="4.60769">
        <ele>744.40002441406</ele>
        <time>2022-04-24T07:35:36.000Z</time>
      </trkpt>
      <trkpt lat="45.6168" lon="4.60768">
        <ele>744.59997558594</ele>
        <time>2022-04-24T07:35:37.000Z</time>
      </trkpt>
      <trkpt lat="45.61676" lon="4.60767">
        <ele>744.59997558594</ele>
        <time>2022-04-24T07:35:38.000Z</time>
      </trkpt>
      <trkpt lat="45.61671" lon="4.60766">
        <ele>744.79998779297</ele>
        <time>2022-04-24T07:35:40.000Z</time>
      </trkpt>
      <trkpt lat="45.61658" lon="4.60762">
        <ele>744.79998779297</ele>
        <time>2022-04-24T07:35:42.000Z</time>
      </trkpt>
      <trkpt lat="45.61654" lon="4.60761">
        <ele>744.79998779297</ele>
        <time>2022-04-24T07:35:43.000Z</time>
      </trkpt>
      <trkpt lat="45.61643" lon="4.60755">
        <ele>745.59997558594</ele>
        <time>2022-04-24T07:35:47.000Z</time>
      </trkpt>
      <trkpt lat="45.6164" lon="4.60752">
        <ele>746</ele>
        <time>2022-04-24T07:35:50.000Z</time>
      </trkpt>
      <trkpt lat="45.61637" lon="4.60748">
        <ele>746.20001220703</ele>
        <time>2022-04-24T07:35:52.000Z</time>
      </trkpt>
      <trkpt lat="45.6163" lon="4.6074">
        <ele>746.79998779297</ele>
        <time>2022-04-24T07:35:57.000Z</time>
      </trkpt>
      <trkpt lat="45.61624" lon="4.60732">
        <ele>747.20001220703</ele>
        <time>2022-04-24T07:36:00.000Z</time>
      </trkpt>
      <trkpt lat="45.61619" lon="4.60726">
        <ele>747.59997558594</ele>
        <time>2022-04-24T07:36:02.000Z</time>
      </trkpt>
      <trkpt lat="45.61613" lon="4.60719">
        <ele>748</ele>
        <time>2022-04-24T07:36:05.000Z</time>
      </trkpt>
      <trkpt lat="45.61599" lon="4.60702">
        <ele>748.20001220703</ele>
        <time>2022-04-24T07:36:10.000Z</time>
      </trkpt>
      <trkpt lat="45.61598" lon="4.60701">
        <ele>748.20001220703</ele>
        <time>2022-04-24T07:36:11.000Z</time>
      </trkpt>
      <trkpt lat="45.61594" lon="4.60696">
        <ele>748.20001220703</ele>
        <time>2022-04-24T07:36:13.000Z</time>
      </trkpt>
      <trkpt lat="45.61586" lon="4.60686">
        <ele>748.40002441406</ele>
        <time>2022-04-24T07:36:16.000Z</time>
      </trkpt>
      <trkpt lat="45.61586" lon="4.60687">
        <ele>748.40002441406</ele>
        <time>2022-04-24T07:36:17.000Z</time>
      </trkpt>
      <trkpt lat="45.61582" lon="4.60681">
        <ele>748.59997558594</ele>
        <time>2022-04-24T07:36:21.000Z</time>
      </trkpt>
      <trkpt lat="45.61577" lon="4.60675">
        <ele>749.20001220703</ele>
        <time>2022-04-24T07:36:24.000Z</time>
      </trkpt>
      <trkpt lat="45.61575" lon="4.60673">
        <ele>749.20001220703</ele>
        <time>2022-04-24T07:36:26.000Z</time>
      </trkpt>
      <trkpt lat="45.61567" lon="4.60666">
        <ele>749.40002441406</ele>
        <time>2022-04-24T07:36:30.000Z</time>
      </trkpt>
      <trkpt lat="45.61562" lon="4.60662">
        <ele>749.59997558594</ele>
        <time>2022-04-24T07:36:33.000Z</time>
      </trkpt>
      <trkpt lat="45.61551" lon="4.60653">
        <ele>749.59997558594</ele>
        <time>2022-04-24T07:36:37.000Z</time>
      </trkpt>
      <trkpt lat="45.61542" lon="4.60645">
        <ele>749.59997558594</ele>
        <time>2022-04-24T07:36:41.000Z</time>
      </trkpt>
      <trkpt lat="45.61541" lon="4.60644">
        <ele>749.59997558594</ele>
        <time>2022-04-24T07:36:42.000Z</time>
      </trkpt>
      <trkpt lat="45.61535" lon="4.60639">
        <ele>749.59997558594</ele>
        <time>2022-04-24T07:36:44.000Z</time>
      </trkpt>
      <trkpt lat="45.61527" lon="4.60633">
        <ele>750</ele>
        <time>2022-04-24T07:36:46.000Z</time>
      </trkpt>
      <trkpt lat="45.61511" lon="4.60619">
        <ele>751</ele>
        <time>2022-04-24T07:36:52.000Z</time>
      </trkpt>
      <trkpt lat="45.61499" lon="4.60604">
        <ele>752.79998779297</ele>
        <time>2022-04-24T07:36:56.000Z</time>
      </trkpt>
      <trkpt lat="45.61495" lon="4.60599">
        <ele>753.59997558594</ele>
        <time>2022-04-24T07:36:58.000Z</time>
      </trkpt>
      <trkpt lat="45.61492" lon="4.60596">
        <ele>754</ele>
        <time>2022-04-24T07:36:59.000Z</time>
      </trkpt>
      <trkpt lat="45.61489" lon="4.60593">
        <ele>754.40002441406</ele>
        <time>2022-04-24T07:37:00.000Z</time>
      </trkpt>
      <trkpt lat="45.61484" lon="4.60586">
        <ele>755.40002441406</ele>
        <time>2022-04-24T07:37:02.000Z</time>
      </trkpt>
      <trkpt lat="45.61478" lon="4.60579">
        <ele>756</ele>
        <time>2022-04-24T07:37:05.000Z</time>
      </trkpt>
      <trkpt lat="45.61461" lon="4.60579">
        <ele>754.79998779297</ele>
        <time>2022-04-24T07:37:09.000Z</time>
      </trkpt>
      <trkpt lat="45.61445" lon="4.60582">
        <ele>753</ele>
        <time>2022-04-24T07:37:14.000Z</time>
      </trkpt>
      <trkpt lat="45.61439" lon="4.60583">
        <ele>753</ele>
        <time>2022-04-24T07:37:17.000Z</time>
      </trkpt>
      <trkpt lat="45.61429" lon="4.60584">
        <ele>753</ele>
        <time>2022-04-24T07:37:21.000Z</time>
      </trkpt>
      <trkpt lat="45.61421" lon="4.60584">
        <ele>753.59997558594</ele>
        <time>2022-04-24T07:37:24.000Z</time>
      </trkpt>
      <trkpt lat="45.61417" lon="4.60583">
        <ele>753.20001220703</ele>
        <time>2022-04-24T07:37:26.000Z</time>
      </trkpt>
      <trkpt lat="45.61405" lon="4.60582">
        <ele>752.59997558594</ele>
        <time>2022-04-24T07:37:30.000Z</time>
      </trkpt>
      <trkpt lat="45.61391" lon="4.60581">
        <ele>751.59997558594</ele>
        <time>2022-04-24T07:37:33.000Z</time>
      </trkpt>
      <trkpt lat="45.61383" lon="4.6058">
        <ele>750.59997558594</ele>
        <time>2022-04-24T07:37:35.000Z</time>
      </trkpt>
      <trkpt lat="45.61373" lon="4.60579">
        <ele>749.59997558594</ele>
        <time>2022-04-24T07:37:37.000Z</time>
      </trkpt>
      <trkpt lat="45.61369" lon="4.60579">
        <ele>749.40002441406</ele>
        <time>2022-04-24T07:37:38.000Z</time>
      </trkpt>
      <trkpt lat="45.61363" lon="4.60578">
        <ele>748.59997558594</ele>
        <time>2022-04-24T07:37:40.000Z</time>
      </trkpt>
      <trkpt lat="45.61353" lon="4.60574">
        <ele>748.20001220703</ele>
        <time>2022-04-24T07:37:41.000Z</time>
      </trkpt>
      <trkpt lat="45.61348" lon="4.60571">
        <ele>747.79998779297</ele>
        <time>2022-04-24T07:37:42.000Z</time>
      </trkpt>
      <trkpt lat="45.61341" lon="4.60564">
        <ele>747.79998779297</ele>
        <time>2022-04-24T07:37:44.000Z</time>
      </trkpt>
      <trkpt lat="45.61328" lon="4.60551">
        <ele>747</ele>
        <time>2022-04-24T07:37:49.000Z</time>
      </trkpt>
      <trkpt lat="45.61321" lon="4.60542">
        <ele>746.40002441406</ele>
        <time>2022-04-24T07:37:53.000Z</time>
      </trkpt>
      <trkpt lat="45.61314" lon="4.60532">
        <ele>746</ele>
        <time>2022-04-24T07:37:57.000Z</time>
      </trkpt>
      <trkpt lat="45.61308" lon="4.60524">
        <ele>745.20001220703</ele>
        <time>2022-04-24T07:37:59.000Z</time>
      </trkpt>
      <trkpt lat="45.61301" lon="4.60513">
        <ele>743.40002441406</ele>
        <time>2022-04-24T07:38:01.000Z</time>
      </trkpt>
      <trkpt lat="45.61293" lon="4.60492">
        <ele>740.79998779297</ele>
        <time>2022-04-24T07:38:04.000Z</time>
      </trkpt>
      <trkpt lat="45.61293" lon="4.60492">
        <ele>740.79998779297</ele>
        <time>2022-04-24T07:38:05.000Z</time>
      </trkpt>
      <trkpt lat="45.6129" lon="4.60476">
        <ele>740</ele>
        <time>2022-04-24T07:38:06.000Z</time>
      </trkpt>
      <trkpt lat="45.61287" lon="4.60452">
        <ele>739.40002441406</ele>
        <time>2022-04-24T07:38:09.000Z</time>
      </trkpt>
      <trkpt lat="45.61287" lon="4.60444">
        <ele>739.59997558594</ele>
        <time>2022-04-24T07:38:10.000Z</time>
      </trkpt>
      <trkpt lat="45.61286" lon="4.60432">
        <ele>740.40002441406</ele>
        <time>2022-04-24T07:38:12.000Z</time>
      </trkpt>
      <trkpt lat="45.61286" lon="4.60417">
        <ele>741.20001220703</ele>
        <time>2022-04-24T07:38:15.000Z</time>
      </trkpt>
      <trkpt lat="45.61286" lon="4.60414">
        <ele>741.40002441406</ele>
        <time>2022-04-24T07:38:16.000Z</time>
      </trkpt>
      <trkpt lat="45.61285" lon="4.60401">
        <ele>742.20001220703</ele>
        <time>2022-04-24T07:38:18.000Z</time>
      </trkpt>
      <trkpt lat="45.61275" lon="4.60368">
        <ele>741.59997558594</ele>
        <time>2022-04-24T07:38:23.000Z</time>
      </trkpt>
      <trkpt lat="45.61266" lon="4.60358">
        <ele>740.20001220703</ele>
        <time>2022-04-24T07:38:25.000Z</time>
      </trkpt>
      <trkpt lat="45.61262" lon="4.60354">
        <ele>739.79998779297</ele>
        <time>2022-04-24T07:38:27.000Z</time>
      </trkpt>
      <trkpt lat="45.61252" lon="4.60341">
        <ele>739</ele>
        <time>2022-04-24T07:38:29.000Z</time>
      </trkpt>
      <trkpt lat="45.61246" lon="4.60332">
        <ele>739</ele>
        <time>2022-04-24T07:38:31.000Z</time>
      </trkpt>
      <trkpt lat="45.61233" lon="4.60314">
        <ele>739</ele>
        <time>2022-04-24T07:38:36.000Z</time>
      </trkpt>
      <trkpt lat="45.61221" lon="4.60298">
        <ele>739</ele>
        <time>2022-04-24T07:38:41.000Z</time>
      </trkpt>
      <trkpt lat="45.6121" lon="4.60282">
        <ele>739.59997558594</ele>
        <time>2022-04-24T07:38:45.000Z</time>
      </trkpt>
      <trkpt lat="45.61207" lon="4.60278">
        <ele>739.40002441406</ele>
        <time>2022-04-24T07:38:46.000Z</time>
      </trkpt>
      <trkpt lat="45.61204" lon="4.6027">
        <ele>739.59997558594</ele>
        <time>2022-04-24T07:38:48.000Z</time>
      </trkpt>
      <trkpt lat="45.61199" lon="4.6025">
        <ele>740.79998779297</ele>
        <time>2022-04-24T07:38:54.000Z</time>
      </trkpt>
      <trkpt lat="45.61193" lon="4.60226">
        <ele>742.40002441406</ele>
        <time>2022-04-24T07:39:01.000Z</time>
      </trkpt>
      <trkpt lat="45.61188" lon="4.60203">
        <ele>743.40002441406</ele>
        <time>2022-04-24T07:39:08.000Z</time>
      </trkpt>
      <trkpt lat="45.61185" lon="4.60178">
        <ele>745</ele>
        <time>2022-04-24T07:39:15.000Z</time>
      </trkpt>
      <trkpt lat="45.61182" lon="4.60155">
        <ele>747.59997558594</ele>
        <time>2022-04-24T07:39:22.000Z</time>
      </trkpt>
      <trkpt lat="45.61179" lon="4.60131">
        <ele>750.20001220703</ele>
        <time>2022-04-24T07:39:29.000Z</time>
      </trkpt>
      <trkpt lat="45.61177" lon="4.60117">
        <ele>751.59997558594</ele>
        <time>2022-04-24T07:39:34.000Z</time>
      </trkpt>
      <trkpt lat="45.61176" lon="4.60098">
        <ele>754.20001220703</ele>
        <time>2022-04-24T07:39:40.000Z</time>
      </trkpt>
      <trkpt lat="45.61175" lon="4.60078">
        <ele>756.59997558594</ele>
        <time>2022-04-24T07:39:46.000Z</time>
      </trkpt>
      <trkpt lat="45.6117" lon="4.60062">
        <ele>757.40002441406</ele>
        <time>2022-04-24T07:39:51.000Z</time>
      </trkpt>
      <trkpt lat="45.6116" lon="4.60056">
        <ele>757.79998779297</ele>
        <time>2022-04-24T07:39:56.000Z</time>
      </trkpt>
      <trkpt lat="45.61153" lon="4.60053">
        <ele>758</ele>
        <time>2022-04-24T07:40:01.000Z</time>
      </trkpt>
      <trkpt lat="45.61139" lon="4.60045">
        <ele>758.40002441406</ele>
        <time>2022-04-24T07:40:07.000Z</time>
      </trkpt>
      <trkpt lat="45.61133" lon="4.60043">
        <ele>758.40002441406</ele>
        <time>2022-04-24T07:40:10.000Z</time>
      </trkpt>
      <trkpt lat="45.61129" lon="4.6004">
        <ele>758.59997558594</ele>
        <time>2022-04-24T07:40:12.000Z</time>
      </trkpt>
      <trkpt lat="45.61116" lon="4.60034">
        <ele>758.59997558594</ele>
        <time>2022-04-24T07:40:17.000Z</time>
      </trkpt>
      <trkpt lat="45.61103" lon="4.60027">
        <ele>758.79998779297</ele>
        <time>2022-04-24T07:40:23.000Z</time>
      </trkpt>
      <trkpt lat="45.61093" lon="4.60019">
        <ele>759.20001220703</ele>
        <time>2022-04-24T07:40:28.000Z</time>
      </trkpt>
      <trkpt lat="45.61077" lon="4.60003">
        <ele>760.20001220703</ele>
        <time>2022-04-24T07:40:35.000Z</time>
      </trkpt>
      <trkpt lat="45.61062" lon="4.59988">
        <ele>761.40002441406</ele>
        <time>2022-04-24T07:40:42.000Z</time>
      </trkpt>
      <trkpt lat="45.61052" lon="4.59978">
        <ele>761.40002441406</ele>
        <time>2022-04-24T07:40:47.000Z</time>
      </trkpt>
      <trkpt lat="45.61045" lon="4.59968">
        <ele>761</ele>
        <time>2022-04-24T07:40:51.000Z</time>
      </trkpt>
      <trkpt lat="45.61029" lon="4.59942">
        <ele>759.40002441406</ele>
        <time>2022-04-24T07:40:56.000Z</time>
      </trkpt>
      <trkpt lat="45.61021" lon="4.59929">
        <ele>757.20001220703</ele>
        <time>2022-04-24T07:40:59.000Z</time>
      </trkpt>
      <trkpt lat="45.61014" lon="4.59911">
        <ele>755</ele>
        <time>2022-04-24T07:41:00.000Z</time>
      </trkpt>
      <trkpt lat="45.61014" lon="4.59911">
        <ele>755</ele>
        <time>2022-04-24T07:41:01.000Z</time>
      </trkpt>
      <trkpt lat="45.61013" lon="4.59877">
        <ele>754</ele>
        <time>2022-04-24T07:41:03.000Z</time>
      </trkpt>
      <trkpt lat="45.6102" lon="4.59833">
        <ele>754.20001220703</ele>
        <time>2022-04-24T07:41:08.000Z</time>
      </trkpt>
      <trkpt lat="45.61028" lon="4.59797">
        <ele>758</ele>
        <time>2022-04-24T07:41:12.000Z</time>
      </trkpt>
      <trkpt lat="45.61024" lon="4.59782">
        <ele>759.40002441406</ele>
        <time>2022-04-24T07:41:16.000Z</time>
      </trkpt>
      <trkpt lat="45.61014" lon="4.59777">
        <ele>759.40002441406</ele>
        <time>2022-04-24T07:41:21.000Z</time>
      </trkpt>
      <trkpt lat="45.61" lon="4.59773">
        <ele>759.20001220703</ele>
        <time>2022-04-24T07:41:26.000Z</time>
      </trkpt>
      <trkpt lat="45.60993" lon="4.59771">
        <ele>759.40002441406</ele>
        <time>2022-04-24T07:41:30.000Z</time>
      </trkpt>
      <trkpt lat="45.60982" lon="4.59762">
        <ele>760.59997558594</ele>
        <time>2022-04-24T07:41:36.000Z</time>
      </trkpt>
      <trkpt lat="45.60976" lon="4.59748">
        <ele>762.79998779297</ele>
        <time>2022-04-24T07:41:42.000Z</time>
      </trkpt>
      <trkpt lat="45.60968" lon="4.59727">
        <ele>764.59997558594</ele>
        <time>2022-04-24T07:41:49.000Z</time>
      </trkpt>
      <trkpt lat="45.60961" lon="4.59709">
        <ele>765</ele>
        <time>2022-04-24T07:41:55.000Z</time>
      </trkpt>
      <trkpt lat="45.6095" lon="4.59682">
        <ele>765.40002441406</ele>
        <time>2022-04-24T07:42:04.000Z</time>
      </trkpt>
      <trkpt lat="45.60942" lon="4.59664">
        <ele>765.79998779297</ele>
        <time>2022-04-24T07:42:10.000Z</time>
      </trkpt>
      <trkpt lat="45.60939" lon="4.59658">
        <ele>766</ele>
        <time>2022-04-24T07:42:12.000Z</time>
      </trkpt>
      <trkpt lat="45.60934" lon="4.59638">
        <ele>766.79998779297</ele>
        <time>2022-04-24T07:42:19.000Z</time>
      </trkpt>
      <trkpt lat="45.60931" lon="4.59632">
        <ele>767</ele>
        <time>2022-04-24T07:42:22.000Z</time>
      </trkpt>
      <trkpt lat="45.60928" lon="4.59627">
        <ele>767</ele>
        <time>2022-04-24T07:42:25.000Z</time>
      </trkpt>
      <trkpt lat="45.60915" lon="4.59616">
        <ele>766.59997558594</ele>
        <time>2022-04-24T07:42:31.000Z</time>
      </trkpt>
      <trkpt lat="45.60901" lon="4.59602">
        <ele>766.59997558594</ele>
        <time>2022-04-24T07:42:37.000Z</time>
      </trkpt>
      <trkpt lat="45.6089" lon="4.59582">
        <ele>767</ele>
        <time>2022-04-24T07:42:44.000Z</time>
      </trkpt>
      <trkpt lat="45.60888" lon="4.59577">
        <ele>766.79998779297</ele>
        <time>2022-04-24T07:42:46.000Z</time>
      </trkpt>
      <trkpt lat="45.60876" lon="4.5955">
        <ele>766</ele>
        <time>2022-04-24T07:42:54.000Z</time>
      </trkpt>
      <trkpt lat="45.60872" lon="4.5953">
        <ele>765.79998779297</ele>
        <time>2022-04-24T07:42:59.000Z</time>
      </trkpt>
      <trkpt lat="45.60869" lon="4.5951">
        <ele>765.59997558594</ele>
        <time>2022-04-24T07:43:05.000Z</time>
      </trkpt>
      <trkpt lat="45.60867" lon="4.59489">
        <ele>764.79998779297</ele>
        <time>2022-04-24T07:43:12.000Z</time>
      </trkpt>
      <trkpt lat="45.60867" lon="4.59459">
        <ele>764.40002441406</ele>
        <time>2022-04-24T07:43:20.000Z</time>
      </trkpt>
      <trkpt lat="45.60868" lon="4.59435">
        <ele>764.59997558594</ele>
        <time>2022-04-24T07:43:26.000Z</time>
      </trkpt>
      <trkpt lat="45.60874" lon="4.59405">
        <ele>765.20001220703</ele>
        <time>2022-04-24T07:43:33.000Z</time>
      </trkpt>
      <trkpt lat="45.60882" lon="4.5937">
        <ele>766</ele>
        <time>2022-04-24T07:43:40.000Z</time>
      </trkpt>
      <trkpt lat="45.60886" lon="4.59335">
        <ele>766.40002441406</ele>
        <time>2022-04-24T07:43:47.000Z</time>
      </trkpt>
      <trkpt lat="45.60889" lon="4.59302">
        <ele>766.79998779297</ele>
        <time>2022-04-24T07:43:55.000Z</time>
      </trkpt>
      <trkpt lat="45.60891" lon="4.59277">
        <ele>767</ele>
        <time>2022-04-24T07:44:02.000Z</time>
      </trkpt>
      <trkpt lat="45.60892" lon="4.59256">
        <ele>767</ele>
        <time>2022-04-24T07:44:08.000Z</time>
      </trkpt>
      <trkpt lat="45.60893" lon="4.5924">
        <ele>767.59997558594</ele>
        <time>2022-04-24T07:44:13.000Z</time>
      </trkpt>
      <trkpt lat="45.60894" lon="4.5923">
        <ele>768</ele>
        <time>2022-04-24T07:44:16.000Z</time>
      </trkpt>
      <trkpt lat="45.60895" lon="4.5921">
        <ele>769.20001220703</ele>
        <time>2022-04-24T07:44:22.000Z</time>
      </trkpt>
      <trkpt lat="45.60896" lon="4.592">
        <ele>770</ele>
        <time>2022-04-24T07:44:25.000Z</time>
      </trkpt>
      <trkpt lat="45.60898" lon="4.59178">
        <ele>770</ele>
        <time>2022-04-24T07:44:32.000Z</time>
      </trkpt>
      <trkpt lat="45.60899" lon="4.59162">
        <ele>769.79998779297</ele>
        <time>2022-04-24T07:44:37.000Z</time>
      </trkpt>
      <trkpt lat="45.60894" lon="4.59141">
        <ele>769.20001220703</ele>
        <time>2022-04-24T07:44:43.000Z</time>
      </trkpt>
      <trkpt lat="45.60883" lon="4.59107">
        <ele>769.40002441406</ele>
        <time>2022-04-24T07:44:51.000Z</time>
      </trkpt>
      <trkpt lat="45.60869" lon="4.59068">
        <ele>767.79998779297</ele>
        <time>2022-04-24T07:44:59.000Z</time>
      </trkpt>
      <trkpt lat="45.60858" lon="4.5904">
        <ele>766.59997558594</ele>
        <time>2022-04-24T07:45:04.000Z</time>
      </trkpt>
      <trkpt lat="45.60841" lon="4.59016">
        <ele>765.40002441406</ele>
        <time>2022-04-24T07:45:08.000Z</time>
      </trkpt>
      <trkpt lat="45.60831" lon="4.59004">
        <ele>764.59997558594</ele>
        <time>2022-04-24T07:45:10.000Z</time>
      </trkpt>
      <trkpt lat="45.60817" lon="4.58997">
        <ele>763.79998779297</ele>
        <time>2022-04-24T07:45:12.000Z</time>
      </trkpt>
      <trkpt lat="45.60802" lon="4.58994">
        <ele>763.40002441406</ele>
        <time>2022-04-24T07:45:14.000Z</time>
      </trkpt>
      <trkpt lat="45.60787" lon="4.58992">
        <ele>763</ele>
        <time>2022-04-24T07:45:16.000Z</time>
      </trkpt>
      <trkpt lat="45.60781" lon="4.58987">
        <ele>763.20001220703</ele>
        <time>2022-04-24T07:45:17.000Z</time>
      </trkpt>
      <trkpt lat="45.60775" lon="4.58982">
        <ele>763.59997558594</ele>
        <time>2022-04-24T07:45:18.000Z</time>
      </trkpt>
      <trkpt lat="45.60765" lon="4.58974">
        <ele>764.59997558594</ele>
        <time>2022-04-24T07:45:20.000Z</time>
      </trkpt>
      <trkpt lat="45.60754" lon="4.58965">
        <ele>765.59997558594</ele>
        <time>2022-04-24T07:45:24.000Z</time>
      </trkpt>
      <trkpt lat="45.6074" lon="4.5895">
        <ele>767.79998779297</ele>
        <time>2022-04-24T07:45:31.000Z</time>
      </trkpt>
      <trkpt lat="45.60726" lon="4.58935">
        <ele>769.79998779297</ele>
        <time>2022-04-24T07:45:38.000Z</time>
      </trkpt>
      <trkpt lat="45.60715" lon="4.58922">
        <ele>770.40002441406</ele>
        <time>2022-04-24T07:45:44.000Z</time>
      </trkpt>
      <trkpt lat="45.60697" lon="4.58898">
        <ele>772.20001220703</ele>
        <time>2022-04-24T07:45:54.000Z</time>
      </trkpt>
      <trkpt lat="45.60689" lon="4.5888">
        <ele>773.59997558594</ele>
        <time>2022-04-24T07:46:00.000Z</time>
      </trkpt>
      <trkpt lat="45.60678" lon="4.58854">
        <ele>775</ele>
        <time>2022-04-24T07:46:08.000Z</time>
      </trkpt>
      <trkpt lat="45.60669" lon="4.58832">
        <ele>776.20001220703</ele>
        <time>2022-04-24T07:46:15.000Z</time>
      </trkpt>
      <trkpt lat="45.60665" lon="4.58822">
        <ele>776.59997558594</ele>
        <time>2022-04-24T07:46:18.000Z</time>
      </trkpt>
      <trkpt lat="45.60657" lon="4.58801">
        <ele>777.59997558594</ele>
        <time>2022-04-24T07:46:25.000Z</time>
      </trkpt>
      <trkpt lat="45.60649" lon="4.58781">
        <ele>778.59997558594</ele>
        <time>2022-04-24T07:46:32.000Z</time>
      </trkpt>
      <trkpt lat="45.60646" lon="4.58776">
        <ele>778.79998779297</ele>
        <time>2022-04-24T07:46:36.000Z</time>
      </trkpt>
      <trkpt lat="45.6064" lon="4.5877">
        <ele>778.59997558594</ele>
        <time>2022-04-24T07:46:41.000Z</time>
      </trkpt>
      <trkpt lat="45.60623" lon="4.58753">
        <ele>778.59997558594</ele>
        <time>2022-04-24T07:46:49.000Z</time>
      </trkpt>
      <trkpt lat="45.6061" lon="4.58741">
        <ele>778</ele>
        <time>2022-04-24T07:46:55.000Z</time>
      </trkpt>
      <trkpt lat="45.60582" lon="4.58716">
        <ele>776.79998779297</ele>
        <time>2022-04-24T07:47:03.000Z</time>
      </trkpt>
      <trkpt lat="45.6056" lon="4.58696">
        <ele>776</ele>
        <time>2022-04-24T07:47:10.000Z</time>
      </trkpt>
      <trkpt lat="45.6054" lon="4.58678">
        <ele>774.59997558594</ele>
        <time>2022-04-24T07:47:16.000Z</time>
      </trkpt>
      <trkpt lat="45.60537" lon="4.58673">
        <ele>774.40002441406</ele>
        <time>2022-04-24T07:47:17.000Z</time>
      </trkpt>
      <trkpt lat="45.60525" lon="4.5865">
        <ele>773</ele>
        <time>2022-04-24T07:47:21.000Z</time>
      </trkpt>
      <trkpt lat="45.60521" lon="4.58638">
        <ele>772.40002441406</ele>
        <time>2022-04-24T07:47:23.000Z</time>
      </trkpt>
      <trkpt lat="45.60516" lon="4.58624">
        <ele>772</ele>
        <time>2022-04-24T07:47:25.000Z</time>
      </trkpt>
      <trkpt lat="45.60514" lon="4.58617">
        <ele>772</ele>
        <time>2022-04-24T07:47:26.000Z</time>
      </trkpt>
      <trkpt lat="45.60499" lon="4.58567">
        <ele>772</ele>
        <time>2022-04-24T07:47:33.000Z</time>
      </trkpt>
      <trkpt lat="45.60483" lon="4.58514">
        <ele>770.59997558594</ele>
        <time>2022-04-24T07:47:41.000Z</time>
      </trkpt>
      <trkpt lat="45.60474" lon="4.58485">
        <ele>770.20001220703</ele>
        <time>2022-04-24T07:47:46.000Z</time>
      </trkpt>
      <trkpt lat="45.6047" lon="4.58472">
        <ele>770</ele>
        <time>2022-04-24T07:47:48.000Z</time>
      </trkpt>
      <trkpt lat="45.60455" lon="4.58435">
        <ele>768.79998779297</ele>
        <time>2022-04-24T07:47:54.000Z</time>
      </trkpt>
      <trkpt lat="45.60424" lon="4.58371">
        <ele>765.59997558594</ele>
        <time>2022-04-24T07:48:04.000Z</time>
      </trkpt>
      <trkpt lat="45.60424" lon="4.58371">
        <ele>765.59997558594</ele>
        <time>2022-04-24T07:48:05.000Z</time>
      </trkpt>
      <trkpt lat="45.6042" lon="4.58352">
        <ele>765.79998779297</ele>
        <time>2022-04-24T07:48:07.000Z</time>
      </trkpt>
      <trkpt lat="45.60419" lon="4.58346">
        <ele>766</ele>
        <time>2022-04-24T07:48:08.000Z</time>
      </trkpt>
      <trkpt lat="45.6041" lon="4.58327">
        <ele>765.20001220703</ele>
        <time>2022-04-24T07:48:12.000Z</time>
      </trkpt>
      <trkpt lat="45.60391" lon="4.58289">
        <ele>762</ele>
        <time>2022-04-24T07:48:18.000Z</time>
      </trkpt>
      <trkpt lat="45.60389" lon="4.58283">
        <ele>761.59997558594</ele>
        <time>2022-04-24T07:48:19.000Z</time>
      </trkpt>
      <trkpt lat="45.60385" lon="4.5827">
        <ele>761.59997558594</ele>
        <time>2022-04-24T07:48:21.000Z</time>
      </trkpt>
      <trkpt lat="45.60378" lon="4.58238">
        <ele>762.59997558594</ele>
        <time>2022-04-24T07:48:26.000Z</time>
      </trkpt>
      <trkpt lat="45.60371" lon="4.5821">
        <ele>763</ele>
        <time>2022-04-24T07:48:31.000Z</time>
      </trkpt>
      <trkpt lat="45.60368" lon="4.582">
        <ele>763.20001220703</ele>
        <time>2022-04-24T07:48:33.000Z</time>
      </trkpt>
      <trkpt lat="45.60363" lon="4.5818">
        <ele>763.40002441406</ele>
        <time>2022-04-24T07:48:37.000Z</time>
      </trkpt>
      <trkpt lat="45.6036" lon="4.58167">
        <ele>763.40002441406</ele>
        <time>2022-04-24T07:48:40.000Z</time>
      </trkpt>
      <trkpt lat="45.60354" lon="4.58129">
        <ele>763</ele>
        <time>2022-04-24T07:48:47.000Z</time>
      </trkpt>
      <trkpt lat="45.6034" lon="4.58084">
        <ele>763.40002441406</ele>
        <time>2022-04-24T07:48:54.000Z</time>
      </trkpt>
      <trkpt lat="45.60327" lon="4.58041">
        <ele>762.20001220703</ele>
        <time>2022-04-24T07:49:00.000Z</time>
      </trkpt>
      <trkpt lat="45.60324" lon="4.58034">
        <ele>762.20001220703</ele>
        <time>2022-04-24T07:49:01.000Z</time>
      </trkpt>
      <trkpt lat="45.60313" lon="4.57998">
        <ele>760.40002441406</ele>
        <time>2022-04-24T07:49:05.000Z</time>
      </trkpt>
      <trkpt lat="45.603" lon="4.5794">
        <ele>757.79998779297</ele>
        <time>2022-04-24T07:49:11.000Z</time>
      </trkpt>
      <trkpt lat="45.60298" lon="4.57931">
        <ele>757.40002441406</ele>
        <time>2022-04-24T07:49:12.000Z</time>
      </trkpt>
      <trkpt lat="45.60289" lon="4.57905">
        <ele>755.59997558594</ele>
        <time>2022-04-24T07:49:15.000Z</time>
      </trkpt>
      <trkpt lat="45.60268" lon="4.57854">
        <ele>753.59997558594</ele>
        <time>2022-04-24T07:49:21.000Z</time>
      </trkpt>
      <trkpt lat="45.60265" lon="4.57847">
        <ele>753.40002441406</ele>
        <time>2022-04-24T07:49:22.000Z</time>
      </trkpt>
      <trkpt lat="45.60259" lon="4.57834">
        <ele>753</ele>
        <time>2022-04-24T07:49:24.000Z</time>
      </trkpt>
      <trkpt lat="45.60252" lon="4.57816">
        <ele>752.40002441406</ele>
        <time>2022-04-24T07:49:27.000Z</time>
      </trkpt>
      <trkpt lat="45.60247" lon="4.57785">
        <ele>751.20001220703</ele>
        <time>2022-04-24T07:49:32.000Z</time>
      </trkpt>
      <trkpt lat="45.60246" lon="4.57764">
        <ele>751.79998779297</ele>
        <time>2022-04-24T07:49:36.000Z</time>
      </trkpt>
      <trkpt lat="45.60251" lon="4.57735">
        <ele>754.20001220703</ele>
        <time>2022-04-24T07:49:42.000Z</time>
      </trkpt>
      <trkpt lat="45.6025" lon="4.57728">
        <ele>754.20001220703</ele>
        <time>2022-04-24T07:49:43.000Z</time>
      </trkpt>
      <trkpt lat="45.60248" lon="4.57696">
        <ele>753.79998779297</ele>
        <time>2022-04-24T07:49:48.000Z</time>
      </trkpt>
      <trkpt lat="45.60246" lon="4.57649">
        <ele>752.20001220703</ele>
        <time>2022-04-24T07:49:54.000Z</time>
      </trkpt>
      <trkpt lat="45.60244" lon="4.57621">
        <ele>753.40002441406</ele>
        <time>2022-04-24T07:49:59.000Z</time>
      </trkpt>
      <trkpt lat="45.60239" lon="4.57603">
        <ele>754</ele>
        <time>2022-04-24T07:50:04.000Z</time>
      </trkpt>
      <trkpt lat="45.60229" lon="4.57571">
        <ele>755.59997558594</ele>
        <time>2022-04-24T07:50:12.000Z</time>
      </trkpt>
      <trkpt lat="45.6022" lon="4.57541">
        <ele>757.40002441406</ele>
        <time>2022-04-24T07:50:19.000Z</time>
      </trkpt>
      <trkpt lat="45.60211" lon="4.57509">
        <ele>761.59997558594</ele>
        <time>2022-04-24T07:50:26.000Z</time>
      </trkpt>
      <trkpt lat="45.60203" lon="4.57479">
        <ele>767.59997558594</ele>
        <time>2022-04-24T07:50:33.000Z</time>
      </trkpt>
      <trkpt lat="45.60197" lon="4.57444">
        <ele>768</ele>
        <time>2022-04-24T07:50:41.000Z</time>
      </trkpt>
      <trkpt lat="45.60197" lon="4.57408">
        <ele>767.59997558594</ele>
        <time>2022-04-24T07:50:49.000Z</time>
      </trkpt>
      <trkpt lat="45.60199" lon="4.57367">
        <ele>767.59997558594</ele>
        <time>2022-04-24T07:50:58.000Z</time>
      </trkpt>
      <trkpt lat="45.602" lon="4.57338">
        <ele>766.79998779297</ele>
        <time>2022-04-24T07:51:05.000Z</time>
      </trkpt>
      <trkpt lat="45.60202" lon="4.57304">
        <ele>765</ele>
        <time>2022-04-24T07:51:13.000Z</time>
      </trkpt>
      <trkpt lat="45.60204" lon="4.57281">
        <ele>764.79998779297</ele>
        <time>2022-04-24T07:51:19.000Z</time>
      </trkpt>
      <trkpt lat="45.6021" lon="4.57249">
        <ele>766.79998779297</ele>
        <time>2022-04-24T07:51:27.000Z</time>
      </trkpt>
      <trkpt lat="45.60221" lon="4.57217">
        <ele>767.40002441406</ele>
        <time>2022-04-24T07:51:34.000Z</time>
      </trkpt>
      <trkpt lat="45.60233" lon="4.57189">
        <ele>765.40002441406</ele>
        <time>2022-04-24T07:51:41.000Z</time>
      </trkpt>
      <trkpt lat="45.60236" lon="4.57184">
        <ele>765</ele>
        <time>2022-04-24T07:51:42.000Z</time>
      </trkpt>
      <trkpt lat="45.60251" lon="4.5715">
        <ele>762.59997558594</ele>
        <time>2022-04-24T07:51:48.000Z</time>
      </trkpt>
      <trkpt lat="45.6027" lon="4.57121">
        <ele>763.40002441406</ele>
        <time>2022-04-24T07:51:54.000Z</time>
      </trkpt>
      <trkpt lat="45.60276" lon="4.57111">
        <ele>763.20001220703</ele>
        <time>2022-04-24T07:51:56.000Z</time>
      </trkpt>
      <trkpt lat="45.60296" lon="4.57078">
        <ele>763.79998779297</ele>
        <time>2022-04-24T07:52:02.000Z</time>
      </trkpt>
      <trkpt lat="45.60306" lon="4.57056">
        <ele>766.20001220703</ele>
        <time>2022-04-24T07:52:07.000Z</time>
      </trkpt>
      <trkpt lat="45.60314" lon="4.57033">
        <ele>767.79998779297</ele>
        <time>2022-04-24T07:52:14.000Z</time>
      </trkpt>
      <trkpt lat="45.60321" lon="4.57012">
        <ele>768.40002441406</ele>
        <time>2022-04-24T07:52:20.000Z</time>
      </trkpt>
      <trkpt lat="45.60334" lon="4.56998">
        <ele>771</ele>
        <time>2022-04-24T07:52:26.000Z</time>
      </trkpt>
      <trkpt lat="45.60343" lon="4.56988">
        <ele>772.59997558594</ele>
        <time>2022-04-24T07:52:31.000Z</time>
      </trkpt>
      <trkpt lat="45.60353" lon="4.56974">
        <ele>773.59997558594</ele>
        <time>2022-04-24T07:52:37.000Z</time>
      </trkpt>
      <trkpt lat="45.60362" lon="4.56952">
        <ele>772.40002441406</ele>
        <time>2022-04-24T07:52:43.000Z</time>
      </trkpt>
      <trkpt lat="45.60372" lon="4.56926">
        <ele>771.40002441406</ele>
        <time>2022-04-24T07:52:48.000Z</time>
      </trkpt>
      <trkpt lat="45.60377" lon="4.56895">
        <ele>769.79998779297</ele>
        <time>2022-04-24T07:52:52.000Z</time>
      </trkpt>
      <trkpt lat="45.60379" lon="4.56887">
        <ele>769.40002441406</ele>
        <time>2022-04-24T07:52:53.000Z</time>
      </trkpt>
      <trkpt lat="45.60382" lon="4.56879">
        <ele>769.20001220703</ele>
        <time>2022-04-24T07:52:54.000Z</time>
      </trkpt>
      <trkpt lat="45.60388" lon="4.56857">
        <ele>767.20001220703</ele>
        <time>2022-04-24T07:52:57.000Z</time>
      </trkpt>
      <trkpt lat="45.6039" lon="4.56846">
        <ele>766.59997558594</ele>
        <time>2022-04-24T07:52:59.000Z</time>
      </trkpt>
      <trkpt lat="45.60389" lon="4.56841">
        <ele>766</ele>
        <time>2022-04-24T07:53:00.000Z</time>
      </trkpt>
      <trkpt lat="45.60387" lon="4.56831">
        <ele>764.59997558594</ele>
        <time>2022-04-24T07:53:03.000Z</time>
      </trkpt>
      <trkpt lat="45.60386" lon="4.56831">
        <ele>764.59997558594</ele>
        <time>2022-04-24T07:53:04.000Z</time>
      </trkpt>
      <trkpt lat="45.60386" lon="4.5683">
        <ele>764.40002441406</ele>
        <time>2022-04-24T07:53:09.000Z</time>
      </trkpt>
      <trkpt lat="45.60356" lon="4.56851">
        <ele>761.40002441406</ele>
        <time>2022-04-24T07:53:13.000Z</time>
      </trkpt>
      <trkpt lat="45.60351" lon="4.56855">
        <ele>760.59997558594</ele>
        <time>2022-04-24T07:53:14.000Z</time>
      </trkpt>
      <trkpt lat="45.60338" lon="4.56864">
        <ele>758.59997558594</ele>
        <time>2022-04-24T07:53:17.000Z</time>
      </trkpt>
      <trkpt lat="45.60335" lon="4.56868">
        <ele>758.40002441406</ele>
        <time>2022-04-24T07:53:18.000Z</time>
      </trkpt>
      <trkpt lat="45.60325" lon="4.56875">
        <ele>757</ele>
        <time>2022-04-24T07:53:21.000Z</time>
      </trkpt>
      <trkpt lat="45.6032" lon="4.56878">
        <ele>756</ele>
        <time>2022-04-24T07:53:22.000Z</time>
      </trkpt>
      <trkpt lat="45.6031" lon="4.56886">
        <ele>754</ele>
        <time>2022-04-24T07:53:24.000Z</time>
      </trkpt>
      <trkpt lat="45.603" lon="4.56896">
        <ele>752.79998779297</ele>
        <time>2022-04-24T07:53:26.000Z</time>
      </trkpt>
      <trkpt lat="45.60294" lon="4.56902">
        <ele>752</ele>
        <time>2022-04-24T07:53:28.000Z</time>
      </trkpt>
      <trkpt lat="45.6029" lon="4.569">
        <ele>750.79998779297</ele>
        <time>2022-04-24T07:53:29.000Z</time>
      </trkpt>
      <trkpt lat="45.60286" lon="4.56897">
        <ele>749.40002441406</ele>
        <time>2022-04-24T07:53:30.000Z</time>
      </trkpt>
      <trkpt lat="45.60275" lon="4.56889">
        <ele>745</ele>
        <time>2022-04-24T07:53:33.000Z</time>
      </trkpt>
      <trkpt lat="45.60271" lon="4.56886">
        <ele>743.79998779297</ele>
        <time>2022-04-24T07:53:34.000Z</time>
      </trkpt>
      <trkpt lat="45.60254" lon="4.56873">
        <ele>738.40002441406</ele>
        <time>2022-04-24T07:53:38.000Z</time>
      </trkpt>
      <trkpt lat="45.60242" lon="4.56865">
        <ele>735.59997558594</ele>
        <time>2022-04-24T07:53:41.000Z</time>
      </trkpt>
      <trkpt lat="45.6023" lon="4.56856">
        <ele>732.79998779297</ele>
        <time>2022-04-24T07:53:44.000Z</time>
      </trkpt>
      <trkpt lat="45.60226" lon="4.56851">
        <ele>731.79998779297</ele>
        <time>2022-04-24T07:53:45.000Z</time>
      </trkpt>
      <trkpt lat="45.60213" lon="4.56833">
        <ele>727.79998779297</ele>
        <time>2022-04-24T07:53:48.000Z</time>
      </trkpt>
      <trkpt lat="45.60199" lon="4.5681">
        <ele>722.59997558594</ele>
        <time>2022-04-24T07:53:52.000Z</time>
      </trkpt>
      <trkpt lat="45.60192" lon="4.56798">
        <ele>720.20001220703</ele>
        <time>2022-04-24T07:53:54.000Z</time>
      </trkpt>
      <trkpt lat="45.60181" lon="4.56784">
        <ele>716.79998779297</ele>
        <time>2022-04-24T07:53:57.000Z</time>
      </trkpt>
      <trkpt lat="45.60177" lon="4.56781">
        <ele>715.79998779297</ele>
        <time>2022-04-24T07:53:58.000Z</time>
      </trkpt>
      <trkpt lat="45.60169" lon="4.5678">
        <ele>713.79998779297</ele>
        <time>2022-04-24T07:54:00.000Z</time>
      </trkpt>
      <trkpt lat="45.60162" lon="4.56786">
        <ele>712.59997558594</ele>
        <time>2022-04-24T07:54:02.000Z</time>
      </trkpt>
      <trkpt lat="45.60159" lon="4.5679">
        <ele>712.20001220703</ele>
        <time>2022-04-24T07:54:03.000Z</time>
      </trkpt>
      <trkpt lat="45.60152" lon="4.56795">
        <ele>710.79998779297</ele>
        <time>2022-04-24T07:54:05.000Z</time>
      </trkpt>
      <trkpt lat="45.60152" lon="4.56794">
        <ele>710.59997558594</ele>
        <time>2022-04-24T07:54:06.000Z</time>
      </trkpt>
      <trkpt lat="45.60149" lon="4.56792">
        <ele>710</ele>
        <time>2022-04-24T07:54:07.000Z</time>
      </trkpt>
      <trkpt lat="45.60142" lon="4.56784">
        <ele>708.20001220703</ele>
        <time>2022-04-24T07:54:09.000Z</time>
      </trkpt>
      <trkpt lat="45.60134" lon="4.56775">
        <ele>706.40002441406</ele>
        <time>2022-04-24T07:54:11.000Z</time>
      </trkpt>
      <trkpt lat="45.60129" lon="4.5677">
        <ele>705.40002441406</ele>
        <time>2022-04-24T07:54:13.000Z</time>
      </trkpt>
      <trkpt lat="45.60123" lon="4.56773">
        <ele>704.40002441406</ele>
        <time>2022-04-24T07:54:15.000Z</time>
      </trkpt>
      <trkpt lat="45.60122" lon="4.5678">
        <ele>704.40002441406</ele>
        <time>2022-04-24T07:54:16.000Z</time>
      </trkpt>
      <trkpt lat="45.60121" lon="4.56793">
        <ele>704.40002441406</ele>
        <time>2022-04-24T07:54:18.000Z</time>
      </trkpt>
      <trkpt lat="45.60118" lon="4.56808">
        <ele>703.79998779297</ele>
        <time>2022-04-24T07:54:21.000Z</time>
      </trkpt>
      <trkpt lat="45.60107" lon="4.56823">
        <ele>703.59997558594</ele>
        <time>2022-04-24T07:54:24.000Z</time>
      </trkpt>
      <trkpt lat="45.60094" lon="4.5683">
        <ele>703.59997558594</ele>
        <time>2022-04-24T07:54:28.000Z</time>
      </trkpt>
      <trkpt lat="45.60086" lon="4.5683">
        <ele>703.40002441406</ele>
        <time>2022-04-24T07:54:31.000Z</time>
      </trkpt>
      <trkpt lat="45.60074" lon="4.56831">
        <ele>703.59997558594</ele>
        <time>2022-04-24T07:54:35.000Z</time>
      </trkpt>
      <trkpt lat="45.60055" lon="4.56838">
        <ele>704.79998779297</ele>
        <time>2022-04-24T07:54:41.000Z</time>
      </trkpt>
      <trkpt lat="45.60048" lon="4.56843">
        <ele>704.40002441406</ele>
        <time>2022-04-24T07:54:43.000Z</time>
      </trkpt>
      <trkpt lat="45.60035" lon="4.56851">
        <ele>703</ele>
        <time>2022-04-24T07:54:46.000Z</time>
      </trkpt>
      <trkpt lat="45.60024" lon="4.5686">
        <ele>701.40002441406</ele>
        <time>2022-04-24T07:54:50.000Z</time>
      </trkpt>
      <trkpt lat="45.60015" lon="4.56866">
        <ele>700.20001220703</ele>
        <time>2022-04-24T07:54:51.000Z</time>
      </trkpt>
      <trkpt lat="45.60007" lon="4.56873">
        <ele>699</ele>
        <time>2022-04-24T07:54:53.000Z</time>
      </trkpt>
      <trkpt lat="45.59995" lon="4.56882">
        <ele>697.79998779297</ele>
        <time>2022-04-24T07:54:56.000Z</time>
      </trkpt>
      <trkpt lat="45.59981" lon="4.56892">
        <ele>697.59997558594</ele>
        <time>2022-04-24T07:55:00.000Z</time>
      </trkpt>
      <trkpt lat="45.59972" lon="4.56908">
        <ele>697.20001220703</ele>
        <time>2022-04-24T07:55:04.000Z</time>
      </trkpt>
      <trkpt lat="45.59963" lon="4.56924">
        <ele>697.40002441406</ele>
        <time>2022-04-24T07:55:10.000Z</time>
      </trkpt>
      <trkpt lat="45.59959" lon="4.56935">
        <ele>698</ele>
        <time>2022-04-24T07:55:13.000Z</time>
      </trkpt>
      <trkpt lat="45.59961" lon="4.56926">
        <ele>697.59997558594</ele>
        <time>2022-04-24T07:55:14.000Z</time>
      </trkpt>
      <trkpt lat="45.59955" lon="4.56947">
        <ele>698.59997558594</ele>
        <time>2022-04-24T07:55:17.000Z</time>
      </trkpt>
      <trkpt lat="45.59954" lon="4.5695">
        <ele>698.59997558594</ele>
        <time>2022-04-24T07:55:18.000Z</time>
      </trkpt>
      <trkpt lat="45.59952" lon="4.5696">
        <ele>698.79998779297</ele>
        <time>2022-04-24T07:55:22.000Z</time>
      </trkpt>
      <trkpt lat="45.59941" lon="4.56959">
        <ele>698.20001220703</ele>
        <time>2022-04-24T07:55:23.000Z</time>
      </trkpt>
      <trkpt lat="45.59939" lon="4.56947">
        <ele>697.79998779297</ele>
        <time>2022-04-24T07:55:26.000Z</time>
      </trkpt>
      <trkpt lat="45.59938" lon="4.56935">
        <ele>696.59997558594</ele>
        <time>2022-04-24T07:55:28.000Z</time>
      </trkpt>
      <trkpt lat="45.59937" lon="4.56922">
        <ele>695.59997558594</ele>
        <time>2022-04-24T07:55:30.000Z</time>
      </trkpt>
      <trkpt lat="45.59936" lon="4.56909">
        <ele>694.40002441406</ele>
        <time>2022-04-24T07:55:32.000Z</time>
      </trkpt>
      <trkpt lat="45.59935" lon="4.56887">
        <ele>692.79998779297</ele>
        <time>2022-04-24T07:55:35.000Z</time>
      </trkpt>
      <trkpt lat="45.59934" lon="4.56837">
        <ele>688.20001220703</ele>
        <time>2022-04-24T07:55:42.000Z</time>
      </trkpt>
      <trkpt lat="45.59931" lon="4.56816">
        <ele>686.40002441406</ele>
        <time>2022-04-24T07:55:45.000Z</time>
      </trkpt>
      <trkpt lat="45.59927" lon="4.568">
        <ele>685</ele>
        <time>2022-04-24T07:55:47.000Z</time>
      </trkpt>
      <trkpt lat="45.59915" lon="4.56762">
        <ele>682.40002441406</ele>
        <time>2022-04-24T07:55:53.000Z</time>
      </trkpt>
      <trkpt lat="45.59906" lon="4.56739">
        <ele>681.59997558594</ele>
        <time>2022-04-24T07:55:56.000Z</time>
      </trkpt>
      <trkpt lat="45.59899" lon="4.56725">
        <ele>681</ele>
        <time>2022-04-24T07:55:59.000Z</time>
      </trkpt>
      <trkpt lat="45.59888" lon="4.56708">
        <ele>680.79998779297</ele>
        <time>2022-04-24T07:56:01.000Z</time>
      </trkpt>
      <trkpt lat="45.59883" lon="4.56698">
        <ele>680.59997558594</ele>
        <time>2022-04-24T07:56:03.000Z</time>
      </trkpt>
      <trkpt lat="45.59881" lon="4.56693">
        <ele>680.59997558594</ele>
        <time>2022-04-24T07:56:04.000Z</time>
      </trkpt>
      <trkpt lat="45.59877" lon="4.56681">
        <ele>680.40002441406</ele>
        <time>2022-04-24T07:56:07.000Z</time>
      </trkpt>
      <trkpt lat="45.59876" lon="4.5667">
        <ele>680.40002441406</ele>
        <time>2022-04-24T07:56:09.000Z</time>
      </trkpt>
      <trkpt lat="45.5988" lon="4.56643">
        <ele>682</ele>
        <time>2022-04-24T07:56:15.000Z</time>
      </trkpt>
      <trkpt lat="45.5988" lon="4.56629">
        <ele>683.40002441406</ele>
        <time>2022-04-24T07:56:19.000Z</time>
      </trkpt>
      <trkpt lat="45.5988" lon="4.56618">
        <ele>683.79998779297</ele>
        <time>2022-04-24T07:56:23.000Z</time>
      </trkpt>
      <trkpt lat="45.5988" lon="4.56606">
        <ele>684.79998779297</ele>
        <time>2022-04-24T07:56:27.000Z</time>
      </trkpt>
      <trkpt lat="45.5988" lon="4.56594">
        <ele>685.79998779297</ele>
        <time>2022-04-24T07:56:31.000Z</time>
      </trkpt>
      <trkpt lat="45.59879" lon="4.56577">
        <ele>687</ele>
        <time>2022-04-24T07:56:37.000Z</time>
      </trkpt>
      <trkpt lat="45.59878" lon="4.56569">
        <ele>687.59997558594</ele>
        <time>2022-04-24T07:56:40.000Z</time>
      </trkpt>
      <trkpt lat="45.59876" lon="4.56558">
        <ele>688.40002441406</ele>
        <time>2022-04-24T07:56:44.000Z</time>
      </trkpt>
      <trkpt lat="45.59876" lon="4.56551">
        <ele>689.20001220703</ele>
        <time>2022-04-24T07:56:47.000Z</time>
      </trkpt>
      <trkpt lat="45.59874" lon="4.56541">
        <ele>690.40002441406</ele>
        <time>2022-04-24T07:56:51.000Z</time>
      </trkpt>
      <trkpt lat="45.59873" lon="4.56531">
        <ele>691.59997558594</ele>
        <time>2022-04-24T07:56:55.000Z</time>
      </trkpt>
      <trkpt lat="45.59873" lon="4.56511">
        <ele>693.79998779297</ele>
        <time>2022-04-24T07:57:02.000Z</time>
      </trkpt>
      <trkpt lat="45.59873" lon="4.56508">
        <ele>694</ele>
        <time>2022-04-24T07:57:03.000Z</time>
      </trkpt>
      <trkpt lat="45.59872" lon="4.56489">
        <ele>696.40002441406</ele>
        <time>2022-04-24T07:57:10.000Z</time>
      </trkpt>
      <trkpt lat="45.59872" lon="4.56469">
        <ele>698</ele>
        <time>2022-04-24T07:57:18.000Z</time>
      </trkpt>
      <trkpt lat="45.59871" lon="4.56449">
        <ele>699</ele>
        <time>2022-04-24T07:57:26.000Z</time>
      </trkpt>
      <trkpt lat="45.59872" lon="4.56427">
        <ele>702</ele>
        <time>2022-04-24T07:57:34.000Z</time>
      </trkpt>
      <trkpt lat="45.59873" lon="4.56407">
        <ele>704.20001220703</ele>
        <time>2022-04-24T07:57:41.000Z</time>
      </trkpt>
      <trkpt lat="45.59875" lon="4.56384">
        <ele>707.20001220703</ele>
        <time>2022-04-24T07:57:50.000Z</time>
      </trkpt>
      <trkpt lat="45.59875" lon="4.56368">
        <ele>709.20001220703</ele>
        <time>2022-04-24T07:57:56.000Z</time>
      </trkpt>
      <trkpt lat="45.59874" lon="4.56353">
        <ele>711</ele>
        <time>2022-04-24T07:58:02.000Z</time>
      </trkpt>
      <trkpt lat="45.59873" lon="4.56335">
        <ele>713.40002441406</ele>
        <time>2022-04-24T07:58:09.000Z</time>
      </trkpt>
      <trkpt lat="45.59872" lon="4.5632">
        <ele>715</ele>
        <time>2022-04-24T07:58:15.000Z</time>
      </trkpt>
      <trkpt lat="45.59871" lon="4.56313">
        <ele>715.79998779297</ele>
        <time>2022-04-24T07:58:18.000Z</time>
      </trkpt>
      <trkpt lat="45.59868" lon="4.56303">
        <ele>716.79998779297</ele>
        <time>2022-04-24T07:58:22.000Z</time>
      </trkpt>
      <trkpt lat="45.59865" lon="4.56289">
        <ele>718</ele>
        <time>2022-04-24T07:58:28.000Z</time>
      </trkpt>
      <trkpt lat="45.59855" lon="4.56264">
        <ele>719.20001220703</ele>
        <time>2022-04-24T07:58:38.000Z</time>
      </trkpt>
      <trkpt lat="45.59849" lon="4.56249">
        <ele>719.40002441406</ele>
        <time>2022-04-24T07:58:44.000Z</time>
      </trkpt>
      <trkpt lat="45.59839" lon="4.56225">
        <ele>719.40002441406</ele>
        <time>2022-04-24T07:58:53.000Z</time>
      </trkpt>
      <trkpt lat="45.5983" lon="4.56205">
        <ele>718.79998779297</ele>
        <time>2022-04-24T07:59:01.000Z</time>
      </trkpt>
      <trkpt lat="45.5982" lon="4.56184">
        <ele>718.79998779297</ele>
        <time>2022-04-24T07:59:08.000Z</time>
      </trkpt>
      <trkpt lat="45.59808" lon="4.5616">
        <ele>718.59997558594</ele>
        <time>2022-04-24T07:59:16.000Z</time>
      </trkpt>
      <trkpt lat="45.59796" lon="4.56135">
        <ele>717.79998779297</ele>
        <time>2022-04-24T07:59:22.000Z</time>
      </trkpt>
      <trkpt lat="45.59777" lon="4.56103">
        <ele>716.59997558594</ele>
        <time>2022-04-24T07:59:29.000Z</time>
      </trkpt>
      <trkpt lat="45.59763" lon="4.56084">
        <ele>716.79998779297</ele>
        <time>2022-04-24T07:59:34.000Z</time>
      </trkpt>
      <trkpt lat="45.59761" lon="4.56081">
        <ele>717</ele>
        <time>2022-04-24T07:59:35.000Z</time>
      </trkpt>
      <trkpt lat="45.59751" lon="4.56069">
        <ele>718.20001220703</ele>
        <time>2022-04-24T07:59:40.000Z</time>
      </trkpt>
      <trkpt lat="45.59739" lon="4.56063">
        <ele>719.59997558594</ele>
        <time>2022-04-24T07:59:46.000Z</time>
      </trkpt>
      <trkpt lat="45.59726" lon="4.56056">
        <ele>721</ele>
        <time>2022-04-24T07:59:52.000Z</time>
      </trkpt>
      <trkpt lat="45.59712" lon="4.56048">
        <ele>722.20001220703</ele>
        <time>2022-04-24T07:59:59.000Z</time>
      </trkpt>
      <trkpt lat="45.59702" lon="4.5604">
        <ele>723.20001220703</ele>
        <time>2022-04-24T08:00:05.000Z</time>
      </trkpt>
      <trkpt lat="45.59692" lon="4.56032">
        <ele>724.59997558594</ele>
        <time>2022-04-24T08:00:12.000Z</time>
      </trkpt>
      <trkpt lat="45.5968" lon="4.56023">
        <ele>726.40002441406</ele>
        <time>2022-04-24T08:00:20.000Z</time>
      </trkpt>
      <trkpt lat="45.59672" lon="4.56017">
        <ele>727.59997558594</ele>
        <time>2022-04-24T08:00:26.000Z</time>
      </trkpt>
      <trkpt lat="45.59666" lon="4.56007">
        <ele>728.59997558594</ele>
        <time>2022-04-24T08:00:32.000Z</time>
      </trkpt>
      <trkpt lat="45.59661" lon="4.55999">
        <ele>729.59997558594</ele>
        <time>2022-04-24T08:00:37.000Z</time>
      </trkpt>
      <trkpt lat="45.5966" lon="4.55997">
        <ele>729.59997558594</ele>
        <time>2022-04-24T08:00:38.000Z</time>
      </trkpt>
      <trkpt lat="45.59658" lon="4.55995">
        <ele>730</ele>
        <time>2022-04-24T08:00:40.000Z</time>
      </trkpt>
      <trkpt lat="45.59654" lon="4.55988">
        <ele>730.79998779297</ele>
        <time>2022-04-24T08:00:45.000Z</time>
      </trkpt>
      <trkpt lat="45.5965" lon="4.55975">
        <ele>731.59997558594</ele>
        <time>2022-04-24T08:00:52.000Z</time>
      </trkpt>
      <trkpt lat="45.59646" lon="4.55965">
        <ele>732.40002441406</ele>
        <time>2022-04-24T08:00:57.000Z</time>
      </trkpt>
      <trkpt lat="45.59645" lon="4.55963">
        <ele>732.79998779297</ele>
        <time>2022-04-24T08:00:58.000Z</time>
      </trkpt>
      <trkpt lat="45.59642" lon="4.55954">
        <ele>733.59997558594</ele>
        <time>2022-04-24T08:01:02.000Z</time>
      </trkpt>
      <trkpt lat="45.59639" lon="4.55944">
        <ele>734.79998779297</ele>
        <time>2022-04-24T08:01:07.000Z</time>
      </trkpt>
      <trkpt lat="45.59634" lon="4.55931">
        <ele>737.40002441406</ele>
        <time>2022-04-24T08:01:13.000Z</time>
      </trkpt>
      <trkpt lat="45.59629" lon="4.55916">
        <ele>740</ele>
        <time>2022-04-24T08:01:20.000Z</time>
      </trkpt>
      <trkpt lat="45.59625" lon="4.55907">
        <ele>741.79998779297</ele>
        <time>2022-04-24T08:01:25.000Z</time>
      </trkpt>
      <trkpt lat="45.59622" lon="4.55897">
        <ele>743.59997558594</ele>
        <time>2022-04-24T08:01:30.000Z</time>
      </trkpt>
      <trkpt lat="45.59618" lon="4.55887">
        <ele>745.40002441406</ele>
        <time>2022-04-24T08:01:35.000Z</time>
      </trkpt>
      <trkpt lat="45.59615" lon="4.55875">
        <ele>747.20001220703</ele>
        <time>2022-04-24T08:01:39.000Z</time>
      </trkpt>
      <trkpt lat="45.59615" lon="4.55873">
        <ele>747.59997558594</ele>
        <time>2022-04-24T08:01:40.000Z</time>
      </trkpt>
      <trkpt lat="45.59614" lon="4.55863">
        <ele>749</ele>
        <time>2022-04-24T08:01:45.000Z</time>
      </trkpt>
      <trkpt lat="45.59614" lon="4.5586">
        <ele>749.20001220703</ele>
        <time>2022-04-24T08:01:46.000Z</time>
      </trkpt>
      <trkpt lat="45.59613" lon="4.55856">
        <ele>749.40002441406</ele>
        <time>2022-04-24T08:01:48.000Z</time>
      </trkpt>
      <trkpt lat="45.59612" lon="4.55849">
        <ele>749.79998779297</ele>
        <time>2022-04-24T08:01:51.000Z</time>
      </trkpt>
      <trkpt lat="45.59609" lon="4.55835">
        <ele>751</ele>
        <time>2022-04-24T08:01:57.000Z</time>
      </trkpt>
      <trkpt lat="45.59607" lon="4.55826">
        <ele>752.40002441406</ele>
        <time>2022-04-24T08:02:02.000Z</time>
      </trkpt>
      <trkpt lat="45.59605" lon="4.5582">
        <ele>753.20001220703</ele>
        <time>2022-04-24T08:02:05.000Z</time>
      </trkpt>
      <trkpt lat="45.59604" lon="4.55816">
        <ele>753.59997558594</ele>
        <time>2022-04-24T08:02:07.000Z</time>
      </trkpt>
      <trkpt lat="45.59603" lon="4.55812">
        <ele>754</ele>
        <time>2022-04-24T08:02:09.000Z</time>
      </trkpt>
      <trkpt lat="45.59599" lon="4.55803">
        <ele>755.20001220703</ele>
        <time>2022-04-24T08:02:13.000Z</time>
      </trkpt>
      <trkpt lat="45.59594" lon="4.55795">
        <ele>756.79998779297</ele>
        <time>2022-04-24T08:02:19.000Z</time>
      </trkpt>
      <trkpt lat="45.59592" lon="4.55793">
        <ele>757.20001220703</ele>
        <time>2022-04-24T08:02:21.000Z</time>
      </trkpt>
      <trkpt lat="45.5959" lon="4.5579">
        <ele>757.79998779297</ele>
        <time>2022-04-24T08:02:23.000Z</time>
      </trkpt>
      <trkpt lat="45.59586" lon="4.55784">
        <ele>759</ele>
        <time>2022-04-24T08:02:27.000Z</time>
      </trkpt>
      <trkpt lat="45.59585" lon="4.55783">
        <ele>759.20001220703</ele>
        <time>2022-04-24T08:02:29.000Z</time>
      </trkpt>
      <trkpt lat="45.59582" lon="4.55777">
        <ele>759.79998779297</ele>
        <time>2022-04-24T08:02:31.000Z</time>
      </trkpt>
      <trkpt lat="45.5958" lon="4.5577">
        <ele>760.40002441406</ele>
        <time>2022-04-24T08:02:34.000Z</time>
      </trkpt>
      <trkpt lat="45.59574" lon="4.55756">
        <ele>761.59997558594</ele>
        <time>2022-04-24T08:02:41.000Z</time>
      </trkpt>
      <trkpt lat="45.5957" lon="4.55746">
        <ele>762.59997558594</ele>
        <time>2022-04-24T08:02:46.000Z</time>
      </trkpt>
      <trkpt lat="45.5957" lon="4.55743">
        <ele>762.79998779297</ele>
        <time>2022-04-24T08:02:47.000Z</time>
      </trkpt>
      <trkpt lat="45.59564" lon="4.5573">
        <ele>764.40002441406</ele>
        <time>2022-04-24T08:02:54.000Z</time>
      </trkpt>
      <trkpt lat="45.5956" lon="4.55718">
        <ele>766</ele>
        <time>2022-04-24T08:03:01.000Z</time>
      </trkpt>
      <trkpt lat="45.59554" lon="4.55701">
        <ele>770.40002441406</ele>
        <time>2022-04-24T08:03:09.000Z</time>
      </trkpt>
      <trkpt lat="45.59551" lon="4.55689">
        <ele>773.20001220703</ele>
        <time>2022-04-24T08:03:15.000Z</time>
      </trkpt>
      <trkpt lat="45.59547" lon="4.55675">
        <ele>776.59997558594</ele>
        <time>2022-04-24T08:03:22.000Z</time>
      </trkpt>
      <trkpt lat="45.59545" lon="4.55666">
        <ele>779</ele>
        <time>2022-04-24T08:03:27.000Z</time>
      </trkpt>
      <trkpt lat="45.59542" lon="4.55651">
        <ele>782.20001220703</ele>
        <time>2022-04-24T08:03:34.000Z</time>
      </trkpt>
      <trkpt lat="45.59541" lon="4.55644">
        <ele>783</ele>
        <time>2022-04-24T08:03:38.000Z</time>
      </trkpt>
      <trkpt lat="45.59541" lon="4.55643">
        <ele>783.20001220703</ele>
        <time>2022-04-24T08:03:39.000Z</time>
      </trkpt>
      <trkpt lat="45.59541" lon="4.55636">
        <ele>783.79998779297</ele>
        <time>2022-04-24T08:03:44.000Z</time>
      </trkpt>
      <trkpt lat="45.59541" lon="4.55636">
        <ele>783.79998779297</ele>
        <time>2022-04-24T08:03:45.000Z</time>
      </trkpt>
      <trkpt lat="45.5954" lon="4.55632">
        <ele>784</ele>
        <time>2022-04-24T08:06:03.000Z</time>
      </trkpt>
      <trkpt lat="45.5954" lon="4.5563">
        <ele>784.20001220703</ele>
        <time>2022-04-24T08:06:04.000Z</time>
      </trkpt>
      <trkpt lat="45.59539" lon="4.55624">
        <ele>784.40002441406</ele>
        <time>2022-04-24T08:06:06.000Z</time>
      </trkpt>
      <trkpt lat="45.59538" lon="4.55608">
        <ele>785.79998779297</ele>
        <time>2022-04-24T08:06:12.000Z</time>
      </trkpt>
      <trkpt lat="45.59537" lon="4.55593">
        <ele>786.20001220703</ele>
        <time>2022-04-24T08:06:18.000Z</time>
      </trkpt>
      <trkpt lat="45.59537" lon="4.55588">
        <ele>786.59997558594</ele>
        <time>2022-04-24T08:06:20.000Z</time>
      </trkpt>
      <trkpt lat="45.59537" lon="4.55584">
        <ele>787</ele>
        <time>2022-04-24T08:06:22.000Z</time>
      </trkpt>
      <trkpt lat="45.59537" lon="4.55583">
        <ele>787</ele>
        <time>2022-04-24T08:06:23.000Z</time>
      </trkpt>
      <trkpt lat="45.59537" lon="4.55581">
        <ele>787</ele>
        <time>2022-04-24T08:06:24.000Z</time>
      </trkpt>
      <trkpt lat="45.59536" lon="4.55574">
        <ele>786.79998779297</ele>
        <time>2022-04-24T08:06:27.000Z</time>
      </trkpt>
      <trkpt lat="45.59536" lon="4.55561">
        <ele>786.79998779297</ele>
        <time>2022-04-24T08:06:32.000Z</time>
      </trkpt>
      <trkpt lat="45.59535" lon="4.55559">
        <ele>787</ele>
        <time>2022-04-24T08:06:33.000Z</time>
      </trkpt>
      <trkpt lat="45.59534" lon="4.55541">
        <ele>788.20001220703</ele>
        <time>2022-04-24T08:06:40.000Z</time>
      </trkpt>
      <trkpt lat="45.59534" lon="4.55538">
        <ele>788.40002441406</ele>
        <time>2022-04-24T08:06:41.000Z</time>
      </trkpt>
      <trkpt lat="45.59531" lon="4.55527">
        <ele>789.59997558594</ele>
        <time>2022-04-24T08:06:46.000Z</time>
      </trkpt>
      <trkpt lat="45.59531" lon="4.55525">
        <ele>790</ele>
        <time>2022-04-24T08:06:47.000Z</time>
      </trkpt>
      <trkpt lat="45.59529" lon="4.55516">
        <ele>790.79998779297</ele>
        <time>2022-04-24T08:06:51.000Z</time>
      </trkpt>
      <trkpt lat="45.59527" lon="4.55507">
        <ele>791.59997558594</ele>
        <time>2022-04-24T08:06:55.000Z</time>
      </trkpt>
      <trkpt lat="45.59525" lon="4.55499">
        <ele>792.40002441406</ele>
        <time>2022-04-24T08:06:59.000Z</time>
      </trkpt>
      <trkpt lat="45.59522" lon="4.55494">
        <ele>792.59997558594</ele>
        <time>2022-04-24T08:07:02.000Z</time>
      </trkpt>
      <trkpt lat="45.59516" lon="4.55485">
        <ele>793.40002441406</ele>
        <time>2022-04-24T08:07:07.000Z</time>
      </trkpt>
      <trkpt lat="45.59515" lon="4.55483">
        <ele>793.59997558594</ele>
        <time>2022-04-24T08:07:08.000Z</time>
      </trkpt>
      <trkpt lat="45.5951" lon="4.55475">
        <ele>794.40002441406</ele>
        <time>2022-04-24T08:07:13.000Z</time>
      </trkpt>
      <trkpt lat="45.59509" lon="4.55473">
        <ele>794.59997558594</ele>
        <time>2022-04-24T08:07:14.000Z</time>
      </trkpt>
      <trkpt lat="45.59503" lon="4.5546">
        <ele>794.40002441406</ele>
        <time>2022-04-24T08:07:21.000Z</time>
      </trkpt>
      <trkpt lat="45.595" lon="4.55444">
        <ele>793.40002441406</ele>
        <time>2022-04-24T08:07:27.000Z</time>
      </trkpt>
      <trkpt lat="45.59495" lon="4.55422">
        <ele>792.59997558594</ele>
        <time>2022-04-24T08:07:34.000Z</time>
      </trkpt>
      <trkpt lat="45.59488" lon="4.55397">
        <ele>793</ele>
        <time>2022-04-24T08:07:42.000Z</time>
      </trkpt>
      <trkpt lat="45.59479" lon="4.55367">
        <ele>793.40002441406</ele>
        <time>2022-04-24T08:07:52.000Z</time>
      </trkpt>
      <trkpt lat="45.59472" lon="4.55341">
        <ele>795.40002441406</ele>
        <time>2022-04-24T08:08:01.000Z</time>
      </trkpt>
      <trkpt lat="45.59469" lon="4.55319">
        <ele>796.20001220703</ele>
        <time>2022-04-24T08:08:08.000Z</time>
      </trkpt>
      <trkpt lat="45.59465" lon="4.55293">
        <ele>797.40002441406</ele>
        <time>2022-04-24T08:08:16.000Z</time>
      </trkpt>
      <trkpt lat="45.59463" lon="4.55276">
        <ele>798.79998779297</ele>
        <time>2022-04-24T08:08:22.000Z</time>
      </trkpt>
      <trkpt lat="45.5946" lon="4.55256">
        <ele>800</ele>
        <time>2022-04-24T08:08:29.000Z</time>
      </trkpt>
      <trkpt lat="45.59457" lon="4.55234">
        <ele>802.40002441406</ele>
        <time>2022-04-24T08:08:36.000Z</time>
      </trkpt>
      <trkpt lat="45.59458" lon="4.55216">
        <ele>803.20001220703</ele>
        <time>2022-04-24T08:08:42.000Z</time>
      </trkpt>
      <trkpt lat="45.59459" lon="4.55194">
        <ele>804.59997558594</ele>
        <time>2022-04-24T08:08:49.000Z</time>
      </trkpt>
      <trkpt lat="45.59456" lon="4.55175">
        <ele>806</ele>
        <time>2022-04-24T08:08:56.000Z</time>
      </trkpt>
      <trkpt lat="45.59452" lon="4.55156">
        <ele>807.40002441406</ele>
        <time>2022-04-24T08:09:03.000Z</time>
      </trkpt>
      <trkpt lat="45.59449" lon="4.55138">
        <ele>808.40002441406</ele>
        <time>2022-04-24T08:09:10.000Z</time>
      </trkpt>
      <trkpt lat="45.59446" lon="4.55121">
        <ele>809.20001220703</ele>
        <time>2022-04-24T08:09:16.000Z</time>
      </trkpt>
      <trkpt lat="45.59442" lon="4.55096">
        <ele>810.59997558594</ele>
        <time>2022-04-24T08:09:25.000Z</time>
      </trkpt>
      <trkpt lat="45.59441" lon="4.55073">
        <ele>811</ele>
        <time>2022-04-24T08:09:33.000Z</time>
      </trkpt>
      <trkpt lat="45.59439" lon="4.5505">
        <ele>812</ele>
        <time>2022-04-24T08:09:41.000Z</time>
      </trkpt>
      <trkpt lat="45.59433" lon="4.55024">
        <ele>813.79998779297</ele>
        <time>2022-04-24T08:09:49.000Z</time>
      </trkpt>
      <trkpt lat="45.59424" lon="4.55001">
        <ele>815.20001220703</ele>
        <time>2022-04-24T08:09:57.000Z</time>
      </trkpt>
      <trkpt lat="45.59413" lon="4.5498">
        <ele>816</ele>
        <time>2022-04-24T08:10:05.000Z</time>
      </trkpt>
      <trkpt lat="45.59404" lon="4.5496">
        <ele>816.79998779297</ele>
        <time>2022-04-24T08:10:12.000Z</time>
      </trkpt>
      <trkpt lat="45.59393" lon="4.54938">
        <ele>817.20001220703</ele>
        <time>2022-04-24T08:10:20.000Z</time>
      </trkpt>
      <trkpt lat="45.59383" lon="4.54922">
        <ele>817.79998779297</ele>
        <time>2022-04-24T08:10:27.000Z</time>
      </trkpt>
      <trkpt lat="45.59373" lon="4.54909">
        <ele>818.20001220703</ele>
        <time>2022-04-24T08:10:33.000Z</time>
      </trkpt>
      <trkpt lat="45.59361" lon="4.54892">
        <ele>818.79998779297</ele>
        <time>2022-04-24T08:10:39.000Z</time>
      </trkpt>
      <trkpt lat="45.59344" lon="4.54869">
        <ele>819.20001220703</ele>
        <time>2022-04-24T08:10:45.000Z</time>
      </trkpt>
      <trkpt lat="45.59329" lon="4.54847">
        <ele>820</ele>
        <time>2022-04-24T08:10:50.000Z</time>
      </trkpt>
      <trkpt lat="45.59316" lon="4.54831">
        <ele>821.20001220703</ele>
        <time>2022-04-24T08:10:54.000Z</time>
      </trkpt>
      <trkpt lat="45.59296" lon="4.54807">
        <ele>821.59997558594</ele>
        <time>2022-04-24T08:10:59.000Z</time>
      </trkpt>
      <trkpt lat="45.59283" lon="4.54796">
        <ele>822</ele>
        <time>2022-04-24T08:11:02.000Z</time>
      </trkpt>
      <trkpt lat="45.59273" lon="4.54787">
        <ele>821.59997558594</ele>
        <time>2022-04-24T08:11:04.000Z</time>
      </trkpt>
      <trkpt lat="45.5926" lon="4.54776">
        <ele>820.40002441406</ele>
        <time>2022-04-24T08:11:07.000Z</time>
      </trkpt>
      <trkpt lat="45.59256" lon="4.54773">
        <ele>820.20001220703</ele>
        <time>2022-04-24T08:11:09.000Z</time>
      </trkpt>
      <trkpt lat="45.59224" lon="4.54762">
        <ele>816.20001220703</ele>
        <time>2022-04-24T08:11:14.000Z</time>
      </trkpt>
      <trkpt lat="45.59218" lon="4.54761">
        <ele>815.20001220703</ele>
        <time>2022-04-24T08:11:15.000Z</time>
      </trkpt>
      <trkpt lat="45.59192" lon="4.54765">
        <ele>813.40002441406</ele>
        <time>2022-04-24T08:11:19.000Z</time>
      </trkpt>
      <trkpt lat="45.59166" lon="4.54764">
        <ele>813.20001220703</ele>
        <time>2022-04-24T08:11:23.000Z</time>
      </trkpt>
      <trkpt lat="45.59153" lon="4.54759">
        <ele>814</ele>
        <time>2022-04-24T08:11:25.000Z</time>
      </trkpt>
      <trkpt lat="45.59153" lon="4.54759">
        <ele>814</ele>
        <time>2022-04-24T08:11:26.000Z</time>
      </trkpt>
      <trkpt lat="45.59128" lon="4.54743">
        <ele>814.20001220703</ele>
        <time>2022-04-24T08:11:30.000Z</time>
      </trkpt>
      <trkpt lat="45.59106" lon="4.54723">
        <ele>813.20001220703</ele>
        <time>2022-04-24T08:11:35.000Z</time>
      </trkpt>
      <trkpt lat="45.59094" lon="4.54711">
        <ele>812.40002441406</ele>
        <time>2022-04-24T08:11:38.000Z</time>
      </trkpt>
      <trkpt lat="45.59076" lon="4.54689">
        <ele>812.20001220703</ele>
        <time>2022-04-24T08:11:43.000Z</time>
      </trkpt>
      <trkpt lat="45.59069" lon="4.5468">
        <ele>812.79998779297</ele>
        <time>2022-04-24T08:11:45.000Z</time>
      </trkpt>
      <trkpt lat="45.59049" lon="4.54653">
        <ele>816.59997558594</ele>
        <time>2022-04-24T08:11:51.000Z</time>
      </trkpt>
      <trkpt lat="45.59046" lon="4.54649">
        <ele>817.59997558594</ele>
        <time>2022-04-24T08:11:52.000Z</time>
      </trkpt>
      <trkpt lat="45.59039" lon="4.54625">
        <ele>818.79998779297</ele>
        <time>2022-04-24T08:11:57.000Z</time>
      </trkpt>
      <trkpt lat="45.59033" lon="4.54588">
        <ele>819.40002441406</ele>
        <time>2022-04-24T08:12:04.000Z</time>
      </trkpt>
      <trkpt lat="45.59028" lon="4.54568">
        <ele>819.40002441406</ele>
        <time>2022-04-24T08:12:08.000Z</time>
      </trkpt>
      <trkpt lat="45.59017" lon="4.54546">
        <ele>820.20001220703</ele>
        <time>2022-04-24T08:12:14.000Z</time>
      </trkpt>
      <trkpt lat="45.59007" lon="4.54525">
        <ele>820.59997558594</ele>
        <time>2022-04-24T08:12:21.000Z</time>
      </trkpt>
      <trkpt lat="45.58997" lon="4.54511">
        <ele>820.59997558594</ele>
        <time>2022-04-24T08:12:27.000Z</time>
      </trkpt>
      <trkpt lat="45.58987" lon="4.54496">
        <ele>821</ele>
        <time>2022-04-24T08:12:33.000Z</time>
      </trkpt>
      <trkpt lat="45.5898" lon="4.54485">
        <ele>821.79998779297</ele>
        <time>2022-04-24T08:12:38.000Z</time>
      </trkpt>
      <trkpt lat="45.58973" lon="4.54474">
        <ele>822.79998779297</ele>
        <time>2022-04-24T08:12:42.000Z</time>
      </trkpt>
      <trkpt lat="45.5897" lon="4.54468">
        <ele>823.59997558594</ele>
        <time>2022-04-24T08:12:44.000Z</time>
      </trkpt>
      <trkpt lat="45.58962" lon="4.5445">
        <ele>825.59997558594</ele>
        <time>2022-04-24T08:12:49.000Z</time>
      </trkpt>
      <trkpt lat="45.58953" lon="4.54427">
        <ele>827.40002441406</ele>
        <time>2022-04-24T08:12:54.000Z</time>
      </trkpt>
      <trkpt lat="45.58946" lon="4.54408">
        <ele>828.79998779297</ele>
        <time>2022-04-24T08:12:58.000Z</time>
      </trkpt>
      <trkpt lat="45.58941" lon="4.5438">
        <ele>828.59997558594</ele>
        <time>2022-04-24T08:13:03.000Z</time>
      </trkpt>
      <trkpt lat="45.58942" lon="4.5437">
        <ele>827.79998779297</ele>
        <time>2022-04-24T08:13:05.000Z</time>
      </trkpt>
      <trkpt lat="45.58943" lon="4.54357">
        <ele>826.79998779297</ele>
        <time>2022-04-24T08:13:07.000Z</time>
      </trkpt>
      <trkpt lat="45.58944" lon="4.54342">
        <ele>825</ele>
        <time>2022-04-24T08:13:09.000Z</time>
      </trkpt>
      <trkpt lat="45.58942" lon="4.5433">
        <ele>824.79998779297</ele>
        <time>2022-04-24T08:13:11.000Z</time>
      </trkpt>
      <trkpt lat="45.58938" lon="4.54309">
        <ele>824.59997558594</ele>
        <time>2022-04-24T08:13:14.000Z</time>
      </trkpt>
      <trkpt lat="45.58935" lon="4.54295">
        <ele>823.79998779297</ele>
        <time>2022-04-24T08:13:16.000Z</time>
      </trkpt>
      <trkpt lat="45.58931" lon="4.5428">
        <ele>823.40002441406</ele>
        <time>2022-04-24T08:13:18.000Z</time>
      </trkpt>
      <trkpt lat="45.58927" lon="4.54268">
        <ele>822.79998779297</ele>
        <time>2022-04-24T08:13:20.000Z</time>
      </trkpt>
      <trkpt lat="45.58925" lon="4.54262">
        <ele>822.59997558594</ele>
        <time>2022-04-24T08:13:21.000Z</time>
      </trkpt>
      <trkpt lat="45.58913" lon="4.54218">
        <ele>822.20001220703</ele>
        <time>2022-04-24T08:13:28.000Z</time>
      </trkpt>
      <trkpt lat="45.58902" lon="4.54178">
        <ele>823.59997558594</ele>
        <time>2022-04-24T08:13:34.000Z</time>
      </trkpt>
      <trkpt lat="45.58894" lon="4.54144">
        <ele>825.40002441406</ele>
        <time>2022-04-24T08:13:40.000Z</time>
      </trkpt>
      <trkpt lat="45.58892" lon="4.54133">
        <ele>825.40002441406</ele>
        <time>2022-04-24T08:13:42.000Z</time>
      </trkpt>
      <trkpt lat="45.58891" lon="4.54121">
        <ele>825.40002441406</ele>
        <time>2022-04-24T08:13:44.000Z</time>
      </trkpt>
      <trkpt lat="45.58887" lon="4.54098">
        <ele>824.59997558594</ele>
        <time>2022-04-24T08:13:48.000Z</time>
      </trkpt>
      <trkpt lat="45.58886" lon="4.54092">
        <ele>824.40002441406</ele>
        <time>2022-04-24T08:13:49.000Z</time>
      </trkpt>
      <trkpt lat="45.58884" lon="4.54084">
        <ele>824</ele>
        <time>2022-04-24T08:13:50.000Z</time>
      </trkpt>
      <trkpt lat="45.58879" lon="4.54065">
        <ele>822.40002441406</ele>
        <time>2022-04-24T08:13:53.000Z</time>
      </trkpt>
      <trkpt lat="45.58877" lon="4.54059">
        <ele>822.20001220703</ele>
        <time>2022-04-24T08:13:54.000Z</time>
      </trkpt>
      <trkpt lat="45.58876" lon="4.54054">
        <ele>822</ele>
        <time>2022-04-24T08:13:55.000Z</time>
      </trkpt>
      <trkpt lat="45.58872" lon="4.54041">
        <ele>821.40002441406</ele>
        <time>2022-04-24T08:13:57.000Z</time>
      </trkpt>
      <trkpt lat="45.58869" lon="4.54032">
        <ele>820.79998779297</ele>
        <time>2022-04-24T08:13:59.000Z</time>
      </trkpt>
      <trkpt lat="45.58864" lon="4.54017">
        <ele>820</ele>
        <time>2022-04-24T08:14:01.000Z</time>
      </trkpt>
      <trkpt lat="45.58859" lon="4.54">
        <ele>819.79998779297</ele>
        <time>2022-04-24T08:14:04.000Z</time>
      </trkpt>
      <trkpt lat="45.58853" lon="4.5398">
        <ele>820.20001220703</ele>
        <time>2022-04-24T08:14:07.000Z</time>
      </trkpt>
      <trkpt lat="45.58844" lon="4.5395">
        <ele>820</ele>
        <time>2022-04-24T08:14:11.000Z</time>
      </trkpt>
      <trkpt lat="45.58842" lon="4.53943">
        <ele>819.59997558594</ele>
        <time>2022-04-24T08:14:12.000Z</time>
      </trkpt>
      <trkpt lat="45.58819" lon="4.53905">
        <ele>817.59997558594</ele>
        <time>2022-04-24T08:14:18.000Z</time>
      </trkpt>
      <trkpt lat="45.58809" lon="4.53895">
        <ele>817.59997558594</ele>
        <time>2022-04-24T08:14:20.000Z</time>
      </trkpt>
      <trkpt lat="45.58801" lon="4.53888">
        <ele>817.20001220703</ele>
        <time>2022-04-24T08:14:22.000Z</time>
      </trkpt>
      <trkpt lat="45.58796" lon="4.53884">
        <ele>817.20001220703</ele>
        <time>2022-04-24T08:14:23.000Z</time>
      </trkpt>
      <trkpt lat="45.58784" lon="4.53876">
        <ele>817.20001220703</ele>
        <time>2022-04-24T08:14:26.000Z</time>
      </trkpt>
      <trkpt lat="45.58753" lon="4.53856">
        <ele>817.20001220703</ele>
        <time>2022-04-24T08:14:33.000Z</time>
      </trkpt>
      <trkpt lat="45.58748" lon="4.53851">
        <ele>817.40002441406</ele>
        <time>2022-04-24T08:14:34.000Z</time>
      </trkpt>
      <trkpt lat="45.5873" lon="4.53829">
        <ele>816.79998779297</ele>
        <time>2022-04-24T08:14:39.000Z</time>
      </trkpt>
      <trkpt lat="45.58706" lon="4.53796">
        <ele>817.40002441406</ele>
        <time>2022-04-24T08:14:46.000Z</time>
      </trkpt>
      <trkpt lat="45.58697" lon="4.5378">
        <ele>817</ele>
        <time>2022-04-24T08:14:51.000Z</time>
      </trkpt>
      <trkpt lat="45.58693" lon="4.5377">
        <ele>817</ele>
        <time>2022-04-24T08:14:54.000Z</time>
      </trkpt>
      <trkpt lat="45.58692" lon="4.53769">
        <ele>817</ele>
        <time>2022-04-24T08:14:55.000Z</time>
      </trkpt>
      <trkpt lat="45.58692" lon="4.53769">
        <ele>817</ele>
        <time>2022-04-24T08:14:56.000Z</time>
      </trkpt>
      <trkpt lat="45.58685" lon="4.53774">
        <ele>818.40002441406</ele>
        <time>2022-04-24T08:14:58.000Z</time>
      </trkpt>
      <trkpt lat="45.58684" lon="4.53775">
        <ele>818.59997558594</ele>
        <time>2022-04-24T08:14:59.000Z</time>
      </trkpt>
      <trkpt lat="45.58674" lon="4.53788">
        <ele>821</ele>
        <time>2022-04-24T08:15:07.000Z</time>
      </trkpt>
      <trkpt lat="45.58666" lon="4.53797">
        <ele>822.59997558594</ele>
        <time>2022-04-24T08:15:14.000Z</time>
      </trkpt>
      <trkpt lat="45.58656" lon="4.53806">
        <ele>824</ele>
        <time>2022-04-24T08:15:20.000Z</time>
      </trkpt>
      <trkpt lat="45.58647" lon="4.53814">
        <ele>825.40002441406</ele>
        <time>2022-04-24T08:15:26.000Z</time>
      </trkpt>
      <trkpt lat="45.58634" lon="4.53823">
        <ele>827</ele>
        <time>2022-04-24T08:15:34.000Z</time>
      </trkpt>
      <trkpt lat="45.58622" lon="4.53832">
        <ele>828.79998779297</ele>
        <time>2022-04-24T08:15:42.000Z</time>
      </trkpt>
      <trkpt lat="45.58614" lon="4.53837">
        <ele>830.20001220703</ele>
        <time>2022-04-24T08:15:47.000Z</time>
      </trkpt>
      <trkpt lat="45.58613" lon="4.53838">
        <ele>830.40002441406</ele>
        <time>2022-04-24T08:15:48.000Z</time>
      </trkpt>
      <trkpt lat="45.58603" lon="4.53845">
        <ele>833</ele>
        <time>2022-04-24T08:15:55.000Z</time>
      </trkpt>
      <trkpt lat="45.58596" lon="4.53851">
        <ele>835.20001220703</ele>
        <time>2022-04-24T08:16:00.000Z</time>
      </trkpt>
      <trkpt lat="45.58593" lon="4.53853">
        <ele>836</ele>
        <time>2022-04-24T08:16:02.000Z</time>
      </trkpt>
      <trkpt lat="45.58585" lon="4.53859">
        <ele>838.59997558594</ele>
        <time>2022-04-24T08:16:08.000Z</time>
      </trkpt>
      <trkpt lat="45.58584" lon="4.5386">
        <ele>839</ele>
        <time>2022-04-24T08:16:09.000Z</time>
      </trkpt>
      <trkpt lat="45.5858" lon="4.53863">
        <ele>840</ele>
        <time>2022-04-24T08:16:12.000Z</time>
      </trkpt>
      <trkpt lat="45.58579" lon="4.53864">
        <ele>840.20001220703</ele>
        <time>2022-04-24T08:16:13.000Z</time>
      </trkpt>
      <trkpt lat="45.58574" lon="4.53868">
        <ele>841.79998779297</ele>
        <time>2022-04-24T08:16:17.000Z</time>
      </trkpt>
      <trkpt lat="45.58571" lon="4.53871">
        <ele>842.79998779297</ele>
        <time>2022-04-24T08:16:20.000Z</time>
      </trkpt>
      <trkpt lat="45.58564" lon="4.53877">
        <ele>844.79998779297</ele>
        <time>2022-04-24T08:16:26.000Z</time>
      </trkpt>
      <trkpt lat="45.58552" lon="4.53884">
        <ele>847.40002441406</ele>
        <time>2022-04-24T08:16:35.000Z</time>
      </trkpt>
      <trkpt lat="45.58543" lon="4.5389">
        <ele>849</ele>
        <time>2022-04-24T08:16:42.000Z</time>
      </trkpt>
      <trkpt lat="45.58536" lon="4.53895">
        <ele>850.79998779297</ele>
        <time>2022-04-24T08:16:49.000Z</time>
      </trkpt>
      <trkpt lat="45.58532" lon="4.53897">
        <ele>851.20001220703</ele>
        <time>2022-04-24T08:16:53.000Z</time>
      </trkpt>
      <trkpt lat="45.58522" lon="4.53903">
        <ele>852</ele>
        <time>2022-04-24T08:17:00.000Z</time>
      </trkpt>
      <trkpt lat="45.58521" lon="4.53904">
        <ele>852.20001220703</ele>
        <time>2022-04-24T08:17:04.000Z</time>
      </trkpt>
      <trkpt lat="45.58513" lon="4.53909">
        <ele>852.79998779297</ele>
        <time>2022-04-24T08:17:08.000Z</time>
      </trkpt>
      <trkpt lat="45.58506" lon="4.53915">
        <ele>853.59997558594</ele>
        <time>2022-04-24T08:17:13.000Z</time>
      </trkpt>
      <trkpt lat="45.58498" lon="4.53922">
        <ele>854.79998779297</ele>
        <time>2022-04-24T08:17:20.000Z</time>
      </trkpt>
      <trkpt lat="45.58488" lon="4.53931">
        <ele>856.20001220703</ele>
        <time>2022-04-24T08:17:27.000Z</time>
      </trkpt>
      <trkpt lat="45.58477" lon="4.53941">
        <ele>856.59997558594</ele>
        <time>2022-04-24T08:17:35.000Z</time>
      </trkpt>
      <trkpt lat="45.58468" lon="4.53948">
        <ele>857.20001220703</ele>
        <time>2022-04-24T08:17:42.000Z</time>
      </trkpt>
      <trkpt lat="45.58458" lon="4.53957">
        <ele>858.40002441406</ele>
        <time>2022-04-24T08:17:50.000Z</time>
      </trkpt>
      <trkpt lat="45.58446" lon="4.53965">
        <ele>858.20001220703</ele>
        <time>2022-04-24T08:17:59.000Z</time>
      </trkpt>
      <trkpt lat="45.58436" lon="4.53972">
        <ele>860</ele>
        <time>2022-04-24T08:18:06.000Z</time>
      </trkpt>
      <trkpt lat="45.58428" lon="4.53978">
        <ele>861.59997558594</ele>
        <time>2022-04-24T08:18:12.000Z</time>
      </trkpt>
      <trkpt lat="45.58418" lon="4.5398">
        <ele>862.59997558594</ele>
        <time>2022-04-24T08:18:19.000Z</time>
      </trkpt>
      <trkpt lat="45.58406" lon="4.53967">
        <ele>862.20001220703</ele>
        <time>2022-04-24T08:18:26.000Z</time>
      </trkpt>
      <trkpt lat="45.58397" lon="4.5396">
        <ele>862.40002441406</ele>
        <time>2022-04-24T08:18:33.000Z</time>
      </trkpt>
      <trkpt lat="45.58397" lon="4.5396">
        <ele>862.40002441406</ele>
        <time>2022-04-24T08:18:35.000Z</time>
      </trkpt>
      <trkpt lat="45.58394" lon="4.53958">
        <ele>862.40002441406</ele>
        <time>2022-04-24T08:18:40.000Z</time>
      </trkpt>
      <trkpt lat="45.58392" lon="4.53957">
        <ele>862.40002441406</ele>
        <time>2022-04-24T08:18:41.000Z</time>
      </trkpt>
      <trkpt lat="45.58383" lon="4.53951">
        <ele>862.20001220703</ele>
        <time>2022-04-24T08:18:46.000Z</time>
      </trkpt>
      <trkpt lat="45.58379" lon="4.53948">
        <ele>862</ele>
        <time>2022-04-24T08:18:50.000Z</time>
      </trkpt>
      <trkpt lat="45.58378" lon="4.53947">
        <ele>862</ele>
        <time>2022-04-24T08:18:51.000Z</time>
      </trkpt>
      <trkpt lat="45.58376" lon="4.53945">
        <ele>862</ele>
        <time>2022-04-24T08:18:54.000Z</time>
      </trkpt>
      <trkpt lat="45.58372" lon="4.53944">
        <ele>862</ele>
        <time>2022-04-24T08:18:56.000Z</time>
      </trkpt>
      <trkpt lat="45.58372" lon="4.53944">
        <ele>862</ele>
        <time>2022-04-24T08:18:57.000Z</time>
      </trkpt>
      <trkpt lat="45.58372" lon="4.53942">
        <ele>862</ele>
        <time>2022-04-24T08:31:29.000Z</time>
      </trkpt>
      <trkpt lat="45.58371" lon="4.5394">
        <ele>862</ele>
        <time>2022-04-24T08:31:30.000Z</time>
      </trkpt>
      <trkpt lat="45.5837" lon="4.53939">
        <ele>862</ele>
        <time>2022-04-24T08:31:31.000Z</time>
      </trkpt>
      <trkpt lat="45.58359" lon="4.53927">
        <ele>861.79998779297</ele>
        <time>2022-04-24T08:31:37.000Z</time>
      </trkpt>
      <trkpt lat="45.58355" lon="4.53924">
        <ele>861.59997558594</ele>
        <time>2022-04-24T08:31:39.000Z</time>
      </trkpt>
      <trkpt lat="45.58351" lon="4.53922">
        <ele>861.59997558594</ele>
        <time>2022-04-24T08:31:41.000Z</time>
      </trkpt>
      <trkpt lat="45.58349" lon="4.5392">
        <ele>861.40002441406</ele>
        <time>2022-04-24T08:31:42.000Z</time>
      </trkpt>
      <trkpt lat="45.58349" lon="4.5392">
        <ele>861.40002441406</ele>
        <time>2022-04-24T08:31:43.000Z</time>
      </trkpt>
      <trkpt lat="45.58344" lon="4.53934">
        <ele>860.79998779297</ele>
        <time>2022-04-24T08:31:46.000Z</time>
      </trkpt>
      <trkpt lat="45.58345" lon="4.53938">
        <ele>860.59997558594</ele>
        <time>2022-04-24T08:31:49.000Z</time>
      </trkpt>
      <trkpt lat="45.58348" lon="4.53953">
        <ele>860</ele>
        <time>2022-04-24T08:31:50.000Z</time>
      </trkpt>
      <trkpt lat="45.58344" lon="4.53921">
        <ele>861.20001220703</ele>
        <time>2022-04-24T08:31:56.000Z</time>
      </trkpt>
      <trkpt lat="45.58344" lon="4.53919">
        <ele>861.20001220703</ele>
        <time>2022-04-24T08:31:57.000Z</time>
      </trkpt>
      <trkpt lat="45.58336" lon="4.53913">
        <ele>861.20001220703</ele>
        <time>2022-04-24T08:32:01.000Z</time>
      </trkpt>
      <trkpt lat="45.58336" lon="4.53913">
        <ele>861.20001220703</ele>
        <time>2022-04-24T08:32:02.000Z</time>
      </trkpt>
      <trkpt lat="45.58324" lon="4.53909">
        <ele>861.20001220703</ele>
        <time>2022-04-24T08:32:07.000Z</time>
      </trkpt>
      <trkpt lat="45.58316" lon="4.53906">
        <ele>861.20001220703</ele>
        <time>2022-04-24T08:32:10.000Z</time>
      </trkpt>
      <trkpt lat="45.58301" lon="4.53901">
        <ele>861</ele>
        <time>2022-04-24T08:32:16.000Z</time>
      </trkpt>
      <trkpt lat="45.58288" lon="4.53896">
        <ele>860.79998779297</ele>
        <time>2022-04-24T08:32:22.000Z</time>
      </trkpt>
      <trkpt lat="45.58284" lon="4.53895">
        <ele>860.79998779297</ele>
        <time>2022-04-24T08:32:24.000Z</time>
      </trkpt>
      <trkpt lat="45.58275" lon="4.53892">
        <ele>861.40002441406</ele>
        <time>2022-04-24T08:32:28.000Z</time>
      </trkpt>
      <trkpt lat="45.58265" lon="4.53888">
        <ele>862.79998779297</ele>
        <time>2022-04-24T08:32:32.000Z</time>
      </trkpt>
      <trkpt lat="45.58261" lon="4.53887">
        <ele>863.40002441406</ele>
        <time>2022-04-24T08:32:34.000Z</time>
      </trkpt>
      <trkpt lat="45.5825" lon="4.53883">
        <ele>865.20001220703</ele>
        <time>2022-04-24T08:32:39.000Z</time>
      </trkpt>
      <trkpt lat="45.58243" lon="4.53881">
        <ele>866.20001220703</ele>
        <time>2022-04-24T08:32:42.000Z</time>
      </trkpt>
      <trkpt lat="45.58237" lon="4.53881">
        <ele>866.79998779297</ele>
        <time>2022-04-24T08:32:45.000Z</time>
      </trkpt>
      <trkpt lat="45.5823" lon="4.5388">
        <ele>867.40002441406</ele>
        <time>2022-04-24T08:32:48.000Z</time>
      </trkpt>
      <trkpt lat="45.58225" lon="4.53879">
        <ele>867.79998779297</ele>
        <time>2022-04-24T08:32:50.000Z</time>
      </trkpt>
      <trkpt lat="45.58208" lon="4.53878">
        <ele>867.20001220703</ele>
        <time>2022-04-24T08:32:56.000Z</time>
      </trkpt>
      <trkpt lat="45.58205" lon="4.53878">
        <ele>867</ele>
        <time>2022-04-24T08:32:57.000Z</time>
      </trkpt>
      <trkpt lat="45.58183" lon="4.53876">
        <ele>866.59997558594</ele>
        <time>2022-04-24T08:33:03.000Z</time>
      </trkpt>
      <trkpt lat="45.58149" lon="4.53873">
        <ele>864.59997558594</ele>
        <time>2022-04-24T08:33:10.000Z</time>
      </trkpt>
      <trkpt lat="45.5813" lon="4.53864">
        <ele>863.59997558594</ele>
        <time>2022-04-24T08:33:13.000Z</time>
      </trkpt>
      <trkpt lat="45.58117" lon="4.53856">
        <ele>862.79998779297</ele>
        <time>2022-04-24T08:33:15.000Z</time>
      </trkpt>
      <trkpt lat="45.58108" lon="4.53844">
        <ele>862.59997558594</ele>
        <time>2022-04-24T08:33:17.000Z</time>
      </trkpt>
      <trkpt lat="45.58099" lon="4.53831">
        <ele>862.79998779297</ele>
        <time>2022-04-24T08:33:19.000Z</time>
      </trkpt>
      <trkpt lat="45.58096" lon="4.53824">
        <ele>862.79998779297</ele>
        <time>2022-04-24T08:33:20.000Z</time>
      </trkpt>
      <trkpt lat="45.58083" lon="4.538">
        <ele>863.20001220703</ele>
        <time>2022-04-24T08:33:24.000Z</time>
      </trkpt>
      <trkpt lat="45.58078" lon="4.53789">
        <ele>863.20001220703</ele>
        <time>2022-04-24T08:33:26.000Z</time>
      </trkpt>
      <trkpt lat="45.58067" lon="4.53768">
        <ele>862.79998779297</ele>
        <time>2022-04-24T08:33:30.000Z</time>
      </trkpt>
      <trkpt lat="45.58056" lon="4.53745">
        <ele>862</ele>
        <time>2022-04-24T08:33:34.000Z</time>
      </trkpt>
      <trkpt lat="45.58037" lon="4.53699">
        <ele>862.59997558594</ele>
        <time>2022-04-24T08:33:42.000Z</time>
      </trkpt>
      <trkpt lat="45.58018" lon="4.53655">
        <ele>863.59997558594</ele>
        <time>2022-04-24T08:33:50.000Z</time>
      </trkpt>
      <trkpt lat="45.58002" lon="4.53618">
        <ele>863.79998779297</ele>
        <time>2022-04-24T08:33:58.000Z</time>
      </trkpt>
      <trkpt lat="45.5799" lon="4.5359">
        <ele>864.20001220703</ele>
        <time>2022-04-24T08:34:04.000Z</time>
      </trkpt>
      <trkpt lat="45.57974" lon="4.53553">
        <ele>865.20001220703</ele>
        <time>2022-04-24T08:34:12.000Z</time>
      </trkpt>
      <trkpt lat="45.57961" lon="4.53523">
        <ele>866</ele>
        <time>2022-04-24T08:34:19.000Z</time>
      </trkpt>
      <trkpt lat="45.57951" lon="4.53502">
        <ele>866.40002441406</ele>
        <time>2022-04-24T08:34:24.000Z</time>
      </trkpt>
      <trkpt lat="45.57947" lon="4.53494">
        <ele>866.40002441406</ele>
        <time>2022-04-24T08:34:26.000Z</time>
      </trkpt>
      <trkpt lat="45.57929" lon="4.53471">
        <ele>866.59997558594</ele>
        <time>2022-04-24T08:34:33.000Z</time>
      </trkpt>
      <trkpt lat="45.57907" lon="4.53462">
        <ele>867.20001220703</ele>
        <time>2022-04-24T08:34:40.000Z</time>
      </trkpt>
      <trkpt lat="45.57887" lon="4.53455">
        <ele>868.20001220703</ele>
        <time>2022-04-24T08:34:46.000Z</time>
      </trkpt>
      <trkpt lat="45.57867" lon="4.53448">
        <ele>869.59997558594</ele>
        <time>2022-04-24T08:34:53.000Z</time>
      </trkpt>
      <trkpt lat="45.57837" lon="4.53437">
        <ele>871.79998779297</ele>
        <time>2022-04-24T08:35:03.000Z</time>
      </trkpt>
      <trkpt lat="45.57824" lon="4.53433">
        <ele>872.40002441406</ele>
        <time>2022-04-24T08:35:09.000Z</time>
      </trkpt>
      <trkpt lat="45.57816" lon="4.53408">
        <ele>875</ele>
        <time>2022-04-24T08:35:16.000Z</time>
      </trkpt>
      <trkpt lat="45.57805" lon="4.53407">
        <ele>875.40002441406</ele>
        <time>2022-04-24T08:35:22.000Z</time>
      </trkpt>
      <trkpt lat="45.57796" lon="4.53407">
        <ele>876</ele>
        <time>2022-04-24T08:35:28.000Z</time>
      </trkpt>
      <trkpt lat="45.57787" lon="4.53409">
        <ele>877.20001220703</ele>
        <time>2022-04-24T08:35:33.000Z</time>
      </trkpt>
      <trkpt lat="45.57786" lon="4.53409">
        <ele>877.40002441406</ele>
        <time>2022-04-24T08:35:34.000Z</time>
      </trkpt>
      <trkpt lat="45.57776" lon="4.53414">
        <ele>879</ele>
        <time>2022-04-24T08:35:40.000Z</time>
      </trkpt>
      <trkpt lat="45.57766" lon="4.53431">
        <ele>881</ele>
        <time>2022-04-24T08:35:47.000Z</time>
      </trkpt>
      <trkpt lat="45.57757" lon="4.53449">
        <ele>882.79998779297</ele>
        <time>2022-04-24T08:35:55.000Z</time>
      </trkpt>
      <trkpt lat="45.57747" lon="4.53459">
        <ele>885.20001220703</ele>
        <time>2022-04-24T08:36:01.000Z</time>
      </trkpt>
      <trkpt lat="45.57741" lon="4.53465">
        <ele>886.40002441406</ele>
        <time>2022-04-24T08:36:05.000Z</time>
      </trkpt>
      <trkpt lat="45.57738" lon="4.53467">
        <ele>886.59997558594</ele>
        <time>2022-04-24T08:36:06.000Z</time>
      </trkpt>
      <trkpt lat="45.57727" lon="4.53478">
        <ele>887.59997558594</ele>
        <time>2022-04-24T08:36:12.000Z</time>
      </trkpt>
      <trkpt lat="45.57717" lon="4.53486">
        <ele>887.20001220703</ele>
        <time>2022-04-24T08:36:17.000Z</time>
      </trkpt>
      <trkpt lat="45.57707" lon="4.53491">
        <ele>887</ele>
        <time>2022-04-24T08:36:22.000Z</time>
      </trkpt>
      <trkpt lat="45.57705" lon="4.53489">
        <ele>887.40002441406</ele>
        <time>2022-04-24T08:36:23.000Z</time>
      </trkpt>
      <trkpt lat="45.57708" lon="4.53488">
        <ele>887.59997558594</ele>
        <time>2022-04-24T08:36:24.000Z</time>
      </trkpt>
      <trkpt lat="45.57708" lon="4.53481">
        <ele>888.79998779297</ele>
        <time>2022-04-24T08:36:27.000Z</time>
      </trkpt>
      <trkpt lat="45.57707" lon="4.53467">
        <ele>891</ele>
        <time>2022-04-24T08:36:33.000Z</time>
      </trkpt>
      <trkpt lat="45.57702" lon="4.5345">
        <ele>893</ele>
        <time>2022-04-24T08:36:39.000Z</time>
      </trkpt>
      <trkpt lat="45.57692" lon="4.53442">
        <ele>894.40002441406</ele>
        <time>2022-04-24T08:36:45.000Z</time>
      </trkpt>
      <trkpt lat="45.57686" lon="4.53437">
        <ele>894.79998779297</ele>
        <time>2022-04-24T08:36:49.000Z</time>
      </trkpt>
      <trkpt lat="45.57685" lon="4.53435">
        <ele>895</ele>
        <time>2022-04-24T08:36:50.000Z</time>
      </trkpt>
      <trkpt lat="45.5767" lon="4.53422">
        <ele>896.40002441406</ele>
        <time>2022-04-24T08:36:57.000Z</time>
      </trkpt>
      <trkpt lat="45.57653" lon="4.53419">
        <ele>895.79998779297</ele>
        <time>2022-04-24T08:37:04.000Z</time>
      </trkpt>
      <trkpt lat="45.57635" lon="4.53415">
        <ele>895</ele>
        <time>2022-04-24T08:37:12.000Z</time>
      </trkpt>
      <trkpt lat="45.57618" lon="4.53412">
        <ele>894.20001220703</ele>
        <time>2022-04-24T08:37:18.000Z</time>
      </trkpt>
      <trkpt lat="45.57592" lon="4.53416">
        <ele>892.59997558594</ele>
        <time>2022-04-24T08:37:24.000Z</time>
      </trkpt>
      <trkpt lat="45.57554" lon="4.53432">
        <ele>889.20001220703</ele>
        <time>2022-04-24T08:37:32.000Z</time>
      </trkpt>
      <trkpt lat="45.57535" lon="4.53439">
        <ele>887.79998779297</ele>
        <time>2022-04-24T08:37:36.000Z</time>
      </trkpt>
      <trkpt lat="45.57525" lon="4.53442">
        <ele>887.40002441406</ele>
        <time>2022-04-24T08:37:38.000Z</time>
      </trkpt>
      <trkpt lat="45.57492" lon="4.53452">
        <ele>884.40002441406</ele>
        <time>2022-04-24T08:37:43.000Z</time>
      </trkpt>
      <trkpt lat="45.57476" lon="4.53449">
        <ele>883.59997558594</ele>
        <time>2022-04-24T08:37:45.000Z</time>
      </trkpt>
      <trkpt lat="45.57457" lon="4.53444">
        <ele>883</ele>
        <time>2022-04-24T08:37:47.000Z</time>
      </trkpt>
      <trkpt lat="45.57439" lon="4.53439">
        <ele>882.40002441406</ele>
        <time>2022-04-24T08:37:49.000Z</time>
      </trkpt>
      <trkpt lat="45.5743" lon="4.5344">
        <ele>881.20001220703</ele>
        <time>2022-04-24T08:37:50.000Z</time>
      </trkpt>
      <trkpt lat="45.57421" lon="4.53443">
        <ele>879.59997558594</ele>
        <time>2022-04-24T08:37:51.000Z</time>
      </trkpt>
      <trkpt lat="45.57403" lon="4.53453">
        <ele>875.59997558594</ele>
        <time>2022-04-24T08:37:53.000Z</time>
      </trkpt>
      <trkpt lat="45.57352" lon="4.53483">
        <ele>869.79998779297</ele>
        <time>2022-04-24T08:37:58.000Z</time>
      </trkpt>
      <trkpt lat="45.57335" lon="4.53493">
        <ele>868.20001220703</ele>
        <time>2022-04-24T08:38:01.000Z</time>
      </trkpt>
      <trkpt lat="45.57319" lon="4.53495">
        <ele>867.40002441406</ele>
        <time>2022-04-24T08:38:03.000Z</time>
      </trkpt>
      <trkpt lat="45.57307" lon="4.53495">
        <ele>867</ele>
        <time>2022-04-24T08:38:04.000Z</time>
      </trkpt>
      <trkpt lat="45.57301" lon="4.53489">
        <ele>866.79998779297</ele>
        <time>2022-04-24T08:38:05.000Z</time>
      </trkpt>
      <trkpt lat="45.57294" lon="4.53475">
        <ele>866.59997558594</ele>
        <time>2022-04-24T08:38:07.000Z</time>
      </trkpt>
      <trkpt lat="45.57287" lon="4.53459">
        <ele>866.20001220703</ele>
        <time>2022-04-24T08:38:10.000Z</time>
      </trkpt>
      <trkpt lat="45.57285" lon="4.53454">
        <ele>866.20001220703</ele>
        <time>2022-04-24T08:38:11.000Z</time>
      </trkpt>
      <trkpt lat="45.57283" lon="4.53449">
        <ele>866.20001220703</ele>
        <time>2022-04-24T08:38:12.000Z</time>
      </trkpt>
      <trkpt lat="45.5728" lon="4.53433">
        <ele>866.59997558594</ele>
        <time>2022-04-24T08:38:16.000Z</time>
      </trkpt>
      <trkpt lat="45.57273" lon="4.53397">
        <ele>867.79998779297</ele>
        <time>2022-04-24T08:38:24.000Z</time>
      </trkpt>
      <trkpt lat="45.5727" lon="4.5337">
        <ele>868.79998779297</ele>
        <time>2022-04-24T08:38:31.000Z</time>
      </trkpt>
      <trkpt lat="45.5727" lon="4.53342">
        <ele>869.40002441406</ele>
        <time>2022-04-24T08:38:38.000Z</time>
      </trkpt>
      <trkpt lat="45.57275" lon="4.53311">
        <ele>868.59997558594</ele>
        <time>2022-04-24T08:38:45.000Z</time>
      </trkpt>
      <trkpt lat="45.57282" lon="4.53269">
        <ele>867.40002441406</ele>
        <time>2022-04-24T08:38:54.000Z</time>
      </trkpt>
      <trkpt lat="45.57288" lon="4.53234">
        <ele>868</ele>
        <time>2022-04-24T08:39:01.000Z</time>
      </trkpt>
      <trkpt lat="45.57288" lon="4.53206">
        <ele>868.79998779297</ele>
        <time>2022-04-24T08:39:06.000Z</time>
      </trkpt>
      <trkpt lat="45.57289" lon="4.53163">
        <ele>869.40002441406</ele>
        <time>2022-04-24T08:39:13.000Z</time>
      </trkpt>
      <trkpt lat="45.57289" lon="4.53112">
        <ele>870.20001220703</ele>
        <time>2022-04-24T08:39:22.000Z</time>
      </trkpt>
      <trkpt lat="45.57289" lon="4.53074">
        <ele>870.79998779297</ele>
        <time>2022-04-24T08:39:29.000Z</time>
      </trkpt>
      <trkpt lat="45.57286" lon="4.53034">
        <ele>870.40002441406</ele>
        <time>2022-04-24T08:39:37.000Z</time>
      </trkpt>
      <trkpt lat="45.57283" lon="4.53001">
        <ele>870.79998779297</ele>
        <time>2022-04-24T08:39:44.000Z</time>
      </trkpt>
      <trkpt lat="45.5728" lon="4.52963">
        <ele>872.79998779297</ele>
        <time>2022-04-24T08:39:52.000Z</time>
      </trkpt>
      <trkpt lat="45.57275" lon="4.52928">
        <ele>874.79998779297</ele>
        <time>2022-04-24T08:40:00.000Z</time>
      </trkpt>
      <trkpt lat="45.57268" lon="4.52899">
        <ele>875.59997558594</ele>
        <time>2022-04-24T08:40:07.000Z</time>
      </trkpt>
      <trkpt lat="45.57256" lon="4.52878">
        <ele>876</ele>
        <time>2022-04-24T08:40:13.000Z</time>
      </trkpt>
      <trkpt lat="45.57246" lon="4.52875">
        <ele>875.20001220703</ele>
        <time>2022-04-24T08:40:17.000Z</time>
      </trkpt>
      <trkpt lat="45.57242" lon="4.52871">
        <ele>875</ele>
        <time>2022-04-24T08:40:18.000Z</time>
      </trkpt>
      <trkpt lat="45.5724" lon="4.52867">
        <ele>874.79998779297</ele>
        <time>2022-04-24T08:40:19.000Z</time>
      </trkpt>
      <trkpt lat="45.57232" lon="4.52855">
        <ele>874.59997558594</ele>
        <time>2022-04-24T08:40:22.000Z</time>
      </trkpt>
      <trkpt lat="45.57226" lon="4.52846">
        <ele>874.40002441406</ele>
        <time>2022-04-24T08:40:24.000Z</time>
      </trkpt>
      <trkpt lat="45.57221" lon="4.52837">
        <ele>873.79998779297</ele>
        <time>2022-04-24T08:40:26.000Z</time>
      </trkpt>
      <trkpt lat="45.57214" lon="4.52826">
        <ele>873.40002441406</ele>
        <time>2022-04-24T08:40:28.000Z</time>
      </trkpt>
      <trkpt lat="45.57209" lon="4.52812">
        <ele>873</ele>
        <time>2022-04-24T08:40:30.000Z</time>
      </trkpt>
      <trkpt lat="45.57194" lon="4.52771">
        <ele>873.59997558594</ele>
        <time>2022-04-24T08:40:36.000Z</time>
      </trkpt>
      <trkpt lat="45.57189" lon="4.52756">
        <ele>872.59997558594</ele>
        <time>2022-04-24T08:40:38.000Z</time>
      </trkpt>
      <trkpt lat="45.57184" lon="4.52726">
        <ele>874.20001220703</ele>
        <time>2022-04-24T08:40:42.000Z</time>
      </trkpt>
      <trkpt lat="45.57181" lon="4.5271">
        <ele>874.59997558594</ele>
        <time>2022-04-24T08:40:44.000Z</time>
      </trkpt>
      <trkpt lat="45.57173" lon="4.52679">
        <ele>873.59997558594</ele>
        <time>2022-04-24T08:40:48.000Z</time>
      </trkpt>
      <trkpt lat="45.57162" lon="4.52631">
        <ele>872.59997558594</ele>
        <time>2022-04-24T08:40:54.000Z</time>
      </trkpt>
      <trkpt lat="45.57155" lon="4.52618">
        <ele>872</ele>
        <time>2022-04-24T08:40:56.000Z</time>
      </trkpt>
      <trkpt lat="45.57148" lon="4.52605">
        <ele>871.79998779297</ele>
        <time>2022-04-24T08:40:58.000Z</time>
      </trkpt>
      <trkpt lat="45.57129" lon="4.52574">
        <ele>872</ele>
        <time>2022-04-24T08:41:04.000Z</time>
      </trkpt>
      <trkpt lat="45.57126" lon="4.52569">
        <ele>872</ele>
        <time>2022-04-24T08:41:05.000Z</time>
      </trkpt>
      <trkpt lat="45.57117" lon="4.52545">
        <ele>871.59997558594</ele>
        <time>2022-04-24T08:41:09.000Z</time>
      </trkpt>
      <trkpt lat="45.57112" lon="4.52538">
        <ele>871.40002441406</ele>
        <time>2022-04-24T08:41:10.000Z</time>
      </trkpt>
      <trkpt lat="45.57097" lon="4.52521">
        <ele>870.20001220703</ele>
        <time>2022-04-24T08:41:13.000Z</time>
      </trkpt>
      <trkpt lat="45.57076" lon="4.52498">
        <ele>868.20001220703</ele>
        <time>2022-04-24T08:41:17.000Z</time>
      </trkpt>
      <trkpt lat="45.57076" lon="4.52498">
        <ele>868.20001220703</ele>
        <time>2022-04-24T08:41:18.000Z</time>
      </trkpt>
      <trkpt lat="45.57071" lon="4.52481">
        <ele>868.40002441406</ele>
        <time>2022-04-24T08:41:19.000Z</time>
      </trkpt>
      <trkpt lat="45.57066" lon="4.5246">
        <ele>869.20001220703</ele>
        <time>2022-04-24T08:41:22.000Z</time>
      </trkpt>
      <trkpt lat="45.57058" lon="4.52436">
        <ele>870.59997558594</ele>
        <time>2022-04-24T08:41:27.000Z</time>
      </trkpt>
      <trkpt lat="45.57046" lon="4.52416">
        <ele>873.40002441406</ele>
        <time>2022-04-24T08:41:33.000Z</time>
      </trkpt>
      <trkpt lat="45.57036" lon="4.52399">
        <ele>875.59997558594</ele>
        <time>2022-04-24T08:41:38.000Z</time>
      </trkpt>
      <trkpt lat="45.57029" lon="4.52387">
        <ele>877</ele>
        <time>2022-04-24T08:41:42.000Z</time>
      </trkpt>
      <trkpt lat="45.5702" lon="4.52367">
        <ele>878</ele>
        <time>2022-04-24T08:41:49.000Z</time>
      </trkpt>
      <trkpt lat="45.57015" lon="4.52344">
        <ele>879.20001220703</ele>
        <time>2022-04-24T08:41:57.000Z</time>
      </trkpt>
      <trkpt lat="45.5701" lon="4.52324">
        <ele>881.20001220703</ele>
        <time>2022-04-24T08:42:04.000Z</time>
      </trkpt>
      <trkpt lat="45.57006" lon="4.52307">
        <ele>883.20001220703</ele>
        <time>2022-04-24T08:42:10.000Z</time>
      </trkpt>
      <trkpt lat="45.57002" lon="4.52288">
        <ele>885.40002441406</ele>
        <time>2022-04-24T08:42:17.000Z</time>
      </trkpt>
      <trkpt lat="45.56998" lon="4.52271">
        <ele>886.20001220703</ele>
        <time>2022-04-24T08:42:23.000Z</time>
      </trkpt>
      <trkpt lat="45.56996" lon="4.52253">
        <ele>887</ele>
        <time>2022-04-24T08:42:28.000Z</time>
      </trkpt>
      <trkpt lat="45.56996" lon="4.52253">
        <ele>887</ele>
        <time>2022-04-24T08:42:29.000Z</time>
      </trkpt>
      <trkpt lat="45.56997" lon="4.52239">
        <ele>887.20001220703</ele>
        <time>2022-04-24T08:42:32.000Z</time>
      </trkpt>
      <trkpt lat="45.56999" lon="4.52219">
        <ele>887.79998779297</ele>
        <time>2022-04-24T08:42:37.000Z</time>
      </trkpt>
      <trkpt lat="45.57" lon="4.52194">
        <ele>887</ele>
        <time>2022-04-24T08:42:42.000Z</time>
      </trkpt>
      <trkpt lat="45.56995" lon="4.52172">
        <ele>886</ele>
        <time>2022-04-24T08:42:46.000Z</time>
      </trkpt>
      <trkpt lat="45.56993" lon="4.52167">
        <ele>885.59997558594</ele>
        <time>2022-04-24T08:42:47.000Z</time>
      </trkpt>
      <trkpt lat="45.56985" lon="4.52131">
        <ele>884.40002441406</ele>
        <time>2022-04-24T08:42:53.000Z</time>
      </trkpt>
      <trkpt lat="45.56981" lon="4.5211">
        <ele>884</ele>
        <time>2022-04-24T08:42:56.000Z</time>
      </trkpt>
      <trkpt lat="45.56979" lon="4.52095">
        <ele>883.40002441406</ele>
        <time>2022-04-24T08:42:58.000Z</time>
      </trkpt>
      <trkpt lat="45.5698" lon="4.5208">
        <ele>883.40002441406</ele>
        <time>2022-04-24T08:43:00.000Z</time>
      </trkpt>
      <trkpt lat="45.56982" lon="4.52066">
        <ele>884</ele>
        <time>2022-04-24T08:43:02.000Z</time>
      </trkpt>
      <trkpt lat="45.56983" lon="4.5206">
        <ele>884.20001220703</ele>
        <time>2022-04-24T08:43:03.000Z</time>
      </trkpt>
      <trkpt lat="45.56983" lon="4.52055">
        <ele>884.40002441406</ele>
        <time>2022-04-24T08:43:04.000Z</time>
      </trkpt>
      <trkpt lat="45.56985" lon="4.52038">
        <ele>885.20001220703</ele>
        <time>2022-04-24T08:43:07.000Z</time>
      </trkpt>
      <trkpt lat="45.56985" lon="4.52032">
        <ele>885.59997558594</ele>
        <time>2022-04-24T08:43:08.000Z</time>
      </trkpt>
      <trkpt lat="45.56985" lon="4.52015">
        <ele>885.79998779297</ele>
        <time>2022-04-24T08:43:11.000Z</time>
      </trkpt>
      <trkpt lat="45.56988" lon="4.51983">
        <ele>887.40002441406</ele>
        <time>2022-04-24T08:43:17.000Z</time>
      </trkpt>
      <trkpt lat="45.56993" lon="4.51964">
        <ele>887.79998779297</ele>
        <time>2022-04-24T08:43:21.000Z</time>
      </trkpt>
      <trkpt lat="45.56998" lon="4.5195">
        <ele>887.59997558594</ele>
        <time>2022-04-24T08:43:24.000Z</time>
      </trkpt>
      <trkpt lat="45.57003" lon="4.51931">
        <ele>886.40002441406</ele>
        <time>2022-04-24T08:43:27.000Z</time>
      </trkpt>
      <trkpt lat="45.57005" lon="4.51916">
        <ele>885</ele>
        <time>2022-04-24T08:43:29.000Z</time>
      </trkpt>
      <trkpt lat="45.57006" lon="4.51892">
        <ele>882.40002441406</ele>
        <time>2022-04-24T08:43:32.000Z</time>
      </trkpt>
      <trkpt lat="45.57005" lon="4.51882">
        <ele>881.79998779297</ele>
        <time>2022-04-24T08:43:34.000Z</time>
      </trkpt>
      <trkpt lat="45.57003" lon="4.51871">
        <ele>880.79998779297</ele>
        <time>2022-04-24T08:43:36.000Z</time>
      </trkpt>
      <trkpt lat="45.57" lon="4.51857">
        <ele>879.40002441406</ele>
        <time>2022-04-24T08:43:38.000Z</time>
      </trkpt>
      <trkpt lat="45.56997" lon="4.51844">
        <ele>877.59997558594</ele>
        <time>2022-04-24T08:43:40.000Z</time>
      </trkpt>
      <trkpt lat="45.56992" lon="4.5183">
        <ele>875.59997558594</ele>
        <time>2022-04-24T08:43:42.000Z</time>
      </trkpt>
      <trkpt lat="45.5699" lon="4.51823">
        <ele>874.59997558594</ele>
        <time>2022-04-24T08:43:43.000Z</time>
      </trkpt>
      <trkpt lat="45.56987" lon="4.51809">
        <ele>872.59997558594</ele>
        <time>2022-04-24T08:43:45.000Z</time>
      </trkpt>
      <trkpt lat="45.56986" lon="4.51797">
        <ele>870.59997558594</ele>
        <time>2022-04-24T08:43:47.000Z</time>
      </trkpt>
      <trkpt lat="45.56985" lon="4.51781">
        <ele>868</ele>
        <time>2022-04-24T08:43:49.000Z</time>
      </trkpt>
      <trkpt lat="45.56985" lon="4.51774">
        <ele>866.79998779297</ele>
        <time>2022-04-24T08:43:50.000Z</time>
      </trkpt>
      <trkpt lat="45.56983" lon="4.5175">
        <ele>863.20001220703</ele>
        <time>2022-04-24T08:43:53.000Z</time>
      </trkpt>
      <trkpt lat="45.56983" lon="4.5174">
        <ele>862.79998779297</ele>
        <time>2022-04-24T08:43:54.000Z</time>
      </trkpt>
      <trkpt lat="45.56981" lon="4.51709">
        <ele>861.20001220703</ele>
        <time>2022-04-24T08:43:57.000Z</time>
      </trkpt>
      <trkpt lat="45.56981" lon="4.51687">
        <ele>861</ele>
        <time>2022-04-24T08:43:59.000Z</time>
      </trkpt>
      <trkpt lat="45.56983" lon="4.51615">
        <ele>861</ele>
        <time>2022-04-24T08:44:06.000Z</time>
      </trkpt>
      <trkpt lat="45.56987" lon="4.51557">
        <ele>861</ele>
        <time>2022-04-24T08:44:12.000Z</time>
      </trkpt>
      <trkpt lat="45.56988" lon="4.5154">
        <ele>861</ele>
        <time>2022-04-24T08:44:14.000Z</time>
      </trkpt>
      <trkpt lat="45.5699" lon="4.51524">
        <ele>861.20001220703</ele>
        <time>2022-04-24T08:44:16.000Z</time>
      </trkpt>
      <trkpt lat="45.56991" lon="4.51515">
        <ele>861.59997558594</ele>
        <time>2022-04-24T08:44:17.000Z</time>
      </trkpt>
      <trkpt lat="45.56991" lon="4.51507">
        <ele>861.59997558594</ele>
        <time>2022-04-24T08:44:18.000Z</time>
      </trkpt>
      <trkpt lat="45.56995" lon="4.51467">
        <ele>861.79998779297</ele>
        <time>2022-04-24T08:44:23.000Z</time>
      </trkpt>
      <trkpt lat="45.56997" lon="4.51448">
        <ele>861.79998779297</ele>
        <time>2022-04-24T08:44:26.000Z</time>
      </trkpt>
      <trkpt lat="45.57" lon="4.51436">
        <ele>862</ele>
        <time>2022-04-24T08:44:28.000Z</time>
      </trkpt>
      <trkpt lat="45.57004" lon="4.51432">
        <ele>862</ele>
        <time>2022-04-24T08:44:29.000Z</time>
      </trkpt>
      <trkpt lat="45.57015" lon="4.51415">
        <ele>862</ele>
        <time>2022-04-24T08:44:33.000Z</time>
      </trkpt>
      <trkpt lat="45.57019" lon="4.51408">
        <ele>862</ele>
        <time>2022-04-24T08:44:35.000Z</time>
      </trkpt>
      <trkpt lat="45.57019" lon="4.51403">
        <ele>862.20001220703</ele>
        <time>2022-04-24T08:44:36.000Z</time>
      </trkpt>
      <trkpt lat="45.57019" lon="4.5138">
        <ele>863</ele>
        <time>2022-04-24T08:44:41.000Z</time>
      </trkpt>
      <trkpt lat="45.57022" lon="4.51351">
        <ele>863.40002441406</ele>
        <time>2022-04-24T08:44:48.000Z</time>
      </trkpt>
      <trkpt lat="45.57026" lon="4.51324">
        <ele>864.20001220703</ele>
        <time>2022-04-24T08:44:56.000Z</time>
      </trkpt>
      <trkpt lat="45.57026" lon="4.5132">
        <ele>864.20001220703</ele>
        <time>2022-04-24T08:44:57.000Z</time>
      </trkpt>
      <trkpt lat="45.57028" lon="4.51295">
        <ele>865</ele>
        <time>2022-04-24T08:45:04.000Z</time>
      </trkpt>
      <trkpt lat="45.57028" lon="4.51264">
        <ele>866.59997558594</ele>
        <time>2022-04-24T08:45:12.000Z</time>
      </trkpt>
      <trkpt lat="45.57026" lon="4.51232">
        <ele>868</ele>
        <time>2022-04-24T08:45:19.000Z</time>
      </trkpt>
      <trkpt lat="45.57017" lon="4.51189">
        <ele>868.20001220703</ele>
        <time>2022-04-24T08:45:26.000Z</time>
      </trkpt>
      <trkpt lat="45.57003" lon="4.51133">
        <ele>866.40002441406</ele>
        <time>2022-04-24T08:45:34.000Z</time>
      </trkpt>
      <trkpt lat="45.57001" lon="4.51126">
        <ele>866</ele>
        <time>2022-04-24T08:45:35.000Z</time>
      </trkpt>
      <trkpt lat="45.56996" lon="4.51103">
        <ele>864.79998779297</ele>
        <time>2022-04-24T08:45:38.000Z</time>
      </trkpt>
      <trkpt lat="45.56983" lon="4.5104">
        <ele>863.59997558594</ele>
        <time>2022-04-24T08:45:46.000Z</time>
      </trkpt>
      <trkpt lat="45.56979" lon="4.50995">
        <ele>863.79998779297</ele>
        <time>2022-04-24T08:45:52.000Z</time>
      </trkpt>
      <trkpt lat="45.56972" lon="4.50943">
        <ele>864</ele>
        <time>2022-04-24T08:45:59.000Z</time>
      </trkpt>
      <trkpt lat="45.56966" lon="4.50896">
        <ele>864</ele>
        <time>2022-04-24T08:46:06.000Z</time>
      </trkpt>
      <trkpt lat="45.56959" lon="4.50869">
        <ele>865</ele>
        <time>2022-04-24T08:46:12.000Z</time>
      </trkpt>
      <trkpt lat="45.56951" lon="4.50833">
        <ele>867.20001220703</ele>
        <time>2022-04-24T08:46:21.000Z</time>
      </trkpt>
      <trkpt lat="45.56941" lon="4.50803">
        <ele>870.20001220703</ele>
        <time>2022-04-24T08:46:29.000Z</time>
      </trkpt>
      <trkpt lat="45.56931" lon="4.50776">
        <ele>873.20001220703</ele>
        <time>2022-04-24T08:46:37.000Z</time>
      </trkpt>
      <trkpt lat="45.56927" lon="4.50751">
        <ele>875.59997558594</ele>
        <time>2022-04-24T08:46:44.000Z</time>
      </trkpt>
      <trkpt lat="45.56927" lon="4.50721">
        <ele>877.79998779297</ele>
        <time>2022-04-24T08:46:52.000Z</time>
      </trkpt>
      <trkpt lat="45.56927" lon="4.50697">
        <ele>878.59997558594</ele>
        <time>2022-04-24T08:46:58.000Z</time>
      </trkpt>
      <trkpt lat="45.56926" lon="4.50677">
        <ele>878.79998779297</ele>
        <time>2022-04-24T08:47:04.000Z</time>
      </trkpt>
      <trkpt lat="45.56924" lon="4.50655">
        <ele>878.79998779297</ele>
        <time>2022-04-24T08:47:11.000Z</time>
      </trkpt>
      <trkpt lat="45.5692" lon="4.50635">
        <ele>878.59997558594</ele>
        <time>2022-04-24T08:47:14.000Z</time>
      </trkpt>
      <trkpt lat="45.56918" lon="4.50623">
        <ele>877.79998779297</ele>
        <time>2022-04-24T08:47:16.000Z</time>
      </trkpt>
      <trkpt lat="45.5691" lon="4.50583">
        <ele>875</ele>
        <time>2022-04-24T08:47:21.000Z</time>
      </trkpt>
      <trkpt lat="45.56897" lon="4.50531">
        <ele>870.20001220703</ele>
        <time>2022-04-24T08:47:26.000Z</time>
      </trkpt>
      <trkpt lat="45.56888" lon="4.50491">
        <ele>866</ele>
        <time>2022-04-24T08:47:30.000Z</time>
      </trkpt>
      <trkpt lat="45.56888" lon="4.50484">
        <ele>865.20001220703</ele>
        <time>2022-04-24T08:47:31.000Z</time>
      </trkpt>
      <trkpt lat="45.56887" lon="4.50476">
        <ele>864.20001220703</ele>
        <time>2022-04-24T08:47:32.000Z</time>
      </trkpt>
      <trkpt lat="45.56885" lon="4.50457">
        <ele>861.79998779297</ele>
        <time>2022-04-24T08:47:34.000Z</time>
      </trkpt>
      <trkpt lat="45.56884" lon="4.50446">
        <ele>860.20001220703</ele>
        <time>2022-04-24T08:47:35.000Z</time>
      </trkpt>
      <trkpt lat="45.56883" lon="4.50436">
        <ele>858.79998779297</ele>
        <time>2022-04-24T08:47:36.000Z</time>
      </trkpt>
      <trkpt lat="45.56881" lon="4.50418">
        <ele>856.79998779297</ele>
        <time>2022-04-24T08:47:38.000Z</time>
      </trkpt>
      <trkpt lat="45.56875" lon="4.50373">
        <ele>849</ele>
        <time>2022-04-24T08:47:42.000Z</time>
      </trkpt>
      <trkpt lat="45.56871" lon="4.50339">
        <ele>845</ele>
        <time>2022-04-24T08:47:45.000Z</time>
      </trkpt>
      <trkpt lat="45.56871" lon="4.50315">
        <ele>844</ele>
        <time>2022-04-24T08:47:47.000Z</time>
      </trkpt>
      <trkpt lat="45.56871" lon="4.5027">
        <ele>841.79998779297</ele>
        <time>2022-04-24T08:47:51.000Z</time>
      </trkpt>
      <trkpt lat="45.56869" lon="4.5026">
        <ele>840.59997558594</ele>
        <time>2022-04-24T08:47:52.000Z</time>
      </trkpt>
      <trkpt lat="45.56864" lon="4.50239">
        <ele>838.40002441406</ele>
        <time>2022-04-24T08:47:54.000Z</time>
      </trkpt>
      <trkpt lat="45.56857" lon="4.50217">
        <ele>836</ele>
        <time>2022-04-24T08:47:56.000Z</time>
      </trkpt>
      <trkpt lat="45.56837" lon="4.50178">
        <ele>830.20001220703</ele>
        <time>2022-04-24T08:48:00.000Z</time>
      </trkpt>
      <trkpt lat="45.5681" lon="4.50131">
        <ele>826.79998779297</ele>
        <time>2022-04-24T08:48:05.000Z</time>
      </trkpt>
      <trkpt lat="45.56797" lon="4.5011">
        <ele>826</ele>
        <time>2022-04-24T08:48:08.000Z</time>
      </trkpt>
      <trkpt lat="45.56795" lon="4.50105">
        <ele>825.79998779297</ele>
        <time>2022-04-24T08:48:09.000Z</time>
      </trkpt>
      <trkpt lat="45.56783" lon="4.50087">
        <ele>825.20001220703</ele>
        <time>2022-04-24T08:48:13.000Z</time>
      </trkpt>
      <trkpt lat="45.56771" lon="4.50069">
        <ele>825.40002441406</ele>
        <time>2022-04-24T08:48:18.000Z</time>
      </trkpt>
      <trkpt lat="45.56771" lon="4.50055">
        <ele>825.20001220703</ele>
        <time>2022-04-24T08:48:22.000Z</time>
      </trkpt>
      <trkpt lat="45.56771" lon="4.50054">
        <ele>825.20001220703</ele>
        <time>2022-04-24T08:48:25.000Z</time>
      </trkpt>
      <trkpt lat="45.56771" lon="4.50049">
        <ele>825</ele>
        <time>2022-04-24T08:49:16.000Z</time>
      </trkpt>
      <trkpt lat="45.56771" lon="4.50046">
        <ele>825</ele>
        <time>2022-04-24T08:49:17.000Z</time>
      </trkpt>
      <trkpt lat="45.56771" lon="4.50027">
        <ele>825</ele>
        <time>2022-04-24T08:49:21.000Z</time>
      </trkpt>
      <trkpt lat="45.56771" lon="4.50002">
        <ele>825.40002441406</ele>
        <time>2022-04-24T08:49:27.000Z</time>
      </trkpt>
      <trkpt lat="45.56771" lon="4.49979">
        <ele>825.40002441406</ele>
        <time>2022-04-24T08:49:30.000Z</time>
      </trkpt>
      <trkpt lat="45.56765" lon="4.49971">
        <ele>825.59997558594</ele>
        <time>2022-04-24T08:49:32.000Z</time>
      </trkpt>
      <trkpt lat="45.56749" lon="4.49962">
        <ele>826</ele>
        <time>2022-04-24T08:49:37.000Z</time>
      </trkpt>
      <trkpt lat="45.56747" lon="4.49961">
        <ele>825.79998779297</ele>
        <time>2022-04-24T08:49:38.000Z</time>
      </trkpt>
      <trkpt lat="45.56729" lon="4.49951">
        <ele>825.20001220703</ele>
        <time>2022-04-24T08:49:44.000Z</time>
      </trkpt>
      <trkpt lat="45.56721" lon="4.49947">
        <ele>825.20001220703</ele>
        <time>2022-04-24T08:49:47.000Z</time>
      </trkpt>
      <trkpt lat="45.56708" lon="4.4994">
        <ele>825.79998779297</ele>
        <time>2022-04-24T08:49:51.000Z</time>
      </trkpt>
      <trkpt lat="45.56699" lon="4.49935">
        <ele>826.20001220703</ele>
        <time>2022-04-24T08:49:54.000Z</time>
      </trkpt>
      <trkpt lat="45.56681" lon="4.49925">
        <ele>826.79998779297</ele>
        <time>2022-04-24T08:50:01.000Z</time>
      </trkpt>
      <trkpt lat="45.56674" lon="4.49911">
        <ele>827.40002441406</ele>
        <time>2022-04-24T08:50:06.000Z</time>
      </trkpt>
      <trkpt lat="45.56672" lon="4.49908">
        <ele>827.59997558594</ele>
        <time>2022-04-24T08:50:07.000Z</time>
      </trkpt>
      <trkpt lat="45.56662" lon="4.49884">
        <ele>829.40002441406</ele>
        <time>2022-04-24T08:50:15.000Z</time>
      </trkpt>
      <trkpt lat="45.56653" lon="4.49858">
        <ele>830.20001220703</ele>
        <time>2022-04-24T08:50:24.000Z</time>
      </trkpt>
      <trkpt lat="45.56647" lon="4.49839">
        <ele>831.40002441406</ele>
        <time>2022-04-24T08:50:31.000Z</time>
      </trkpt>
      <trkpt lat="45.56646" lon="4.49836">
        <ele>831.59997558594</ele>
        <time>2022-04-24T08:50:32.000Z</time>
      </trkpt>
      <trkpt lat="45.56641" lon="4.49819">
        <ele>833.59997558594</ele>
        <time>2022-04-24T08:50:39.000Z</time>
      </trkpt>
      <trkpt lat="45.56634" lon="4.49793">
        <ele>836.40002441406</ele>
        <time>2022-04-24T08:50:48.000Z</time>
      </trkpt>
      <trkpt lat="45.56628" lon="4.49772">
        <ele>838</ele>
        <time>2022-04-24T08:50:55.000Z</time>
      </trkpt>
      <trkpt lat="45.56623" lon="4.49753">
        <ele>839.20001220703</ele>
        <time>2022-04-24T08:51:01.000Z</time>
      </trkpt>
      <trkpt lat="45.56613" lon="4.49726">
        <ele>840.79998779297</ele>
        <time>2022-04-24T08:51:08.000Z</time>
      </trkpt>
      <trkpt lat="45.56597" lon="4.49694">
        <ele>841</ele>
        <time>2022-04-24T08:51:16.000Z</time>
      </trkpt>
      <trkpt lat="45.56587" lon="4.49666">
        <ele>840</ele>
        <time>2022-04-24T08:51:22.000Z</time>
      </trkpt>
      <trkpt lat="45.56575" lon="4.49633">
        <ele>839.59997558594</ele>
        <time>2022-04-24T08:51:29.000Z</time>
      </trkpt>
      <trkpt lat="45.56563" lon="4.49601">
        <ele>839.79998779297</ele>
        <time>2022-04-24T08:51:37.000Z</time>
      </trkpt>
      <trkpt lat="45.56555" lon="4.49586">
        <ele>839.79998779297</ele>
        <time>2022-04-24T08:51:41.000Z</time>
      </trkpt>
      <trkpt lat="45.56547" lon="4.4957">
        <ele>839.79998779297</ele>
        <time>2022-04-24T08:51:44.000Z</time>
      </trkpt>
      <trkpt lat="45.56544" lon="4.49559">
        <ele>840.40002441406</ele>
        <time>2022-04-24T08:51:46.000Z</time>
      </trkpt>
      <trkpt lat="45.56539" lon="4.49533">
        <ele>840.79998779297</ele>
        <time>2022-04-24T08:51:50.000Z</time>
      </trkpt>
      <trkpt lat="45.56539" lon="4.49527">
        <ele>841</ele>
        <time>2022-04-24T08:51:51.000Z</time>
      </trkpt>
      <trkpt lat="45.56539" lon="4.49521">
        <ele>841</ele>
        <time>2022-04-24T08:51:52.000Z</time>
      </trkpt>
      <trkpt lat="45.56539" lon="4.49504">
        <ele>841.20001220703</ele>
        <time>2022-04-24T08:51:55.000Z</time>
      </trkpt>
      <trkpt lat="45.56539" lon="4.49494">
        <ele>841.20001220703</ele>
        <time>2022-04-24T08:51:57.000Z</time>
      </trkpt>
      <trkpt lat="45.56543" lon="4.49466">
        <ele>840.20001220703</ele>
        <time>2022-04-24T08:52:02.000Z</time>
      </trkpt>
      <trkpt lat="45.56544" lon="4.4946">
        <ele>840.20001220703</ele>
        <time>2022-04-24T08:52:03.000Z</time>
      </trkpt>
      <trkpt lat="45.56547" lon="4.49432">
        <ele>839.20001220703</ele>
        <time>2022-04-24T08:52:07.000Z</time>
      </trkpt>
      <trkpt lat="45.56547" lon="4.49424">
        <ele>838.59997558594</ele>
        <time>2022-04-24T08:52:08.000Z</time>
      </trkpt>
      <trkpt lat="45.56547" lon="4.49417">
        <ele>838</ele>
        <time>2022-04-24T08:52:09.000Z</time>
      </trkpt>
      <trkpt lat="45.56545" lon="4.49403">
        <ele>837</ele>
        <time>2022-04-24T08:52:11.000Z</time>
      </trkpt>
      <trkpt lat="45.56544" lon="4.49396">
        <ele>836.79998779297</ele>
        <time>2022-04-24T08:52:12.000Z</time>
      </trkpt>
      <trkpt lat="45.56525" lon="4.4937">
        <ele>835.79998779297</ele>
        <time>2022-04-24T08:52:16.000Z</time>
      </trkpt>
      <trkpt lat="45.5652" lon="4.49363">
        <ele>835.59997558594</ele>
        <time>2022-04-24T08:52:18.000Z</time>
      </trkpt>
      <trkpt lat="45.56513" lon="4.4935">
        <ele>835.40002441406</ele>
        <time>2022-04-24T08:52:19.000Z</time>
      </trkpt>
      <trkpt lat="45.56504" lon="4.49346">
        <ele>835</ele>
        <time>2022-04-24T08:52:21.000Z</time>
      </trkpt>
      <trkpt lat="45.56495" lon="4.49355">
        <ele>834</ele>
        <time>2022-04-24T08:52:23.000Z</time>
      </trkpt>
      <trkpt lat="45.5648" lon="4.49393">
        <ele>831</ele>
        <time>2022-04-24T08:52:28.000Z</time>
      </trkpt>
      <trkpt lat="45.56464" lon="4.49427">
        <ele>827.20001220703</ele>
        <time>2022-04-24T08:52:32.000Z</time>
      </trkpt>
      <trkpt lat="45.56458" lon="4.49434">
        <ele>826.20001220703</ele>
        <time>2022-04-24T08:52:33.000Z</time>
      </trkpt>
      <trkpt lat="45.56443" lon="4.49447">
        <ele>825</ele>
        <time>2022-04-24T08:52:36.000Z</time>
      </trkpt>
      <trkpt lat="45.56436" lon="4.49452">
        <ele>824.79998779297</ele>
        <time>2022-04-24T08:52:40.000Z</time>
      </trkpt>
      <trkpt lat="45.56421" lon="4.49462">
        <ele>824.40002441406</ele>
        <time>2022-04-24T08:52:42.000Z</time>
      </trkpt>
      <trkpt lat="45.56418" lon="4.49465">
        <ele>824.40002441406</ele>
        <time>2022-04-24T08:52:43.000Z</time>
      </trkpt>
      <trkpt lat="45.56403" lon="4.49478">
        <ele>825.59997558594</ele>
        <time>2022-04-24T08:52:47.000Z</time>
      </trkpt>
      <trkpt lat="45.56387" lon="4.49485">
        <ele>826.20001220703</ele>
        <time>2022-04-24T08:52:51.000Z</time>
      </trkpt>
      <trkpt lat="45.5638" lon="4.49489">
        <ele>826</ele>
        <time>2022-04-24T08:52:53.000Z</time>
      </trkpt>
      <trkpt lat="45.56359" lon="4.49498">
        <ele>826.59997558594</ele>
        <time>2022-04-24T08:52:59.000Z</time>
      </trkpt>
      <trkpt lat="45.56356" lon="4.49499">
        <ele>826.59997558594</ele>
        <time>2022-04-24T08:53:00.000Z</time>
      </trkpt>
      <trkpt lat="45.56343" lon="4.49502">
        <ele>826.59997558594</ele>
        <time>2022-04-24T08:53:04.000Z</time>
      </trkpt>
      <trkpt lat="45.56329" lon="4.49506">
        <ele>827</ele>
        <time>2022-04-24T08:53:08.000Z</time>
      </trkpt>
      <trkpt lat="45.56319" lon="4.4951">
        <ele>827.40002441406</ele>
        <time>2022-04-24T08:53:11.000Z</time>
      </trkpt>
      <trkpt lat="45.56308" lon="4.49515">
        <ele>828.20001220703</ele>
        <time>2022-04-24T08:53:15.000Z</time>
      </trkpt>
      <trkpt lat="45.56291" lon="4.49524">
        <ele>829</ele>
        <time>2022-04-24T08:53:21.000Z</time>
      </trkpt>
      <trkpt lat="45.56283" lon="4.49528">
        <ele>829.20001220703</ele>
        <time>2022-04-24T08:53:24.000Z</time>
      </trkpt>
      <trkpt lat="45.56265" lon="4.49547">
        <ele>831.40002441406</ele>
        <time>2022-04-24T08:53:31.000Z</time>
      </trkpt>
      <trkpt lat="45.56246" lon="4.4957">
        <ele>831.59997558594</ele>
        <time>2022-04-24T08:53:39.000Z</time>
      </trkpt>
      <trkpt lat="45.56229" lon="4.49592">
        <ele>832</ele>
        <time>2022-04-24T08:53:46.000Z</time>
      </trkpt>
      <trkpt lat="45.56217" lon="4.49607">
        <ele>831.20001220703</ele>
        <time>2022-04-24T08:53:52.000Z</time>
      </trkpt>
      <trkpt lat="45.56203" lon="4.49626">
        <ele>831.40002441406</ele>
        <time>2022-04-24T08:53:57.000Z</time>
      </trkpt>
      <trkpt lat="45.5619" lon="4.49644">
        <ele>832.20001220703</ele>
        <time>2022-04-24T08:54:03.000Z</time>
      </trkpt>
      <trkpt lat="45.56188" lon="4.49647">
        <ele>832.40002441406</ele>
        <time>2022-04-24T08:54:04.000Z</time>
      </trkpt>
      <trkpt lat="45.56181" lon="4.49656">
        <ele>832.59997558594</ele>
        <time>2022-04-24T08:54:07.000Z</time>
      </trkpt>
      <trkpt lat="45.56181" lon="4.49657">
        <ele>832.59997558594</ele>
        <time>2022-04-24T08:54:08.000Z</time>
      </trkpt>
      <trkpt lat="45.56172" lon="4.49652">
        <ele>834</ele>
        <time>2022-04-24T08:54:13.000Z</time>
      </trkpt>
      <trkpt lat="45.56169" lon="4.4965">
        <ele>834.59997558594</ele>
        <time>2022-04-24T08:54:15.000Z</time>
      </trkpt>
      <trkpt lat="45.56165" lon="4.49649">
        <ele>835.20001220703</ele>
        <time>2022-04-24T08:54:17.000Z</time>
      </trkpt>
      <trkpt lat="45.56157" lon="4.49646">
        <ele>836.79998779297</ele>
        <time>2022-04-24T08:54:21.000Z</time>
      </trkpt>
      <trkpt lat="45.56152" lon="4.49647">
        <ele>837.59997558594</ele>
        <time>2022-04-24T08:54:24.000Z</time>
      </trkpt>
      <trkpt lat="45.56147" lon="4.49647">
        <ele>838.59997558594</ele>
        <time>2022-04-24T08:54:27.000Z</time>
      </trkpt>
      <trkpt lat="45.56144" lon="4.49647">
        <ele>839.20001220703</ele>
        <time>2022-04-24T08:54:29.000Z</time>
      </trkpt>
      <trkpt lat="45.56131" lon="4.49645">
        <ele>841.20001220703</ele>
        <time>2022-04-24T08:54:36.000Z</time>
      </trkpt>
      <trkpt lat="45.56118" lon="4.49648">
        <ele>843</ele>
        <time>2022-04-24T08:54:44.000Z</time>
      </trkpt>
      <trkpt lat="45.56115" lon="4.49648">
        <ele>843.59997558594</ele>
        <time>2022-04-24T08:54:46.000Z</time>
      </trkpt>
      <trkpt lat="45.5611" lon="4.49651">
        <ele>844.20001220703</ele>
        <time>2022-04-24T08:54:49.000Z</time>
      </trkpt>
      <trkpt lat="45.56101" lon="4.49658">
        <ele>845.40002441406</ele>
        <time>2022-04-24T08:54:55.000Z</time>
      </trkpt>
      <trkpt lat="45.56093" lon="4.49661">
        <ele>846.20001220703</ele>
        <time>2022-04-24T08:55:01.000Z</time>
      </trkpt>
      <trkpt lat="45.56086" lon="4.49667">
        <ele>846.79998779297</ele>
        <time>2022-04-24T08:55:07.000Z</time>
      </trkpt>
      <trkpt lat="45.56082" lon="4.49674">
        <ele>847.40002441406</ele>
        <time>2022-04-24T08:55:12.000Z</time>
      </trkpt>
      <trkpt lat="45.56081" lon="4.49675">
        <ele>847.79998779297</ele>
        <time>2022-04-24T08:55:13.000Z</time>
      </trkpt>
      <trkpt lat="45.56072" lon="4.4968">
        <ele>849.40002441406</ele>
        <time>2022-04-24T08:55:18.000Z</time>
      </trkpt>
      <trkpt lat="45.56068" lon="4.49684">
        <ele>850</ele>
        <time>2022-04-24T08:55:20.000Z</time>
      </trkpt>
      <trkpt lat="45.56065" lon="4.49686">
        <ele>850.59997558594</ele>
        <time>2022-04-24T08:55:22.000Z</time>
      </trkpt>
      <trkpt lat="45.56056" lon="4.49693">
        <ele>852.20001220703</ele>
        <time>2022-04-24T08:55:28.000Z</time>
      </trkpt>
      <trkpt lat="45.56049" lon="4.49705">
        <ele>853.79998779297</ele>
        <time>2022-04-24T08:55:34.000Z</time>
      </trkpt>
      <trkpt lat="45.56042" lon="4.49721">
        <ele>855.20001220703</ele>
        <time>2022-04-24T08:55:40.000Z</time>
      </trkpt>
      <trkpt lat="45.56038" lon="4.49734">
        <ele>856.20001220703</ele>
        <time>2022-04-24T08:55:45.000Z</time>
      </trkpt>
      <trkpt lat="45.56037" lon="4.49736">
        <ele>856.40002441406</ele>
        <time>2022-04-24T08:55:46.000Z</time>
      </trkpt>
      <trkpt lat="45.56032" lon="4.49745">
        <ele>857.40002441406</ele>
        <time>2022-04-24T08:55:51.000Z</time>
      </trkpt>
      <trkpt lat="45.56028" lon="4.49746">
        <ele>858.40002441406</ele>
        <time>2022-04-24T08:55:55.000Z</time>
      </trkpt>
      <trkpt lat="45.56026" lon="4.49746">
        <ele>859</ele>
        <time>2022-04-24T08:55:56.000Z</time>
      </trkpt>
      <trkpt lat="45.56021" lon="4.49746">
        <ele>860</ele>
        <time>2022-04-24T08:56:01.000Z</time>
      </trkpt>
      <trkpt lat="45.56013" lon="4.49757">
        <ele>861</ele>
        <time>2022-04-24T08:56:07.000Z</time>
      </trkpt>
      <trkpt lat="45.5601" lon="4.4976">
        <ele>861.40002441406</ele>
        <time>2022-04-24T08:56:09.000Z</time>
      </trkpt>
      <trkpt lat="45.56008" lon="4.49762">
        <ele>862</ele>
        <time>2022-04-24T08:56:11.000Z</time>
      </trkpt>
      <trkpt lat="45.56006" lon="4.49764">
        <ele>862.40002441406</ele>
        <time>2022-04-24T08:56:12.000Z</time>
      </trkpt>
      <trkpt lat="45.55997" lon="4.49771">
        <ele>864</ele>
        <time>2022-04-24T08:56:18.000Z</time>
      </trkpt>
      <trkpt lat="45.55982" lon="4.4978">
        <ele>865</ele>
        <time>2022-04-24T08:56:26.000Z</time>
      </trkpt>
      <trkpt lat="45.55979" lon="4.49784">
        <ele>865</ele>
        <time>2022-04-24T08:56:28.000Z</time>
      </trkpt>
      <trkpt lat="45.55975" lon="4.49789">
        <ele>865</ele>
        <time>2022-04-24T08:56:30.000Z</time>
      </trkpt>
      <trkpt lat="45.5596" lon="4.49801">
        <ele>863.79998779297</ele>
        <time>2022-04-24T08:56:35.000Z</time>
      </trkpt>
      <trkpt lat="45.5595" lon="4.49806">
        <ele>863</ele>
        <time>2022-04-24T08:56:39.000Z</time>
      </trkpt>
      <trkpt lat="45.55933" lon="4.49815">
        <ele>861.79998779297</ele>
        <time>2022-04-24T08:56:44.000Z</time>
      </trkpt>
      <trkpt lat="45.5591" lon="4.49824">
        <ele>861.40002441406</ele>
        <time>2022-04-24T08:56:50.000Z</time>
      </trkpt>
      <trkpt lat="45.55886" lon="4.49837">
        <ele>860.79998779297</ele>
        <time>2022-04-24T08:56:57.000Z</time>
      </trkpt>
      <trkpt lat="45.55883" lon="4.49836">
        <ele>861</ele>
        <time>2022-04-24T08:56:58.000Z</time>
      </trkpt>
      <trkpt lat="45.55875" lon="4.49836">
        <ele>861.20001220703</ele>
        <time>2022-04-24T08:57:00.000Z</time>
      </trkpt>
      <trkpt lat="45.55862" lon="4.4981">
        <ele>863.59997558594</ele>
        <time>2022-04-24T08:57:07.000Z</time>
      </trkpt>
      <trkpt lat="45.55847" lon="4.49777">
        <ele>863</ele>
        <time>2022-04-24T08:57:16.000Z</time>
      </trkpt>
      <trkpt lat="45.55841" lon="4.49751">
        <ele>862.20001220703</ele>
        <time>2022-04-24T08:57:23.000Z</time>
      </trkpt>
      <trkpt lat="45.55836" lon="4.4972">
        <ele>861</ele>
        <time>2022-04-24T08:57:27.000Z</time>
      </trkpt>
      <trkpt lat="45.55827" lon="4.49676">
        <ele>859.79998779297</ele>
        <time>2022-04-24T08:57:31.000Z</time>
      </trkpt>
      <trkpt lat="45.55813" lon="4.49611">
        <ele>853.20001220703</ele>
        <time>2022-04-24T08:57:36.000Z</time>
      </trkpt>
      <trkpt lat="45.55807" lon="4.49586">
        <ele>851.20001220703</ele>
        <time>2022-04-24T08:57:39.000Z</time>
      </trkpt>
      <trkpt lat="45.55805" lon="4.4958">
        <ele>850.79998779297</ele>
        <time>2022-04-24T08:57:40.000Z</time>
      </trkpt>
      <trkpt lat="45.558" lon="4.49574">
        <ele>850.59997558594</ele>
        <time>2022-04-24T08:57:42.000Z</time>
      </trkpt>
      <trkpt lat="45.55784" lon="4.49585">
        <ele>852</ele>
        <time>2022-04-24T08:57:48.000Z</time>
      </trkpt>
      <trkpt lat="45.5576" lon="4.49595">
        <ele>855</ele>
        <time>2022-04-24T08:57:57.000Z</time>
      </trkpt>
      <trkpt lat="45.55738" lon="4.49596">
        <ele>857.40002441406</ele>
        <time>2022-04-24T08:58:05.000Z</time>
      </trkpt>
      <trkpt lat="45.55721" lon="4.49597">
        <ele>858.59997558594</ele>
        <time>2022-04-24T08:58:12.000Z</time>
      </trkpt>
      <trkpt lat="45.55703" lon="4.49598">
        <ele>858.59997558594</ele>
        <time>2022-04-24T08:58:20.000Z</time>
      </trkpt>
      <trkpt lat="45.55682" lon="4.496">
        <ele>859.59997558594</ele>
        <time>2022-04-24T08:58:29.000Z</time>
      </trkpt>
      <trkpt lat="45.55664" lon="4.496">
        <ele>860.79998779297</ele>
        <time>2022-04-24T08:58:37.000Z</time>
      </trkpt>
      <trkpt lat="45.55643" lon="4.496">
        <ele>861.79998779297</ele>
        <time>2022-04-24T08:58:46.000Z</time>
      </trkpt>
      <trkpt lat="45.55623" lon="4.49597">
        <ele>862.59997558594</ele>
        <time>2022-04-24T08:58:54.000Z</time>
      </trkpt>
      <trkpt lat="45.55602" lon="4.49591">
        <ele>862.59997558594</ele>
        <time>2022-04-24T08:59:02.000Z</time>
      </trkpt>
      <trkpt lat="45.55582" lon="4.4958">
        <ele>862</ele>
        <time>2022-04-24T08:59:08.000Z</time>
      </trkpt>
      <trkpt lat="45.55551" lon="4.49563">
        <ele>861.20001220703</ele>
        <time>2022-04-24T08:59:16.000Z</time>
      </trkpt>
      <trkpt lat="45.55547" lon="4.4956">
        <ele>861.20001220703</ele>
        <time>2022-04-24T08:59:17.000Z</time>
      </trkpt>
      <trkpt lat="45.55527" lon="4.4955">
        <ele>861.20001220703</ele>
        <time>2022-04-24T08:59:23.000Z</time>
      </trkpt>
      <trkpt lat="45.555" lon="4.4954">
        <ele>861.59997558594</ele>
        <time>2022-04-24T08:59:32.000Z</time>
      </trkpt>
      <trkpt lat="45.55477" lon="4.4953">
        <ele>861</ele>
        <time>2022-04-24T08:59:40.000Z</time>
      </trkpt>
      <trkpt lat="45.55462" lon="4.49525">
        <ele>861</ele>
        <time>2022-04-24T08:59:45.000Z</time>
      </trkpt>
      <trkpt lat="45.55438" lon="4.49515">
        <ele>860.79998779297</ele>
        <time>2022-04-24T08:59:53.000Z</time>
      </trkpt>
      <trkpt lat="45.55418" lon="4.49505">
        <ele>859.79998779297</ele>
        <time>2022-04-24T09:00:00.000Z</time>
      </trkpt>
      <trkpt lat="45.554" lon="4.49489">
        <ele>859</ele>
        <time>2022-04-24T09:00:06.000Z</time>
      </trkpt>
      <trkpt lat="45.55385" lon="4.49471">
        <ele>858.40002441406</ele>
        <time>2022-04-24T09:00:12.000Z</time>
      </trkpt>
      <trkpt lat="45.55366" lon="4.49465">
        <ele>856.59997558594</ele>
        <time>2022-04-24T09:00:17.000Z</time>
      </trkpt>
      <trkpt lat="45.55362" lon="4.49464">
        <ele>856.20001220703</ele>
        <time>2022-04-24T09:00:18.000Z</time>
      </trkpt>
      <trkpt lat="45.55338" lon="4.49459">
        <ele>855.59997558594</ele>
        <time>2022-04-24T09:00:24.000Z</time>
      </trkpt>
      <trkpt lat="45.5533" lon="4.49457">
        <ele>855.59997558594</ele>
        <time>2022-04-24T09:00:26.000Z</time>
      </trkpt>
      <trkpt lat="45.55307" lon="4.49454">
        <ele>855.40002441406</ele>
        <time>2022-04-24T09:00:32.000Z</time>
      </trkpt>
      <trkpt lat="45.55283" lon="4.4945">
        <ele>854.79998779297</ele>
        <time>2022-04-24T09:00:39.000Z</time>
      </trkpt>
      <trkpt lat="45.55264" lon="4.49447">
        <ele>854.20001220703</ele>
        <time>2022-04-24T09:00:45.000Z</time>
      </trkpt>
      <trkpt lat="45.55245" lon="4.49441">
        <ele>854.20001220703</ele>
        <time>2022-04-24T09:00:51.000Z</time>
      </trkpt>
      <trkpt lat="45.55219" lon="4.49432">
        <ele>854</ele>
        <time>2022-04-24T09:00:58.000Z</time>
      </trkpt>
      <trkpt lat="45.55191" lon="4.49425">
        <ele>852.59997558594</ele>
        <time>2022-04-24T09:01:04.000Z</time>
      </trkpt>
      <trkpt lat="45.55186" lon="4.49425">
        <ele>852</ele>
        <time>2022-04-24T09:01:05.000Z</time>
      </trkpt>
      <trkpt lat="45.55174" lon="4.49427">
        <ele>850.59997558594</ele>
        <time>2022-04-24T09:01:07.000Z</time>
      </trkpt>
      <trkpt lat="45.55167" lon="4.49428">
        <ele>849.59997558594</ele>
        <time>2022-04-24T09:01:08.000Z</time>
      </trkpt>
      <trkpt lat="45.55132" lon="4.49435">
        <ele>844.20001220703</ele>
        <time>2022-04-24T09:01:13.000Z</time>
      </trkpt>
      <trkpt lat="45.55119" lon="4.49437">
        <ele>842.20001220703</ele>
        <time>2022-04-24T09:01:15.000Z</time>
      </trkpt>
      <trkpt lat="45.55104" lon="4.49449">
        <ele>839.79998779297</ele>
        <time>2022-04-24T09:01:18.000Z</time>
      </trkpt>
      <trkpt lat="45.55083" lon="4.4947">
        <ele>836.79998779297</ele>
        <time>2022-04-24T09:01:22.000Z</time>
      </trkpt>
      <trkpt lat="45.55052" lon="4.49509">
        <ele>829</ele>
        <time>2022-04-24T09:01:27.000Z</time>
      </trkpt>
      <trkpt lat="45.55025" lon="4.49539">
        <ele>821.40002441406</ele>
        <time>2022-04-24T09:01:32.000Z</time>
      </trkpt>
      <trkpt lat="45.55003" lon="4.49555">
        <ele>816.40002441406</ele>
        <time>2022-04-24T09:01:36.000Z</time>
      </trkpt>
      <trkpt lat="45.55" lon="4.49562">
        <ele>815.59997558594</ele>
        <time>2022-04-24T09:01:37.000Z</time>
      </trkpt>
      <trkpt lat="45.54997" lon="4.49573">
        <ele>814.59997558594</ele>
        <time>2022-04-24T09:01:39.000Z</time>
      </trkpt>
      <trkpt lat="45.54988" lon="4.49584">
        <ele>812.59997558594</ele>
        <time>2022-04-24T09:01:41.000Z</time>
      </trkpt>
      <trkpt lat="45.54967" lon="4.49602">
        <ele>808.40002441406</ele>
        <time>2022-04-24T09:01:44.000Z</time>
      </trkpt>
      <trkpt lat="45.54939" lon="4.49621">
        <ele>802</ele>
        <time>2022-04-24T09:01:48.000Z</time>
      </trkpt>
      <trkpt lat="45.54922" lon="4.49631">
        <ele>798.20001220703</ele>
        <time>2022-04-24T09:01:51.000Z</time>
      </trkpt>
      <trkpt lat="45.5491" lon="4.49638">
        <ele>795.59997558594</ele>
        <time>2022-04-24T09:01:53.000Z</time>
      </trkpt>
      <trkpt lat="45.54873" lon="4.49647">
        <ele>788.59997558594</ele>
        <time>2022-04-24T09:01:58.000Z</time>
      </trkpt>
      <trkpt lat="45.54854" lon="4.49651">
        <ele>786.20001220703</ele>
        <time>2022-04-24T09:02:01.000Z</time>
      </trkpt>
      <trkpt lat="45.54845" lon="4.49654">
        <ele>785.20001220703</ele>
        <time>2022-04-24T09:02:03.000Z</time>
      </trkpt>
      <trkpt lat="45.54834" lon="4.49656">
        <ele>784</ele>
        <time>2022-04-24T09:02:05.000Z</time>
      </trkpt>
      <trkpt lat="45.54808" lon="4.49659">
        <ele>782</ele>
        <time>2022-04-24T09:02:09.000Z</time>
      </trkpt>
      <trkpt lat="45.54771" lon="4.49661">
        <ele>777.79998779297</ele>
        <time>2022-04-24T09:02:14.000Z</time>
      </trkpt>
      <trkpt lat="45.54727" lon="4.49663">
        <ele>773.20001220703</ele>
        <time>2022-04-24T09:02:19.000Z</time>
      </trkpt>
      <trkpt lat="45.54702" lon="4.49657">
        <ele>771.20001220703</ele>
        <time>2022-04-24T09:02:22.000Z</time>
      </trkpt>
      <trkpt lat="45.54694" lon="4.49656">
        <ele>770.59997558594</ele>
        <time>2022-04-24T09:02:23.000Z</time>
      </trkpt>
      <trkpt lat="45.54686" lon="4.49657">
        <ele>770</ele>
        <time>2022-04-24T09:02:24.000Z</time>
      </trkpt>
      <trkpt lat="45.54679" lon="4.49658">
        <ele>769.79998779297</ele>
        <time>2022-04-24T09:02:25.000Z</time>
      </trkpt>
      <trkpt lat="45.54666" lon="4.49662">
        <ele>769.59997558594</ele>
        <time>2022-04-24T09:02:27.000Z</time>
      </trkpt>
      <trkpt lat="45.54661" lon="4.49664">
        <ele>769.79998779297</ele>
        <time>2022-04-24T09:02:28.000Z</time>
      </trkpt>
      <trkpt lat="45.54655" lon="4.49668">
        <ele>770.59997558594</ele>
        <time>2022-04-24T09:02:30.000Z</time>
      </trkpt>
      <trkpt lat="45.54645" lon="4.49673">
        <ele>771.40002441406</ele>
        <time>2022-04-24T09:02:34.000Z</time>
      </trkpt>
      <trkpt lat="45.54627" lon="4.49663">
        <ele>771</ele>
        <time>2022-04-24T09:02:40.000Z</time>
      </trkpt>
      <trkpt lat="45.54594" lon="4.49658">
        <ele>770.40002441406</ele>
        <time>2022-04-24T09:02:48.000Z</time>
      </trkpt>
      <trkpt lat="45.54561" lon="4.49654">
        <ele>769.59997558594</ele>
        <time>2022-04-24T09:02:55.000Z</time>
      </trkpt>
      <trkpt lat="45.54545" lon="4.49653">
        <ele>769.20001220703</ele>
        <time>2022-04-24T09:02:58.000Z</time>
      </trkpt>
      <trkpt lat="45.5453" lon="4.49653">
        <ele>768</ele>
        <time>2022-04-24T09:03:01.000Z</time>
      </trkpt>
      <trkpt lat="45.54486" lon="4.4965">
        <ele>765.20001220703</ele>
        <time>2022-04-24T09:03:10.000Z</time>
      </trkpt>
      <trkpt lat="45.54481" lon="4.49649">
        <ele>765</ele>
        <time>2022-04-24T09:03:11.000Z</time>
      </trkpt>
      <trkpt lat="45.54456" lon="4.49638">
        <ele>764.59997558594</ele>
        <time>2022-04-24T09:03:16.000Z</time>
      </trkpt>
      <trkpt lat="45.54425" lon="4.49622">
        <ele>765.79998779297</ele>
        <time>2022-04-24T09:03:23.000Z</time>
      </trkpt>
      <trkpt lat="45.54422" lon="4.4962">
        <ele>766</ele>
        <time>2022-04-24T09:03:24.000Z</time>
      </trkpt>
      <trkpt lat="45.54397" lon="4.49605">
        <ele>766.59997558594</ele>
        <time>2022-04-24T09:03:31.000Z</time>
      </trkpt>
      <trkpt lat="45.54383" lon="4.49591">
        <ele>766.59997558594</ele>
        <time>2022-04-24T09:03:35.000Z</time>
      </trkpt>
      <trkpt lat="45.5438" lon="4.49587">
        <ele>766.59997558594</ele>
        <time>2022-04-24T09:03:36.000Z</time>
      </trkpt>
      <trkpt lat="45.54366" lon="4.49574">
        <ele>766.20001220703</ele>
        <time>2022-04-24T09:03:40.000Z</time>
      </trkpt>
      <trkpt lat="45.5436" lon="4.49567">
        <ele>766</ele>
        <time>2022-04-24T09:03:42.000Z</time>
      </trkpt>
      <trkpt lat="45.54353" lon="4.49561">
        <ele>766</ele>
        <time>2022-04-24T09:03:44.000Z</time>
      </trkpt>
      <trkpt lat="45.54341" lon="4.49549">
        <ele>766.40002441406</ele>
        <time>2022-04-24T09:03:48.000Z</time>
      </trkpt>
      <trkpt lat="45.5432" lon="4.49533">
        <ele>767.79998779297</ele>
        <time>2022-04-24T09:03:54.000Z</time>
      </trkpt>
      <trkpt lat="45.54313" lon="4.49527">
        <ele>768.40002441406</ele>
        <time>2022-04-24T09:03:56.000Z</time>
      </trkpt>
      <trkpt lat="45.54298" lon="4.49512">
        <ele>769.79998779297</ele>
        <time>2022-04-24T09:04:01.000Z</time>
      </trkpt>
      <trkpt lat="45.5429" lon="4.49503">
        <ele>770.40002441406</ele>
        <time>2022-04-24T09:04:03.000Z</time>
      </trkpt>
      <trkpt lat="45.54278" lon="4.49489">
        <ele>770.79998779297</ele>
        <time>2022-04-24T09:04:06.000Z</time>
      </trkpt>
      <trkpt lat="45.54254" lon="4.49459">
        <ele>770.79998779297</ele>
        <time>2022-04-24T09:04:12.000Z</time>
      </trkpt>
      <trkpt lat="45.5425" lon="4.49454">
        <ele>770.59997558594</ele>
        <time>2022-04-24T09:04:13.000Z</time>
      </trkpt>
      <trkpt lat="45.54247" lon="4.4945">
        <ele>770.20001220703</ele>
        <time>2022-04-24T09:04:14.000Z</time>
      </trkpt>
      <trkpt lat="45.54232" lon="4.49433">
        <ele>769.20001220703</ele>
        <time>2022-04-24T09:04:18.000Z</time>
      </trkpt>
      <trkpt lat="45.5421" lon="4.49411">
        <ele>769</ele>
        <time>2022-04-24T09:04:24.000Z</time>
      </trkpt>
      <trkpt lat="45.5419" lon="4.49389">
        <ele>769.79998779297</ele>
        <time>2022-04-24T09:04:30.000Z</time>
      </trkpt>
      <trkpt lat="45.5417" lon="4.49369">
        <ele>771.20001220703</ele>
        <time>2022-04-24T09:04:36.000Z</time>
      </trkpt>
      <trkpt lat="45.54168" lon="4.49367">
        <ele>771.40002441406</ele>
        <time>2022-04-24T09:04:37.000Z</time>
      </trkpt>
      <trkpt lat="45.54161" lon="4.49361">
        <ele>771.40002441406</ele>
        <time>2022-04-24T09:04:39.000Z</time>
      </trkpt>
      <trkpt lat="45.54158" lon="4.49357">
        <ele>771.40002441406</ele>
        <time>2022-04-24T09:04:40.000Z</time>
      </trkpt>
      <trkpt lat="45.54142" lon="4.49343">
        <ele>771.59997558594</ele>
        <time>2022-04-24T09:04:45.000Z</time>
      </trkpt>
      <trkpt lat="45.54135" lon="4.49335">
        <ele>771.59997558594</ele>
        <time>2022-04-24T09:04:46.000Z</time>
      </trkpt>
      <trkpt lat="45.54127" lon="4.49328">
        <ele>771.59997558594</ele>
        <time>2022-04-24T09:04:48.000Z</time>
      </trkpt>
      <trkpt lat="45.54123" lon="4.49324">
        <ele>771.59997558594</ele>
        <time>2022-04-24T09:04:50.000Z</time>
      </trkpt>
      <trkpt lat="45.54115" lon="4.49317">
        <ele>771.59997558594</ele>
        <time>2022-04-24T09:04:51.000Z</time>
      </trkpt>
      <trkpt lat="45.54107" lon="4.49309">
        <ele>772</ele>
        <time>2022-04-24T09:04:54.000Z</time>
      </trkpt>
      <trkpt lat="45.54098" lon="4.49301">
        <ele>772.59997558594</ele>
        <time>2022-04-24T09:04:55.000Z</time>
      </trkpt>
      <trkpt lat="45.5408" lon="4.49286">
        <ele>774</ele>
        <time>2022-04-24T09:05:00.000Z</time>
      </trkpt>
      <trkpt lat="45.54047" lon="4.49265">
        <ele>774.79998779297</ele>
        <time>2022-04-24T09:05:06.000Z</time>
      </trkpt>
      <trkpt lat="45.54017" lon="4.49241">
        <ele>774.79998779297</ele>
        <time>2022-04-24T09:05:13.000Z</time>
      </trkpt>
      <trkpt lat="45.5401" lon="4.49234">
        <ele>774.59997558594</ele>
        <time>2022-04-24T09:05:15.000Z</time>
      </trkpt>
      <trkpt lat="45.54001" lon="4.49227">
        <ele>774.40002441406</ele>
        <time>2022-04-24T09:05:17.000Z</time>
      </trkpt>
      <trkpt lat="45.53997" lon="4.49224">
        <ele>774.40002441406</ele>
        <time>2022-04-24T09:05:18.000Z</time>
      </trkpt>
      <trkpt lat="45.53989" lon="4.49218">
        <ele>774.20001220703</ele>
        <time>2022-04-24T09:05:20.000Z</time>
      </trkpt>
      <trkpt lat="45.53985" lon="4.49214">
        <ele>774</ele>
        <time>2022-04-24T09:05:21.000Z</time>
      </trkpt>
      <trkpt lat="45.53974" lon="4.49204">
        <ele>773.59997558594</ele>
        <time>2022-04-24T09:05:24.000Z</time>
      </trkpt>
      <trkpt lat="45.53966" lon="4.49197">
        <ele>773.79998779297</ele>
        <time>2022-04-24T09:05:26.000Z</time>
      </trkpt>
      <trkpt lat="45.53962" lon="4.49194">
        <ele>773.79998779297</ele>
        <time>2022-04-24T09:05:27.000Z</time>
      </trkpt>
      <trkpt lat="45.53939" lon="4.49173">
        <ele>775</ele>
        <time>2022-04-24T09:05:34.000Z</time>
      </trkpt>
      <trkpt lat="45.53919" lon="4.49154">
        <ele>776.40002441406</ele>
        <time>2022-04-24T09:05:41.000Z</time>
      </trkpt>
      <trkpt lat="45.53892" lon="4.4913">
        <ele>777</ele>
        <time>2022-04-24T09:05:50.000Z</time>
      </trkpt>
      <trkpt lat="45.53875" lon="4.49113">
        <ele>777</ele>
        <time>2022-04-24T09:05:56.000Z</time>
      </trkpt>
      <trkpt lat="45.53854" lon="4.49092">
        <ele>775.40002441406</ele>
        <time>2022-04-24T09:06:02.000Z</time>
      </trkpt>
      <trkpt lat="45.53836" lon="4.49073">
        <ele>773.79998779297</ele>
        <time>2022-04-24T09:06:06.000Z</time>
      </trkpt>
      <trkpt lat="45.53801" lon="4.49048">
        <ele>768.20001220703</ele>
        <time>2022-04-24T09:06:11.000Z</time>
      </trkpt>
      <trkpt lat="45.53754" lon="4.49017">
        <ele>763.79998779297</ele>
        <time>2022-04-24T09:06:16.000Z</time>
      </trkpt>
      <trkpt lat="45.53718" lon="4.48993">
        <ele>763</ele>
        <time>2022-04-24T09:06:20.000Z</time>
      </trkpt>
      <trkpt lat="45.5371" lon="4.48988">
        <ele>763</ele>
        <time>2022-04-24T09:06:21.000Z</time>
      </trkpt>
      <trkpt lat="45.53696" lon="4.48974">
        <ele>763</ele>
        <time>2022-04-24T09:06:23.000Z</time>
      </trkpt>
      <trkpt lat="45.53685" lon="4.48959">
        <ele>763.40002441406</ele>
        <time>2022-04-24T09:06:25.000Z</time>
      </trkpt>
      <trkpt lat="45.53672" lon="4.48941">
        <ele>763.59997558594</ele>
        <time>2022-04-24T09:06:28.000Z</time>
      </trkpt>
      <trkpt lat="45.53669" lon="4.48937">
        <ele>763.40002441406</ele>
        <time>2022-04-24T09:06:29.000Z</time>
      </trkpt>
      <trkpt lat="45.53665" lon="4.48925">
        <ele>763</ele>
        <time>2022-04-24T09:06:31.000Z</time>
      </trkpt>
      <trkpt lat="45.53657" lon="4.48902">
        <ele>763</ele>
        <time>2022-04-24T09:06:34.000Z</time>
      </trkpt>
      <trkpt lat="45.53648" lon="4.48883">
        <ele>763</ele>
        <time>2022-04-24T09:06:36.000Z</time>
      </trkpt>
      <trkpt lat="45.53639" lon="4.48865">
        <ele>763.40002441406</ele>
        <time>2022-04-24T09:06:38.000Z</time>
      </trkpt>
      <trkpt lat="45.53632" lon="4.48857">
        <ele>763.20001220703</ele>
        <time>2022-04-24T09:06:39.000Z</time>
      </trkpt>
      <trkpt lat="45.53618" lon="4.48846">
        <ele>763</ele>
        <time>2022-04-24T09:06:41.000Z</time>
      </trkpt>
      <trkpt lat="45.53584" lon="4.48807">
        <ele>754</ele>
        <time>2022-04-24T09:06:46.000Z</time>
      </trkpt>
      <trkpt lat="45.53578" lon="4.48797">
        <ele>752.59997558594</ele>
        <time>2022-04-24T09:06:47.000Z</time>
      </trkpt>
      <trkpt lat="45.53559" lon="4.48768">
        <ele>749.59997558594</ele>
        <time>2022-04-24T09:06:50.000Z</time>
      </trkpt>
      <trkpt lat="45.53547" lon="4.48745">
        <ele>750</ele>
        <time>2022-04-24T09:06:53.000Z</time>
      </trkpt>
      <trkpt lat="45.53543" lon="4.48738">
        <ele>750.40002441406</ele>
        <time>2022-04-24T09:06:56.000Z</time>
      </trkpt>
      <trkpt lat="45.53543" lon="4.48738">
        <ele>750.40002441406</ele>
        <time>2022-04-24T09:06:58.000Z</time>
      </trkpt>
      <trkpt lat="45.53541" lon="4.48735">
        <ele>750.40002441406</ele>
        <time>2022-04-24T09:07:05.000Z</time>
      </trkpt>
      <trkpt lat="45.53536" lon="4.4874">
        <ele>750</ele>
        <time>2022-04-24T09:07:07.000Z</time>
      </trkpt>
      <trkpt lat="45.5353" lon="4.48744">
        <ele>749.40002441406</ele>
        <time>2022-04-24T09:07:11.000Z</time>
      </trkpt>
      <trkpt lat="45.53528" lon="4.48749">
        <ele>748.79998779297</ele>
        <time>2022-04-24T09:07:12.000Z</time>
      </trkpt>
      <trkpt lat="45.53514" lon="4.48751">
        <ele>746.20001220703</ele>
        <time>2022-04-24T09:07:17.000Z</time>
      </trkpt>
      <trkpt lat="45.53514" lon="4.48753">
        <ele>745.79998779297</ele>
        <time>2022-04-24T09:07:18.000Z</time>
      </trkpt>
      <trkpt lat="45.53515" lon="4.48768">
        <ele>744</ele>
        <time>2022-04-24T09:07:21.000Z</time>
      </trkpt>
      <trkpt lat="45.53518" lon="4.48789">
        <ele>741.40002441406</ele>
        <time>2022-04-24T09:07:24.000Z</time>
      </trkpt>
      <trkpt lat="45.53519" lon="4.48797">
        <ele>740.40002441406</ele>
        <time>2022-04-24T09:07:25.000Z</time>
      </trkpt>
      <trkpt lat="45.53522" lon="4.48826">
        <ele>738.20001220703</ele>
        <time>2022-04-24T09:07:28.000Z</time>
      </trkpt>
      <trkpt lat="45.53523" lon="4.48836">
        <ele>737.40002441406</ele>
        <time>2022-04-24T09:07:29.000Z</time>
      </trkpt>
      <trkpt lat="45.53528" lon="4.48882">
        <ele>737</ele>
        <time>2022-04-24T09:07:33.000Z</time>
      </trkpt>
      <trkpt lat="45.53529" lon="4.48895">
        <ele>736.59997558594</ele>
        <time>2022-04-24T09:07:34.000Z</time>
      </trkpt>
      <trkpt lat="45.5354" lon="4.48942">
        <ele>734.59997558594</ele>
        <time>2022-04-24T09:07:38.000Z</time>
      </trkpt>
      <trkpt lat="45.53543" lon="4.48953">
        <ele>734.40002441406</ele>
        <time>2022-04-24T09:07:39.000Z</time>
      </trkpt>
      <trkpt lat="45.53564" lon="4.49009">
        <ele>731</ele>
        <time>2022-04-24T09:07:44.000Z</time>
      </trkpt>
      <trkpt lat="45.53566" lon="4.4902">
        <ele>729.40002441406</ele>
        <time>2022-04-24T09:07:45.000Z</time>
      </trkpt>
      <trkpt lat="45.53577" lon="4.49059">
        <ele>725.20001220703</ele>
        <time>2022-04-24T09:07:48.000Z</time>
      </trkpt>
      <trkpt lat="45.53588" lon="4.49105">
        <ele>718.79998779297</ele>
        <time>2022-04-24T09:07:51.000Z</time>
      </trkpt>
      <trkpt lat="45.53594" lon="4.49117">
        <ele>717.79998779297</ele>
        <time>2022-04-24T09:07:52.000Z</time>
      </trkpt>
      <trkpt lat="45.5361" lon="4.49149">
        <ele>715.79998779297</ele>
        <time>2022-04-24T09:07:55.000Z</time>
      </trkpt>
      <trkpt lat="45.53616" lon="4.49162">
        <ele>714.59997558594</ele>
        <time>2022-04-24T09:07:56.000Z</time>
      </trkpt>
      <trkpt lat="45.53625" lon="4.49189">
        <ele>711.59997558594</ele>
        <time>2022-04-24T09:07:58.000Z</time>
      </trkpt>
      <trkpt lat="45.53645" lon="4.49243">
        <ele>707.40002441406</ele>
        <time>2022-04-24T09:08:02.000Z</time>
      </trkpt>
      <trkpt lat="45.53666" lon="4.49287">
        <ele>707.59997558594</ele>
        <time>2022-04-24T09:08:06.000Z</time>
      </trkpt>
      <trkpt lat="45.53683" lon="4.49316">
        <ele>706.59997558594</ele>
        <time>2022-04-24T09:08:10.000Z</time>
      </trkpt>
      <trkpt lat="45.53694" lon="4.49333">
        <ele>705.40002441406</ele>
        <time>2022-04-24T09:08:13.000Z</time>
      </trkpt>
      <trkpt lat="45.53696" lon="4.49338">
        <ele>705.20001220703</ele>
        <time>2022-04-24T09:08:14.000Z</time>
      </trkpt>
      <trkpt lat="45.537" lon="4.49343">
        <ele>705.20001220703</ele>
        <time>2022-04-24T09:08:15.000Z</time>
      </trkpt>
      <trkpt lat="45.5371" lon="4.49361">
        <ele>704.59997558594</ele>
        <time>2022-04-24T09:08:18.000Z</time>
      </trkpt>
      <trkpt lat="45.53712" lon="4.49368">
        <ele>704</ele>
        <time>2022-04-24T09:08:19.000Z</time>
      </trkpt>
      <trkpt lat="45.53715" lon="4.49375">
        <ele>703.20001220703</ele>
        <time>2022-04-24T09:08:20.000Z</time>
      </trkpt>
      <trkpt lat="45.5372" lon="4.4939">
        <ele>701.79998779297</ele>
        <time>2022-04-24T09:08:22.000Z</time>
      </trkpt>
      <trkpt lat="45.53723" lon="4.49398">
        <ele>700.40002441406</ele>
        <time>2022-04-24T09:08:23.000Z</time>
      </trkpt>
      <trkpt lat="45.53736" lon="4.49439">
        <ele>694.40002441406</ele>
        <time>2022-04-24T09:08:27.000Z</time>
      </trkpt>
      <trkpt lat="45.53745" lon="4.49472">
        <ele>691.59997558594</ele>
        <time>2022-04-24T09:08:30.000Z</time>
      </trkpt>
      <trkpt lat="45.53753" lon="4.49497">
        <ele>690.40002441406</ele>
        <time>2022-04-24T09:08:32.000Z</time>
      </trkpt>
      <trkpt lat="45.53764" lon="4.49542">
        <ele>687.40002441406</ele>
        <time>2022-04-24T09:08:36.000Z</time>
      </trkpt>
      <trkpt lat="45.53769" lon="4.49564">
        <ele>685</ele>
        <time>2022-04-24T09:08:38.000Z</time>
      </trkpt>
      <trkpt lat="45.53771" lon="4.49588">
        <ele>681.59997558594</ele>
        <time>2022-04-24T09:08:40.000Z</time>
      </trkpt>
      <trkpt lat="45.53774" lon="4.4964">
        <ele>677.59997558594</ele>
        <time>2022-04-24T09:08:45.000Z</time>
      </trkpt>
      <trkpt lat="45.53779" lon="4.49691">
        <ele>672.59997558594</ele>
        <time>2022-04-24T09:08:50.000Z</time>
      </trkpt>
      <trkpt lat="45.53781" lon="4.49715">
        <ele>669.20001220703</ele>
        <time>2022-04-24T09:08:52.000Z</time>
      </trkpt>
      <trkpt lat="45.53781" lon="4.49733">
        <ele>665.79998779297</ele>
        <time>2022-04-24T09:08:54.000Z</time>
      </trkpt>
      <trkpt lat="45.5378" lon="4.49744">
        <ele>663.59997558594</ele>
        <time>2022-04-24T09:08:55.000Z</time>
      </trkpt>
      <trkpt lat="45.53779" lon="4.49779">
        <ele>656.79998779297</ele>
        <time>2022-04-24T09:08:58.000Z</time>
      </trkpt>
      <trkpt lat="45.53777" lon="4.49835">
        <ele>647.59997558594</ele>
        <time>2022-04-24T09:09:03.000Z</time>
      </trkpt>
      <trkpt lat="45.53779" lon="4.49891">
        <ele>641.79998779297</ele>
        <time>2022-04-24T09:09:08.000Z</time>
      </trkpt>
      <trkpt lat="45.5378" lon="4.49903">
        <ele>640.20001220703</ele>
        <time>2022-04-24T09:09:09.000Z</time>
      </trkpt>
      <trkpt lat="45.53788" lon="4.49936">
        <ele>638</ele>
        <time>2022-04-24T09:09:12.000Z</time>
      </trkpt>
      <trkpt lat="45.53802" lon="4.49992">
        <ele>635</ele>
        <time>2022-04-24T09:09:17.000Z</time>
      </trkpt>
      <trkpt lat="45.53815" lon="4.50024">
        <ele>632.40002441406</ele>
        <time>2022-04-24T09:09:20.000Z</time>
      </trkpt>
      <trkpt lat="45.53828" lon="4.50044">
        <ele>631</ele>
        <time>2022-04-24T09:09:22.000Z</time>
      </trkpt>
      <trkpt lat="45.53843" lon="4.50052">
        <ele>630.79998779297</ele>
        <time>2022-04-24T09:09:24.000Z</time>
      </trkpt>
      <trkpt lat="45.53851" lon="4.50057">
        <ele>630.40002441406</ele>
        <time>2022-04-24T09:09:25.000Z</time>
      </trkpt>
      <trkpt lat="45.53885" lon="4.50066">
        <ele>628</ele>
        <time>2022-04-24T09:09:29.000Z</time>
      </trkpt>
      <trkpt lat="45.53894" lon="4.50067">
        <ele>627.40002441406</ele>
        <time>2022-04-24T09:09:30.000Z</time>
      </trkpt>
      <trkpt lat="45.53912" lon="4.50072">
        <ele>624.59997558594</ele>
        <time>2022-04-24T09:09:32.000Z</time>
      </trkpt>
      <trkpt lat="45.53925" lon="4.5008">
        <ele>621.40002441406</ele>
        <time>2022-04-24T09:09:34.000Z</time>
      </trkpt>
      <trkpt lat="45.53938" lon="4.50094">
        <ele>617</ele>
        <time>2022-04-24T09:09:36.000Z</time>
      </trkpt>
      <trkpt lat="45.53945" lon="4.50102">
        <ele>614.20001220703</ele>
        <time>2022-04-24T09:09:37.000Z</time>
      </trkpt>
      <trkpt lat="45.53952" lon="4.50111">
        <ele>612</ele>
        <time>2022-04-24T09:09:38.000Z</time>
      </trkpt>
      <trkpt lat="45.53972" lon="4.50135">
        <ele>606</ele>
        <time>2022-04-24T09:09:41.000Z</time>
      </trkpt>
      <trkpt lat="45.53997" lon="4.50166">
        <ele>601</ele>
        <time>2022-04-24T09:09:45.000Z</time>
      </trkpt>
      <trkpt lat="45.54003" lon="4.50173">
        <ele>599.79998779297</ele>
        <time>2022-04-24T09:09:46.000Z</time>
      </trkpt>
      <trkpt lat="45.54008" lon="4.5018">
        <ele>598.59997558594</ele>
        <time>2022-04-24T09:09:47.000Z</time>
      </trkpt>
      <trkpt lat="45.54016" lon="4.50193">
        <ele>596.40002441406</ele>
        <time>2022-04-24T09:09:49.000Z</time>
      </trkpt>
      <trkpt lat="45.54023" lon="4.50209">
        <ele>593.40002441406</ele>
        <time>2022-04-24T09:09:52.000Z</time>
      </trkpt>
      <trkpt lat="45.54026" lon="4.50218">
        <ele>591.59997558594</ele>
        <time>2022-04-24T09:09:55.000Z</time>
      </trkpt>
      <trkpt lat="45.54024" lon="4.50224">
        <ele>590.79998779297</ele>
        <time>2022-04-24T09:09:56.000Z</time>
      </trkpt>
      <trkpt lat="45.5402" lon="4.5023">
        <ele>589.59997558594</ele>
        <time>2022-04-24T09:09:57.000Z</time>
      </trkpt>
      <trkpt lat="45.54016" lon="4.50237">
        <ele>588.40002441406</ele>
        <time>2022-04-24T09:09:59.000Z</time>
      </trkpt>
      <trkpt lat="45.54009" lon="4.50242">
        <ele>587.40002441406</ele>
        <time>2022-04-24T09:10:01.000Z</time>
      </trkpt>
      <trkpt lat="45.54002" lon="4.50247">
        <ele>586.59997558594</ele>
        <time>2022-04-24T09:10:03.000Z</time>
      </trkpt>
      <trkpt lat="45.53997" lon="4.5025">
        <ele>586</ele>
        <time>2022-04-24T09:10:05.000Z</time>
      </trkpt>
      <trkpt lat="45.53994" lon="4.50251">
        <ele>585.79998779297</ele>
        <time>2022-04-24T09:10:07.000Z</time>
      </trkpt>
      <trkpt lat="45.53992" lon="4.50252">
        <ele>585.79998779297</ele>
        <time>2022-04-24T09:10:11.000Z</time>
      </trkpt>
      <trkpt lat="45.53992" lon="4.50252">
        <ele>585.79998779297</ele>
        <time>2022-04-24T09:10:12.000Z</time>
      </trkpt>
      <trkpt lat="45.53989" lon="4.50253">
        <ele>585.59997558594</ele>
        <time>2022-04-24T09:11:51.000Z</time>
      </trkpt>
      <trkpt lat="45.53987" lon="4.50254">
        <ele>585.40002441406</ele>
        <time>2022-04-24T09:11:52.000Z</time>
      </trkpt>
      <trkpt lat="45.53984" lon="4.50255">
        <ele>585.20001220703</ele>
        <time>2022-04-24T09:11:53.000Z</time>
      </trkpt>
      <trkpt lat="45.53966" lon="4.50252">
        <ele>585.20001220703</ele>
        <time>2022-04-24T09:11:57.000Z</time>
      </trkpt>
      <trkpt lat="45.53942" lon="4.50244">
        <ele>585</ele>
        <time>2022-04-24T09:12:01.000Z</time>
      </trkpt>
      <trkpt lat="45.53937" lon="4.50243">
        <ele>585.20001220703</ele>
        <time>2022-04-24T09:12:02.000Z</time>
      </trkpt>
      <trkpt lat="45.53931" lon="4.50243">
        <ele>585</ele>
        <time>2022-04-24T09:12:03.000Z</time>
      </trkpt>
      <trkpt lat="45.5392" lon="4.50247">
        <ele>583.79998779297</ele>
        <time>2022-04-24T09:12:05.000Z</time>
      </trkpt>
      <trkpt lat="45.53916" lon="4.50253">
        <ele>583</ele>
        <time>2022-04-24T09:12:06.000Z</time>
      </trkpt>
      <trkpt lat="45.53911" lon="4.50259">
        <ele>583</ele>
        <time>2022-04-24T09:12:07.000Z</time>
      </trkpt>
      <trkpt lat="45.53901" lon="4.50273">
        <ele>581.40002441406</ele>
        <time>2022-04-24T09:12:09.000Z</time>
      </trkpt>
      <trkpt lat="45.53897" lon="4.5028">
        <ele>580.20001220703</ele>
        <time>2022-04-24T09:12:10.000Z</time>
      </trkpt>
      <trkpt lat="45.5388" lon="4.50305">
        <ele>579</ele>
        <time>2022-04-24T09:12:13.000Z</time>
      </trkpt>
      <trkpt lat="45.53865" lon="4.50335">
        <ele>576.20001220703</ele>
        <time>2022-04-24T09:12:16.000Z</time>
      </trkpt>
      <trkpt lat="45.53861" lon="4.50346">
        <ele>574.79998779297</ele>
        <time>2022-04-24T09:12:17.000Z</time>
      </trkpt>
      <trkpt lat="45.53856" lon="4.50359">
        <ele>573.20001220703</ele>
        <time>2022-04-24T09:12:18.000Z</time>
      </trkpt>
      <trkpt lat="45.53851" lon="4.50385">
        <ele>571.79998779297</ele>
        <time>2022-04-24T09:12:20.000Z</time>
      </trkpt>
      <trkpt lat="45.53848" lon="4.50397">
        <ele>571.59997558594</ele>
        <time>2022-04-24T09:12:21.000Z</time>
      </trkpt>
      <trkpt lat="45.5384" lon="4.5047">
        <ele>568</ele>
        <time>2022-04-24T09:12:27.000Z</time>
      </trkpt>
      <trkpt lat="45.53823" lon="4.5052">
        <ele>564.59997558594</ele>
        <time>2022-04-24T09:12:31.000Z</time>
      </trkpt>
      <trkpt lat="45.53799" lon="4.50575">
        <ele>561.20001220703</ele>
        <time>2022-04-24T09:12:36.000Z</time>
      </trkpt>
      <trkpt lat="45.5378" lon="4.50626">
        <ele>558.59997558594</ele>
        <time>2022-04-24T09:12:41.000Z</time>
      </trkpt>
      <trkpt lat="45.53777" lon="4.50648">
        <ele>556.59997558594</ele>
        <time>2022-04-24T09:12:43.000Z</time>
      </trkpt>
      <trkpt lat="45.5378" lon="4.5066">
        <ele>555.20001220703</ele>
        <time>2022-04-24T09:12:44.000Z</time>
      </trkpt>
      <trkpt lat="45.53785" lon="4.50685">
        <ele>553</ele>
        <time>2022-04-24T09:12:46.000Z</time>
      </trkpt>
      <trkpt lat="45.53792" lon="4.50709">
        <ele>550.20001220703</ele>
        <time>2022-04-24T09:12:48.000Z</time>
      </trkpt>
      <trkpt lat="45.53805" lon="4.50765">
        <ele>549</ele>
        <time>2022-04-24T09:12:53.000Z</time>
      </trkpt>
      <trkpt lat="45.53815" lon="4.50833">
        <ele>541</ele>
        <time>2022-04-24T09:12:58.000Z</time>
      </trkpt>
      <trkpt lat="45.53816" lon="4.50856">
        <ele>538.59997558594</ele>
        <time>2022-04-24T09:13:00.000Z</time>
      </trkpt>
      <trkpt lat="45.53813" lon="4.5088">
        <ele>537</ele>
        <time>2022-04-24T09:13:02.000Z</time>
      </trkpt>
      <trkpt lat="45.53802" lon="4.50931">
        <ele>537.40002441406</ele>
        <time>2022-04-24T09:13:06.000Z</time>
      </trkpt>
      <trkpt lat="45.5379" lon="4.51001">
        <ele>530.79998779297</ele>
        <time>2022-04-24T09:13:11.000Z</time>
      </trkpt>
      <trkpt lat="45.53784" lon="4.51053">
        <ele>525.59997558594</ele>
        <time>2022-04-24T09:13:15.000Z</time>
      </trkpt>
      <trkpt lat="45.53779" lon="4.51074">
        <ele>524.40002441406</ele>
        <time>2022-04-24T09:13:17.000Z</time>
      </trkpt>
      <trkpt lat="45.53774" lon="4.51084">
        <ele>523.59997558594</ele>
        <time>2022-04-24T09:13:18.000Z</time>
      </trkpt>
      <trkpt lat="45.53768" lon="4.51092">
        <ele>523</ele>
        <time>2022-04-24T09:13:19.000Z</time>
      </trkpt>
      <trkpt lat="45.53753" lon="4.51109">
        <ele>521.20001220703</ele>
        <time>2022-04-24T09:13:21.000Z</time>
      </trkpt>
      <trkpt lat="45.53719" lon="4.51129">
        <ele>518.20001220703</ele>
        <time>2022-04-24T09:13:25.000Z</time>
      </trkpt>
      <trkpt lat="45.53701" lon="4.51134">
        <ele>516.20001220703</ele>
        <time>2022-04-24T09:13:27.000Z</time>
      </trkpt>
      <trkpt lat="45.53684" lon="4.51137">
        <ele>514.79998779297</ele>
        <time>2022-04-24T09:13:29.000Z</time>
      </trkpt>
      <trkpt lat="45.53676" lon="4.51136">
        <ele>514.59997558594</ele>
        <time>2022-04-24T09:13:30.000Z</time>
      </trkpt>
      <trkpt lat="45.53654" lon="4.5113">
        <ele>513.59997558594</ele>
        <time>2022-04-24T09:13:33.000Z</time>
      </trkpt>
      <trkpt lat="45.53632" lon="4.51123">
        <ele>511.60000610352</ele>
        <time>2022-04-24T09:13:37.000Z</time>
      </trkpt>
      <trkpt lat="45.53622" lon="4.5112">
        <ele>510.60000610352</ele>
        <time>2022-04-24T09:13:40.000Z</time>
      </trkpt>
      <trkpt lat="45.53621" lon="4.5112">
        <ele>510.39999389648</ele>
        <time>2022-04-24T09:13:41.000Z</time>
      </trkpt>
      <trkpt lat="45.53623" lon="4.51125">
        <ele>510.20001220703</ele>
        <time>2022-04-24T09:13:43.000Z</time>
      </trkpt>
      <trkpt lat="45.53635" lon="4.5113">
        <ele>511.20001220703</ele>
        <time>2022-04-24T09:13:48.000Z</time>
      </trkpt>
      <trkpt lat="45.53646" lon="4.51137">
        <ele>512</ele>
        <time>2022-04-24T09:13:51.000Z</time>
      </trkpt>
      <trkpt lat="45.53657" lon="4.51143">
        <ele>512.40002441406</ele>
        <time>2022-04-24T09:13:54.000Z</time>
      </trkpt>
      <trkpt lat="45.53667" lon="4.5115">
        <ele>512.79998779297</ele>
        <time>2022-04-24T09:13:57.000Z</time>
      </trkpt>
      <trkpt lat="45.53677" lon="4.51156">
        <ele>512.59997558594</ele>
        <time>2022-04-24T09:14:00.000Z</time>
      </trkpt>
      <trkpt lat="45.5369" lon="4.51162">
        <ele>512.40002441406</ele>
        <time>2022-04-24T09:14:04.000Z</time>
      </trkpt>
      <trkpt lat="45.53705" lon="4.51168">
        <ele>512.20001220703</ele>
        <time>2022-04-24T09:14:08.000Z</time>
      </trkpt>
      <trkpt lat="45.53717" lon="4.51172">
        <ele>512.20001220703</ele>
        <time>2022-04-24T09:14:11.000Z</time>
      </trkpt>
      <trkpt lat="45.53739" lon="4.51179">
        <ele>511.79998779297</ele>
        <time>2022-04-24T09:14:16.000Z</time>
      </trkpt>
      <trkpt lat="45.53748" lon="4.51181">
        <ele>511.60000610352</ele>
        <time>2022-04-24T09:14:18.000Z</time>
      </trkpt>
      <trkpt lat="45.53771" lon="4.51173">
        <ele>511.60000610352</ele>
        <time>2022-04-24T09:14:23.000Z</time>
      </trkpt>
      <trkpt lat="45.53795" lon="4.51154">
        <ele>510.60000610352</ele>
        <time>2022-04-24T09:14:29.000Z</time>
      </trkpt>
      <trkpt lat="45.5381" lon="4.51131">
        <ele>510.20001220703</ele>
        <time>2022-04-24T09:14:33.000Z</time>
      </trkpt>
      <trkpt lat="45.53815" lon="4.5112">
        <ele>510.39999389648</ele>
        <time>2022-04-24T09:14:34.000Z</time>
      </trkpt>
      <trkpt lat="45.5382" lon="4.51101">
        <ele>510.79998779297</ele>
        <time>2022-04-24T09:14:36.000Z</time>
      </trkpt>
      <trkpt lat="45.5382" lon="4.51101">
        <ele>510.79998779297</ele>
        <time>2022-04-24T09:14:37.000Z</time>
      </trkpt>
      <trkpt lat="45.53833" lon="4.51051">
        <ele>512.59997558594</ele>
        <time>2022-04-24T09:14:41.000Z</time>
      </trkpt>
      <trkpt lat="45.5384" lon="4.51031">
        <ele>512.59997558594</ele>
        <time>2022-04-24T09:14:42.000Z</time>
      </trkpt>
      <trkpt lat="45.53846" lon="4.51027">
        <ele>512.59997558594</ele>
        <time>2022-04-24T09:14:43.000Z</time>
      </trkpt>
      <trkpt lat="45.53851" lon="4.51032">
        <ele>512.20001220703</ele>
        <time>2022-04-24T09:14:44.000Z</time>
      </trkpt>
      <trkpt lat="45.53857" lon="4.51043">
        <ele>511.20001220703</ele>
        <time>2022-04-24T09:14:46.000Z</time>
      </trkpt>
      <trkpt lat="45.53861" lon="4.51051">
        <ele>510.39999389648</ele>
        <time>2022-04-24T09:14:48.000Z</time>
      </trkpt>
      <trkpt lat="45.53872" lon="4.51072">
        <ele>508.60000610352</ele>
        <time>2022-04-24T09:14:54.000Z</time>
      </trkpt>
      <trkpt lat="45.53883" lon="4.51098">
        <ele>507.20001220703</ele>
        <time>2022-04-24T09:15:01.000Z</time>
      </trkpt>
      <trkpt lat="45.53897" lon="4.51118">
        <ele>508</ele>
        <time>2022-04-24T09:15:08.000Z</time>
      </trkpt>
      <trkpt lat="45.53919" lon="4.51141">
        <ele>511.20001220703</ele>
        <time>2022-04-24T09:15:17.000Z</time>
      </trkpt>
      <trkpt lat="45.53931" lon="4.51159">
        <ele>513</ele>
        <time>2022-04-24T09:15:23.000Z</time>
      </trkpt>
      <trkpt lat="45.53944" lon="4.51179">
        <ele>515.79998779297</ele>
        <time>2022-04-24T09:15:31.000Z</time>
      </trkpt>
      <trkpt lat="45.53956" lon="4.51197">
        <ele>518.20001220703</ele>
        <time>2022-04-24T09:15:38.000Z</time>
      </trkpt>
      <trkpt lat="45.53968" lon="4.51215">
        <ele>521</ele>
        <time>2022-04-24T09:15:46.000Z</time>
      </trkpt>
      <trkpt lat="45.53978" lon="4.51231">
        <ele>522.59997558594</ele>
        <time>2022-04-24T09:15:53.000Z</time>
      </trkpt>
      <trkpt lat="45.53985" lon="4.51242">
        <ele>523.40002441406</ele>
        <time>2022-04-24T09:15:59.000Z</time>
      </trkpt>
      <trkpt lat="45.53989" lon="4.51251">
        <ele>523.79998779297</ele>
        <time>2022-04-24T09:16:03.000Z</time>
      </trkpt>
      <trkpt lat="45.53991" lon="4.51255">
        <ele>524.20001220703</ele>
        <time>2022-04-24T09:16:05.000Z</time>
      </trkpt>
      <trkpt lat="45.53993" lon="4.5126">
        <ele>524.59997558594</ele>
        <time>2022-04-24T09:16:08.000Z</time>
      </trkpt>
      <trkpt lat="45.53995" lon="4.51265">
        <ele>525</ele>
        <time>2022-04-24T09:16:10.000Z</time>
      </trkpt>
      <trkpt lat="45.54002" lon="4.51281">
        <ele>526.20001220703</ele>
        <time>2022-04-24T09:16:17.000Z</time>
      </trkpt>
      <trkpt lat="45.54007" lon="4.51299">
        <ele>528.40002441406</ele>
        <time>2022-04-24T09:16:24.000Z</time>
      </trkpt>
      <trkpt lat="45.5401" lon="4.51317">
        <ele>529.40002441406</ele>
        <time>2022-04-24T09:16:31.000Z</time>
      </trkpt>
      <trkpt lat="45.54011" lon="4.5133">
        <ele>530</ele>
        <time>2022-04-24T09:16:36.000Z</time>
      </trkpt>
      <trkpt lat="45.54011" lon="4.51332">
        <ele>530</ele>
        <time>2022-04-24T09:16:37.000Z</time>
      </trkpt>
      <trkpt lat="45.54014" lon="4.51354">
        <ele>530.59997558594</ele>
        <time>2022-04-24T09:16:45.000Z</time>
      </trkpt>
      <trkpt lat="45.54016" lon="4.51375">
        <ele>531.59997558594</ele>
        <time>2022-04-24T09:16:53.000Z</time>
      </trkpt>
      <trkpt lat="45.54019" lon="4.51393">
        <ele>532.20001220703</ele>
        <time>2022-04-24T09:17:00.000Z</time>
      </trkpt>
      <trkpt lat="45.54018" lon="4.51406">
        <ele>532.20001220703</ele>
        <time>2022-04-24T09:17:06.000Z</time>
      </trkpt>
      <trkpt lat="45.54006" lon="4.5141">
        <ele>532</ele>
        <time>2022-04-24T09:17:10.000Z</time>
      </trkpt>
      <trkpt lat="45.53992" lon="4.51418">
        <ele>531</ele>
        <time>2022-04-24T09:17:14.000Z</time>
      </trkpt>
      <trkpt lat="45.53985" lon="4.51422">
        <ele>530.40002441406</ele>
        <time>2022-04-24T09:17:19.000Z</time>
      </trkpt>
      <trkpt lat="45.53982" lon="4.51424">
        <ele>530</ele>
        <time>2022-04-24T09:17:23.000Z</time>
      </trkpt>
      <trkpt lat="45.53981" lon="4.51424">
        <ele>529.79998779297</ele>
        <time>2022-04-24T09:17:24.000Z</time>
      </trkpt>
      <trkpt lat="45.53981" lon="4.51424">
        <ele>529.79998779297</ele>
        <time>2022-04-24T09:17:27.000Z</time>
      </trkpt>
      <trkpt lat="45.53982" lon="4.51424">
        <ele>530</ele>
        <time>2022-04-24T09:17:34.000Z</time>
      </trkpt>
      <trkpt lat="45.53982" lon="4.51424">
        <ele>530</ele>
        <time>2022-04-24T09:17:35.000Z</time>
      </trkpt>
      <trkpt lat="45.53981" lon="4.51426">
        <ele>529.79998779297</ele>
        <time>2022-04-24T09:17:37.000Z</time>
      </trkpt>
      <trkpt lat="45.5398" lon="4.51433">
        <ele>529.79998779297</ele>
        <time>2022-04-24T09:17:41.000Z</time>
      </trkpt>
      <trkpt lat="45.53979" lon="4.5144">
        <ele>529.59997558594</ele>
        <time>2022-04-24T09:17:43.000Z</time>
      </trkpt>
      <trkpt lat="45.53977" lon="4.51459">
        <ele>528.79998779297</ele>
        <time>2022-04-24T09:17:48.000Z</time>
      </trkpt>
      <trkpt lat="45.53966" lon="4.51476">
        <ele>526.40002441406</ele>
        <time>2022-04-24T09:17:53.000Z</time>
      </trkpt>
      <trkpt lat="45.53953" lon="4.515">
        <ele>523</ele>
        <time>2022-04-24T09:17:56.000Z</time>
      </trkpt>
      <trkpt lat="45.53934" lon="4.51542">
        <ele>518.40002441406</ele>
        <time>2022-04-24T09:18:00.000Z</time>
      </trkpt>
      <trkpt lat="45.53929" lon="4.51549">
        <ele>517.20001220703</ele>
        <time>2022-04-24T09:18:02.000Z</time>
      </trkpt>
      <trkpt lat="45.53925" lon="4.51553">
        <ele>516.40002441406</ele>
        <time>2022-04-24T09:18:04.000Z</time>
      </trkpt>
      <trkpt lat="45.53924" lon="4.51553">
        <ele>516.20001220703</ele>
        <time>2022-04-24T09:18:06.000Z</time>
      </trkpt>
      <trkpt lat="45.53916" lon="4.51549">
        <ele>514.79998779297</ele>
        <time>2022-04-24T09:18:09.000Z</time>
      </trkpt>
      <trkpt lat="45.53912" lon="4.51547">
        <ele>513.79998779297</ele>
        <time>2022-04-24T09:18:10.000Z</time>
      </trkpt>
      <trkpt lat="45.53896" lon="4.51539">
        <ele>510.20001220703</ele>
        <time>2022-04-24T09:18:13.000Z</time>
      </trkpt>
      <trkpt lat="45.53885" lon="4.51534">
        <ele>508</ele>
        <time>2022-04-24T09:18:15.000Z</time>
      </trkpt>
      <trkpt lat="45.53882" lon="4.51538">
        <ele>507.20001220703</ele>
        <time>2022-04-24T09:18:16.000Z</time>
      </trkpt>
      <trkpt lat="45.53878" lon="4.51545">
        <ele>506.39999389648</ele>
        <time>2022-04-24T09:18:17.000Z</time>
      </trkpt>
      <trkpt lat="45.53874" lon="4.51556">
        <ele>505</ele>
        <time>2022-04-24T09:18:18.000Z</time>
      </trkpt>
      <trkpt lat="45.53857" lon="4.51609">
        <ele>501</ele>
        <time>2022-04-24T09:18:22.000Z</time>
      </trkpt>
      <trkpt lat="45.53849" lon="4.51636">
        <ele>499</ele>
        <time>2022-04-24T09:18:24.000Z</time>
      </trkpt>
      <trkpt lat="45.53842" lon="4.51657">
        <ele>497</ele>
        <time>2022-04-24T09:18:26.000Z</time>
      </trkpt>
      <trkpt lat="45.53837" lon="4.51687">
        <ele>495.60000610352</ele>
        <time>2022-04-24T09:18:29.000Z</time>
      </trkpt>
      <trkpt lat="45.53829" lon="4.51732">
        <ele>492.39999389648</ele>
        <time>2022-04-24T09:18:33.000Z</time>
      </trkpt>
      <trkpt lat="45.53824" lon="4.51758">
        <ele>490.39999389648</ele>
        <time>2022-04-24T09:18:35.000Z</time>
      </trkpt>
      <trkpt lat="45.53821" lon="4.51783">
        <ele>488.60000610352</ele>
        <time>2022-04-24T09:18:37.000Z</time>
      </trkpt>
      <trkpt lat="45.53814" lon="4.51828">
        <ele>484.60000610352</ele>
        <time>2022-04-24T09:18:41.000Z</time>
      </trkpt>
      <trkpt lat="45.53808" lon="4.51863">
        <ele>482</ele>
        <time>2022-04-24T09:18:44.000Z</time>
      </trkpt>
      <trkpt lat="45.53806" lon="4.51873">
        <ele>481.20001220703</ele>
        <time>2022-04-24T09:18:45.000Z</time>
      </trkpt>
      <trkpt lat="45.53801" lon="4.51893">
        <ele>479.39999389648</ele>
        <time>2022-04-24T09:18:47.000Z</time>
      </trkpt>
      <trkpt lat="45.53794" lon="4.51916">
        <ele>476.60000610352</ele>
        <time>2022-04-24T09:18:49.000Z</time>
      </trkpt>
      <trkpt lat="45.53781" lon="4.51954">
        <ele>471.20001220703</ele>
        <time>2022-04-24T09:18:53.000Z</time>
      </trkpt>
      <trkpt lat="45.53778" lon="4.51963">
        <ele>470</ele>
        <time>2022-04-24T09:18:54.000Z</time>
      </trkpt>
      <trkpt lat="45.53756" lon="4.52027">
        <ele>461.39999389648</ele>
        <time>2022-04-24T09:19:00.000Z</time>
      </trkpt>
      <trkpt lat="45.53742" lon="4.5207">
        <ele>455.60000610352</ele>
        <time>2022-04-24T09:19:04.000Z</time>
      </trkpt>
      <trkpt lat="45.53738" lon="4.5208">
        <ele>454.79998779297</ele>
        <time>2022-04-24T09:19:05.000Z</time>
      </trkpt>
      <trkpt lat="45.53731" lon="4.5211">
        <ele>452.39999389648</ele>
        <time>2022-04-24T09:19:08.000Z</time>
      </trkpt>
      <trkpt lat="45.5373" lon="4.52119">
        <ele>451.39999389648</ele>
        <time>2022-04-24T09:19:09.000Z</time>
      </trkpt>
      <trkpt lat="45.53728" lon="4.52128">
        <ele>450.39999389648</ele>
        <time>2022-04-24T09:19:10.000Z</time>
      </trkpt>
      <trkpt lat="45.53728" lon="4.52146">
        <ele>448.60000610352</ele>
        <time>2022-04-24T09:19:12.000Z</time>
      </trkpt>
      <trkpt lat="45.53728" lon="4.52146">
        <ele>448.60000610352</ele>
        <time>2022-04-24T09:19:13.000Z</time>
      </trkpt>
      <trkpt lat="45.53726" lon="4.52163">
        <ele>446.60000610352</ele>
        <time>2022-04-24T09:19:14.000Z</time>
      </trkpt>
      <trkpt lat="45.5372" lon="4.5218">
        <ele>444</ele>
        <time>2022-04-24T09:19:16.000Z</time>
      </trkpt>
      <trkpt lat="45.5372" lon="4.5218">
        <ele>444</ele>
        <time>2022-04-24T09:19:17.000Z</time>
      </trkpt>
      <trkpt lat="45.53711" lon="4.52225">
        <ele>438.79998779297</ele>
        <time>2022-04-24T09:19:20.000Z</time>
      </trkpt>
      <trkpt lat="45.53707" lon="4.52265">
        <ele>434.60000610352</ele>
        <time>2022-04-24T09:19:24.000Z</time>
      </trkpt>
      <trkpt lat="45.53704" lon="4.52275">
        <ele>433.39999389648</ele>
        <time>2022-04-24T09:19:26.000Z</time>
      </trkpt>
      <trkpt lat="45.53699" lon="4.52292">
        <ele>431.20001220703</ele>
        <time>2022-04-24T09:19:27.000Z</time>
      </trkpt>
      <trkpt lat="45.53694" lon="4.52308">
        <ele>429.60000610352</ele>
        <time>2022-04-24T09:19:30.000Z</time>
      </trkpt>
      <trkpt lat="45.53685" lon="4.52319">
        <ele>426.60000610352</ele>
        <time>2022-04-24T09:19:32.000Z</time>
      </trkpt>
      <trkpt lat="45.53673" lon="4.52322">
        <ele>424.60000610352</ele>
        <time>2022-04-24T09:19:34.000Z</time>
      </trkpt>
      <trkpt lat="45.53668" lon="4.52309">
        <ele>424.79998779297</ele>
        <time>2022-04-24T09:19:36.000Z</time>
      </trkpt>
      <trkpt lat="45.53666" lon="4.52301">
        <ele>424.79998779297</ele>
        <time>2022-04-24T09:19:37.000Z</time>
      </trkpt>
      <trkpt lat="45.53665" lon="4.52293">
        <ele>424.79998779297</ele>
        <time>2022-04-24T09:19:38.000Z</time>
      </trkpt>
      <trkpt lat="45.53663" lon="4.52285">
        <ele>424.79998779297</ele>
        <time>2022-04-24T09:19:40.000Z</time>
      </trkpt>
      <trkpt lat="45.53661" lon="4.52288">
        <ele>424</ele>
        <time>2022-04-24T09:19:42.000Z</time>
      </trkpt>
      <trkpt lat="45.53658" lon="4.52292">
        <ele>423</ele>
        <time>2022-04-24T09:19:43.000Z</time>
      </trkpt>
      <trkpt lat="45.53656" lon="4.52312">
        <ele>421.60000610352</ele>
        <time>2022-04-24T09:19:45.000Z</time>
      </trkpt>
      <trkpt lat="45.53651" lon="4.52335">
        <ele>419.39999389648</ele>
        <time>2022-04-24T09:19:47.000Z</time>
      </trkpt>
      <trkpt lat="45.53644" lon="4.52357">
        <ele>416.39999389648</ele>
        <time>2022-04-24T09:19:49.000Z</time>
      </trkpt>
      <trkpt lat="45.53625" lon="4.52407">
        <ele>410.79998779297</ele>
        <time>2022-04-24T09:19:54.000Z</time>
      </trkpt>
      <trkpt lat="45.53623" lon="4.52415">
        <ele>410.20001220703</ele>
        <time>2022-04-24T09:19:55.000Z</time>
      </trkpt>
      <trkpt lat="45.53619" lon="4.52428">
        <ele>409.20001220703</ele>
        <time>2022-04-24T09:19:58.000Z</time>
      </trkpt>
      <trkpt lat="45.53617" lon="4.52435">
        <ele>408.79998779297</ele>
        <time>2022-04-24T09:20:02.000Z</time>
      </trkpt>
      <trkpt lat="45.53615" lon="4.52441">
        <ele>408.39999389648</ele>
        <time>2022-04-24T09:20:03.000Z</time>
      </trkpt>
      <trkpt lat="45.53613" lon="4.52447">
        <ele>408</ele>
        <time>2022-04-24T09:20:06.000Z</time>
      </trkpt>
      <trkpt lat="45.53601" lon="4.52452">
        <ele>409</ele>
        <time>2022-04-24T09:20:11.000Z</time>
      </trkpt>
      <trkpt lat="45.53595" lon="4.52461">
        <ele>409</ele>
        <time>2022-04-24T09:20:17.000Z</time>
      </trkpt>
      <trkpt lat="45.53588" lon="4.52474">
        <ele>408.60000610352</ele>
        <time>2022-04-24T09:20:24.000Z</time>
      </trkpt>
      <trkpt lat="45.53588" lon="4.52474">
        <ele>408.60000610352</ele>
        <time>2022-04-24T09:20:26.000Z</time>
      </trkpt>
      <trkpt lat="45.53588" lon="4.52474">
        <ele>408.60000610352</ele>
        <time>2022-04-24T09:20:50.000Z</time>
      </trkpt>
      <trkpt lat="45.53586" lon="4.52482">
        <ele>408.39999389648</ele>
        <time>2022-04-24T09:20:52.000Z</time>
      </trkpt>
      <trkpt lat="45.53582" lon="4.52496">
        <ele>408.79998779297</ele>
        <time>2022-04-24T09:20:57.000Z</time>
      </trkpt>
      <trkpt lat="45.53581" lon="4.52501">
        <ele>409</ele>
        <time>2022-04-24T09:20:59.000Z</time>
      </trkpt>
      <trkpt lat="45.53576" lon="4.52523">
        <ele>409.39999389648</ele>
        <time>2022-04-24T09:21:06.000Z</time>
      </trkpt>
      <trkpt lat="45.53573" lon="4.5254">
        <ele>410.20001220703</ele>
        <time>2022-04-24T09:21:11.000Z</time>
      </trkpt>
      <trkpt lat="45.53571" lon="4.52561">
        <ele>411.39999389648</ele>
        <time>2022-04-24T09:21:18.000Z</time>
      </trkpt>
      <trkpt lat="45.5357" lon="4.52577">
        <ele>411.79998779297</ele>
        <time>2022-04-24T09:21:23.000Z</time>
      </trkpt>
      <trkpt lat="45.5357" lon="4.52593">
        <ele>412</ele>
        <time>2022-04-24T09:21:28.000Z</time>
      </trkpt>
      <trkpt lat="45.53571" lon="4.52609">
        <ele>412.60000610352</ele>
        <time>2022-04-24T09:21:33.000Z</time>
      </trkpt>
      <trkpt lat="45.53572" lon="4.52614">
        <ele>412.60000610352</ele>
        <time>2022-04-24T09:21:35.000Z</time>
      </trkpt>
      <trkpt lat="45.53573" lon="4.52622">
        <ele>412.60000610352</ele>
        <time>2022-04-24T09:21:38.000Z</time>
      </trkpt>
      <trkpt lat="45.53577" lon="4.52641">
        <ele>413</ele>
        <time>2022-04-24T09:21:45.000Z</time>
      </trkpt>
      <trkpt lat="45.53578" lon="4.52644">
        <ele>413</ele>
        <time>2022-04-24T09:21:46.000Z</time>
      </trkpt>
      <trkpt lat="45.5358" lon="4.52649">
        <ele>412.79998779297</ele>
        <time>2022-04-24T09:21:48.000Z</time>
      </trkpt>
      <trkpt lat="45.53581" lon="4.52652">
        <ele>412.79998779297</ele>
        <time>2022-04-24T09:21:49.000Z</time>
      </trkpt>
      <trkpt lat="45.53585" lon="4.52664">
        <ele>412.39999389648</ele>
        <time>2022-04-24T09:21:54.000Z</time>
      </trkpt>
      <trkpt lat="45.53592" lon="4.52681">
        <ele>414</ele>
        <time>2022-04-24T09:22:00.000Z</time>
      </trkpt>
      <trkpt lat="45.536" lon="4.52703">
        <ele>415.79998779297</ele>
        <time>2022-04-24T09:22:08.000Z</time>
      </trkpt>
      <trkpt lat="45.53605" lon="4.52723">
        <ele>417.60000610352</ele>
        <time>2022-04-24T09:22:15.000Z</time>
      </trkpt>
      <trkpt lat="45.53608" lon="4.5274">
        <ele>419.39999389648</ele>
        <time>2022-04-24T09:22:21.000Z</time>
      </trkpt>
      <trkpt lat="45.53611" lon="4.52764">
        <ele>420.20001220703</ele>
        <time>2022-04-24T09:22:29.000Z</time>
      </trkpt>
      <trkpt lat="45.53612" lon="4.52786">
        <ele>419.79998779297</ele>
        <time>2022-04-24T09:22:37.000Z</time>
      </trkpt>
      <trkpt lat="45.53606" lon="4.528">
        <ele>420.60000610352</ele>
        <time>2022-04-24T09:22:43.000Z</time>
      </trkpt>
      <trkpt lat="45.53604" lon="4.528">
        <ele>421</ele>
        <time>2022-04-24T09:22:44.000Z</time>
      </trkpt>
      <trkpt lat="45.53597" lon="4.528">
        <ele>422.60000610352</ele>
        <time>2022-04-24T09:22:48.000Z</time>
      </trkpt>
      <trkpt lat="45.53586" lon="4.52793">
        <ele>425</ele>
        <time>2022-04-24T09:22:55.000Z</time>
      </trkpt>
      <trkpt lat="45.53576" lon="4.52783">
        <ele>426.60000610352</ele>
        <time>2022-04-24T09:23:02.000Z</time>
      </trkpt>
      <trkpt lat="45.53565" lon="4.52778">
        <ele>428</ele>
        <time>2022-04-24T09:23:10.000Z</time>
      </trkpt>
      <trkpt lat="45.53557" lon="4.52777">
        <ele>428.79998779297</ele>
        <time>2022-04-24T09:23:16.000Z</time>
      </trkpt>
      <trkpt lat="45.53547" lon="4.52776">
        <ele>429.39999389648</ele>
        <time>2022-04-24T09:23:24.000Z</time>
      </trkpt>
      <trkpt lat="45.53543" lon="4.52774">
        <ele>429.39999389648</ele>
        <time>2022-04-24T09:23:29.000Z</time>
      </trkpt>
      <trkpt lat="45.53543" lon="4.52774">
        <ele>429.39999389648</ele>
        <time>2022-04-24T09:27:36.000Z</time>
      </trkpt>
      <trkpt lat="45.53548" lon="4.52776">
        <ele>429.39999389648</ele>
        <time>2022-04-24T09:27:37.000Z</time>
      </trkpt>
      <trkpt lat="45.53555" lon="4.52777">
        <ele>429</ele>
        <time>2022-04-24T09:27:38.000Z</time>
      </trkpt>
      <trkpt lat="45.53567" lon="4.52778">
        <ele>427.79998779297</ele>
        <time>2022-04-24T09:27:43.000Z</time>
      </trkpt>
      <trkpt lat="45.5358" lon="4.52787">
        <ele>426.20001220703</ele>
        <time>2022-04-24T09:27:48.000Z</time>
      </trkpt>
      <trkpt lat="45.53591" lon="4.52796">
        <ele>424</ele>
        <time>2022-04-24T09:27:53.000Z</time>
      </trkpt>
      <trkpt lat="45.536" lon="4.528">
        <ele>421.79998779297</ele>
        <time>2022-04-24T09:27:59.000Z</time>
      </trkpt>
      <trkpt lat="45.536" lon="4.528">
        <ele>421.79998779297</ele>
        <time>2022-04-24T09:28:01.000Z</time>
      </trkpt>
      <trkpt lat="45.536" lon="4.528">
        <ele>421.79998779297</ele>
        <time>2022-04-24T09:28:06.000Z</time>
      </trkpt>
      <trkpt lat="45.53597" lon="4.528">
        <ele>422.60000610352</ele>
        <time>2022-04-24T09:28:08.000Z</time>
      </trkpt>
      <trkpt lat="45.53597" lon="4.528">
        <ele>422.60000610352</ele>
        <time>2022-04-24T09:28:09.000Z</time>
      </trkpt>
      <trkpt lat="45.53597" lon="4.528">
        <ele>422.60000610352</ele>
        <time>2022-04-24T09:28:12.000Z</time>
      </trkpt>
      <trkpt lat="45.53611" lon="4.52794">
        <ele>419.79998779297</ele>
        <time>2022-04-24T09:28:14.000Z</time>
      </trkpt>
      <trkpt lat="45.53612" lon="4.52789">
        <ele>419.60000610352</ele>
        <time>2022-04-24T09:28:15.000Z</time>
      </trkpt>
      <trkpt lat="45.53612" lon="4.5278">
        <ele>420</ele>
        <time>2022-04-24T09:28:17.000Z</time>
      </trkpt>
      <trkpt lat="45.53611" lon="4.5277">
        <ele>420.20001220703</ele>
        <time>2022-04-24T09:28:19.000Z</time>
      </trkpt>
      <trkpt lat="45.5361" lon="4.52757">
        <ele>420.39999389648</ele>
        <time>2022-04-24T09:28:21.000Z</time>
      </trkpt>
      <trkpt lat="45.53602" lon="4.52709">
        <ele>416.20001220703</ele>
        <time>2022-04-24T09:28:27.000Z</time>
      </trkpt>
      <trkpt lat="45.5359" lon="4.52677">
        <ele>413.39999389648</ele>
        <time>2022-04-24T09:28:31.000Z</time>
      </trkpt>
      <trkpt lat="45.53584" lon="4.5266">
        <ele>412.39999389648</ele>
        <time>2022-04-24T09:28:33.000Z</time>
      </trkpt>
      <trkpt lat="45.53572" lon="4.52613">
        <ele>412.60000610352</ele>
        <time>2022-04-24T09:28:38.000Z</time>
      </trkpt>
      <trkpt lat="45.53571" lon="4.52603">
        <ele>412.39999389648</ele>
        <time>2022-04-24T09:28:39.000Z</time>
      </trkpt>
      <trkpt lat="45.5357" lon="4.52592">
        <ele>412</ele>
        <time>2022-04-24T09:28:40.000Z</time>
      </trkpt>
      <trkpt lat="45.5357" lon="4.52572">
        <ele>411.60000610352</ele>
        <time>2022-04-24T09:28:42.000Z</time>
      </trkpt>
      <trkpt lat="45.53571" lon="4.52562">
        <ele>411.39999389648</ele>
        <time>2022-04-24T09:28:43.000Z</time>
      </trkpt>
      <trkpt lat="45.53571" lon="4.52553">
        <ele>411.20001220703</ele>
        <time>2022-04-24T09:28:44.000Z</time>
      </trkpt>
      <trkpt lat="45.53574" lon="4.52533">
        <ele>409.79998779297</ele>
        <time>2022-04-24T09:28:46.000Z</time>
      </trkpt>
      <trkpt lat="45.53577" lon="4.52517">
        <ele>409.20001220703</ele>
        <time>2022-04-24T09:28:48.000Z</time>
      </trkpt>
      <trkpt lat="45.53581" lon="4.52501">
        <ele>409</ele>
        <time>2022-04-24T09:28:50.000Z</time>
      </trkpt>
      <trkpt lat="45.53585" lon="4.52486">
        <ele>408.39999389648</ele>
        <time>2022-04-24T09:28:52.000Z</time>
      </trkpt>
      <trkpt lat="45.53589" lon="4.52473">
        <ele>408.60000610352</ele>
        <time>2022-04-24T09:28:54.000Z</time>
      </trkpt>
      <trkpt lat="45.53595" lon="4.52462">
        <ele>409</ele>
        <time>2022-04-24T09:28:58.000Z</time>
      </trkpt>
      <trkpt lat="45.536" lon="4.52454">
        <ele>409</ele>
        <time>2022-04-24T09:29:03.000Z</time>
      </trkpt>
      <trkpt lat="45.53609" lon="4.5245">
        <ele>408.20001220703</ele>
        <time>2022-04-24T09:29:08.000Z</time>
      </trkpt>
      <trkpt lat="45.53616" lon="4.52446">
        <ele>408.39999389648</ele>
        <time>2022-04-24T09:29:13.000Z</time>
      </trkpt>
      <trkpt lat="45.5362" lon="4.52446">
        <ele>408.60000610352</ele>
        <time>2022-04-24T09:29:16.000Z</time>
      </trkpt>
      <trkpt lat="45.53622" lon="4.52446">
        <ele>408.79998779297</ele>
        <time>2022-04-24T09:29:18.000Z</time>
      </trkpt>
      <trkpt lat="45.53631" lon="4.52443">
        <ele>409.39999389648</ele>
        <time>2022-04-24T09:29:24.000Z</time>
      </trkpt>
      <trkpt lat="45.53642" lon="4.52439">
        <ele>411</ele>
        <time>2022-04-24T09:29:31.000Z</time>
      </trkpt>
      <trkpt lat="45.53646" lon="4.52437">
        <ele>412</ele>
        <time>2022-04-24T09:29:34.000Z</time>
      </trkpt>
      <trkpt lat="45.53649" lon="4.52436">
        <ele>412.60000610352</ele>
        <time>2022-04-24T09:29:36.000Z</time>
      </trkpt>
      <trkpt lat="45.5365" lon="4.52435">
        <ele>412.79998779297</ele>
        <time>2022-04-24T09:29:37.000Z</time>
      </trkpt>
      <trkpt lat="45.53655" lon="4.52433">
        <ele>414</ele>
        <time>2022-04-24T09:29:40.000Z</time>
      </trkpt>
      <trkpt lat="45.53658" lon="4.52432">
        <ele>414.60000610352</ele>
        <time>2022-04-24T09:29:42.000Z</time>
      </trkpt>
      <trkpt lat="45.53663" lon="4.5243">
        <ele>415.20001220703</ele>
        <time>2022-04-24T09:29:45.000Z</time>
      </trkpt>
      <trkpt lat="45.53664" lon="4.52429">
        <ele>415.39999389648</ele>
        <time>2022-04-24T09:29:46.000Z</time>
      </trkpt>
      <trkpt lat="45.5367" lon="4.52424">
        <ele>416.60000610352</ele>
        <time>2022-04-24T09:29:51.000Z</time>
      </trkpt>
      <trkpt lat="45.53677" lon="4.5242">
        <ele>418</ele>
        <time>2022-04-24T09:29:56.000Z</time>
      </trkpt>
      <trkpt lat="45.53678" lon="4.52419">
        <ele>418.20001220703</ele>
        <time>2022-04-24T09:29:57.000Z</time>
      </trkpt>
      <trkpt lat="45.53685" lon="4.5241">
        <ele>420.20001220703</ele>
        <time>2022-04-24T09:30:03.000Z</time>
      </trkpt>
      <trkpt lat="45.53687" lon="4.52407">
        <ele>420.79998779297</ele>
        <time>2022-04-24T09:30:05.000Z</time>
      </trkpt>
      <trkpt lat="45.53683" lon="4.52414">
        <ele>419.60000610352</ele>
        <time>2022-04-24T09:30:07.000Z</time>
      </trkpt>
      <trkpt lat="45.53683" lon="4.52414">
        <ele>419.60000610352</ele>
        <time>2022-04-24T09:30:08.000Z</time>
      </trkpt>
      <trkpt lat="45.53683" lon="4.52414">
        <ele>419.60000610352</ele>
        <time>2022-04-24T09:30:09.000Z</time>
      </trkpt>
      <trkpt lat="45.53682" lon="4.52415">
        <ele>419.39999389648</ele>
        <time>2022-04-24T09:30:12.000Z</time>
      </trkpt>
      <trkpt lat="45.5368" lon="4.52424">
        <ele>419</ele>
        <time>2022-04-24T09:30:17.000Z</time>
      </trkpt>
      <trkpt lat="45.53678" lon="4.52434">
        <ele>418.60000610352</ele>
        <time>2022-04-24T09:30:23.000Z</time>
      </trkpt>
      <trkpt lat="45.53674" lon="4.52454">
        <ele>417.79998779297</ele>
        <time>2022-04-24T09:30:32.000Z</time>
      </trkpt>
      <trkpt lat="45.53672" lon="4.52468">
        <ele>417.39999389648</ele>
        <time>2022-04-24T09:30:39.000Z</time>
      </trkpt>
      <trkpt lat="45.53673" lon="4.52481">
        <ele>418.39999389648</ele>
        <time>2022-04-24T09:30:45.000Z</time>
      </trkpt>
      <trkpt lat="45.53674" lon="4.52492">
        <ele>419.60000610352</ele>
        <time>2022-04-24T09:30:50.000Z</time>
      </trkpt>
      <trkpt lat="45.53676" lon="4.52502">
        <ele>421</ele>
        <time>2022-04-24T09:30:55.000Z</time>
      </trkpt>
      <trkpt lat="45.53677" lon="4.52507">
        <ele>421.60000610352</ele>
        <time>2022-04-24T09:30:57.000Z</time>
      </trkpt>
      <trkpt lat="45.53679" lon="4.52516">
        <ele>422.39999389648</ele>
        <time>2022-04-24T09:31:01.000Z</time>
      </trkpt>
      <trkpt lat="45.53684" lon="4.52531">
        <ele>424</ele>
        <time>2022-04-24T09:31:08.000Z</time>
      </trkpt>
      <trkpt lat="45.53688" lon="4.52542">
        <ele>425.20001220703</ele>
        <time>2022-04-24T09:31:14.000Z</time>
      </trkpt>
      <trkpt lat="45.53696" lon="4.52556">
        <ele>427</ele>
        <time>2022-04-24T09:31:22.000Z</time>
      </trkpt>
      <trkpt lat="45.53703" lon="4.52571">
        <ele>427.60000610352</ele>
        <time>2022-04-24T09:31:30.000Z</time>
      </trkpt>
      <trkpt lat="45.53712" lon="4.52583">
        <ele>428.79998779297</ele>
        <time>2022-04-24T09:31:38.000Z</time>
      </trkpt>
      <trkpt lat="45.5372" lon="4.52594">
        <ele>429.60000610352</ele>
        <time>2022-04-24T09:31:45.000Z</time>
      </trkpt>
      <trkpt lat="45.53729" lon="4.526">
        <ele>431</ele>
        <time>2022-04-24T09:31:52.000Z</time>
      </trkpt>
      <trkpt lat="45.53738" lon="4.52604">
        <ele>432.39999389648</ele>
        <time>2022-04-24T09:31:58.000Z</time>
      </trkpt>
      <trkpt lat="45.53748" lon="4.52606">
        <ele>434.20001220703</ele>
        <time>2022-04-24T09:32:05.000Z</time>
      </trkpt>
      <trkpt lat="45.53758" lon="4.52607">
        <ele>435</ele>
        <time>2022-04-24T09:32:11.000Z</time>
      </trkpt>
      <trkpt lat="45.53767" lon="4.52608">
        <ele>435.60000610352</ele>
        <time>2022-04-24T09:32:17.000Z</time>
      </trkpt>
      <trkpt lat="45.53782" lon="4.52609">
        <ele>436.39999389648</ele>
        <time>2022-04-24T09:32:25.000Z</time>
      </trkpt>
      <trkpt lat="45.53793" lon="4.5261">
        <ele>436.79998779297</ele>
        <time>2022-04-24T09:32:31.000Z</time>
      </trkpt>
      <trkpt lat="45.53802" lon="4.52611">
        <ele>437</ele>
        <time>2022-04-24T09:32:36.000Z</time>
      </trkpt>
      <trkpt lat="45.53818" lon="4.52612">
        <ele>437.79998779297</ele>
        <time>2022-04-24T09:32:44.000Z</time>
      </trkpt>
      <trkpt lat="45.53834" lon="4.52613">
        <ele>438.79998779297</ele>
        <time>2022-04-24T09:32:52.000Z</time>
      </trkpt>
      <trkpt lat="45.53847" lon="4.52614">
        <ele>440.60000610352</ele>
        <time>2022-04-24T09:32:59.000Z</time>
      </trkpt>
      <trkpt lat="45.53864" lon="4.52615">
        <ele>443</ele>
        <time>2022-04-24T09:33:08.000Z</time>
      </trkpt>
      <trkpt lat="45.53878" lon="4.52616">
        <ele>445.20001220703</ele>
        <time>2022-04-24T09:33:16.000Z</time>
      </trkpt>
      <trkpt lat="45.53888" lon="4.52616">
        <ele>446.60000610352</ele>
        <time>2022-04-24T09:33:22.000Z</time>
      </trkpt>
      <trkpt lat="45.539" lon="4.52617">
        <ele>448.39999389648</ele>
        <time>2022-04-24T09:33:29.000Z</time>
      </trkpt>
      <trkpt lat="45.53913" lon="4.52618">
        <ele>450.20001220703</ele>
        <time>2022-04-24T09:33:36.000Z</time>
      </trkpt>
      <trkpt lat="45.53917" lon="4.52618">
        <ele>450.60000610352</ele>
        <time>2022-04-24T09:33:38.000Z</time>
      </trkpt>
      <trkpt lat="45.53932" lon="4.52619">
        <ele>452</ele>
        <time>2022-04-24T09:33:47.000Z</time>
      </trkpt>
      <trkpt lat="45.53942" lon="4.5262">
        <ele>452.79998779297</ele>
        <time>2022-04-24T09:33:53.000Z</time>
      </trkpt>
      <trkpt lat="45.53955" lon="4.52621">
        <ele>453.39999389648</ele>
        <time>2022-04-24T09:34:00.000Z</time>
      </trkpt>
      <trkpt lat="45.53966" lon="4.52621">
        <ele>454.20001220703</ele>
        <time>2022-04-24T09:34:06.000Z</time>
      </trkpt>
      <trkpt lat="45.53976" lon="4.52622">
        <ele>455</ele>
        <time>2022-04-24T09:34:12.000Z</time>
      </trkpt>
      <trkpt lat="45.53988" lon="4.52623">
        <ele>456.20001220703</ele>
        <time>2022-04-24T09:34:19.000Z</time>
      </trkpt>
      <trkpt lat="45.53999" lon="4.52624">
        <ele>457.39999389648</ele>
        <time>2022-04-24T09:34:26.000Z</time>
      </trkpt>
      <trkpt lat="45.54011" lon="4.52625">
        <ele>458.20001220703</ele>
        <time>2022-04-24T09:34:32.000Z</time>
      </trkpt>
      <trkpt lat="45.54022" lon="4.52626">
        <ele>459.20001220703</ele>
        <time>2022-04-24T09:34:38.000Z</time>
      </trkpt>
      <trkpt lat="45.54037" lon="4.52626">
        <ele>460.60000610352</ele>
        <time>2022-04-24T09:34:46.000Z</time>
      </trkpt>
      <trkpt lat="45.54052" lon="4.52623">
        <ele>461.79998779297</ele>
        <time>2022-04-24T09:34:53.000Z</time>
      </trkpt>
      <trkpt lat="45.54068" lon="4.52619">
        <ele>462.79998779297</ele>
        <time>2022-04-24T09:35:00.000Z</time>
      </trkpt>
      <trkpt lat="45.54085" lon="4.52617">
        <ele>463.60000610352</ele>
        <time>2022-04-24T09:35:07.000Z</time>
      </trkpt>
      <trkpt lat="45.5409" lon="4.52618">
        <ele>463.79998779297</ele>
        <time>2022-04-24T09:35:10.000Z</time>
      </trkpt>
      <trkpt lat="45.54087" lon="4.52627">
        <ele>463</ele>
        <time>2022-04-24T09:35:12.000Z</time>
      </trkpt>
      <trkpt lat="45.54085" lon="4.52638">
        <ele>462.20001220703</ele>
        <time>2022-04-24T09:35:14.000Z</time>
      </trkpt>
      <trkpt lat="45.54084" lon="4.52645">
        <ele>461.79998779297</ele>
        <time>2022-04-24T09:35:15.000Z</time>
      </trkpt>
      <trkpt lat="45.54077" lon="4.52689">
        <ele>459.20001220703</ele>
        <time>2022-04-24T09:35:20.000Z</time>
      </trkpt>
      <trkpt lat="45.54075" lon="4.52705">
        <ele>458.20001220703</ele>
        <time>2022-04-24T09:35:22.000Z</time>
      </trkpt>
      <trkpt lat="45.5407" lon="4.52734">
        <ele>457</ele>
        <time>2022-04-24T09:35:25.000Z</time>
      </trkpt>
      <trkpt lat="45.54064" lon="4.52787">
        <ele>454</ele>
        <time>2022-04-24T09:35:30.000Z</time>
      </trkpt>
      <trkpt lat="45.5406" lon="4.52822">
        <ele>451.20001220703</ele>
        <time>2022-04-24T09:35:33.000Z</time>
      </trkpt>
      <trkpt lat="45.54059" lon="4.52834">
        <ele>450.20001220703</ele>
        <time>2022-04-24T09:35:34.000Z</time>
      </trkpt>
      <trkpt lat="45.54057" lon="4.52847">
        <ele>449.20001220703</ele>
        <time>2022-04-24T09:35:35.000Z</time>
      </trkpt>
      <trkpt lat="45.54049" lon="4.52882">
        <ele>447</ele>
        <time>2022-04-24T09:35:38.000Z</time>
      </trkpt>
      <trkpt lat="45.54035" lon="4.52943">
        <ele>441</ele>
        <time>2022-04-24T09:35:43.000Z</time>
      </trkpt>
      <trkpt lat="45.54021" lon="4.53006">
        <ele>434.60000610352</ele>
        <time>2022-04-24T09:35:48.000Z</time>
      </trkpt>
      <trkpt lat="45.54016" lon="4.5303">
        <ele>434</ele>
        <time>2022-04-24T09:35:50.000Z</time>
      </trkpt>
      <trkpt lat="45.54011" lon="4.5305">
        <ele>433.60000610352</ele>
        <time>2022-04-24T09:35:52.000Z</time>
      </trkpt>
      <trkpt lat="45.53997" lon="4.53106">
        <ele>432.20001220703</ele>
        <time>2022-04-24T09:35:57.000Z</time>
      </trkpt>
      <trkpt lat="45.53981" lon="4.53159">
        <ele>430.39999389648</ele>
        <time>2022-04-24T09:36:02.000Z</time>
      </trkpt>
      <trkpt lat="45.53978" lon="4.5317">
        <ele>430.39999389648</ele>
        <time>2022-04-24T09:36:03.000Z</time>
      </trkpt>
      <trkpt lat="45.53968" lon="4.53211">
        <ele>427.20001220703</ele>
        <time>2022-04-24T09:36:07.000Z</time>
      </trkpt>
      <trkpt lat="45.53954" lon="4.53259">
        <ele>425.20001220703</ele>
        <time>2022-04-24T09:36:12.000Z</time>
      </trkpt>
      <trkpt lat="45.53945" lon="4.53285">
        <ele>423.60000610352</ele>
        <time>2022-04-24T09:36:16.000Z</time>
      </trkpt>
      <trkpt lat="45.53939" lon="4.53294">
        <ele>422.60000610352</ele>
        <time>2022-04-24T09:36:20.000Z</time>
      </trkpt>
      <trkpt lat="45.53934" lon="4.53309">
        <ele>421.39999389648</ele>
        <time>2022-04-24T09:36:26.000Z</time>
      </trkpt>
      <trkpt lat="45.53925" lon="4.53336">
        <ele>419.20001220703</ele>
        <time>2022-04-24T09:36:31.000Z</time>
      </trkpt>
      <trkpt lat="45.53922" lon="4.53349">
        <ele>418</ele>
        <time>2022-04-24T09:36:33.000Z</time>
      </trkpt>
      <trkpt lat="45.53921" lon="4.53361">
        <ele>417.20001220703</ele>
        <time>2022-04-24T09:36:35.000Z</time>
      </trkpt>
      <trkpt lat="45.5392" lon="4.5337">
        <ele>416</ele>
        <time>2022-04-24T09:36:37.000Z</time>
      </trkpt>
      <trkpt lat="45.5392" lon="4.53374">
        <ele>415.39999389648</ele>
        <time>2022-04-24T09:36:38.000Z</time>
      </trkpt>
      <trkpt lat="45.53919" lon="4.53383">
        <ele>414</ele>
        <time>2022-04-24T09:36:42.000Z</time>
      </trkpt>
      <trkpt lat="45.53908" lon="4.53387">
        <ele>411.79998779297</ele>
        <time>2022-04-24T09:36:46.000Z</time>
      </trkpt>
      <trkpt lat="45.53904" lon="4.53386">
        <ele>411.60000610352</ele>
        <time>2022-04-24T09:36:48.000Z</time>
      </trkpt>
      <trkpt lat="45.539" lon="4.53382">
        <ele>411.20001220703</ele>
        <time>2022-04-24T09:36:50.000Z</time>
      </trkpt>
      <trkpt lat="45.53897" lon="4.53379">
        <ele>411.20001220703</ele>
        <time>2022-04-24T09:36:51.000Z</time>
      </trkpt>
      <trkpt lat="45.53891" lon="4.53369">
        <ele>411.39999389648</ele>
        <time>2022-04-24T09:36:54.000Z</time>
      </trkpt>
      <trkpt lat="45.53886" lon="4.53359">
        <ele>411.20001220703</ele>
        <time>2022-04-24T09:36:57.000Z</time>
      </trkpt>
      <trkpt lat="45.53882" lon="4.53354">
        <ele>410.79998779297</ele>
        <time>2022-04-24T09:36:59.000Z</time>
      </trkpt>
      <trkpt lat="45.53875" lon="4.53343">
        <ele>410.20001220703</ele>
        <time>2022-04-24T09:37:03.000Z</time>
      </trkpt>
      <trkpt lat="45.53862" lon="4.53324">
        <ele>408.79998779297</ele>
        <time>2022-04-24T09:37:10.000Z</time>
      </trkpt>
      <trkpt lat="45.53854" lon="4.53314">
        <ele>407.60000610352</ele>
        <time>2022-04-24T09:37:14.000Z</time>
      </trkpt>
      <trkpt lat="45.53842" lon="4.53298">
        <ele>405.20001220703</ele>
        <time>2022-04-24T09:37:19.000Z</time>
      </trkpt>
      <trkpt lat="45.53835" lon="4.5329">
        <ele>404</ele>
        <time>2022-04-24T09:37:23.000Z</time>
      </trkpt>
      <trkpt lat="45.53831" lon="4.53283">
        <ele>403.60000610352</ele>
        <time>2022-04-24T09:37:26.000Z</time>
      </trkpt>
      <trkpt lat="45.53817" lon="4.53287">
        <ele>399.20001220703</ele>
        <time>2022-04-24T09:37:28.000Z</time>
      </trkpt>
      <trkpt lat="45.53814" lon="4.53277">
        <ele>399.39999389648</ele>
        <time>2022-04-24T09:37:33.000Z</time>
      </trkpt>
      <trkpt lat="45.53811" lon="4.53265">
        <ele>399.20001220703</ele>
        <time>2022-04-24T09:37:38.000Z</time>
      </trkpt>
      <trkpt lat="45.5381" lon="4.53263">
        <ele>399.20001220703</ele>
        <time>2022-04-24T09:37:39.000Z</time>
      </trkpt>
      <trkpt lat="45.53809" lon="4.53258">
        <ele>399.20001220703</ele>
        <time>2022-04-24T09:37:41.000Z</time>
      </trkpt>
      <trkpt lat="45.53808" lon="4.53255">
        <ele>399</ele>
        <time>2022-04-24T09:37:42.000Z</time>
      </trkpt>
      <trkpt lat="45.53807" lon="4.53252">
        <ele>399</ele>
        <time>2022-04-24T09:37:43.000Z</time>
      </trkpt>
      <trkpt lat="45.53791" lon="4.53265">
        <ele>396.39999389648</ele>
        <time>2022-04-24T09:37:45.000Z</time>
      </trkpt>
      <trkpt lat="45.53788" lon="4.53274">
        <ele>395.20001220703</ele>
        <time>2022-04-24T09:37:47.000Z</time>
      </trkpt>
      <trkpt lat="45.53786" lon="4.5328">
        <ele>394.79998779297</ele>
        <time>2022-04-24T09:37:48.000Z</time>
      </trkpt>
      <trkpt lat="45.5379" lon="4.53286">
        <ele>394.60000610352</ele>
        <time>2022-04-24T09:37:49.000Z</time>
      </trkpt>
      <trkpt lat="45.53799" lon="4.53298">
        <ele>394.79998779297</ele>
        <time>2022-04-24T09:37:51.000Z</time>
      </trkpt>
      <trkpt lat="45.53808" lon="4.53327">
        <ele>393</ele>
        <time>2022-04-24T09:37:55.000Z</time>
      </trkpt>
      <trkpt lat="45.53832" lon="4.53345">
        <ele>398</ele>
        <time>2022-04-24T09:38:00.000Z</time>
      </trkpt>
      <trkpt lat="45.53837" lon="4.53365">
        <ele>397.20001220703</ele>
        <time>2022-04-24T09:38:04.000Z</time>
      </trkpt>
      <trkpt lat="45.53841" lon="4.53381">
        <ele>396.20001220703</ele>
        <time>2022-04-24T09:38:08.000Z</time>
      </trkpt>
      <trkpt lat="45.53845" lon="4.53399">
        <ele>395.20001220703</ele>
        <time>2022-04-24T09:38:12.000Z</time>
      </trkpt>
      <trkpt lat="45.53846" lon="4.53403">
        <ele>395</ele>
        <time>2022-04-24T09:38:13.000Z</time>
      </trkpt>
      <trkpt lat="45.53852" lon="4.53423">
        <ele>394.39999389648</ele>
        <time>2022-04-24T09:38:17.000Z</time>
      </trkpt>
      <trkpt lat="45.53859" lon="4.53443">
        <ele>393.39999389648</ele>
        <time>2022-04-24T09:38:21.000Z</time>
      </trkpt>
      <trkpt lat="45.5386" lon="4.53448">
        <ele>393</ele>
        <time>2022-04-24T09:38:22.000Z</time>
      </trkpt>
      <trkpt lat="45.53864" lon="4.53459">
        <ele>391.79998779297</ele>
        <time>2022-04-24T09:38:24.000Z</time>
      </trkpt>
      <trkpt lat="45.53867" lon="4.5347">
        <ele>390.39999389648</ele>
        <time>2022-04-24T09:38:26.000Z</time>
      </trkpt>
      <trkpt lat="45.53869" lon="4.53476">
        <ele>389.79998779297</ele>
        <time>2022-04-24T09:38:27.000Z</time>
      </trkpt>
      <trkpt lat="45.53873" lon="4.5349">
        <ele>388</ele>
        <time>2022-04-24T09:38:29.000Z</time>
      </trkpt>
      <trkpt lat="45.53881" lon="4.53503">
        <ele>387</ele>
        <time>2022-04-24T09:38:31.000Z</time>
      </trkpt>
      <trkpt lat="45.53881" lon="4.53503">
        <ele>387</ele>
        <time>2022-04-24T09:38:32.000Z</time>
      </trkpt>
      <trkpt lat="45.53887" lon="4.53516">
        <ele>386.39999389648</ele>
        <time>2022-04-24T09:38:33.000Z</time>
      </trkpt>
      <trkpt lat="45.53893" lon="4.53531">
        <ele>385.20001220703</ele>
        <time>2022-04-24T09:38:35.000Z</time>
      </trkpt>
      <trkpt lat="45.53897" lon="4.53538">
        <ele>385.20001220703</ele>
        <time>2022-04-24T09:38:36.000Z</time>
      </trkpt>
      <trkpt lat="45.53897" lon="4.53538">
        <ele>385.20001220703</ele>
        <time>2022-04-24T09:38:37.000Z</time>
      </trkpt>
      <trkpt lat="45.53909" lon="4.53541">
        <ele>387.39999389648</ele>
        <time>2022-04-24T09:38:39.000Z</time>
      </trkpt>
      <trkpt lat="45.53914" lon="4.53542">
        <ele>388.20001220703</ele>
        <time>2022-04-24T09:38:41.000Z</time>
      </trkpt>
      <trkpt lat="45.53917" lon="4.53542">
        <ele>388.79998779297</ele>
        <time>2022-04-24T09:38:42.000Z</time>
      </trkpt>
      <trkpt lat="45.53917" lon="4.53543">
        <ele>388.60000610352</ele>
        <time>2022-04-24T09:38:43.000Z</time>
      </trkpt>
      <trkpt lat="45.53915" lon="4.53549">
        <ele>387.60000610352</ele>
        <time>2022-04-24T09:38:46.000Z</time>
      </trkpt>
      <trkpt lat="45.53914" lon="4.53557">
        <ele>386.20001220703</ele>
        <time>2022-04-24T09:38:49.000Z</time>
      </trkpt>
      <trkpt lat="45.53913" lon="4.5356">
        <ele>385.79998779297</ele>
        <time>2022-04-24T09:38:50.000Z</time>
      </trkpt>
      <trkpt lat="45.53913" lon="4.53563">
        <ele>385.39999389648</ele>
        <time>2022-04-24T09:38:51.000Z</time>
      </trkpt>
      <trkpt lat="45.5391" lon="4.53578">
        <ele>383.79998779297</ele>
        <time>2022-04-24T09:38:55.000Z</time>
      </trkpt>
      <trkpt lat="45.5391" lon="4.53605">
        <ele>382.60000610352</ele>
        <time>2022-04-24T09:38:59.000Z</time>
      </trkpt>
      <trkpt lat="45.5391" lon="4.53636">
        <ele>381.60000610352</ele>
        <time>2022-04-24T09:39:03.000Z</time>
      </trkpt>
      <trkpt lat="45.5391" lon="4.53645">
        <ele>381</ele>
        <time>2022-04-24T09:39:04.000Z</time>
      </trkpt>
      <trkpt lat="45.5391" lon="4.5368">
        <ele>380</ele>
        <time>2022-04-24T09:39:08.000Z</time>
      </trkpt>
      <trkpt lat="45.5391" lon="4.53689">
        <ele>379.79998779297</ele>
        <time>2022-04-24T09:39:09.000Z</time>
      </trkpt>
      <trkpt lat="45.53905" lon="4.53739">
        <ele>378.20001220703</ele>
        <time>2022-04-24T09:39:14.000Z</time>
      </trkpt>
      <trkpt lat="45.53903" lon="4.53751">
        <ele>377.79998779297</ele>
        <time>2022-04-24T09:39:15.000Z</time>
      </trkpt>
      <trkpt lat="45.53898" lon="4.53783">
        <ele>376.39999389648</ele>
        <time>2022-04-24T09:39:18.000Z</time>
      </trkpt>
      <trkpt lat="45.53891" lon="4.53829">
        <ele>376.20001220703</ele>
        <time>2022-04-24T09:39:22.000Z</time>
      </trkpt>
      <trkpt lat="45.53882" lon="4.53867">
        <ele>376.79998779297</ele>
        <time>2022-04-24T09:39:26.000Z</time>
      </trkpt>
      <trkpt lat="45.53872" lon="4.53902">
        <ele>375.39999389648</ele>
        <time>2022-04-24T09:39:30.000Z</time>
      </trkpt>
      <trkpt lat="45.53868" lon="4.53917">
        <ele>373.39999389648</ele>
        <time>2022-04-24T09:39:32.000Z</time>
      </trkpt>
      <trkpt lat="45.53866" lon="4.53923">
        <ele>373.20001220703</ele>
        <time>2022-04-24T09:39:33.000Z</time>
      </trkpt>
      <trkpt lat="45.53864" lon="4.53929">
        <ele>372.39999389648</ele>
        <time>2022-04-24T09:39:34.000Z</time>
      </trkpt>
      <trkpt lat="45.53862" lon="4.53937">
        <ele>371.60000610352</ele>
        <time>2022-04-24T09:39:36.000Z</time>
      </trkpt>
      <trkpt lat="45.5386" lon="4.53942">
        <ele>371.60000610352</ele>
        <time>2022-04-24T09:39:37.000Z</time>
      </trkpt>
      <trkpt lat="45.53859" lon="4.53948">
        <ele>371.39999389648</ele>
        <time>2022-04-24T09:39:39.000Z</time>
      </trkpt>
      <trkpt lat="45.53856" lon="4.53963">
        <ele>371.20001220703</ele>
        <time>2022-04-24T09:39:42.000Z</time>
      </trkpt>
      <trkpt lat="45.53855" lon="4.53968">
        <ele>371</ele>
        <time>2022-04-24T09:39:43.000Z</time>
      </trkpt>
      <trkpt lat="45.53852" lon="4.53987">
        <ele>370.60000610352</ele>
        <time>2022-04-24T09:39:47.000Z</time>
      </trkpt>
      <trkpt lat="45.53852" lon="4.5399">
        <ele>370.79998779297</ele>
        <time>2022-04-24T09:39:48.000Z</time>
      </trkpt>
      <trkpt lat="45.53849" lon="4.54009">
        <ele>370.39999389648</ele>
        <time>2022-04-24T09:39:52.000Z</time>
      </trkpt>
      <trkpt lat="45.53848" lon="4.54014">
        <ele>370.60000610352</ele>
        <time>2022-04-24T09:39:53.000Z</time>
      </trkpt>
      <trkpt lat="45.53843" lon="4.5403">
        <ele>370.79998779297</ele>
        <time>2022-04-24T09:39:56.000Z</time>
      </trkpt>
      <trkpt lat="45.53841" lon="4.54035">
        <ele>371</ele>
        <time>2022-04-24T09:39:57.000Z</time>
      </trkpt>
      <trkpt lat="45.53839" lon="4.54041">
        <ele>370.79998779297</ele>
        <time>2022-04-24T09:39:58.000Z</time>
      </trkpt>
      <trkpt lat="45.53835" lon="4.54054">
        <ele>370.20001220703</ele>
        <time>2022-04-24T09:40:00.000Z</time>
      </trkpt>
      <trkpt lat="45.5383" lon="4.54069">
        <ele>370.79998779297</ele>
        <time>2022-04-24T09:40:02.000Z</time>
      </trkpt>
      <trkpt lat="45.53825" lon="4.54083">
        <ele>371</ele>
        <time>2022-04-24T09:40:04.000Z</time>
      </trkpt>
      <trkpt lat="45.53813" lon="4.54118">
        <ele>371.20001220703</ele>
        <time>2022-04-24T09:40:10.000Z</time>
      </trkpt>
      <trkpt lat="45.53811" lon="4.54123">
        <ele>371</ele>
        <time>2022-04-24T09:40:11.000Z</time>
      </trkpt>
      <trkpt lat="45.53806" lon="4.54138">
        <ele>370</ele>
        <time>2022-04-24T09:40:14.000Z</time>
      </trkpt>
      <trkpt lat="45.53804" lon="4.54143">
        <ele>370.39999389648</ele>
        <time>2022-04-24T09:40:15.000Z</time>
      </trkpt>
      <trkpt lat="45.53798" lon="4.54162">
        <ele>372</ele>
        <time>2022-04-24T09:40:18.000Z</time>
      </trkpt>
      <trkpt lat="45.53787" lon="4.54203">
        <ele>372.20001220703</ele>
        <time>2022-04-24T09:40:24.000Z</time>
      </trkpt>
      <trkpt lat="45.53785" lon="4.54215">
        <ele>372</ele>
        <time>2022-04-24T09:40:26.000Z</time>
      </trkpt>
      <trkpt lat="45.53783" lon="4.54228">
        <ele>371.79998779297</ele>
        <time>2022-04-24T09:40:28.000Z</time>
      </trkpt>
      <trkpt lat="45.53781" lon="4.54234">
        <ele>371.60000610352</ele>
        <time>2022-04-24T09:40:29.000Z</time>
      </trkpt>
      <trkpt lat="45.5378" lon="4.5424">
        <ele>371.20001220703</ele>
        <time>2022-04-24T09:40:30.000Z</time>
      </trkpt>
      <trkpt lat="45.53776" lon="4.54259">
        <ele>371</ele>
        <time>2022-04-24T09:40:34.000Z</time>
      </trkpt>
      <trkpt lat="45.53768" lon="4.54282">
        <ele>371.39999389648</ele>
        <time>2022-04-24T09:40:38.000Z</time>
      </trkpt>
      <trkpt lat="45.53762" lon="4.54301">
        <ele>370.79998779297</ele>
        <time>2022-04-24T09:40:41.000Z</time>
      </trkpt>
      <trkpt lat="45.5376" lon="4.54314">
        <ele>371</ele>
        <time>2022-04-24T09:40:43.000Z</time>
      </trkpt>
      <trkpt lat="45.53759" lon="4.5432">
        <ele>371</ele>
        <time>2022-04-24T09:40:44.000Z</time>
      </trkpt>
      <trkpt lat="45.53757" lon="4.54337">
        <ele>370</ele>
        <time>2022-04-24T09:40:47.000Z</time>
      </trkpt>
      <trkpt lat="45.53757" lon="4.54373">
        <ele>370.79998779297</ele>
        <time>2022-04-24T09:40:54.000Z</time>
      </trkpt>
      <trkpt lat="45.53758" lon="4.54386">
        <ele>370</ele>
        <time>2022-04-24T09:40:57.000Z</time>
      </trkpt>
      <trkpt lat="45.53755" lon="4.54394">
        <ele>368.60000610352</ele>
        <time>2022-04-24T09:40:59.000Z</time>
      </trkpt>
      <trkpt lat="45.53752" lon="4.54407">
        <ele>366.79998779297</ele>
        <time>2022-04-24T09:41:03.000Z</time>
      </trkpt>
      <trkpt lat="45.53751" lon="4.54411">
        <ele>366.39999389648</ele>
        <time>2022-04-24T09:41:07.000Z</time>
      </trkpt>
      <trkpt lat="45.5375" lon="4.54414">
        <ele>366.20001220703</ele>
        <time>2022-04-24T09:41:10.000Z</time>
      </trkpt>
      <trkpt lat="45.53748" lon="4.54427">
        <ele>365.20001220703</ele>
        <time>2022-04-24T09:41:13.000Z</time>
      </trkpt>
      <trkpt lat="45.53746" lon="4.54433">
        <ele>364.79998779297</ele>
        <time>2022-04-24T09:41:14.000Z</time>
      </trkpt>
      <trkpt lat="45.53744" lon="4.5444">
        <ele>364</ele>
        <time>2022-04-24T09:41:15.000Z</time>
      </trkpt>
      <trkpt lat="45.53736" lon="4.54452">
        <ele>361.79998779297</ele>
        <time>2022-04-24T09:41:17.000Z</time>
      </trkpt>
      <trkpt lat="45.53723" lon="4.54467">
        <ele>359.39999389648</ele>
        <time>2022-04-24T09:41:20.000Z</time>
      </trkpt>
      <trkpt lat="45.53716" lon="4.54481">
        <ele>359</ele>
        <time>2022-04-24T09:41:24.000Z</time>
      </trkpt>
      <trkpt lat="45.53709" lon="4.54491">
        <ele>358.79998779297</ele>
        <time>2022-04-24T09:41:27.000Z</time>
      </trkpt>
      <trkpt lat="45.53702" lon="4.54499">
        <ele>358.39999389648</ele>
        <time>2022-04-24T09:41:29.000Z</time>
      </trkpt>
      <trkpt lat="45.53695" lon="4.54506">
        <ele>358.20001220703</ele>
        <time>2022-04-24T09:41:32.000Z</time>
      </trkpt>
      <trkpt lat="45.5368" lon="4.54518">
        <ele>358.79998779297</ele>
        <time>2022-04-24T09:41:38.000Z</time>
      </trkpt>
      <trkpt lat="45.53676" lon="4.54519">
        <ele>358.60000610352</ele>
        <time>2022-04-24T09:41:41.000Z</time>
      </trkpt>
      <trkpt lat="45.53676" lon="4.54519">
        <ele>358.60000610352</ele>
        <time>2022-04-24T09:41:44.000Z</time>
      </trkpt>
      <trkpt lat="45.53672" lon="4.5452">
        <ele>358.39999389648</ele>
        <time>2022-04-24T09:41:52.000Z</time>
      </trkpt>
      <trkpt lat="45.5367" lon="4.54516">
        <ele>358.60000610352</ele>
        <time>2022-04-24T09:41:55.000Z</time>
      </trkpt>
      <trkpt lat="45.5367" lon="4.54516">
        <ele>358.60000610352</ele>
        <time>2022-04-24T09:41:56.000Z</time>
      </trkpt>
      <trkpt lat="45.53668" lon="4.54522">
        <ele>358.20001220703</ele>
        <time>2022-04-24T09:43:19.000Z</time>
      </trkpt>
      <trkpt lat="45.53663" lon="4.54523">
        <ele>358.60000610352</ele>
        <time>2022-04-24T09:43:21.000Z</time>
      </trkpt>
      <trkpt lat="45.53652" lon="4.54523">
        <ele>358.79998779297</ele>
        <time>2022-04-24T09:43:25.000Z</time>
      </trkpt>
      <trkpt lat="45.53649" lon="4.54523">
        <ele>358.79998779297</ele>
        <time>2022-04-24T09:43:26.000Z</time>
      </trkpt>
      <trkpt lat="45.53622" lon="4.54531">
        <ele>359.20001220703</ele>
        <time>2022-04-24T09:43:33.000Z</time>
      </trkpt>
      <trkpt lat="45.53615" lon="4.54535">
        <ele>359.39999389648</ele>
        <time>2022-04-24T09:43:35.000Z</time>
      </trkpt>
      <trkpt lat="45.53604" lon="4.54543">
        <ele>362.39999389648</ele>
        <time>2022-04-24T09:43:38.000Z</time>
      </trkpt>
      <trkpt lat="45.536" lon="4.54546">
        <ele>363.20001220703</ele>
        <time>2022-04-24T09:43:39.000Z</time>
      </trkpt>
      <trkpt lat="45.5359" lon="4.54558">
        <ele>363.39999389648</ele>
        <time>2022-04-24T09:43:42.000Z</time>
      </trkpt>
      <trkpt lat="45.53588" lon="4.54568">
        <ele>362.79998779297</ele>
        <time>2022-04-24T09:43:44.000Z</time>
      </trkpt>
      <trkpt lat="45.53592" lon="4.54586">
        <ele>360</ele>
        <time>2022-04-24T09:43:46.000Z</time>
      </trkpt>
      <trkpt lat="45.53595" lon="4.54589">
        <ele>359.79998779297</ele>
        <time>2022-04-24T09:43:47.000Z</time>
      </trkpt>
      <trkpt lat="45.53597" lon="4.54596">
        <ele>360</ele>
        <time>2022-04-24T09:43:49.000Z</time>
      </trkpt>
      <trkpt lat="45.53597" lon="4.546">
        <ele>359.79998779297</ele>
        <time>2022-04-24T09:43:50.000Z</time>
      </trkpt>
      <trkpt lat="45.53586" lon="4.54617">
        <ele>358.20001220703</ele>
        <time>2022-04-24T09:43:54.000Z</time>
      </trkpt>
      <trkpt lat="45.53576" lon="4.54626">
        <ele>359.20001220703</ele>
        <time>2022-04-24T09:43:57.000Z</time>
      </trkpt>
      <trkpt lat="45.53568" lon="4.54638">
        <ele>358.79998779297</ele>
        <time>2022-04-24T09:44:00.000Z</time>
      </trkpt>
      <trkpt lat="45.53565" lon="4.54642">
        <ele>358.79998779297</ele>
        <time>2022-04-24T09:44:01.000Z</time>
      </trkpt>
      <trkpt lat="45.53558" lon="4.54669">
        <ele>356</ele>
        <time>2022-04-24T09:44:05.000Z</time>
      </trkpt>
      <trkpt lat="45.53554" lon="4.54688">
        <ele>356.79998779297</ele>
        <time>2022-04-24T09:44:08.000Z</time>
      </trkpt>
      <trkpt lat="45.53554" lon="4.54701">
        <ele>356.60000610352</ele>
        <time>2022-04-24T09:44:10.000Z</time>
      </trkpt>
      <trkpt lat="45.53558" lon="4.54719">
        <ele>355.20001220703</ele>
        <time>2022-04-24T09:44:14.000Z</time>
      </trkpt>
      <trkpt lat="45.53562" lon="4.54731">
        <ele>354.60000610352</ele>
        <time>2022-04-24T09:44:19.000Z</time>
      </trkpt>
      <trkpt lat="45.53565" lon="4.54736">
        <ele>354.60000610352</ele>
        <time>2022-04-24T09:44:24.000Z</time>
      </trkpt>
      <trkpt lat="45.53567" lon="4.54741">
        <ele>354.60000610352</ele>
        <time>2022-04-24T09:44:35.000Z</time>
      </trkpt>
      <trkpt lat="45.53567" lon="4.54742">
        <ele>354.39999389648</ele>
        <time>2022-04-24T09:44:36.000Z</time>
      </trkpt>
      <trkpt lat="45.53567" lon="4.54742">
        <ele>354.60000610352</ele>
        <time>2022-04-24T09:44:38.000Z</time>
      </trkpt>
      <trkpt lat="45.53567" lon="4.54742">
        <ele>354.60000610352</ele>
        <time>2022-04-24T09:44:39.000Z</time>
      </trkpt>
      <trkpt lat="45.53567" lon="4.54742">
        <ele>354.60000610352</ele>
        <time>2022-04-24T09:56:58.000Z</time>
      </trkpt>
      <trkpt lat="45.53571" lon="4.54748">
        <ele>354.39999389648</ele>
        <time>2022-04-24T09:56:59.000Z</time>
      </trkpt>
      <trkpt lat="45.53572" lon="4.54751">
        <ele>354.39999389648</ele>
        <time>2022-04-24T09:57:00.000Z</time>
      </trkpt>
      <trkpt lat="45.53586" lon="4.54773">
        <ele>352.39999389648</ele>
        <time>2022-04-24T09:57:07.000Z</time>
      </trkpt>
      <trkpt lat="45.53596" lon="4.54789">
        <ele>352.20001220703</ele>
        <time>2022-04-24T09:57:11.000Z</time>
      </trkpt>
      <trkpt lat="45.536" lon="4.54797">
        <ele>352</ele>
        <time>2022-04-24T09:57:13.000Z</time>
      </trkpt>
      <trkpt lat="45.53603" lon="4.54801">
        <ele>352.20001220703</ele>
        <time>2022-04-24T09:57:14.000Z</time>
      </trkpt>
      <trkpt lat="45.5361" lon="4.54813">
        <ele>351.60000610352</ele>
        <time>2022-04-24T09:57:17.000Z</time>
      </trkpt>
      <trkpt lat="45.53627" lon="4.54844">
        <ele>350.39999389648</ele>
        <time>2022-04-24T09:57:24.000Z</time>
      </trkpt>
      <trkpt lat="45.5363" lon="4.54854">
        <ele>350</ele>
        <time>2022-04-24T09:57:26.000Z</time>
      </trkpt>
      <trkpt lat="45.53632" lon="4.54859">
        <ele>350</ele>
        <time>2022-04-24T09:57:27.000Z</time>
      </trkpt>
      <trkpt lat="45.53635" lon="4.54871">
        <ele>350</ele>
        <time>2022-04-24T09:57:29.000Z</time>
      </trkpt>
      <trkpt lat="45.53637" lon="4.54877">
        <ele>350</ele>
        <time>2022-04-24T09:57:30.000Z</time>
      </trkpt>
      <trkpt lat="45.53639" lon="4.54888">
        <ele>350</ele>
        <time>2022-04-24T09:57:32.000Z</time>
      </trkpt>
      <trkpt lat="45.53644" lon="4.54911">
        <ele>351.20001220703</ele>
        <time>2022-04-24T09:57:36.000Z</time>
      </trkpt>
      <trkpt lat="45.53654" lon="4.54954">
        <ele>354.79998779297</ele>
        <time>2022-04-24T09:57:43.000Z</time>
      </trkpt>
      <trkpt lat="45.53659" lon="4.5498">
        <ele>355.60000610352</ele>
        <time>2022-04-24T09:57:47.000Z</time>
      </trkpt>
      <trkpt lat="45.53661" lon="4.54993">
        <ele>355.39999389648</ele>
        <time>2022-04-24T09:57:49.000Z</time>
      </trkpt>
      <trkpt lat="45.53664" lon="4.55007">
        <ele>355.20001220703</ele>
        <time>2022-04-24T09:57:51.000Z</time>
      </trkpt>
      <trkpt lat="45.5367" lon="4.5504">
        <ele>355</ele>
        <time>2022-04-24T09:57:56.000Z</time>
      </trkpt>
      <trkpt lat="45.5367" lon="4.55047">
        <ele>355</ele>
        <time>2022-04-24T09:57:57.000Z</time>
      </trkpt>
      <trkpt lat="45.5367" lon="4.5509">
        <ele>357.79998779297</ele>
        <time>2022-04-24T09:58:03.000Z</time>
      </trkpt>
      <trkpt lat="45.5367" lon="4.55098">
        <ele>358.79998779297</ele>
        <time>2022-04-24T09:58:04.000Z</time>
      </trkpt>
      <trkpt lat="45.53666" lon="4.5511">
        <ele>359.20001220703</ele>
        <time>2022-04-24T09:58:06.000Z</time>
      </trkpt>
      <trkpt lat="45.53658" lon="4.5512">
        <ele>359.39999389648</ele>
        <time>2022-04-24T09:58:08.000Z</time>
      </trkpt>
      <trkpt lat="45.53653" lon="4.5512">
        <ele>358.39999389648</ele>
        <time>2022-04-24T09:58:09.000Z</time>
      </trkpt>
      <trkpt lat="45.53648" lon="4.55121">
        <ele>357.20001220703</ele>
        <time>2022-04-24T09:58:10.000Z</time>
      </trkpt>
      <trkpt lat="45.5363" lon="4.5512">
        <ele>353.60000610352</ele>
        <time>2022-04-24T09:58:13.000Z</time>
      </trkpt>
      <trkpt lat="45.53612" lon="4.5512">
        <ele>351.39999389648</ele>
        <time>2022-04-24T09:58:16.000Z</time>
      </trkpt>
      <trkpt lat="45.536" lon="4.55122">
        <ele>350.79998779297</ele>
        <time>2022-04-24T09:58:18.000Z</time>
      </trkpt>
      <trkpt lat="45.53583" lon="4.55125">
        <ele>348.39999389648</ele>
        <time>2022-04-24T09:58:21.000Z</time>
      </trkpt>
      <trkpt lat="45.53572" lon="4.55129">
        <ele>348.39999389648</ele>
        <time>2022-04-24T09:58:23.000Z</time>
      </trkpt>
      <trkpt lat="45.5355" lon="4.55138">
        <ele>345.39999389648</ele>
        <time>2022-04-24T09:58:28.000Z</time>
      </trkpt>
      <trkpt lat="45.5354" lon="4.55145">
        <ele>345.39999389648</ele>
        <time>2022-04-24T09:58:32.000Z</time>
      </trkpt>
      <trkpt lat="45.53539" lon="4.55146">
        <ele>345.39999389648</ele>
        <time>2022-04-24T09:58:34.000Z</time>
      </trkpt>
      <trkpt lat="45.53544" lon="4.55152">
        <ele>345</ele>
        <time>2022-04-24T09:58:35.000Z</time>
      </trkpt>
      <trkpt lat="45.53544" lon="4.55162">
        <ele>344.20001220703</ele>
        <time>2022-04-24T09:58:36.000Z</time>
      </trkpt>
      <trkpt lat="45.53534" lon="4.55181">
        <ele>342.79998779297</ele>
        <time>2022-04-24T09:58:38.000Z</time>
      </trkpt>
      <trkpt lat="45.53538" lon="4.55194">
        <ele>342.39999389648</ele>
        <time>2022-04-24T09:58:39.000Z</time>
      </trkpt>
      <trkpt lat="45.53543" lon="4.55204">
        <ele>342</ele>
        <time>2022-04-24T09:58:40.000Z</time>
      </trkpt>
      <trkpt lat="45.53557" lon="4.5522">
        <ele>341.20001220703</ele>
        <time>2022-04-24T09:58:42.000Z</time>
      </trkpt>
      <trkpt lat="45.53577" lon="4.5524">
        <ele>342</ele>
        <time>2022-04-24T09:58:45.000Z</time>
      </trkpt>
      <trkpt lat="45.53583" lon="4.55247">
        <ele>341.79998779297</ele>
        <time>2022-04-24T09:58:46.000Z</time>
      </trkpt>
      <trkpt lat="45.53589" lon="4.55253">
        <ele>342.79998779297</ele>
        <time>2022-04-24T09:58:47.000Z</time>
      </trkpt>
      <trkpt lat="45.53597" lon="4.55276">
        <ele>343.60000610352</ele>
        <time>2022-04-24T09:58:49.000Z</time>
      </trkpt>
      <trkpt lat="45.53599" lon="4.55282">
        <ele>344.20001220703</ele>
        <time>2022-04-24T09:58:50.000Z</time>
      </trkpt>
      <trkpt lat="45.53601" lon="4.553">
        <ele>344.79998779297</ele>
        <time>2022-04-24T09:58:52.000Z</time>
      </trkpt>
      <trkpt lat="45.53601" lon="4.55318">
        <ele>345.20001220703</ele>
        <time>2022-04-24T09:58:54.000Z</time>
      </trkpt>
      <trkpt lat="45.53598" lon="4.5534">
        <ele>345.60000610352</ele>
        <time>2022-04-24T09:58:57.000Z</time>
      </trkpt>
      <trkpt lat="45.53595" lon="4.55347">
        <ele>345.39999389648</ele>
        <time>2022-04-24T09:58:58.000Z</time>
      </trkpt>
      <trkpt lat="45.53577" lon="4.55387">
        <ele>341.79998779297</ele>
        <time>2022-04-24T09:59:04.000Z</time>
      </trkpt>
      <trkpt lat="45.53572" lon="4.55405">
        <ele>340.60000610352</ele>
        <time>2022-04-24T09:59:07.000Z</time>
      </trkpt>
      <trkpt lat="45.53568" lon="4.55418">
        <ele>338.79998779297</ele>
        <time>2022-04-24T09:59:10.000Z</time>
      </trkpt>
      <trkpt lat="45.53563" lon="4.55427">
        <ele>338.79998779297</ele>
        <time>2022-04-24T09:59:13.000Z</time>
      </trkpt>
      <trkpt lat="45.53562" lon="4.55438">
        <ele>339</ele>
        <time>2022-04-24T09:59:16.000Z</time>
      </trkpt>
      <trkpt lat="45.53562" lon="4.55456">
        <ele>340</ele>
        <time>2022-04-24T09:59:21.000Z</time>
      </trkpt>
      <trkpt lat="45.53567" lon="4.55477">
        <ele>341.60000610352</ele>
        <time>2022-04-24T09:59:27.000Z</time>
      </trkpt>
      <trkpt lat="45.53569" lon="4.55488">
        <ele>343.60000610352</ele>
        <time>2022-04-24T09:59:31.000Z</time>
      </trkpt>
      <trkpt lat="45.53568" lon="4.55491">
        <ele>343.60000610352</ele>
        <time>2022-04-24T09:59:32.000Z</time>
      </trkpt>
      <trkpt lat="45.53562" lon="4.55509">
        <ele>344.60000610352</ele>
        <time>2022-04-24T09:59:37.000Z</time>
      </trkpt>
      <trkpt lat="45.53554" lon="4.55535">
        <ele>344.39999389648</ele>
        <time>2022-04-24T09:59:43.000Z</time>
      </trkpt>
      <trkpt lat="45.53548" lon="4.5555">
        <ele>345.39999389648</ele>
        <time>2022-04-24T09:59:47.000Z</time>
      </trkpt>
      <trkpt lat="45.53545" lon="4.55555">
        <ele>344.60000610352</ele>
        <time>2022-04-24T09:59:49.000Z</time>
      </trkpt>
      <trkpt lat="45.53539" lon="4.55566">
        <ele>344.20001220703</ele>
        <time>2022-04-24T09:59:53.000Z</time>
      </trkpt>
      <trkpt lat="45.53538" lon="4.55568">
        <ele>344</ele>
        <time>2022-04-24T09:59:54.000Z</time>
      </trkpt>
      <trkpt lat="45.53534" lon="4.55577">
        <ele>342.60000610352</ele>
        <time>2022-04-24T09:59:57.000Z</time>
      </trkpt>
      <trkpt lat="45.53531" lon="4.55584">
        <ele>341.79998779297</ele>
        <time>2022-04-24T09:59:59.000Z</time>
      </trkpt>
      <trkpt lat="45.53527" lon="4.556">
        <ele>341.60000610352</ele>
        <time>2022-04-24T10:00:05.000Z</time>
      </trkpt>
      <trkpt lat="45.53525" lon="4.55611">
        <ele>341.79998779297</ele>
        <time>2022-04-24T10:00:11.000Z</time>
      </trkpt>
      <trkpt lat="45.53524" lon="4.55616">
        <ele>341.60000610352</ele>
        <time>2022-04-24T10:00:13.000Z</time>
      </trkpt>
      <trkpt lat="45.53526" lon="4.55626">
        <ele>342.20001220703</ele>
        <time>2022-04-24T10:00:17.000Z</time>
      </trkpt>
      <trkpt lat="45.53527" lon="4.55634">
        <ele>342.60000610352</ele>
        <time>2022-04-24T10:00:21.000Z</time>
      </trkpt>
      <trkpt lat="45.5353" lon="4.55644">
        <ele>343.39999389648</ele>
        <time>2022-04-24T10:00:26.000Z</time>
      </trkpt>
      <trkpt lat="45.53531" lon="4.55647">
        <ele>344</ele>
        <time>2022-04-24T10:00:28.000Z</time>
      </trkpt>
      <trkpt lat="45.53536" lon="4.55658">
        <ele>346.20001220703</ele>
        <time>2022-04-24T10:00:34.000Z</time>
      </trkpt>
      <trkpt lat="45.53539" lon="4.55668">
        <ele>347.39999389648</ele>
        <time>2022-04-24T10:00:39.000Z</time>
      </trkpt>
      <trkpt lat="45.53538" lon="4.55673">
        <ele>347.39999389648</ele>
        <time>2022-04-24T10:00:41.000Z</time>
      </trkpt>
      <trkpt lat="45.53537" lon="4.55674">
        <ele>347</ele>
        <time>2022-04-24T10:00:42.000Z</time>
      </trkpt>
      <trkpt lat="45.53534" lon="4.55679">
        <ele>346.60000610352</ele>
        <time>2022-04-24T10:00:45.000Z</time>
      </trkpt>
      <trkpt lat="45.53533" lon="4.55682">
        <ele>346.39999389648</ele>
        <time>2022-04-24T10:00:49.000Z</time>
      </trkpt>
      <trkpt lat="45.5353" lon="4.55686">
        <ele>346.20001220703</ele>
        <time>2022-04-24T10:01:05.000Z</time>
      </trkpt>
      <trkpt lat="45.5353" lon="4.55687">
        <ele>346.39999389648</ele>
        <time>2022-04-24T10:01:09.000Z</time>
      </trkpt>
      <trkpt lat="45.53533" lon="4.55692">
        <ele>348</ele>
        <time>2022-04-24T10:01:20.000Z</time>
      </trkpt>
      <trkpt lat="45.53539" lon="4.55688">
        <ele>349.39999389648</ele>
        <time>2022-04-24T10:01:23.000Z</time>
      </trkpt>
      <trkpt lat="45.53546" lon="4.55685">
        <ele>351.79998779297</ele>
        <time>2022-04-24T10:01:30.000Z</time>
      </trkpt>
      <trkpt lat="45.53556" lon="4.55682">
        <ele>356</ele>
        <time>2022-04-24T10:01:37.000Z</time>
      </trkpt>
      <trkpt lat="45.53567" lon="4.55679">
        <ele>358.79998779297</ele>
        <time>2022-04-24T10:01:45.000Z</time>
      </trkpt>
      <trkpt lat="45.53568" lon="4.55678">
        <ele>359.20001220703</ele>
        <time>2022-04-24T10:01:46.000Z</time>
      </trkpt>
      <trkpt lat="45.5357" lon="4.55677">
        <ele>359.79998779297</ele>
        <time>2022-04-24T10:01:48.000Z</time>
      </trkpt>
      <trkpt lat="45.53572" lon="4.55677">
        <ele>360.20001220703</ele>
        <time>2022-04-24T10:01:50.000Z</time>
      </trkpt>
      <trkpt lat="45.53579" lon="4.55676">
        <ele>362.60000610352</ele>
        <time>2022-04-24T10:01:55.000Z</time>
      </trkpt>
      <trkpt lat="45.53583" lon="4.55678">
        <ele>363.79998779297</ele>
        <time>2022-04-24T10:01:58.000Z</time>
      </trkpt>
      <trkpt lat="45.53585" lon="4.55679">
        <ele>364.39999389648</ele>
        <time>2022-04-24T10:01:59.000Z</time>
      </trkpt>
      <trkpt lat="45.53588" lon="4.55681">
        <ele>365.20001220703</ele>
        <time>2022-04-24T10:02:02.000Z</time>
      </trkpt>
      <trkpt lat="45.53593" lon="4.55686">
        <ele>366.39999389648</ele>
        <time>2022-04-24T10:02:07.000Z</time>
      </trkpt>
      <trkpt lat="45.53594" lon="4.55687">
        <ele>366.60000610352</ele>
        <time>2022-04-24T10:02:08.000Z</time>
      </trkpt>
      <trkpt lat="45.53596" lon="4.55688">
        <ele>367.20001220703</ele>
        <time>2022-04-24T10:02:10.000Z</time>
      </trkpt>
      <trkpt lat="45.53599" lon="4.55688">
        <ele>368</ele>
        <time>2022-04-24T10:02:13.000Z</time>
      </trkpt>
      <trkpt lat="45.53601" lon="4.55688">
        <ele>368.20001220703</ele>
        <time>2022-04-24T10:02:14.000Z</time>
      </trkpt>
      <trkpt lat="45.5361" lon="4.55688">
        <ele>370.39999389648</ele>
        <time>2022-04-24T10:02:21.000Z</time>
      </trkpt>
      <trkpt lat="45.53618" lon="4.55688">
        <ele>372.20001220703</ele>
        <time>2022-04-24T10:02:27.000Z</time>
      </trkpt>
      <trkpt lat="45.53627" lon="4.55687">
        <ele>374.20001220703</ele>
        <time>2022-04-24T10:02:34.000Z</time>
      </trkpt>
      <trkpt lat="45.53634" lon="4.55687">
        <ele>375.79998779297</ele>
        <time>2022-04-24T10:02:40.000Z</time>
      </trkpt>
      <trkpt lat="45.53639" lon="4.55686">
        <ele>377.20001220703</ele>
        <time>2022-04-24T10:02:45.000Z</time>
      </trkpt>
      <trkpt lat="45.5364" lon="4.55685">
        <ele>377.39999389648</ele>
        <time>2022-04-24T10:02:46.000Z</time>
      </trkpt>
      <trkpt lat="45.53645" lon="4.55681">
        <ele>378.60000610352</ele>
        <time>2022-04-24T10:02:51.000Z</time>
      </trkpt>
      <trkpt lat="45.53649" lon="4.55679">
        <ele>379.60000610352</ele>
        <time>2022-04-24T10:02:55.000Z</time>
      </trkpt>
      <trkpt lat="45.53651" lon="4.55679">
        <ele>380</ele>
        <time>2022-04-24T10:02:57.000Z</time>
      </trkpt>
      <trkpt lat="45.53657" lon="4.55679">
        <ele>381.20001220703</ele>
        <time>2022-04-24T10:03:02.000Z</time>
      </trkpt>
      <trkpt lat="45.53666" lon="4.55678">
        <ele>383.20001220703</ele>
        <time>2022-04-24T10:03:09.000Z</time>
      </trkpt>
      <trkpt lat="45.53673" lon="4.55676">
        <ele>384.79998779297</ele>
        <time>2022-04-24T10:03:15.000Z</time>
      </trkpt>
      <trkpt lat="45.53678" lon="4.55675">
        <ele>386</ele>
        <time>2022-04-24T10:03:19.000Z</time>
      </trkpt>
      <trkpt lat="45.5368" lon="4.55674">
        <ele>386.39999389648</ele>
        <time>2022-04-24T10:03:21.000Z</time>
      </trkpt>
      <trkpt lat="45.53687" lon="4.55672">
        <ele>388.20001220703</ele>
        <time>2022-04-24T10:03:27.000Z</time>
      </trkpt>
      <trkpt lat="45.53695" lon="4.5567">
        <ele>389.79998779297</ele>
        <time>2022-04-24T10:03:33.000Z</time>
      </trkpt>
      <trkpt lat="45.537" lon="4.55668">
        <ele>390.79998779297</ele>
        <time>2022-04-24T10:03:37.000Z</time>
      </trkpt>
      <trkpt lat="45.53701" lon="4.55668">
        <ele>390.79998779297</ele>
        <time>2022-04-24T10:03:38.000Z</time>
      </trkpt>
      <trkpt lat="45.53704" lon="4.55667">
        <ele>391.39999389648</ele>
        <time>2022-04-24T10:03:40.000Z</time>
      </trkpt>
      <trkpt lat="45.53709" lon="4.55667">
        <ele>392</ele>
        <time>2022-04-24T10:03:43.000Z</time>
      </trkpt>
      <trkpt lat="45.53718" lon="4.55668">
        <ele>393.20001220703</ele>
        <time>2022-04-24T10:03:49.000Z</time>
      </trkpt>
      <trkpt lat="45.53728" lon="4.55669">
        <ele>394.79998779297</ele>
        <time>2022-04-24T10:03:56.000Z</time>
      </trkpt>
      <trkpt lat="45.53734" lon="4.5567">
        <ele>395.60000610352</ele>
        <time>2022-04-24T10:04:00.000Z</time>
      </trkpt>
      <trkpt lat="45.53734" lon="4.5567">
        <ele>395.60000610352</ele>
        <time>2022-04-24T10:04:02.000Z</time>
      </trkpt>
      <trkpt lat="45.53734" lon="4.5567">
        <ele>395.60000610352</ele>
        <time>2022-04-24T10:04:30.000Z</time>
      </trkpt>
      <trkpt lat="45.5374" lon="4.55671">
        <ele>396.60000610352</ele>
        <time>2022-04-24T10:04:31.000Z</time>
      </trkpt>
      <trkpt lat="45.53743" lon="4.55671">
        <ele>397</ele>
        <time>2022-04-24T10:04:33.000Z</time>
      </trkpt>
      <trkpt lat="45.53753" lon="4.55672">
        <ele>398.39999389648</ele>
        <time>2022-04-24T10:04:39.000Z</time>
      </trkpt>
      <trkpt lat="45.53762" lon="4.55673">
        <ele>399.60000610352</ele>
        <time>2022-04-24T10:04:45.000Z</time>
      </trkpt>
      <trkpt lat="45.5377" lon="4.55674">
        <ele>400.79998779297</ele>
        <time>2022-04-24T10:04:51.000Z</time>
      </trkpt>
      <trkpt lat="45.53776" lon="4.55675">
        <ele>401.60000610352</ele>
        <time>2022-04-24T10:04:56.000Z</time>
      </trkpt>
      <trkpt lat="45.53784" lon="4.55677">
        <ele>402.39999389648</ele>
        <time>2022-04-24T10:05:03.000Z</time>
      </trkpt>
      <trkpt lat="45.53788" lon="4.55678">
        <ele>402.60000610352</ele>
        <time>2022-04-24T10:05:06.000Z</time>
      </trkpt>
      <trkpt lat="45.5379" lon="4.55678">
        <ele>402.79998779297</ele>
        <time>2022-04-24T10:05:08.000Z</time>
      </trkpt>
      <trkpt lat="45.53796" lon="4.5568">
        <ele>403.39999389648</ele>
        <time>2022-04-24T10:05:12.000Z</time>
      </trkpt>
      <trkpt lat="45.53798" lon="4.5568">
        <ele>403.60000610352</ele>
        <time>2022-04-24T10:05:14.000Z</time>
      </trkpt>
      <trkpt lat="45.53809" lon="4.55683">
        <ele>404.79998779297</ele>
        <time>2022-04-24T10:05:22.000Z</time>
      </trkpt>
      <trkpt lat="45.53819" lon="4.55686">
        <ele>406.20001220703</ele>
        <time>2022-04-24T10:05:29.000Z</time>
      </trkpt>
      <trkpt lat="45.53826" lon="4.55687">
        <ele>407.20001220703</ele>
        <time>2022-04-24T10:05:34.000Z</time>
      </trkpt>
      <trkpt lat="45.5383" lon="4.55689">
        <ele>407.60000610352</ele>
        <time>2022-04-24T10:05:36.000Z</time>
      </trkpt>
      <trkpt lat="45.53832" lon="4.55694">
        <ele>407.60000610352</ele>
        <time>2022-04-24T10:05:39.000Z</time>
      </trkpt>
      <trkpt lat="45.53834" lon="4.55709">
        <ele>408.39999389648</ele>
        <time>2022-04-24T10:05:46.000Z</time>
      </trkpt>
      <trkpt lat="45.53838" lon="4.55718">
        <ele>409.39999389648</ele>
        <time>2022-04-24T10:05:51.000Z</time>
      </trkpt>
      <trkpt lat="45.53839" lon="4.55719">
        <ele>409.79998779297</ele>
        <time>2022-04-24T10:05:52.000Z</time>
      </trkpt>
      <trkpt lat="45.53846" lon="4.55731">
        <ele>411.79998779297</ele>
        <time>2022-04-24T10:05:59.000Z</time>
      </trkpt>
      <trkpt lat="45.53851" lon="4.55738">
        <ele>413</ele>
        <time>2022-04-24T10:06:04.000Z</time>
      </trkpt>
      <trkpt lat="45.53853" lon="4.55741">
        <ele>413.60000610352</ele>
        <time>2022-04-24T10:06:06.000Z</time>
      </trkpt>
      <trkpt lat="45.53854" lon="4.55742">
        <ele>413.79998779297</ele>
        <time>2022-04-24T10:06:07.000Z</time>
      </trkpt>
      <trkpt lat="45.53858" lon="4.55748">
        <ele>415</ele>
        <time>2022-04-24T10:06:11.000Z</time>
      </trkpt>
      <trkpt lat="45.53866" lon="4.5576">
        <ele>417</ele>
        <time>2022-04-24T10:06:17.000Z</time>
      </trkpt>
      <trkpt lat="45.53873" lon="4.55771">
        <ele>418.79998779297</ele>
        <time>2022-04-24T10:06:24.000Z</time>
      </trkpt>
      <trkpt lat="45.53877" lon="4.5578">
        <ele>419.60000610352</ele>
        <time>2022-04-24T10:06:30.000Z</time>
      </trkpt>
      <trkpt lat="45.53881" lon="4.55789">
        <ele>420</ele>
        <time>2022-04-24T10:06:36.000Z</time>
      </trkpt>
      <trkpt lat="45.53885" lon="4.55799">
        <ele>420.39999389648</ele>
        <time>2022-04-24T10:06:43.000Z</time>
      </trkpt>
      <trkpt lat="45.53886" lon="4.55801">
        <ele>420.60000610352</ele>
        <time>2022-04-24T10:06:47.000Z</time>
      </trkpt>
      <trkpt lat="45.53883" lon="4.55793">
        <ele>420.20001220703</ele>
        <time>2022-04-24T10:07:48.000Z</time>
      </trkpt>
      <trkpt lat="45.53879" lon="4.55784">
        <ele>419.79998779297</ele>
        <time>2022-04-24T10:07:54.000Z</time>
      </trkpt>
      <trkpt lat="45.53874" lon="4.55772">
        <ele>418.79998779297</ele>
        <time>2022-04-24T10:08:01.000Z</time>
      </trkpt>
      <trkpt lat="45.53873" lon="4.5577">
        <ele>418.60000610352</ele>
        <time>2022-04-24T10:08:03.000Z</time>
      </trkpt>
      <trkpt lat="45.53869" lon="4.55764">
        <ele>417.79998779297</ele>
        <time>2022-04-24T10:08:09.000Z</time>
      </trkpt>
      <trkpt lat="45.53869" lon="4.55764">
        <ele>417.79998779297</ele>
        <time>2022-04-24T10:08:11.000Z</time>
      </trkpt>
      <trkpt lat="45.53869" lon="4.55764">
        <ele>417.79998779297</ele>
        <time>2022-04-24T10:08:25.000Z</time>
      </trkpt>
      <trkpt lat="45.53863" lon="4.55755">
        <ele>416.20001220703</ele>
        <time>2022-04-24T10:08:27.000Z</time>
      </trkpt>
      <trkpt lat="45.5385" lon="4.55737">
        <ele>413</ele>
        <time>2022-04-24T10:08:33.000Z</time>
      </trkpt>
      <trkpt lat="45.53843" lon="4.55727">
        <ele>411</ele>
        <time>2022-04-24T10:08:38.000Z</time>
      </trkpt>
      <trkpt lat="45.53839" lon="4.55721">
        <ele>410</ele>
        <time>2022-04-24T10:08:43.000Z</time>
      </trkpt>
      <trkpt lat="45.53834" lon="4.55706">
        <ele>408.20001220703</ele>
        <time>2022-04-24T10:08:49.000Z</time>
      </trkpt>
      <trkpt lat="45.53831" lon="4.5569">
        <ele>407.79998779297</ele>
        <time>2022-04-24T10:08:56.000Z</time>
      </trkpt>
      <trkpt lat="45.53831" lon="4.5569">
        <ele>407.79998779297</ele>
        <time>2022-04-24T10:08:58.000Z</time>
      </trkpt>
      <trkpt lat="45.53831" lon="4.5569">
        <ele>407.79998779297</ele>
        <time>2022-04-24T10:09:17.000Z</time>
      </trkpt>
      <trkpt lat="45.53831" lon="4.5569">
        <ele>407.79998779297</ele>
        <time>2022-04-24T10:09:18.000Z</time>
      </trkpt>
      <trkpt lat="45.53831" lon="4.5569">
        <ele>407.79998779297</ele>
        <time>2022-04-24T10:09:19.000Z</time>
      </trkpt>
      <trkpt lat="45.53838" lon="4.55674">
        <ele>410.39999389648</ele>
        <time>2022-04-24T10:09:22.000Z</time>
      </trkpt>
      <trkpt lat="45.53839" lon="4.55671">
        <ele>410.79998779297</ele>
        <time>2022-04-24T10:09:24.000Z</time>
      </trkpt>
      <trkpt lat="45.53841" lon="4.55673">
        <ele>411</ele>
        <time>2022-04-24T10:09:25.000Z</time>
      </trkpt>
      <trkpt lat="45.53839" lon="4.55678">
        <ele>410.20001220703</ele>
        <time>2022-04-24T10:09:27.000Z</time>
      </trkpt>
      <trkpt lat="45.53839" lon="4.55684">
        <ele>410</ele>
        <time>2022-04-24T10:09:29.000Z</time>
      </trkpt>
      <trkpt lat="45.5384" lon="4.55701">
        <ele>409.39999389648</ele>
        <time>2022-04-24T10:09:35.000Z</time>
      </trkpt>
      <trkpt lat="45.53841" lon="4.55716">
        <ele>410.20001220703</ele>
        <time>2022-04-24T10:09:41.000Z</time>
      </trkpt>
      <trkpt lat="45.53843" lon="4.55726">
        <ele>411</ele>
        <time>2022-04-24T10:09:45.000Z</time>
      </trkpt>
      <trkpt lat="45.53845" lon="4.55729">
        <ele>411.39999389648</ele>
        <time>2022-04-24T10:09:47.000Z</time>
      </trkpt>
      <trkpt lat="45.53849" lon="4.55735">
        <ele>412.60000610352</ele>
        <time>2022-04-24T10:09:51.000Z</time>
      </trkpt>
      <trkpt lat="45.53851" lon="4.55738">
        <ele>413.20001220703</ele>
        <time>2022-04-24T10:09:53.000Z</time>
      </trkpt>
      <trkpt lat="45.53856" lon="4.55746">
        <ele>414.60000610352</ele>
        <time>2022-04-24T10:09:58.000Z</time>
      </trkpt>
      <trkpt lat="45.53859" lon="4.55749">
        <ele>415.20001220703</ele>
        <time>2022-04-24T10:10:00.000Z</time>
      </trkpt>
      <trkpt lat="45.53867" lon="4.5576">
        <ele>417.20001220703</ele>
        <time>2022-04-24T10:10:07.000Z</time>
      </trkpt>
      <trkpt lat="45.53876" lon="4.55778">
        <ele>419.39999389648</ele>
        <time>2022-04-24T10:10:16.000Z</time>
      </trkpt>
      <trkpt lat="45.53885" lon="4.55799">
        <ele>420.39999389648</ele>
        <time>2022-04-24T10:10:25.000Z</time>
      </trkpt>
      <trkpt lat="45.53894" lon="4.5582">
        <ele>420.79998779297</ele>
        <time>2022-04-24T10:10:33.000Z</time>
      </trkpt>
      <trkpt lat="45.53902" lon="4.55839">
        <ele>421</ele>
        <time>2022-04-24T10:10:40.000Z</time>
      </trkpt>
      <trkpt lat="45.53913" lon="4.55865">
        <ele>422</ele>
        <time>2022-04-24T10:10:49.000Z</time>
      </trkpt>
      <trkpt lat="45.53921" lon="4.55884">
        <ele>422.79998779297</ele>
        <time>2022-04-24T10:10:56.000Z</time>
      </trkpt>
      <trkpt lat="45.53926" lon="4.55905">
        <ele>423.60000610352</ele>
        <time>2022-04-24T10:11:03.000Z</time>
      </trkpt>
      <trkpt lat="45.53931" lon="4.55928">
        <ele>425</ele>
        <time>2022-04-24T10:11:11.000Z</time>
      </trkpt>
      <trkpt lat="45.53935" lon="4.55952">
        <ele>425.79998779297</ele>
        <time>2022-04-24T10:11:19.000Z</time>
      </trkpt>
      <trkpt lat="45.53938" lon="4.55972">
        <ele>427.60000610352</ele>
        <time>2022-04-24T10:11:26.000Z</time>
      </trkpt>
      <trkpt lat="45.53942" lon="4.55998">
        <ele>429.20001220703</ele>
        <time>2022-04-24T10:11:34.000Z</time>
      </trkpt>
      <trkpt lat="45.53945" lon="4.56017">
        <ele>429.79998779297</ele>
        <time>2022-04-24T10:11:41.000Z</time>
      </trkpt>
      <trkpt lat="45.53952" lon="4.56034">
        <ele>430.79998779297</ele>
        <time>2022-04-24T10:11:48.000Z</time>
      </trkpt>
      <trkpt lat="45.53964" lon="4.56041">
        <ele>432.20001220703</ele>
        <time>2022-04-24T10:11:56.000Z</time>
      </trkpt>
      <trkpt lat="45.53975" lon="4.56045">
        <ele>433.79998779297</ele>
        <time>2022-04-24T10:12:04.000Z</time>
      </trkpt>
      <trkpt lat="45.53984" lon="4.56048">
        <ele>435.20001220703</ele>
        <time>2022-04-24T10:12:10.000Z</time>
      </trkpt>
      <trkpt lat="45.53996" lon="4.56052">
        <ele>437.39999389648</ele>
        <time>2022-04-24T10:12:18.000Z</time>
      </trkpt>
      <trkpt lat="45.5401" lon="4.56056">
        <ele>439.20001220703</ele>
        <time>2022-04-24T10:12:27.000Z</time>
      </trkpt>
      <trkpt lat="45.54011" lon="4.56056">
        <ele>439.39999389648</ele>
        <time>2022-04-24T10:12:28.000Z</time>
      </trkpt>
      <trkpt lat="45.54021" lon="4.5606">
        <ele>440.60000610352</ele>
        <time>2022-04-24T10:12:35.000Z</time>
      </trkpt>
      <trkpt lat="45.54029" lon="4.56063">
        <ele>441.60000610352</ele>
        <time>2022-04-24T10:12:41.000Z</time>
      </trkpt>
      <trkpt lat="45.54041" lon="4.56068">
        <ele>442.79998779297</ele>
        <time>2022-04-24T10:12:49.000Z</time>
      </trkpt>
      <trkpt lat="45.54051" lon="4.56073">
        <ele>444</ele>
        <time>2022-04-24T10:12:56.000Z</time>
      </trkpt>
      <trkpt lat="45.5406" lon="4.56077">
        <ele>445.39999389648</ele>
        <time>2022-04-24T10:13:02.000Z</time>
      </trkpt>
      <trkpt lat="45.54072" lon="4.56082">
        <ele>447.60000610352</ele>
        <time>2022-04-24T10:13:09.000Z</time>
      </trkpt>
      <trkpt lat="45.54085" lon="4.56089">
        <ele>449.39999389648</ele>
        <time>2022-04-24T10:13:17.000Z</time>
      </trkpt>
      <trkpt lat="45.54095" lon="4.56095">
        <ele>450.60000610352</ele>
        <time>2022-04-24T10:13:23.000Z</time>
      </trkpt>
      <trkpt lat="45.54112" lon="4.56104">
        <ele>452.20001220703</ele>
        <time>2022-04-24T10:13:32.000Z</time>
      </trkpt>
      <trkpt lat="45.54123" lon="4.56117">
        <ele>452</ele>
        <time>2022-04-24T10:13:39.000Z</time>
      </trkpt>
      <trkpt lat="45.54132" lon="4.56127">
        <ele>451.79998779297</ele>
        <time>2022-04-24T10:13:45.000Z</time>
      </trkpt>
      <trkpt lat="45.54145" lon="4.5614">
        <ele>452.20001220703</ele>
        <time>2022-04-24T10:13:52.000Z</time>
      </trkpt>
      <trkpt lat="45.54163" lon="4.56147">
        <ele>454.79998779297</ele>
        <time>2022-04-24T10:14:00.000Z</time>
      </trkpt>
      <trkpt lat="45.54179" lon="4.56153">
        <ele>456.39999389648</ele>
        <time>2022-04-24T10:14:07.000Z</time>
      </trkpt>
      <trkpt lat="45.54198" lon="4.56167">
        <ele>456.60000610352</ele>
        <time>2022-04-24T10:14:15.000Z</time>
      </trkpt>
      <trkpt lat="45.54217" lon="4.56181">
        <ele>457.20001220703</ele>
        <time>2022-04-24T10:14:23.000Z</time>
      </trkpt>
      <trkpt lat="45.5423" lon="4.56188">
        <ele>458.20001220703</ele>
        <time>2022-04-24T10:14:30.000Z</time>
      </trkpt>
      <trkpt lat="45.54233" lon="4.56188">
        <ele>458.60000610352</ele>
        <time>2022-04-24T10:14:32.000Z</time>
      </trkpt>
      <trkpt lat="45.54237" lon="4.56188">
        <ele>459.20001220703</ele>
        <time>2022-04-24T10:14:36.000Z</time>
      </trkpt>
      <trkpt lat="45.54248" lon="4.56196">
        <ele>459.60000610352</ele>
        <time>2022-04-24T10:14:41.000Z</time>
      </trkpt>
      <trkpt lat="45.54254" lon="4.56201">
        <ele>460</ele>
        <time>2022-04-24T10:14:44.000Z</time>
      </trkpt>
      <trkpt lat="45.54262" lon="4.56209">
        <ele>460.60000610352</ele>
        <time>2022-04-24T10:14:45.000Z</time>
      </trkpt>
      <trkpt lat="45.54258" lon="4.56197">
        <ele>460.79998779297</ele>
        <time>2022-04-24T10:14:46.000Z</time>
      </trkpt>
      <trkpt lat="45.54257" lon="4.56194">
        <ele>461</ele>
        <time>2022-04-24T10:14:48.000Z</time>
      </trkpt>
      <trkpt lat="45.54256" lon="4.56192">
        <ele>461.20001220703</ele>
        <time>2022-04-24T10:14:49.000Z</time>
      </trkpt>
      <trkpt lat="45.54255" lon="4.56191">
        <ele>461.20001220703</ele>
        <time>2022-04-24T10:14:50.000Z</time>
      </trkpt>
      <trkpt lat="45.54254" lon="4.56187">
        <ele>461.39999389648</ele>
        <time>2022-04-24T10:14:52.000Z</time>
      </trkpt>
      <trkpt lat="45.54248" lon="4.56195">
        <ele>459.60000610352</ele>
        <time>2022-04-24T10:14:54.000Z</time>
      </trkpt>
      <trkpt lat="45.54243" lon="4.56191">
        <ele>459.60000610352</ele>
        <time>2022-04-24T10:14:59.000Z</time>
      </trkpt>
      <trkpt lat="45.54243" lon="4.5619">
        <ele>459.60000610352</ele>
        <time>2022-04-24T10:15:01.000Z</time>
      </trkpt>
      <trkpt lat="45.54243" lon="4.5619">
        <ele>459.60000610352</ele>
        <time>2022-04-24T10:15:03.000Z</time>
      </trkpt>
      <trkpt lat="45.5424" lon="4.56187">
        <ele>459.60000610352</ele>
        <time>2022-04-24T10:19:01.000Z</time>
      </trkpt>
      <trkpt lat="45.54247" lon="4.56172">
        <ele>462.20001220703</ele>
        <time>2022-04-24T10:19:02.000Z</time>
      </trkpt>
      <trkpt lat="45.54247" lon="4.56172">
        <ele>462.20001220703</ele>
        <time>2022-04-24T10:19:03.000Z</time>
      </trkpt>
      <trkpt lat="45.54245" lon="4.56169">
        <ele>462.39999389648</ele>
        <time>2022-04-24T10:19:05.000Z</time>
      </trkpt>
      <trkpt lat="45.54243" lon="4.56164">
        <ele>462.79998779297</ele>
        <time>2022-04-24T10:19:07.000Z</time>
      </trkpt>
      <trkpt lat="45.54239" lon="4.56158">
        <ele>463.20001220703</ele>
        <time>2022-04-24T10:19:10.000Z</time>
      </trkpt>
      <trkpt lat="45.54233" lon="4.56148">
        <ele>463.79998779297</ele>
        <time>2022-04-24T10:19:14.000Z</time>
      </trkpt>
      <trkpt lat="45.54225" lon="4.56136">
        <ele>464.79998779297</ele>
        <time>2022-04-24T10:19:20.000Z</time>
      </trkpt>
      <trkpt lat="45.54223" lon="4.56131">
        <ele>465.20001220703</ele>
        <time>2022-04-24T10:19:22.000Z</time>
      </trkpt>
      <trkpt lat="45.54216" lon="4.56118">
        <ele>466.79998779297</ele>
        <time>2022-04-24T10:19:29.000Z</time>
      </trkpt>
      <trkpt lat="45.54216" lon="4.5611">
        <ele>467.60000610352</ele>
        <time>2022-04-24T10:19:32.000Z</time>
      </trkpt>
      <trkpt lat="45.54218" lon="4.56104">
        <ele>468.20001220703</ele>
        <time>2022-04-24T10:19:35.000Z</time>
      </trkpt>
      <trkpt lat="45.54221" lon="4.56101">
        <ele>468.60000610352</ele>
        <time>2022-04-24T10:19:37.000Z</time>
      </trkpt>
      <trkpt lat="45.54226" lon="4.56099">
        <ele>469.20001220703</ele>
        <time>2022-04-24T10:19:40.000Z</time>
      </trkpt>
      <trkpt lat="45.54232" lon="4.56096">
        <ele>469.60000610352</ele>
        <time>2022-04-24T10:19:44.000Z</time>
      </trkpt>
      <trkpt lat="45.54234" lon="4.56094">
        <ele>469.79998779297</ele>
        <time>2022-04-24T10:19:46.000Z</time>
      </trkpt>
      <trkpt lat="45.54235" lon="4.56093">
        <ele>470</ele>
        <time>2022-04-24T10:19:47.000Z</time>
      </trkpt>
      <trkpt lat="45.54238" lon="4.56086">
        <ele>471</ele>
        <time>2022-04-24T10:19:50.000Z</time>
      </trkpt>
      <trkpt lat="45.5424" lon="4.56073">
        <ele>472</ele>
        <time>2022-04-24T10:19:56.000Z</time>
      </trkpt>
      <trkpt lat="45.5424" lon="4.5606">
        <ele>473</ele>
        <time>2022-04-24T10:20:01.000Z</time>
      </trkpt>
      <trkpt lat="45.5424" lon="4.56058">
        <ele>473</ele>
        <time>2022-04-24T10:20:02.000Z</time>
      </trkpt>
      <trkpt lat="45.54239" lon="4.56052">
        <ele>473.39999389648</ele>
        <time>2022-04-24T10:20:05.000Z</time>
      </trkpt>
      <trkpt lat="45.54238" lon="4.5605">
        <ele>473.60000610352</ele>
        <time>2022-04-24T10:20:06.000Z</time>
      </trkpt>
      <trkpt lat="45.54236" lon="4.5604">
        <ele>474.20001220703</ele>
        <time>2022-04-24T10:20:10.000Z</time>
      </trkpt>
      <trkpt lat="45.54232" lon="4.5602">
        <ele>475.39999389648</ele>
        <time>2022-04-24T10:20:18.000Z</time>
      </trkpt>
      <trkpt lat="45.54228" lon="4.55994">
        <ele>476.20001220703</ele>
        <time>2022-04-24T10:20:26.000Z</time>
      </trkpt>
      <trkpt lat="45.54221" lon="4.55968">
        <ele>475.60000610352</ele>
        <time>2022-04-24T10:20:33.000Z</time>
      </trkpt>
      <trkpt lat="45.5422" lon="4.55963">
        <ele>475.60000610352</ele>
        <time>2022-04-24T10:20:34.000Z</time>
      </trkpt>
      <trkpt lat="45.54216" lon="4.55941">
        <ele>475</ele>
        <time>2022-04-24T10:20:39.000Z</time>
      </trkpt>
      <trkpt lat="45.54213" lon="4.55919">
        <ele>475.20001220703</ele>
        <time>2022-04-24T10:20:44.000Z</time>
      </trkpt>
      <trkpt lat="45.54212" lon="4.55909">
        <ele>475</ele>
        <time>2022-04-24T10:20:46.000Z</time>
      </trkpt>
      <trkpt lat="45.54212" lon="4.55873">
        <ele>474.79998779297</ele>
        <time>2022-04-24T10:20:51.000Z</time>
      </trkpt>
      <trkpt lat="45.54214" lon="4.55863">
        <ele>474.60000610352</ele>
        <time>2022-04-24T10:20:52.000Z</time>
      </trkpt>
      <trkpt lat="45.54222" lon="4.55837">
        <ele>473.20001220703</ele>
        <time>2022-04-24T10:20:55.000Z</time>
      </trkpt>
      <trkpt lat="45.54236" lon="4.55803">
        <ele>471.39999389648</ele>
        <time>2022-04-24T10:20:59.000Z</time>
      </trkpt>
      <trkpt lat="45.54241" lon="4.55786">
        <ele>470.20001220703</ele>
        <time>2022-04-24T10:21:01.000Z</time>
      </trkpt>
      <trkpt lat="45.54243" lon="4.55777">
        <ele>469.79998779297</ele>
        <time>2022-04-24T10:21:02.000Z</time>
      </trkpt>
      <trkpt lat="45.54245" lon="4.55757">
        <ele>470.20001220703</ele>
        <time>2022-04-24T10:21:04.000Z</time>
      </trkpt>
      <trkpt lat="45.54246" lon="4.5575">
        <ele>470.20001220703</ele>
        <time>2022-04-24T10:21:05.000Z</time>
      </trkpt>
      <trkpt lat="45.54246" lon="4.55742">
        <ele>470.60000610352</ele>
        <time>2022-04-24T10:21:06.000Z</time>
      </trkpt>
      <trkpt lat="45.54247" lon="4.55724">
        <ele>471.39999389648</ele>
        <time>2022-04-24T10:21:08.000Z</time>
      </trkpt>
      <trkpt lat="45.54247" lon="4.55715">
        <ele>471.79998779297</ele>
        <time>2022-04-24T10:21:09.000Z</time>
      </trkpt>
      <trkpt lat="45.54246" lon="4.55699">
        <ele>473</ele>
        <time>2022-04-24T10:21:11.000Z</time>
      </trkpt>
      <trkpt lat="45.54245" lon="4.55675">
        <ele>473.60000610352</ele>
        <time>2022-04-24T10:21:14.000Z</time>
      </trkpt>
      <trkpt lat="45.54244" lon="4.5567">
        <ele>473.79998779297</ele>
        <time>2022-04-24T10:21:15.000Z</time>
      </trkpt>
      <trkpt lat="45.54243" lon="4.55653">
        <ele>473.79998779297</ele>
        <time>2022-04-24T10:21:18.000Z</time>
      </trkpt>
      <trkpt lat="45.54241" lon="4.55632">
        <ele>473.79998779297</ele>
        <time>2022-04-24T10:21:24.000Z</time>
      </trkpt>
      <trkpt lat="45.54245" lon="4.55603">
        <ele>473.20001220703</ele>
        <time>2022-04-24T10:21:30.000Z</time>
      </trkpt>
      <trkpt lat="45.54239" lon="4.55585">
        <ele>471.60000610352</ele>
        <time>2022-04-24T10:21:35.000Z</time>
      </trkpt>
      <trkpt lat="45.5424" lon="4.55572">
        <ele>470.60000610352</ele>
        <time>2022-04-24T10:21:39.000Z</time>
      </trkpt>
      <trkpt lat="45.54244" lon="4.55567">
        <ele>470.39999389648</ele>
        <time>2022-04-24T10:21:41.000Z</time>
      </trkpt>
      <trkpt lat="45.54246" lon="4.55569">
        <ele>470.79998779297</ele>
        <time>2022-04-24T10:21:42.000Z</time>
      </trkpt>
      <trkpt lat="45.54248" lon="4.55572">
        <ele>471</ele>
        <time>2022-04-24T10:21:43.000Z</time>
      </trkpt>
      <trkpt lat="45.54254" lon="4.55581">
        <ele>471.60000610352</ele>
        <time>2022-04-24T10:21:46.000Z</time>
      </trkpt>
      <trkpt lat="45.54264" lon="4.55594">
        <ele>472.39999389648</ele>
        <time>2022-04-24T10:21:52.000Z</time>
      </trkpt>
      <trkpt lat="45.54272" lon="4.55603">
        <ele>473.20001220703</ele>
        <time>2022-04-24T10:21:57.000Z</time>
      </trkpt>
      <trkpt lat="45.54276" lon="4.55607">
        <ele>473.39999389648</ele>
        <time>2022-04-24T10:21:59.000Z</time>
      </trkpt>
      <trkpt lat="45.54287" lon="4.55617">
        <ele>474.79998779297</ele>
        <time>2022-04-24T10:22:05.000Z</time>
      </trkpt>
      <trkpt lat="45.54289" lon="4.55618">
        <ele>475</ele>
        <time>2022-04-24T10:22:06.000Z</time>
      </trkpt>
      <trkpt lat="45.54303" lon="4.5563">
        <ele>476.79998779297</ele>
        <time>2022-04-24T10:22:14.000Z</time>
      </trkpt>
      <trkpt lat="45.54314" lon="4.55643">
        <ele>478.79998779297</ele>
        <time>2022-04-24T10:22:21.000Z</time>
      </trkpt>
      <trkpt lat="45.54317" lon="4.55648">
        <ele>479.20001220703</ele>
        <time>2022-04-24T10:22:23.000Z</time>
      </trkpt>
      <trkpt lat="45.54329" lon="4.55666">
        <ele>481.39999389648</ele>
        <time>2022-04-24T10:22:31.000Z</time>
      </trkpt>
      <trkpt lat="45.5434" lon="4.5568">
        <ele>483.20001220703</ele>
        <time>2022-04-24T10:22:38.000Z</time>
      </trkpt>
      <trkpt lat="45.54351" lon="4.55693">
        <ele>485</ele>
        <time>2022-04-24T10:22:45.000Z</time>
      </trkpt>
      <trkpt lat="45.54364" lon="4.55706">
        <ele>487</ele>
        <time>2022-04-24T10:22:53.000Z</time>
      </trkpt>
      <trkpt lat="45.54375" lon="4.55717">
        <ele>488.79998779297</ele>
        <time>2022-04-24T10:23:00.000Z</time>
      </trkpt>
      <trkpt lat="45.54384" lon="4.55726">
        <ele>490.60000610352</ele>
        <time>2022-04-24T10:23:07.000Z</time>
      </trkpt>
      <trkpt lat="45.54391" lon="4.55735">
        <ele>492.20001220703</ele>
        <time>2022-04-24T10:23:13.000Z</time>
      </trkpt>
      <trkpt lat="45.54397" lon="4.55743">
        <ele>493.79998779297</ele>
        <time>2022-04-24T10:23:18.000Z</time>
      </trkpt>
      <trkpt lat="45.54398" lon="4.55744">
        <ele>494</ele>
        <time>2022-04-24T10:23:19.000Z</time>
      </trkpt>
      <trkpt lat="45.54406" lon="4.55757">
        <ele>496</ele>
        <time>2022-04-24T10:23:27.000Z</time>
      </trkpt>
      <trkpt lat="45.54413" lon="4.55772">
        <ele>498</ele>
        <time>2022-04-24T10:23:35.000Z</time>
      </trkpt>
      <trkpt lat="45.54419" lon="4.55785">
        <ele>499.39999389648</ele>
        <time>2022-04-24T10:23:42.000Z</time>
      </trkpt>
      <trkpt lat="45.54426" lon="4.55798">
        <ele>501</ele>
        <time>2022-04-24T10:23:49.000Z</time>
      </trkpt>
      <trkpt lat="45.54435" lon="4.55812">
        <ele>503.20001220703</ele>
        <time>2022-04-24T10:23:57.000Z</time>
      </trkpt>
      <trkpt lat="45.54443" lon="4.55823">
        <ele>505.20001220703</ele>
        <time>2022-04-24T10:24:04.000Z</time>
      </trkpt>
      <trkpt lat="45.54454" lon="4.55828">
        <ele>507</ele>
        <time>2022-04-24T10:24:10.000Z</time>
      </trkpt>
      <trkpt lat="45.54467" lon="4.55821">
        <ele>508.60000610352</ele>
        <time>2022-04-24T10:24:18.000Z</time>
      </trkpt>
      <trkpt lat="45.54477" lon="4.55826">
        <ele>510</ele>
        <time>2022-04-24T10:24:25.000Z</time>
      </trkpt>
      <trkpt lat="45.54482" lon="4.55837">
        <ele>511</ele>
        <time>2022-04-24T10:24:31.000Z</time>
      </trkpt>
      <trkpt lat="45.5449" lon="4.55859">
        <ele>513.20001220703</ele>
        <time>2022-04-24T10:24:41.000Z</time>
      </trkpt>
      <trkpt lat="45.54499" lon="4.55875">
        <ele>515.59997558594</ele>
        <time>2022-04-24T10:24:49.000Z</time>
      </trkpt>
      <trkpt lat="45.54507" lon="4.55883">
        <ele>517</ele>
        <time>2022-04-24T10:24:55.000Z</time>
      </trkpt>
      <trkpt lat="45.54518" lon="4.55893">
        <ele>518.79998779297</ele>
        <time>2022-04-24T10:25:03.000Z</time>
      </trkpt>
      <trkpt lat="45.54531" lon="4.55898">
        <ele>520.20001220703</ele>
        <time>2022-04-24T10:25:11.000Z</time>
      </trkpt>
      <trkpt lat="45.54544" lon="4.55903">
        <ele>521.59997558594</ele>
        <time>2022-04-24T10:25:19.000Z</time>
      </trkpt>
      <trkpt lat="45.54556" lon="4.55904">
        <ele>522.40002441406</ele>
        <time>2022-04-24T10:25:27.000Z</time>
      </trkpt>
      <trkpt lat="45.54566" lon="4.55902">
        <ele>523</ele>
        <time>2022-04-24T10:25:33.000Z</time>
      </trkpt>
      <trkpt lat="45.5458" lon="4.55899">
        <ele>524</ele>
        <time>2022-04-24T10:25:40.000Z</time>
      </trkpt>
      <trkpt lat="45.54591" lon="4.55896">
        <ele>525</ele>
        <time>2022-04-24T10:25:46.000Z</time>
      </trkpt>
      <trkpt lat="45.54598" lon="4.55895">
        <ele>525.20001220703</ele>
        <time>2022-04-24T10:25:52.000Z</time>
      </trkpt>
      <trkpt lat="45.54608" lon="4.55893">
        <ele>525.20001220703</ele>
        <time>2022-04-24T10:26:00.000Z</time>
      </trkpt>
      <trkpt lat="45.54618" lon="4.55891">
        <ele>525.20001220703</ele>
        <time>2022-04-24T10:26:07.000Z</time>
      </trkpt>
      <trkpt lat="45.54626" lon="4.5589">
        <ele>525</ele>
        <time>2022-04-24T10:26:14.000Z</time>
      </trkpt>
      <trkpt lat="45.54634" lon="4.55934">
        <ele>531.40002441406</ele>
        <time>2022-04-24T10:26:20.000Z</time>
      </trkpt>
      <trkpt lat="45.54634" lon="4.55937">
        <ele>531.59997558594</ele>
        <time>2022-04-24T10:26:21.000Z</time>
      </trkpt>
      <trkpt lat="45.54636" lon="4.55944">
        <ele>532.59997558594</ele>
        <time>2022-04-24T10:26:25.000Z</time>
      </trkpt>
      <trkpt lat="45.5464" lon="4.55956">
        <ele>534</ele>
        <time>2022-04-24T10:26:31.000Z</time>
      </trkpt>
      <trkpt lat="45.54645" lon="4.55967">
        <ele>535.20001220703</ele>
        <time>2022-04-24T10:26:37.000Z</time>
      </trkpt>
      <trkpt lat="45.54651" lon="4.55978">
        <ele>535.79998779297</ele>
        <time>2022-04-24T10:26:44.000Z</time>
      </trkpt>
      <trkpt lat="45.5466" lon="4.55992">
        <ele>536</ele>
        <time>2022-04-24T10:26:52.000Z</time>
      </trkpt>
      <trkpt lat="45.54666" lon="4.56005">
        <ele>536</ele>
        <time>2022-04-24T10:26:59.000Z</time>
      </trkpt>
      <trkpt lat="45.54669" lon="4.56014">
        <ele>536</ele>
        <time>2022-04-24T10:27:06.000Z</time>
      </trkpt>
      <trkpt lat="45.54672" lon="4.56021">
        <ele>536</ele>
        <time>2022-04-24T10:27:11.000Z</time>
      </trkpt>
      <trkpt lat="45.54676" lon="4.56028">
        <ele>536</ele>
        <time>2022-04-24T10:27:16.000Z</time>
      </trkpt>
      <trkpt lat="45.54677" lon="4.5603">
        <ele>536</ele>
        <time>2022-04-24T10:27:17.000Z</time>
      </trkpt>
      <trkpt lat="45.54688" lon="4.5605">
        <ele>536.59997558594</ele>
        <time>2022-04-24T10:27:23.000Z</time>
      </trkpt>
      <trkpt lat="45.54697" lon="4.56058">
        <ele>537.20001220703</ele>
        <time>2022-04-24T10:27:27.000Z</time>
      </trkpt>
      <trkpt lat="45.54705" lon="4.56063">
        <ele>537.59997558594</ele>
        <time>2022-04-24T10:27:30.000Z</time>
      </trkpt>
      <trkpt lat="45.54717" lon="4.56071">
        <ele>538.59997558594</ele>
        <time>2022-04-24T10:27:35.000Z</time>
      </trkpt>
      <trkpt lat="45.54723" lon="4.56076">
        <ele>539</ele>
        <time>2022-04-24T10:27:38.000Z</time>
      </trkpt>
      <trkpt lat="45.54735" lon="4.56085">
        <ele>539.79998779297</ele>
        <time>2022-04-24T10:27:44.000Z</time>
      </trkpt>
      <trkpt lat="45.54749" lon="4.56091">
        <ele>540.59997558594</ele>
        <time>2022-04-24T10:27:50.000Z</time>
      </trkpt>
      <trkpt lat="45.54761" lon="4.561">
        <ele>540.40002441406</ele>
        <time>2022-04-24T10:27:56.000Z</time>
      </trkpt>
      <trkpt lat="45.54775" lon="4.56118">
        <ele>539.79998779297</ele>
        <time>2022-04-24T10:28:04.000Z</time>
      </trkpt>
      <trkpt lat="45.54778" lon="4.56125">
        <ele>539.59997558594</ele>
        <time>2022-04-24T10:28:09.000Z</time>
      </trkpt>
      <trkpt lat="45.54779" lon="4.56127">
        <ele>539.59997558594</ele>
        <time>2022-04-24T10:28:13.000Z</time>
      </trkpt>
      <trkpt lat="45.54783" lon="4.56132">
        <ele>539.20001220703</ele>
        <time>2022-04-24T10:28:51.000Z</time>
      </trkpt>
      <trkpt lat="45.54784" lon="4.56134">
        <ele>539</ele>
        <time>2022-04-24T10:28:52.000Z</time>
      </trkpt>
      <trkpt lat="45.54792" lon="4.56148">
        <ele>538.20001220703</ele>
        <time>2022-04-24T10:28:56.000Z</time>
      </trkpt>
      <trkpt lat="45.54795" lon="4.56153">
        <ele>538</ele>
        <time>2022-04-24T10:28:57.000Z</time>
      </trkpt>
      <trkpt lat="45.54806" lon="4.56171">
        <ele>536.79998779297</ele>
        <time>2022-04-24T10:29:00.000Z</time>
      </trkpt>
      <trkpt lat="45.54809" lon="4.56178">
        <ele>536.40002441406</ele>
        <time>2022-04-24T10:29:01.000Z</time>
      </trkpt>
      <trkpt lat="45.54818" lon="4.56192">
        <ele>535.40002441406</ele>
        <time>2022-04-24T10:29:03.000Z</time>
      </trkpt>
      <trkpt lat="45.54831" lon="4.56216">
        <ele>535</ele>
        <time>2022-04-24T10:29:07.000Z</time>
      </trkpt>
      <trkpt lat="45.54845" lon="4.56255">
        <ele>534</ele>
        <time>2022-04-24T10:29:13.000Z</time>
      </trkpt>
      <trkpt lat="45.54855" lon="4.56294">
        <ele>533.40002441406</ele>
        <time>2022-04-24T10:29:18.000Z</time>
      </trkpt>
      <trkpt lat="45.54858" lon="4.56303">
        <ele>533.20001220703</ele>
        <time>2022-04-24T10:29:19.000Z</time>
      </trkpt>
      <trkpt lat="45.54865" lon="4.56333">
        <ele>530</ele>
        <time>2022-04-24T10:29:23.000Z</time>
      </trkpt>
      <trkpt lat="45.54869" lon="4.56342">
        <ele>529.20001220703</ele>
        <time>2022-04-24T10:29:25.000Z</time>
      </trkpt>
      <trkpt lat="45.5487" lon="4.56348">
        <ele>528.59997558594</ele>
        <time>2022-04-24T10:29:26.000Z</time>
      </trkpt>
      <trkpt lat="45.5487" lon="4.56353">
        <ele>528.20001220703</ele>
        <time>2022-04-24T10:29:27.000Z</time>
      </trkpt>
      <trkpt lat="45.54871" lon="4.56363">
        <ele>527</ele>
        <time>2022-04-24T10:29:29.000Z</time>
      </trkpt>
      <trkpt lat="45.54875" lon="4.56388">
        <ele>524.40002441406</ele>
        <time>2022-04-24T10:29:34.000Z</time>
      </trkpt>
      <trkpt lat="45.54883" lon="4.56408">
        <ele>523.40002441406</ele>
        <time>2022-04-24T10:29:37.000Z</time>
      </trkpt>
      <trkpt lat="45.54886" lon="4.56415">
        <ele>523.20001220703</ele>
        <time>2022-04-24T10:29:38.000Z</time>
      </trkpt>
      <trkpt lat="45.5489" lon="4.56422">
        <ele>522.79998779297</ele>
        <time>2022-04-24T10:29:39.000Z</time>
      </trkpt>
      <trkpt lat="45.54897" lon="4.56437">
        <ele>521.79998779297</ele>
        <time>2022-04-24T10:29:42.000Z</time>
      </trkpt>
      <trkpt lat="45.54915" lon="4.56471">
        <ele>518.40002441406</ele>
        <time>2022-04-24T10:29:46.000Z</time>
      </trkpt>
      <trkpt lat="45.54929" lon="4.56498">
        <ele>516.79998779297</ele>
        <time>2022-04-24T10:29:50.000Z</time>
      </trkpt>
      <trkpt lat="45.5494" lon="4.56517">
        <ele>515.59997558594</ele>
        <time>2022-04-24T10:29:53.000Z</time>
      </trkpt>
      <trkpt lat="45.54946" lon="4.56532">
        <ele>514.79998779297</ele>
        <time>2022-04-24T10:29:56.000Z</time>
      </trkpt>
      <trkpt lat="45.54953" lon="4.56551">
        <ele>513</ele>
        <time>2022-04-24T10:29:58.000Z</time>
      </trkpt>
      <trkpt lat="45.54951" lon="4.56563">
        <ele>511.79998779297</ele>
        <time>2022-04-24T10:30:00.000Z</time>
      </trkpt>
      <trkpt lat="45.54942" lon="4.56571">
        <ele>510.60000610352</ele>
        <time>2022-04-24T10:30:02.000Z</time>
      </trkpt>
      <trkpt lat="45.54935" lon="4.56574">
        <ele>510</ele>
        <time>2022-04-24T10:30:03.000Z</time>
      </trkpt>
      <trkpt lat="45.54913" lon="4.56586">
        <ele>508.79998779297</ele>
        <time>2022-04-24T10:30:06.000Z</time>
      </trkpt>
      <trkpt lat="45.54907" lon="4.56594">
        <ele>507.79998779297</ele>
        <time>2022-04-24T10:30:07.000Z</time>
      </trkpt>
      <trkpt lat="45.54903" lon="4.56605">
        <ele>506.60000610352</ele>
        <time>2022-04-24T10:30:08.000Z</time>
      </trkpt>
      <trkpt lat="45.54898" lon="4.5663">
        <ele>504.39999389648</ele>
        <time>2022-04-24T10:30:10.000Z</time>
      </trkpt>
      <trkpt lat="45.54894" lon="4.56667">
        <ele>502</ele>
        <time>2022-04-24T10:30:13.000Z</time>
      </trkpt>
      <trkpt lat="45.54892" lon="4.56713">
        <ele>496</ele>
        <time>2022-04-24T10:30:18.000Z</time>
      </trkpt>
      <trkpt lat="45.54896" lon="4.56729">
        <ele>494.20001220703</ele>
        <time>2022-04-24T10:30:20.000Z</time>
      </trkpt>
      <trkpt lat="45.549" lon="4.56738">
        <ele>493.20001220703</ele>
        <time>2022-04-24T10:30:21.000Z</time>
      </trkpt>
      <trkpt lat="45.54903" lon="4.56749">
        <ele>491.79998779297</ele>
        <time>2022-04-24T10:30:22.000Z</time>
      </trkpt>
      <trkpt lat="45.54904" lon="4.56773">
        <ele>490</ele>
        <time>2022-04-24T10:30:24.000Z</time>
      </trkpt>
      <trkpt lat="45.54901" lon="4.56795">
        <ele>488.60000610352</ele>
        <time>2022-04-24T10:30:26.000Z</time>
      </trkpt>
      <trkpt lat="45.54895" lon="4.56816">
        <ele>488.20001220703</ele>
        <time>2022-04-24T10:30:28.000Z</time>
      </trkpt>
      <trkpt lat="45.54883" lon="4.56838">
        <ele>487</ele>
        <time>2022-04-24T10:30:31.000Z</time>
      </trkpt>
      <trkpt lat="45.54865" lon="4.56858">
        <ele>486.20001220703</ele>
        <time>2022-04-24T10:30:35.000Z</time>
      </trkpt>
      <trkpt lat="45.5486" lon="4.56866">
        <ele>485.79998779297</ele>
        <time>2022-04-24T10:30:36.000Z</time>
      </trkpt>
      <trkpt lat="45.54858" lon="4.5687">
        <ele>485.60000610352</ele>
        <time>2022-04-24T10:30:37.000Z</time>
      </trkpt>
      <trkpt lat="45.54844" lon="4.56897">
        <ele>484.20001220703</ele>
        <time>2022-04-24T10:30:41.000Z</time>
      </trkpt>
      <trkpt lat="45.54831" lon="4.56923">
        <ele>481.39999389648</ele>
        <time>2022-04-24T10:30:46.000Z</time>
      </trkpt>
      <trkpt lat="45.54817" lon="4.56944">
        <ele>478.20001220703</ele>
        <time>2022-04-24T10:30:49.000Z</time>
      </trkpt>
      <trkpt lat="45.54814" lon="4.56945">
        <ele>477.79998779297</ele>
        <time>2022-04-24T10:30:50.000Z</time>
      </trkpt>
      <trkpt lat="45.54818" lon="4.56961">
        <ele>476.79998779297</ele>
        <time>2022-04-24T10:30:52.000Z</time>
      </trkpt>
      <trkpt lat="45.54827" lon="4.56974">
        <ele>476.60000610352</ele>
        <time>2022-04-24T10:30:55.000Z</time>
      </trkpt>
      <trkpt lat="45.54832" lon="4.56978">
        <ele>476.20001220703</ele>
        <time>2022-04-24T10:30:56.000Z</time>
      </trkpt>
      <trkpt lat="45.54836" lon="4.56982">
        <ele>476</ele>
        <time>2022-04-24T10:30:57.000Z</time>
      </trkpt>
      <trkpt lat="45.54848" lon="4.56987">
        <ele>475.20001220703</ele>
        <time>2022-04-24T10:30:59.000Z</time>
      </trkpt>
      <trkpt lat="45.54853" lon="4.56988">
        <ele>475</ele>
        <time>2022-04-24T10:31:00.000Z</time>
      </trkpt>
      <trkpt lat="45.54866" lon="4.56988">
        <ele>474.79998779297</ele>
        <time>2022-04-24T10:31:02.000Z</time>
      </trkpt>
      <trkpt lat="45.54894" lon="4.56985">
        <ele>472.39999389648</ele>
        <time>2022-04-24T10:31:07.000Z</time>
      </trkpt>
      <trkpt lat="45.54897" lon="4.56983">
        <ele>472.39999389648</ele>
        <time>2022-04-24T10:31:08.000Z</time>
      </trkpt>
      <trkpt lat="45.54901" lon="4.56987">
        <ele>471.39999389648</ele>
        <time>2022-04-24T10:31:09.000Z</time>
      </trkpt>
      <trkpt lat="45.54902" lon="4.56994">
        <ele>470.60000610352</ele>
        <time>2022-04-24T10:31:10.000Z</time>
      </trkpt>
      <trkpt lat="45.54902" lon="4.5702">
        <ele>467.39999389648</ele>
        <time>2022-04-24T10:31:13.000Z</time>
      </trkpt>
      <trkpt lat="45.54902" lon="4.5703">
        <ele>466.39999389648</ele>
        <time>2022-04-24T10:31:14.000Z</time>
      </trkpt>
      <trkpt lat="45.54897" lon="4.57064">
        <ele>463.20001220703</ele>
        <time>2022-04-24T10:31:17.000Z</time>
      </trkpt>
      <trkpt lat="45.54896" lon="4.57074">
        <ele>462</ele>
        <time>2022-04-24T10:31:18.000Z</time>
      </trkpt>
      <trkpt lat="45.54895" lon="4.57081">
        <ele>461.20001220703</ele>
        <time>2022-04-24T10:31:19.000Z</time>
      </trkpt>
      <trkpt lat="45.54899" lon="4.57088">
        <ele>459.79998779297</ele>
        <time>2022-04-24T10:31:20.000Z</time>
      </trkpt>
      <trkpt lat="45.54903" lon="4.57094">
        <ele>458.60000610352</ele>
        <time>2022-04-24T10:31:21.000Z</time>
      </trkpt>
      <trkpt lat="45.5491" lon="4.57106">
        <ele>456.60000610352</ele>
        <time>2022-04-24T10:31:23.000Z</time>
      </trkpt>
      <trkpt lat="45.54914" lon="4.57121">
        <ele>454.79998779297</ele>
        <time>2022-04-24T10:31:24.000Z</time>
      </trkpt>
      <trkpt lat="45.54926" lon="4.57131">
        <ele>453.79998779297</ele>
        <time>2022-04-24T10:31:26.000Z</time>
      </trkpt>
      <trkpt lat="45.54937" lon="4.57144">
        <ele>452.79998779297</ele>
        <time>2022-04-24T10:31:28.000Z</time>
      </trkpt>
      <trkpt lat="45.54944" lon="4.57157">
        <ele>452.39999389648</ele>
        <time>2022-04-24T10:31:30.000Z</time>
      </trkpt>
      <trkpt lat="45.54947" lon="4.57164">
        <ele>452.39999389648</ele>
        <time>2022-04-24T10:31:31.000Z</time>
      </trkpt>
      <trkpt lat="45.54954" lon="4.57182">
        <ele>453.79998779297</ele>
        <time>2022-04-24T10:31:34.000Z</time>
      </trkpt>
      <trkpt lat="45.54956" lon="4.57188">
        <ele>454.20001220703</ele>
        <time>2022-04-24T10:31:35.000Z</time>
      </trkpt>
      <trkpt lat="45.5496" lon="4.57215">
        <ele>456.20001220703</ele>
        <time>2022-04-24T10:31:40.000Z</time>
      </trkpt>
      <trkpt lat="45.54959" lon="4.57226">
        <ele>456.39999389648</ele>
        <time>2022-04-24T10:31:42.000Z</time>
      </trkpt>
      <trkpt lat="45.54956" lon="4.57243">
        <ele>456.20001220703</ele>
        <time>2022-04-24T10:31:45.000Z</time>
      </trkpt>
      <trkpt lat="45.54954" lon="4.57248">
        <ele>456</ele>
        <time>2022-04-24T10:31:46.000Z</time>
      </trkpt>
      <trkpt lat="45.54949" lon="4.57264">
        <ele>455.60000610352</ele>
        <time>2022-04-24T10:31:49.000Z</time>
      </trkpt>
      <trkpt lat="45.54941" lon="4.57282">
        <ele>455</ele>
        <time>2022-04-24T10:31:53.000Z</time>
      </trkpt>
      <trkpt lat="45.5494" lon="4.57286">
        <ele>455</ele>
        <time>2022-04-24T10:31:54.000Z</time>
      </trkpt>
      <trkpt lat="45.54935" lon="4.57298">
        <ele>454.60000610352</ele>
        <time>2022-04-24T10:31:57.000Z</time>
      </trkpt>
      <trkpt lat="45.5493" lon="4.57314">
        <ele>455</ele>
        <time>2022-04-24T10:32:00.000Z</time>
      </trkpt>
      <trkpt lat="45.54926" lon="4.57331">
        <ele>455</ele>
        <time>2022-04-24T10:32:03.000Z</time>
      </trkpt>
      <trkpt lat="45.54924" lon="4.57343">
        <ele>454.60000610352</ele>
        <time>2022-04-24T10:32:05.000Z</time>
      </trkpt>
      <trkpt lat="45.54921" lon="4.57365">
        <ele>455</ele>
        <time>2022-04-24T10:32:09.000Z</time>
      </trkpt>
      <trkpt lat="45.5492" lon="4.57386">
        <ele>455.20001220703</ele>
        <time>2022-04-24T10:32:13.000Z</time>
      </trkpt>
      <trkpt lat="45.54919" lon="4.57397">
        <ele>455.79998779297</ele>
        <time>2022-04-24T10:32:15.000Z</time>
      </trkpt>
      <trkpt lat="45.54914" lon="4.57423">
        <ele>457.39999389648</ele>
        <time>2022-04-24T10:32:20.000Z</time>
      </trkpt>
      <trkpt lat="45.54907" lon="4.57441">
        <ele>457.79998779297</ele>
        <time>2022-04-24T10:32:24.000Z</time>
      </trkpt>
      <trkpt lat="45.54894" lon="4.57464">
        <ele>458.79998779297</ele>
        <time>2022-04-24T10:32:30.000Z</time>
      </trkpt>
      <trkpt lat="45.54884" lon="4.57478">
        <ele>460</ele>
        <time>2022-04-24T10:32:34.000Z</time>
      </trkpt>
      <trkpt lat="45.54881" lon="4.5748">
        <ele>460</ele>
        <time>2022-04-24T10:32:35.000Z</time>
      </trkpt>
      <trkpt lat="45.54863" lon="4.57491">
        <ele>460.39999389648</ele>
        <time>2022-04-24T10:32:40.000Z</time>
      </trkpt>
      <trkpt lat="45.54844" lon="4.57499">
        <ele>460.79998779297</ele>
        <time>2022-04-24T10:32:45.000Z</time>
      </trkpt>
      <trkpt lat="45.54829" lon="4.57509">
        <ele>462</ele>
        <time>2022-04-24T10:32:50.000Z</time>
      </trkpt>
      <trkpt lat="45.54814" lon="4.57523">
        <ele>463.39999389648</ele>
        <time>2022-04-24T10:32:55.000Z</time>
      </trkpt>
      <trkpt lat="45.548" lon="4.57544">
        <ele>464.79998779297</ele>
        <time>2022-04-24T10:33:01.000Z</time>
      </trkpt>
      <trkpt lat="45.54794" lon="4.57561">
        <ele>465.39999389648</ele>
        <time>2022-04-24T10:33:05.000Z</time>
      </trkpt>
      <trkpt lat="45.54791" lon="4.57571">
        <ele>465.60000610352</ele>
        <time>2022-04-24T10:33:07.000Z</time>
      </trkpt>
      <trkpt lat="45.54789" lon="4.57581">
        <ele>465.20001220703</ele>
        <time>2022-04-24T10:33:09.000Z</time>
      </trkpt>
      <trkpt lat="45.54788" lon="4.57613">
        <ele>464.79998779297</ele>
        <time>2022-04-24T10:33:15.000Z</time>
      </trkpt>
      <trkpt lat="45.54791" lon="4.57648">
        <ele>464.79998779297</ele>
        <time>2022-04-24T10:33:22.000Z</time>
      </trkpt>
      <trkpt lat="45.54794" lon="4.57687">
        <ele>464.79998779297</ele>
        <time>2022-04-24T10:33:30.000Z</time>
      </trkpt>
      <trkpt lat="45.54794" lon="4.57716">
        <ele>465.39999389648</ele>
        <time>2022-04-24T10:33:36.000Z</time>
      </trkpt>
      <trkpt lat="45.54787" lon="4.57748">
        <ele>465.79998779297</ele>
        <time>2022-04-24T10:33:43.000Z</time>
      </trkpt>
      <trkpt lat="45.54776" lon="4.57774">
        <ele>466.39999389648</ele>
        <time>2022-04-24T10:33:49.000Z</time>
      </trkpt>
      <trkpt lat="45.54758" lon="4.57796">
        <ele>468</ele>
        <time>2022-04-24T10:33:56.000Z</time>
      </trkpt>
      <trkpt lat="45.54737" lon="4.57814">
        <ele>469</ele>
        <time>2022-04-24T10:34:03.000Z</time>
      </trkpt>
      <trkpt lat="45.54717" lon="4.57833">
        <ele>469.20001220703</ele>
        <time>2022-04-24T10:34:10.000Z</time>
      </trkpt>
      <trkpt lat="45.54703" lon="4.57854">
        <ele>469.79998779297</ele>
        <time>2022-04-24T10:34:16.000Z</time>
      </trkpt>
      <trkpt lat="45.54691" lon="4.57883">
        <ele>471.60000610352</ele>
        <time>2022-04-24T10:34:23.000Z</time>
      </trkpt>
      <trkpt lat="45.54683" lon="4.57913">
        <ele>472.79998779297</ele>
        <time>2022-04-24T10:34:30.000Z</time>
      </trkpt>
      <trkpt lat="45.5468" lon="4.57924">
        <ele>473</ele>
        <time>2022-04-24T10:34:35.000Z</time>
      </trkpt>
      <trkpt lat="45.5468" lon="4.57926">
        <ele>473</ele>
        <time>2022-04-24T10:34:36.000Z</time>
      </trkpt>
      <trkpt lat="45.54682" lon="4.57928">
        <ele>473.39999389648</ele>
        <time>2022-04-24T10:34:38.000Z</time>
      </trkpt>
      <trkpt lat="45.54684" lon="4.57926">
        <ele>473.60000610352</ele>
        <time>2022-04-24T10:34:39.000Z</time>
      </trkpt>
      <trkpt lat="45.54691" lon="4.5792">
        <ele>474.39999389648</ele>
        <time>2022-04-24T10:34:43.000Z</time>
      </trkpt>
      <trkpt lat="45.54708" lon="4.57912">
        <ele>475.79998779297</ele>
        <time>2022-04-24T10:34:51.000Z</time>
      </trkpt>
      <trkpt lat="45.54719" lon="4.57913">
        <ele>477</ele>
        <time>2022-04-24T10:34:57.000Z</time>
      </trkpt>
      <trkpt lat="45.54731" lon="4.5792">
        <ele>478.60000610352</ele>
        <time>2022-04-24T10:35:03.000Z</time>
      </trkpt>
      <trkpt lat="45.54744" lon="4.57927">
        <ele>479.79998779297</ele>
        <time>2022-04-24T10:35:09.000Z</time>
      </trkpt>
      <trkpt lat="45.54756" lon="4.57947">
        <ele>481.39999389648</ele>
        <time>2022-04-24T10:35:17.000Z</time>
      </trkpt>
      <trkpt lat="45.54762" lon="4.57962">
        <ele>481.20001220703</ele>
        <time>2022-04-24T10:35:22.000Z</time>
      </trkpt>
      <trkpt lat="45.54773" lon="4.57973">
        <ele>481.60000610352</ele>
        <time>2022-04-24T10:35:28.000Z</time>
      </trkpt>
      <trkpt lat="45.54789" lon="4.57975">
        <ele>482.60000610352</ele>
        <time>2022-04-24T10:35:35.000Z</time>
      </trkpt>
      <trkpt lat="45.54807" lon="4.57975">
        <ele>484</ele>
        <time>2022-04-24T10:35:42.000Z</time>
      </trkpt>
      <trkpt lat="45.54824" lon="4.57974">
        <ele>484.60000610352</ele>
        <time>2022-04-24T10:35:49.000Z</time>
      </trkpt>
      <trkpt lat="45.5484" lon="4.5797">
        <ele>485.39999389648</ele>
        <time>2022-04-24T10:35:56.000Z</time>
      </trkpt>
      <trkpt lat="45.54852" lon="4.57967">
        <ele>485.79998779297</ele>
        <time>2022-04-24T10:36:01.000Z</time>
      </trkpt>
      <trkpt lat="45.54869" lon="4.57965">
        <ele>486</ele>
        <time>2022-04-24T10:36:08.000Z</time>
      </trkpt>
      <trkpt lat="45.54884" lon="4.57968">
        <ele>486</ele>
        <time>2022-04-24T10:36:14.000Z</time>
      </trkpt>
      <trkpt lat="45.54904" lon="4.57969">
        <ele>485.39999389648</ele>
        <time>2022-04-24T10:36:21.000Z</time>
      </trkpt>
      <trkpt lat="45.54924" lon="4.57968">
        <ele>485.20001220703</ele>
        <time>2022-04-24T10:36:27.000Z</time>
      </trkpt>
      <trkpt lat="45.54943" lon="4.57965">
        <ele>485.39999389648</ele>
        <time>2022-04-24T10:36:33.000Z</time>
      </trkpt>
      <trkpt lat="45.54963" lon="4.5796">
        <ele>485</ele>
        <time>2022-04-24T10:36:39.000Z</time>
      </trkpt>
      <trkpt lat="45.54981" lon="4.57951">
        <ele>485.20001220703</ele>
        <time>2022-04-24T10:36:45.000Z</time>
      </trkpt>
      <trkpt lat="45.55003" lon="4.57944">
        <ele>484.20001220703</ele>
        <time>2022-04-24T10:36:52.000Z</time>
      </trkpt>
      <trkpt lat="45.55019" lon="4.57941">
        <ele>483.39999389648</ele>
        <time>2022-04-24T10:36:57.000Z</time>
      </trkpt>
      <trkpt lat="45.55044" lon="4.57935">
        <ele>484.20001220703</ele>
        <time>2022-04-24T10:37:04.000Z</time>
      </trkpt>
      <trkpt lat="45.5506" lon="4.57934">
        <ele>484</ele>
        <time>2022-04-24T10:37:08.000Z</time>
      </trkpt>
      <trkpt lat="45.55064" lon="4.57934">
        <ele>484.20001220703</ele>
        <time>2022-04-24T10:37:09.000Z</time>
      </trkpt>
      <trkpt lat="45.5507" lon="4.57934">
        <ele>484.39999389648</ele>
        <time>2022-04-24T10:37:10.000Z</time>
      </trkpt>
      <trkpt lat="45.55088" lon="4.57933">
        <ele>485</ele>
        <time>2022-04-24T10:37:14.000Z</time>
      </trkpt>
      <trkpt lat="45.55109" lon="4.57934">
        <ele>485.20001220703</ele>
        <time>2022-04-24T10:37:18.000Z</time>
      </trkpt>
      <trkpt lat="45.55114" lon="4.57936">
        <ele>485.20001220703</ele>
        <time>2022-04-24T10:37:19.000Z</time>
      </trkpt>
      <trkpt lat="45.55127" lon="4.57941">
        <ele>484.20001220703</ele>
        <time>2022-04-24T10:37:21.000Z</time>
      </trkpt>
      <trkpt lat="45.5514" lon="4.57946">
        <ele>483.20001220703</ele>
        <time>2022-04-24T10:37:23.000Z</time>
      </trkpt>
      <trkpt lat="45.55146" lon="4.57948">
        <ele>482.60000610352</ele>
        <time>2022-04-24T10:37:24.000Z</time>
      </trkpt>
      <trkpt lat="45.5517" lon="4.57958">
        <ele>480.39999389648</ele>
        <time>2022-04-24T10:37:28.000Z</time>
      </trkpt>
      <trkpt lat="45.55189" lon="4.57965">
        <ele>479.20001220703</ele>
        <time>2022-04-24T10:37:31.000Z</time>
      </trkpt>
      <trkpt lat="45.55202" lon="4.5797">
        <ele>478.39999389648</ele>
        <time>2022-04-24T10:37:33.000Z</time>
      </trkpt>
      <trkpt lat="45.55209" lon="4.57973">
        <ele>478.20001220703</ele>
        <time>2022-04-24T10:37:34.000Z</time>
      </trkpt>
      <trkpt lat="45.55263" lon="4.57994">
        <ele>475.20001220703</ele>
        <time>2022-04-24T10:37:41.000Z</time>
      </trkpt>
      <trkpt lat="45.55289" lon="4.58004">
        <ele>474.79998779297</ele>
        <time>2022-04-24T10:37:45.000Z</time>
      </trkpt>
      <trkpt lat="45.55317" lon="4.58016">
        <ele>474.39999389648</ele>
        <time>2022-04-24T10:37:49.000Z</time>
      </trkpt>
      <trkpt lat="45.55338" lon="4.58024">
        <ele>474.60000610352</ele>
        <time>2022-04-24T10:37:53.000Z</time>
      </trkpt>
      <trkpt lat="45.55344" lon="4.58026">
        <ele>475</ele>
        <time>2022-04-24T10:37:54.000Z</time>
      </trkpt>
      <trkpt lat="45.55352" lon="4.58031">
        <ele>475.20001220703</ele>
        <time>2022-04-24T10:37:56.000Z</time>
      </trkpt>
      <trkpt lat="45.55359" lon="4.58036">
        <ele>475.60000610352</ele>
        <time>2022-04-24T10:37:58.000Z</time>
      </trkpt>
      <trkpt lat="45.55369" lon="4.58047">
        <ele>475.79998779297</ele>
        <time>2022-04-24T10:38:02.000Z</time>
      </trkpt>
      <trkpt lat="45.55371" lon="4.5805">
        <ele>475.79998779297</ele>
        <time>2022-04-24T10:38:03.000Z</time>
      </trkpt>
      <trkpt lat="45.55374" lon="4.58059">
        <ele>475.79998779297</ele>
        <time>2022-04-24T10:38:05.000Z</time>
      </trkpt>
      <trkpt lat="45.55376" lon="4.58077">
        <ele>476.20001220703</ele>
        <time>2022-04-24T10:38:09.000Z</time>
      </trkpt>
      <trkpt lat="45.55373" lon="4.58088">
        <ele>476.39999389648</ele>
        <time>2022-04-24T10:38:12.000Z</time>
      </trkpt>
      <trkpt lat="45.55371" lon="4.58096">
        <ele>476.60000610352</ele>
        <time>2022-04-24T10:38:13.000Z</time>
      </trkpt>
      <trkpt lat="45.55362" lon="4.58108">
        <ele>476.79998779297</ele>
        <time>2022-04-24T10:38:16.000Z</time>
      </trkpt>
      <trkpt lat="45.55359" lon="4.58112">
        <ele>476.79998779297</ele>
        <time>2022-04-24T10:38:17.000Z</time>
      </trkpt>
      <trkpt lat="45.55355" lon="4.58115">
        <ele>476.60000610352</ele>
        <time>2022-04-24T10:38:18.000Z</time>
      </trkpt>
      <trkpt lat="45.55343" lon="4.58123">
        <ele>476.39999389648</ele>
        <time>2022-04-24T10:38:21.000Z</time>
      </trkpt>
      <trkpt lat="45.55318" lon="4.58138">
        <ele>476.60000610352</ele>
        <time>2022-04-24T10:38:28.000Z</time>
      </trkpt>
      <trkpt lat="45.55302" lon="4.58149">
        <ele>476.60000610352</ele>
        <time>2022-04-24T10:38:33.000Z</time>
      </trkpt>
      <trkpt lat="45.55286" lon="4.58161">
        <ele>476.20001220703</ele>
        <time>2022-04-24T10:38:38.000Z</time>
      </trkpt>
      <trkpt lat="45.55266" lon="4.58175">
        <ele>474.79998779297</ele>
        <time>2022-04-24T10:38:44.000Z</time>
      </trkpt>
      <trkpt lat="45.55249" lon="4.58188">
        <ele>473.60000610352</ele>
        <time>2022-04-24T10:38:50.000Z</time>
      </trkpt>
      <trkpt lat="45.55231" lon="4.58207">
        <ele>472.79998779297</ele>
        <time>2022-04-24T10:38:57.000Z</time>
      </trkpt>
      <trkpt lat="45.55224" lon="4.58231">
        <ele>475</ele>
        <time>2022-04-24T10:39:03.000Z</time>
      </trkpt>
      <trkpt lat="45.5522" lon="4.5825">
        <ele>476.79998779297</ele>
        <time>2022-04-24T10:39:08.000Z</time>
      </trkpt>
      <trkpt lat="45.55219" lon="4.58254">
        <ele>477.20001220703</ele>
        <time>2022-04-24T10:39:09.000Z</time>
      </trkpt>
      <trkpt lat="45.55217" lon="4.58266">
        <ele>477.39999389648</ele>
        <time>2022-04-24T10:39:12.000Z</time>
      </trkpt>
      <trkpt lat="45.55215" lon="4.58277">
        <ele>478.20001220703</ele>
        <time>2022-04-24T10:39:15.000Z</time>
      </trkpt>
      <trkpt lat="45.55212" lon="4.5829">
        <ele>479.39999389648</ele>
        <time>2022-04-24T10:39:19.000Z</time>
      </trkpt>
      <trkpt lat="45.55212" lon="4.58293">
        <ele>479.79998779297</ele>
        <time>2022-04-24T10:39:20.000Z</time>
      </trkpt>
      <trkpt lat="45.55211" lon="4.58306">
        <ele>481</ele>
        <time>2022-04-24T10:39:24.000Z</time>
      </trkpt>
      <trkpt lat="45.55211" lon="4.58318">
        <ele>481.60000610352</ele>
        <time>2022-04-24T10:39:28.000Z</time>
      </trkpt>
      <trkpt lat="45.55213" lon="4.58334">
        <ele>482.60000610352</ele>
        <time>2022-04-24T10:39:33.000Z</time>
      </trkpt>
      <trkpt lat="45.55213" lon="4.58341">
        <ele>482.79998779297</ele>
        <time>2022-04-24T10:39:35.000Z</time>
      </trkpt>
      <trkpt lat="45.55215" lon="4.58357">
        <ele>483</ele>
        <time>2022-04-24T10:39:40.000Z</time>
      </trkpt>
      <trkpt lat="45.55221" lon="4.58375">
        <ele>483.39999389648</ele>
        <time>2022-04-24T10:39:46.000Z</time>
      </trkpt>
      <trkpt lat="45.5523" lon="4.58398">
        <ele>484</ele>
        <time>2022-04-24T10:39:53.000Z</time>
      </trkpt>
      <trkpt lat="45.55236" lon="4.58409">
        <ele>484.79998779297</ele>
        <time>2022-04-24T10:39:57.000Z</time>
      </trkpt>
      <trkpt lat="45.5524" lon="4.58415">
        <ele>485.39999389648</ele>
        <time>2022-04-24T10:39:59.000Z</time>
      </trkpt>
      <trkpt lat="45.55252" lon="4.58434">
        <ele>486.60000610352</ele>
        <time>2022-04-24T10:40:06.000Z</time>
      </trkpt>
      <trkpt lat="45.55267" lon="4.58454">
        <ele>487.60000610352</ele>
        <time>2022-04-24T10:40:13.000Z</time>
      </trkpt>
      <trkpt lat="45.5528" lon="4.58471">
        <ele>488.39999389648</ele>
        <time>2022-04-24T10:40:19.000Z</time>
      </trkpt>
      <trkpt lat="45.55295" lon="4.58491">
        <ele>488</ele>
        <time>2022-04-24T10:40:26.000Z</time>
      </trkpt>
      <trkpt lat="45.55315" lon="4.58517">
        <ele>488.20001220703</ele>
        <time>2022-04-24T10:40:34.000Z</time>
      </trkpt>
      <trkpt lat="45.55329" lon="4.58542">
        <ele>488.60000610352</ele>
        <time>2022-04-24T10:40:40.000Z</time>
      </trkpt>
      <trkpt lat="45.55338" lon="4.58558">
        <ele>488.79998779297</ele>
        <time>2022-04-24T10:40:44.000Z</time>
      </trkpt>
      <trkpt lat="45.55342" lon="4.58566">
        <ele>488.79998779297</ele>
        <time>2022-04-24T10:40:46.000Z</time>
      </trkpt>
      <trkpt lat="45.55355" lon="4.58588">
        <ele>489.60000610352</ele>
        <time>2022-04-24T10:40:52.000Z</time>
      </trkpt>
      <trkpt lat="45.55365" lon="4.58605">
        <ele>490.39999389648</ele>
        <time>2022-04-24T10:40:57.000Z</time>
      </trkpt>
      <trkpt lat="45.55374" lon="4.58628">
        <ele>491.60000610352</ele>
        <time>2022-04-24T10:41:03.000Z</time>
      </trkpt>
      <trkpt lat="45.55378" lon="4.5866">
        <ele>492.39999389648</ele>
        <time>2022-04-24T10:41:10.000Z</time>
      </trkpt>
      <trkpt lat="45.55378" lon="4.58687">
        <ele>493.79998779297</ele>
        <time>2022-04-24T10:41:16.000Z</time>
      </trkpt>
      <trkpt lat="45.55375" lon="4.58714">
        <ele>493.79998779297</ele>
        <time>2022-04-24T10:41:22.000Z</time>
      </trkpt>
      <trkpt lat="45.55372" lon="4.58746">
        <ele>494</ele>
        <time>2022-04-24T10:41:29.000Z</time>
      </trkpt>
      <trkpt lat="45.55369" lon="4.58778">
        <ele>494.60000610352</ele>
        <time>2022-04-24T10:41:36.000Z</time>
      </trkpt>
      <trkpt lat="45.55365" lon="4.58804">
        <ele>494.39999389648</ele>
        <time>2022-04-24T10:41:42.000Z</time>
      </trkpt>
      <trkpt lat="45.55357" lon="4.58828">
        <ele>494.20001220703</ele>
        <time>2022-04-24T10:41:48.000Z</time>
      </trkpt>
      <trkpt lat="45.55349" lon="4.5885">
        <ele>494.60000610352</ele>
        <time>2022-04-24T10:41:55.000Z</time>
      </trkpt>
      <trkpt lat="45.55347" lon="4.58856">
        <ele>494.60000610352</ele>
        <time>2022-04-24T10:41:57.000Z</time>
      </trkpt>
      <trkpt lat="45.55346" lon="4.58859">
        <ele>494.60000610352</ele>
        <time>2022-04-24T10:41:58.000Z</time>
      </trkpt>
      <trkpt lat="45.5534" lon="4.58878">
        <ele>494.60000610352</ele>
        <time>2022-04-24T10:42:02.000Z</time>
      </trkpt>
      <trkpt lat="45.55337" lon="4.58882">
        <ele>494.20001220703</ele>
        <time>2022-04-24T10:42:03.000Z</time>
      </trkpt>
      <trkpt lat="45.55318" lon="4.58908">
        <ele>492.79998779297</ele>
        <time>2022-04-24T10:42:08.000Z</time>
      </trkpt>
      <trkpt lat="45.55295" lon="4.58941">
        <ele>490.20001220703</ele>
        <time>2022-04-24T10:42:13.000Z</time>
      </trkpt>
      <trkpt lat="45.5529" lon="4.58947">
        <ele>489.79998779297</ele>
        <time>2022-04-24T10:42:14.000Z</time>
      </trkpt>
      <trkpt lat="45.55263" lon="4.58973">
        <ele>488.79998779297</ele>
        <time>2022-04-24T10:42:19.000Z</time>
      </trkpt>
      <trkpt lat="45.55258" lon="4.58976">
        <ele>488.39999389648</ele>
        <time>2022-04-24T10:42:20.000Z</time>
      </trkpt>
      <trkpt lat="45.55227" lon="4.58993">
        <ele>487</ele>
        <time>2022-04-24T10:42:26.000Z</time>
      </trkpt>
      <trkpt lat="45.55212" lon="4.58999">
        <ele>486</ele>
        <time>2022-04-24T10:42:29.000Z</time>
      </trkpt>
      <trkpt lat="45.55195" lon="4.59007">
        <ele>485.20001220703</ele>
        <time>2022-04-24T10:42:33.000Z</time>
      </trkpt>
      <trkpt lat="45.55187" lon="4.59011">
        <ele>485.20001220703</ele>
        <time>2022-04-24T10:42:35.000Z</time>
      </trkpt>
      <trkpt lat="45.55171" lon="4.59019">
        <ele>485.20001220703</ele>
        <time>2022-04-24T10:42:39.000Z</time>
      </trkpt>
      <trkpt lat="45.55162" lon="4.59026">
        <ele>485.60000610352</ele>
        <time>2022-04-24T10:42:41.000Z</time>
      </trkpt>
      <trkpt lat="45.55152" lon="4.59037">
        <ele>485.60000610352</ele>
        <time>2022-04-24T10:42:44.000Z</time>
      </trkpt>
      <trkpt lat="45.55147" lon="4.59047">
        <ele>485.79998779297</ele>
        <time>2022-04-24T10:42:47.000Z</time>
      </trkpt>
      <trkpt lat="45.55144" lon="4.59052">
        <ele>485.79998779297</ele>
        <time>2022-04-24T10:42:49.000Z</time>
      </trkpt>
      <trkpt lat="45.55146" lon="4.59055">
        <ele>486.20001220703</ele>
        <time>2022-04-24T10:42:50.000Z</time>
      </trkpt>
      <trkpt lat="45.55152" lon="4.59056">
        <ele>486.39999389648</ele>
        <time>2022-04-24T10:42:52.000Z</time>
      </trkpt>
      <trkpt lat="45.55165" lon="4.59058">
        <ele>486.79998779297</ele>
        <time>2022-04-24T10:42:56.000Z</time>
      </trkpt>
      <trkpt lat="45.55184" lon="4.5906">
        <ele>487</ele>
        <time>2022-04-24T10:43:02.000Z</time>
      </trkpt>
      <trkpt lat="45.55203" lon="4.59062">
        <ele>487.39999389648</ele>
        <time>2022-04-24T10:43:08.000Z</time>
      </trkpt>
      <trkpt lat="45.55218" lon="4.59064">
        <ele>488.60000610352</ele>
        <time>2022-04-24T10:43:13.000Z</time>
      </trkpt>
      <trkpt lat="45.55233" lon="4.59066">
        <ele>489.79998779297</ele>
        <time>2022-04-24T10:43:18.000Z</time>
      </trkpt>
      <trkpt lat="45.55251" lon="4.59068">
        <ele>491.60000610352</ele>
        <time>2022-04-24T10:43:23.000Z</time>
      </trkpt>
      <trkpt lat="45.55268" lon="4.59071">
        <ele>491.60000610352</ele>
        <time>2022-04-24T10:43:28.000Z</time>
      </trkpt>
      <trkpt lat="45.55282" lon="4.59075">
        <ele>491.79998779297</ele>
        <time>2022-04-24T10:43:32.000Z</time>
      </trkpt>
      <trkpt lat="45.55285" lon="4.59082">
        <ele>491.20001220703</ele>
        <time>2022-04-24T10:43:33.000Z</time>
      </trkpt>
      <trkpt lat="45.55284" lon="4.59086">
        <ele>491</ele>
        <time>2022-04-24T10:43:34.000Z</time>
      </trkpt>
      <trkpt lat="45.55283" lon="4.59096">
        <ele>490</ele>
        <time>2022-04-24T10:43:36.000Z</time>
      </trkpt>
      <trkpt lat="45.55279" lon="4.59128">
        <ele>487</ele>
        <time>2022-04-24T10:43:41.000Z</time>
      </trkpt>
      <trkpt lat="45.55274" lon="4.59165">
        <ele>484.39999389648</ele>
        <time>2022-04-24T10:43:45.000Z</time>
      </trkpt>
      <trkpt lat="45.55271" lon="4.59187">
        <ele>483</ele>
        <time>2022-04-24T10:43:47.000Z</time>
      </trkpt>
      <trkpt lat="45.55267" lon="4.59213">
        <ele>481.79998779297</ele>
        <time>2022-04-24T10:43:49.000Z</time>
      </trkpt>
      <trkpt lat="45.55258" lon="4.59269">
        <ele>477.60000610352</ele>
        <time>2022-04-24T10:43:54.000Z</time>
      </trkpt>
      <trkpt lat="45.55254" lon="4.59281">
        <ele>476.79998779297</ele>
        <time>2022-04-24T10:43:57.000Z</time>
      </trkpt>
      <trkpt lat="45.55254" lon="4.59284">
        <ele>476.60000610352</ele>
        <time>2022-04-24T10:44:01.000Z</time>
      </trkpt>
      <trkpt lat="45.55254" lon="4.59284">
        <ele>476.60000610352</ele>
        <time>2022-04-24T10:44:02.000Z</time>
      </trkpt>
      <trkpt lat="45.55264" lon="4.59289">
        <ele>476</ele>
        <time>2022-04-24T10:44:05.000Z</time>
      </trkpt>
      <trkpt lat="45.55287" lon="4.59299">
        <ele>474.60000610352</ele>
        <time>2022-04-24T10:44:11.000Z</time>
      </trkpt>
      <trkpt lat="45.55314" lon="4.59304">
        <ele>474</ele>
        <time>2022-04-24T10:44:17.000Z</time>
      </trkpt>
      <trkpt lat="45.55346" lon="4.59308">
        <ele>473</ele>
        <time>2022-04-24T10:44:23.000Z</time>
      </trkpt>
      <trkpt lat="45.55363" lon="4.59306">
        <ele>473.20001220703</ele>
        <time>2022-04-24T10:44:26.000Z</time>
      </trkpt>
      <trkpt lat="45.55379" lon="4.59304">
        <ele>472.20001220703</ele>
        <time>2022-04-24T10:44:29.000Z</time>
      </trkpt>
      <trkpt lat="45.55421" lon="4.59296">
        <ele>472.20001220703</ele>
        <time>2022-04-24T10:44:36.000Z</time>
      </trkpt>
      <trkpt lat="45.55451" lon="4.5929">
        <ele>472.39999389648</ele>
        <time>2022-04-24T10:44:41.000Z</time>
      </trkpt>
      <trkpt lat="45.55469" lon="4.59286">
        <ele>471.39999389648</ele>
        <time>2022-04-24T10:44:44.000Z</time>
      </trkpt>
      <trkpt lat="45.55517" lon="4.59273">
        <ele>468.60000610352</ele>
        <time>2022-04-24T10:44:52.000Z</time>
      </trkpt>
      <trkpt lat="45.55523" lon="4.59271">
        <ele>468.39999389648</ele>
        <time>2022-04-24T10:44:53.000Z</time>
      </trkpt>
      <trkpt lat="45.55548" lon="4.59261">
        <ele>468</ele>
        <time>2022-04-24T10:44:57.000Z</time>
      </trkpt>
      <trkpt lat="45.55553" lon="4.59259">
        <ele>467.79998779297</ele>
        <time>2022-04-24T10:44:58.000Z</time>
      </trkpt>
      <trkpt lat="45.5556" lon="4.59249">
        <ele>468</ele>
        <time>2022-04-24T10:45:00.000Z</time>
      </trkpt>
      <trkpt lat="45.55564" lon="4.59245">
        <ele>468</ele>
        <time>2022-04-24T10:45:01.000Z</time>
      </trkpt>
      <trkpt lat="45.55584" lon="4.59213">
        <ele>469.60000610352</ele>
        <time>2022-04-24T10:45:07.000Z</time>
      </trkpt>
      <trkpt lat="45.55602" lon="4.59184">
        <ele>468.60000610352</ele>
        <time>2022-04-24T10:45:12.000Z</time>
      </trkpt>
      <trkpt lat="45.55609" lon="4.59174">
        <ele>468.20001220703</ele>
        <time>2022-04-24T10:45:14.000Z</time>
      </trkpt>
      <trkpt lat="45.55618" lon="4.59168">
        <ele>467.20001220703</ele>
        <time>2022-04-24T10:45:16.000Z</time>
      </trkpt>
      <trkpt lat="45.55628" lon="4.59165">
        <ele>465.79998779297</ele>
        <time>2022-04-24T10:45:18.000Z</time>
      </trkpt>
      <trkpt lat="45.55638" lon="4.59162">
        <ele>464.60000610352</ele>
        <time>2022-04-24T10:45:20.000Z</time>
      </trkpt>
      <trkpt lat="45.55654" lon="4.5916">
        <ele>463.39999389648</ele>
        <time>2022-04-24T10:45:23.000Z</time>
      </trkpt>
      <trkpt lat="45.55666" lon="4.59162">
        <ele>462.39999389648</ele>
        <time>2022-04-24T10:45:25.000Z</time>
      </trkpt>
      <trkpt lat="45.55671" lon="4.59165">
        <ele>462.39999389648</ele>
        <time>2022-04-24T10:45:26.000Z</time>
      </trkpt>
      <trkpt lat="45.55693" lon="4.59181">
        <ele>463.39999389648</ele>
        <time>2022-04-24T10:45:30.000Z</time>
      </trkpt>
      <trkpt lat="45.55717" lon="4.59213">
        <ele>464</ele>
        <time>2022-04-24T10:45:35.000Z</time>
      </trkpt>
      <trkpt lat="45.55728" lon="4.59245">
        <ele>463</ele>
        <time>2022-04-24T10:45:39.000Z</time>
      </trkpt>
      <trkpt lat="45.5573" lon="4.59253">
        <ele>462.60000610352</ele>
        <time>2022-04-24T10:45:40.000Z</time>
      </trkpt>
      <trkpt lat="45.55732" lon="4.59262">
        <ele>462.60000610352</ele>
        <time>2022-04-24T10:45:41.000Z</time>
      </trkpt>
      <trkpt lat="45.55734" lon="4.59282">
        <ele>462.20001220703</ele>
        <time>2022-04-24T10:45:43.000Z</time>
      </trkpt>
      <trkpt lat="45.55734" lon="4.59299">
        <ele>461.79998779297</ele>
        <time>2022-04-24T10:45:45.000Z</time>
      </trkpt>
      <trkpt lat="45.55731" lon="4.59319">
        <ele>461</ele>
        <time>2022-04-24T10:45:47.000Z</time>
      </trkpt>
      <trkpt lat="45.55719" lon="4.59356">
        <ele>458.39999389648</ele>
        <time>2022-04-24T10:45:51.000Z</time>
      </trkpt>
      <trkpt lat="45.55711" lon="4.59371">
        <ele>457.20001220703</ele>
        <time>2022-04-24T10:45:53.000Z</time>
      </trkpt>
      <trkpt lat="45.5569" lon="4.59399">
        <ele>454.20001220703</ele>
        <time>2022-04-24T10:45:57.000Z</time>
      </trkpt>
      <trkpt lat="45.55684" lon="4.59407">
        <ele>453.20001220703</ele>
        <time>2022-04-24T10:45:58.000Z</time>
      </trkpt>
      <trkpt lat="45.55666" lon="4.59429">
        <ele>452</ele>
        <time>2022-04-24T10:46:01.000Z</time>
      </trkpt>
      <trkpt lat="45.55653" lon="4.59444">
        <ele>451.20001220703</ele>
        <time>2022-04-24T10:46:03.000Z</time>
      </trkpt>
      <trkpt lat="45.55643" lon="4.59462">
        <ele>451.39999389648</ele>
        <time>2022-04-24T10:46:05.000Z</time>
      </trkpt>
      <trkpt lat="45.55632" lon="4.5948">
        <ele>450.60000610352</ele>
        <time>2022-04-24T10:46:07.000Z</time>
      </trkpt>
      <trkpt lat="45.55622" lon="4.595">
        <ele>450.39999389648</ele>
        <time>2022-04-24T10:46:09.000Z</time>
      </trkpt>
      <trkpt lat="45.55605" lon="4.59542">
        <ele>449.60000610352</ele>
        <time>2022-04-24T10:46:13.000Z</time>
      </trkpt>
      <trkpt lat="45.55592" lon="4.59573">
        <ele>449.20001220703</ele>
        <time>2022-04-24T10:46:16.000Z</time>
      </trkpt>
      <trkpt lat="45.55587" lon="4.59583">
        <ele>449.20001220703</ele>
        <time>2022-04-24T10:46:17.000Z</time>
      </trkpt>
      <trkpt lat="45.55563" lon="4.59622">
        <ele>448.20001220703</ele>
        <time>2022-04-24T10:46:22.000Z</time>
      </trkpt>
      <trkpt lat="45.55524" lon="4.59676">
        <ele>444.60000610352</ele>
        <time>2022-04-24T10:46:30.000Z</time>
      </trkpt>
      <trkpt lat="45.55509" lon="4.59713">
        <ele>442.60000610352</ele>
        <time>2022-04-24T10:46:34.000Z</time>
      </trkpt>
      <trkpt lat="45.55506" lon="4.59723">
        <ele>442</ele>
        <time>2022-04-24T10:46:35.000Z</time>
      </trkpt>
      <trkpt lat="45.55502" lon="4.59756">
        <ele>440.20001220703</ele>
        <time>2022-04-24T10:46:38.000Z</time>
      </trkpt>
      <trkpt lat="45.55495" lon="4.59788">
        <ele>440.20001220703</ele>
        <time>2022-04-24T10:46:41.000Z</time>
      </trkpt>
      <trkpt lat="45.55489" lon="4.59808">
        <ele>439.79998779297</ele>
        <time>2022-04-24T10:46:43.000Z</time>
      </trkpt>
      <trkpt lat="45.55477" lon="4.59836">
        <ele>439.60000610352</ele>
        <time>2022-04-24T10:46:46.000Z</time>
      </trkpt>
      <trkpt lat="45.55472" lon="4.59844">
        <ele>439.39999389648</ele>
        <time>2022-04-24T10:46:47.000Z</time>
      </trkpt>
      <trkpt lat="45.55464" lon="4.59861">
        <ele>439.20001220703</ele>
        <time>2022-04-24T10:46:49.000Z</time>
      </trkpt>
      <trkpt lat="45.55459" lon="4.59881">
        <ele>438.79998779297</ele>
        <time>2022-04-24T10:46:51.000Z</time>
      </trkpt>
      <trkpt lat="45.55442" lon="4.59956">
        <ele>436.60000610352</ele>
        <time>2022-04-24T10:46:58.000Z</time>
      </trkpt>
      <trkpt lat="45.5544" lon="4.59967">
        <ele>436.60000610352</ele>
        <time>2022-04-24T10:46:59.000Z</time>
      </trkpt>
      <trkpt lat="45.5543" lon="4.60042">
        <ele>437</ele>
        <time>2022-04-24T10:47:06.000Z</time>
      </trkpt>
      <trkpt lat="45.55429" lon="4.60053">
        <ele>436.20001220703</ele>
        <time>2022-04-24T10:47:07.000Z</time>
      </trkpt>
      <trkpt lat="45.55426" lon="4.60103">
        <ele>434</ele>
        <time>2022-04-24T10:47:12.000Z</time>
      </trkpt>
      <trkpt lat="45.55422" lon="4.60165">
        <ele>432.60000610352</ele>
        <time>2022-04-24T10:47:19.000Z</time>
      </trkpt>
      <trkpt lat="45.55419" lon="4.60204">
        <ele>433</ele>
        <time>2022-04-24T10:47:24.000Z</time>
      </trkpt>
      <trkpt lat="45.55422" lon="4.60214">
        <ele>433.39999389648</ele>
        <time>2022-04-24T10:47:25.000Z</time>
      </trkpt>
      <trkpt lat="45.55425" lon="4.60215">
        <ele>434</ele>
        <time>2022-04-24T10:47:26.000Z</time>
      </trkpt>
      <trkpt lat="45.55433" lon="4.60217">
        <ele>435.20001220703</ele>
        <time>2022-04-24T10:47:28.000Z</time>
      </trkpt>
      <trkpt lat="45.55453" lon="4.60222">
        <ele>438.20001220703</ele>
        <time>2022-04-24T10:47:34.000Z</time>
      </trkpt>
      <trkpt lat="45.55473" lon="4.60255">
        <ele>439.79998779297</ele>
        <time>2022-04-24T10:47:39.000Z</time>
      </trkpt>
      <trkpt lat="45.55477" lon="4.60263">
        <ele>439.39999389648</ele>
        <time>2022-04-24T10:47:41.000Z</time>
      </trkpt>
      <trkpt lat="45.55479" lon="4.60267">
        <ele>439.39999389648</ele>
        <time>2022-04-24T10:47:42.000Z</time>
      </trkpt>
      <trkpt lat="45.55481" lon="4.60272">
        <ele>439.39999389648</ele>
        <time>2022-04-24T10:47:43.000Z</time>
      </trkpt>
      <trkpt lat="45.55493" lon="4.60288">
        <ele>439.79998779297</ele>
        <time>2022-04-24T10:47:47.000Z</time>
      </trkpt>
      <trkpt lat="45.55497" lon="4.60293">
        <ele>440</ele>
        <time>2022-04-24T10:47:48.000Z</time>
      </trkpt>
      <trkpt lat="45.55501" lon="4.60297">
        <ele>440</ele>
        <time>2022-04-24T10:47:49.000Z</time>
      </trkpt>
      <trkpt lat="45.55509" lon="4.60309">
        <ele>439.39999389648</ele>
        <time>2022-04-24T10:47:51.000Z</time>
      </trkpt>
      <trkpt lat="45.55513" lon="4.60316">
        <ele>438.60000610352</ele>
        <time>2022-04-24T10:47:52.000Z</time>
      </trkpt>
      <trkpt lat="45.55538" lon="4.60358">
        <ele>434.60000610352</ele>
        <time>2022-04-24T10:47:58.000Z</time>
      </trkpt>
      <trkpt lat="45.55548" lon="4.60372">
        <ele>433.39999389648</ele>
        <time>2022-04-24T10:48:01.000Z</time>
      </trkpt>
      <trkpt lat="45.55551" lon="4.60376">
        <ele>433.20001220703</ele>
        <time>2022-04-24T10:48:02.000Z</time>
      </trkpt>
      <trkpt lat="45.55561" lon="4.60388">
        <ele>432.20001220703</ele>
        <time>2022-04-24T10:48:05.000Z</time>
      </trkpt>
      <trkpt lat="45.5557" lon="4.60396">
        <ele>431.79998779297</ele>
        <time>2022-04-24T10:48:07.000Z</time>
      </trkpt>
      <trkpt lat="45.55574" lon="4.60427">
        <ele>428.79998779297</ele>
        <time>2022-04-24T10:48:10.000Z</time>
      </trkpt>
      <trkpt lat="45.55586" lon="4.60434">
        <ele>428.39999389648</ele>
        <time>2022-04-24T10:48:13.000Z</time>
      </trkpt>
      <trkpt lat="45.55622" lon="4.60455">
        <ele>424.79998779297</ele>
        <time>2022-04-24T10:48:20.000Z</time>
      </trkpt>
      <trkpt lat="45.55653" lon="4.60474">
        <ele>423</ele>
        <time>2022-04-24T10:48:26.000Z</time>
      </trkpt>
      <trkpt lat="45.55658" lon="4.60476">
        <ele>423.20001220703</ele>
        <time>2022-04-24T10:48:27.000Z</time>
      </trkpt>
      <trkpt lat="45.55688" lon="4.60489">
        <ele>424.39999389648</ele>
        <time>2022-04-24T10:48:33.000Z</time>
      </trkpt>
      <trkpt lat="45.55698" lon="4.60492">
        <ele>424.79998779297</ele>
        <time>2022-04-24T10:48:35.000Z</time>
      </trkpt>
      <trkpt lat="45.55739" lon="4.60502">
        <ele>425</ele>
        <time>2022-04-24T10:48:42.000Z</time>
      </trkpt>
      <trkpt lat="45.55745" lon="4.60503">
        <ele>425</ele>
        <time>2022-04-24T10:48:43.000Z</time>
      </trkpt>
      <trkpt lat="45.55753" lon="4.60497">
        <ele>425.39999389648</ele>
        <time>2022-04-24T10:48:45.000Z</time>
      </trkpt>
      <trkpt lat="45.5577" lon="4.60486">
        <ele>426.20001220703</ele>
        <time>2022-04-24T10:48:48.000Z</time>
      </trkpt>
      <trkpt lat="45.55781" lon="4.60481">
        <ele>426.60000610352</ele>
        <time>2022-04-24T10:48:50.000Z</time>
      </trkpt>
      <trkpt lat="45.55793" lon="4.60475">
        <ele>427</ele>
        <time>2022-04-24T10:48:53.000Z</time>
      </trkpt>
      <trkpt lat="45.55809" lon="4.60474">
        <ele>427.20001220703</ele>
        <time>2022-04-24T10:48:56.000Z</time>
      </trkpt>
      <trkpt lat="45.55832" lon="4.6048">
        <ele>427.60000610352</ele>
        <time>2022-04-24T10:49:02.000Z</time>
      </trkpt>
      <trkpt lat="45.55865" lon="4.60487">
        <ele>429.20001220703</ele>
        <time>2022-04-24T10:49:10.000Z</time>
      </trkpt>
      <trkpt lat="45.55877" lon="4.60488">
        <ele>429.20001220703</ele>
        <time>2022-04-24T10:49:13.000Z</time>
      </trkpt>
      <trkpt lat="45.55885" lon="4.60488">
        <ele>429.79998779297</ele>
        <time>2022-04-24T10:49:15.000Z</time>
      </trkpt>
      <trkpt lat="45.55889" lon="4.60489">
        <ele>430</ele>
        <time>2022-04-24T10:49:16.000Z</time>
      </trkpt>
      <trkpt lat="45.55908" lon="4.60492">
        <ele>430.79998779297</ele>
        <time>2022-04-24T10:49:20.000Z</time>
      </trkpt>
      <trkpt lat="45.55914" lon="4.60494">
        <ele>430.60000610352</ele>
        <time>2022-04-24T10:49:21.000Z</time>
      </trkpt>
      <trkpt lat="45.55924" lon="4.60498">
        <ele>430.79998779297</ele>
        <time>2022-04-24T10:49:23.000Z</time>
      </trkpt>
      <trkpt lat="45.55934" lon="4.60505">
        <ele>431</ele>
        <time>2022-04-24T10:49:25.000Z</time>
      </trkpt>
      <trkpt lat="45.55958" lon="4.60525">
        <ele>430.79998779297</ele>
        <time>2022-04-24T10:49:31.000Z</time>
      </trkpt>
      <trkpt lat="45.55962" lon="4.60528">
        <ele>430.79998779297</ele>
        <time>2022-04-24T10:49:32.000Z</time>
      </trkpt>
      <trkpt lat="45.55973" lon="4.60535">
        <ele>430.79998779297</ele>
        <time>2022-04-24T10:49:35.000Z</time>
      </trkpt>
      <trkpt lat="45.55977" lon="4.60538">
        <ele>430.79998779297</ele>
        <time>2022-04-24T10:49:36.000Z</time>
      </trkpt>
      <trkpt lat="45.55997" lon="4.60539">
        <ele>431.60000610352</ele>
        <time>2022-04-24T10:49:41.000Z</time>
      </trkpt>
      <trkpt lat="45.56027" lon="4.60539">
        <ele>433.60000610352</ele>
        <time>2022-04-24T10:49:48.000Z</time>
      </trkpt>
      <trkpt lat="45.56057" lon="4.60539">
        <ele>434</ele>
        <time>2022-04-24T10:49:55.000Z</time>
      </trkpt>
      <trkpt lat="45.56081" lon="4.60529">
        <ele>435.79998779297</ele>
        <time>2022-04-24T10:50:02.000Z</time>
      </trkpt>
      <trkpt lat="45.56089" lon="4.60533">
        <ele>436.20001220703</ele>
        <time>2022-04-24T10:50:04.000Z</time>
      </trkpt>
      <trkpt lat="45.56096" lon="4.60538">
        <ele>436.60000610352</ele>
        <time>2022-04-24T10:50:06.000Z</time>
      </trkpt>
      <trkpt lat="45.56113" lon="4.60563">
        <ele>436.60000610352</ele>
        <time>2022-04-24T10:50:12.000Z</time>
      </trkpt>
      <trkpt lat="45.56119" lon="4.60584">
        <ele>436</ele>
        <time>2022-04-24T10:50:16.000Z</time>
      </trkpt>
      <trkpt lat="45.56125" lon="4.60592">
        <ele>436.39999389648</ele>
        <time>2022-04-24T10:50:18.000Z</time>
      </trkpt>
      <trkpt lat="45.56138" lon="4.60614">
        <ele>436.79998779297</ele>
        <time>2022-04-24T10:50:23.000Z</time>
      </trkpt>
      <trkpt lat="45.5615" lon="4.60635">
        <ele>436.79998779297</ele>
        <time>2022-04-24T10:50:28.000Z</time>
      </trkpt>
      <trkpt lat="45.56164" lon="4.60658">
        <ele>437.20001220703</ele>
        <time>2022-04-24T10:50:34.000Z</time>
      </trkpt>
      <trkpt lat="45.56178" lon="4.60669">
        <ele>438</ele>
        <time>2022-04-24T10:50:39.000Z</time>
      </trkpt>
      <trkpt lat="45.56191" lon="4.60681">
        <ele>438.60000610352</ele>
        <time>2022-04-24T10:50:44.000Z</time>
      </trkpt>
      <trkpt lat="45.56201" lon="4.60698">
        <ele>438.60000610352</ele>
        <time>2022-04-24T10:50:48.000Z</time>
      </trkpt>
      <trkpt lat="45.56205" lon="4.60707">
        <ele>438.60000610352</ele>
        <time>2022-04-24T10:50:50.000Z</time>
      </trkpt>
      <trkpt lat="45.56211" lon="4.60721">
        <ele>438.39999389648</ele>
        <time>2022-04-24T10:50:54.000Z</time>
      </trkpt>
      <trkpt lat="45.56217" lon="4.60733">
        <ele>438</ele>
        <time>2022-04-24T10:50:58.000Z</time>
      </trkpt>
      <trkpt lat="45.56255" lon="4.60725">
        <ele>443.20001220703</ele>
        <time>2022-04-24T10:51:03.000Z</time>
      </trkpt>
      <trkpt lat="45.56269" lon="4.60732">
        <ele>443.20001220703</ele>
        <time>2022-04-24T10:51:07.000Z</time>
      </trkpt>
      <trkpt lat="45.56287" lon="4.60739">
        <ele>443.79998779297</ele>
        <time>2022-04-24T10:51:12.000Z</time>
      </trkpt>
      <trkpt lat="45.56309" lon="4.60746">
        <ele>444.60000610352</ele>
        <time>2022-04-24T10:51:17.000Z</time>
      </trkpt>
      <trkpt lat="45.56328" lon="4.60748">
        <ele>444.39999389648</ele>
        <time>2022-04-24T10:51:22.000Z</time>
      </trkpt>
      <trkpt lat="45.56344" lon="4.60752">
        <ele>443.79998779297</ele>
        <time>2022-04-24T10:51:26.000Z</time>
      </trkpt>
      <trkpt lat="45.56363" lon="4.60756">
        <ele>442.39999389648</ele>
        <time>2022-04-24T10:51:31.000Z</time>
      </trkpt>
      <trkpt lat="45.56387" lon="4.60761">
        <ele>440.79998779297</ele>
        <time>2022-04-24T10:51:38.000Z</time>
      </trkpt>
      <trkpt lat="45.56403" lon="4.60765">
        <ele>439</ele>
        <time>2022-04-24T10:51:42.000Z</time>
      </trkpt>
      <trkpt lat="45.56418" lon="4.60767">
        <ele>438</ele>
        <time>2022-04-24T10:51:44.000Z</time>
      </trkpt>
      <trkpt lat="45.56432" lon="4.60776">
        <ele>436</ele>
        <time>2022-04-24T10:51:46.000Z</time>
      </trkpt>
      <trkpt lat="45.56444" lon="4.60764">
        <ele>439</ele>
        <time>2022-04-24T10:51:48.000Z</time>
      </trkpt>
      <trkpt lat="45.56458" lon="4.6075">
        <ele>443.60000610352</ele>
        <time>2022-04-24T10:51:51.000Z</time>
      </trkpt>
      <trkpt lat="45.56459" lon="4.60748">
        <ele>444.20001220703</ele>
        <time>2022-04-24T10:51:52.000Z</time>
      </trkpt>
      <trkpt lat="45.56486" lon="4.6077">
        <ele>439.39999389648</ele>
        <time>2022-04-24T10:51:54.000Z</time>
      </trkpt>
      <trkpt lat="45.56498" lon="4.60773">
        <ele>438.39999389648</ele>
        <time>2022-04-24T10:51:56.000Z</time>
      </trkpt>
      <trkpt lat="45.56533" lon="4.60777">
        <ele>434.39999389648</ele>
        <time>2022-04-24T10:52:01.000Z</time>
      </trkpt>
      <trkpt lat="45.56539" lon="4.60777">
        <ele>434.60000610352</ele>
        <time>2022-04-24T10:52:02.000Z</time>
      </trkpt>
      <trkpt lat="45.5657" lon="4.60774">
        <ele>436.79998779297</ele>
        <time>2022-04-24T10:52:07.000Z</time>
      </trkpt>
      <trkpt lat="45.56594" lon="4.60772">
        <ele>437.79998779297</ele>
        <time>2022-04-24T10:52:13.000Z</time>
      </trkpt>
      <trkpt lat="45.56605" lon="4.60772">
        <ele>437.39999389648</ele>
        <time>2022-04-24T10:52:18.000Z</time>
      </trkpt>
      <trkpt lat="45.56604" lon="4.60772">
        <ele>437.39999389648</ele>
        <time>2022-04-24T10:52:19.000Z</time>
      </trkpt>
      <trkpt lat="45.56608" lon="4.60773">
        <ele>437</ele>
        <time>2022-04-24T10:52:32.000Z</time>
      </trkpt>
      <trkpt lat="45.56612" lon="4.60775">
        <ele>436.39999389648</ele>
        <time>2022-04-24T10:52:34.000Z</time>
      </trkpt>
      <trkpt lat="45.56625" lon="4.60778">
        <ele>434.79998779297</ele>
        <time>2022-04-24T10:52:38.000Z</time>
      </trkpt>
      <trkpt lat="45.56629" lon="4.60779">
        <ele>434.39999389648</ele>
        <time>2022-04-24T10:52:39.000Z</time>
      </trkpt>
      <trkpt lat="45.5664" lon="4.60783">
        <ele>432.60000610352</ele>
        <time>2022-04-24T10:52:42.000Z</time>
      </trkpt>
      <trkpt lat="45.56648" lon="4.60785">
        <ele>432.20001220703</ele>
        <time>2022-04-24T10:52:44.000Z</time>
      </trkpt>
      <trkpt lat="45.5667" lon="4.60792">
        <ele>430.79998779297</ele>
        <time>2022-04-24T10:52:50.000Z</time>
      </trkpt>
      <trkpt lat="45.5668" lon="4.60796">
        <ele>430.79998779297</ele>
        <time>2022-04-24T10:52:53.000Z</time>
      </trkpt>
      <trkpt lat="45.56702" lon="4.60803">
        <ele>430.60000610352</ele>
        <time>2022-04-24T10:52:58.000Z</time>
      </trkpt>
      <trkpt lat="45.56719" lon="4.60806">
        <ele>429.60000610352</ele>
        <time>2022-04-24T10:53:02.000Z</time>
      </trkpt>
      <trkpt lat="45.56728" lon="4.60809">
        <ele>428.79998779297</ele>
        <time>2022-04-24T10:53:04.000Z</time>
      </trkpt>
      <trkpt lat="45.56733" lon="4.60813">
        <ele>428.39999389648</ele>
        <time>2022-04-24T10:53:05.000Z</time>
      </trkpt>
      <trkpt lat="45.56762" lon="4.60828">
        <ele>425.79998779297</ele>
        <time>2022-04-24T10:53:10.000Z</time>
      </trkpt>
      <trkpt lat="45.56767" lon="4.60831">
        <ele>425.20001220703</ele>
        <time>2022-04-24T10:53:11.000Z</time>
      </trkpt>
      <trkpt lat="45.56788" lon="4.60849">
        <ele>422.60000610352</ele>
        <time>2022-04-24T10:53:14.000Z</time>
      </trkpt>
      <trkpt lat="45.56797" lon="4.60854">
        <ele>422</ele>
        <time>2022-04-24T10:53:15.000Z</time>
      </trkpt>
      <trkpt lat="45.56821" lon="4.60871">
        <ele>419.79998779297</ele>
        <time>2022-04-24T10:53:18.000Z</time>
      </trkpt>
      <trkpt lat="45.56852" lon="4.60895">
        <ele>416</ele>
        <time>2022-04-24T10:53:22.000Z</time>
      </trkpt>
      <trkpt lat="45.5689" lon="4.60925">
        <ele>411.60000610352</ele>
        <time>2022-04-24T10:53:27.000Z</time>
      </trkpt>
      <trkpt lat="45.56921" lon="4.6095">
        <ele>410</ele>
        <time>2022-04-24T10:53:32.000Z</time>
      </trkpt>
      <trkpt lat="45.56953" lon="4.60973">
        <ele>410.20001220703</ele>
        <time>2022-04-24T10:53:38.000Z</time>
      </trkpt>
      <trkpt lat="45.56975" lon="4.60991">
        <ele>409.79998779297</ele>
        <time>2022-04-24T10:53:42.000Z</time>
      </trkpt>
      <trkpt lat="45.56979" lon="4.60994">
        <ele>409.39999389648</ele>
        <time>2022-04-24T10:53:43.000Z</time>
      </trkpt>
      <trkpt lat="45.56985" lon="4.60999">
        <ele>409</ele>
        <time>2022-04-24T10:53:45.000Z</time>
      </trkpt>
      <trkpt lat="45.56985" lon="4.60991">
        <ele>409.60000610352</ele>
        <time>2022-04-24T10:53:48.000Z</time>
      </trkpt>
      <trkpt lat="45.56984" lon="4.60973">
        <ele>410.79998779297</ele>
        <time>2022-04-24T10:53:53.000Z</time>
      </trkpt>
      <trkpt lat="45.56984" lon="4.60957">
        <ele>412</ele>
        <time>2022-04-24T10:53:57.000Z</time>
      </trkpt>
      <trkpt lat="45.56984" lon="4.60946">
        <ele>413</ele>
        <time>2022-04-24T10:54:00.000Z</time>
      </trkpt>
      <trkpt lat="45.56983" lon="4.60932">
        <ele>414.20001220703</ele>
        <time>2022-04-24T10:54:04.000Z</time>
      </trkpt>
      <trkpt lat="45.56983" lon="4.60925">
        <ele>414.60000610352</ele>
        <time>2022-04-24T10:54:06.000Z</time>
      </trkpt>
      <trkpt lat="45.56984" lon="4.60914">
        <ele>415.20001220703</ele>
        <time>2022-04-24T10:54:09.000Z</time>
      </trkpt>
      <trkpt lat="45.56985" lon="4.60903">
        <ele>415.60000610352</ele>
        <time>2022-04-24T10:54:12.000Z</time>
      </trkpt>
      <trkpt lat="45.56985" lon="4.60885">
        <ele>416.20001220703</ele>
        <time>2022-04-24T10:54:17.000Z</time>
      </trkpt>
      <trkpt lat="45.56985" lon="4.60877">
        <ele>416.60000610352</ele>
        <time>2022-04-24T10:54:19.000Z</time>
      </trkpt>
      <trkpt lat="45.56985" lon="4.60858">
        <ele>417.20001220703</ele>
        <time>2022-04-24T10:54:24.000Z</time>
      </trkpt>
      <trkpt lat="45.56984" lon="4.60832">
        <ele>418</ele>
        <time>2022-04-24T10:54:31.000Z</time>
      </trkpt>
      <trkpt lat="45.56983" lon="4.60822">
        <ele>418.79998779297</ele>
        <time>2022-04-24T10:54:34.000Z</time>
      </trkpt>
      <trkpt lat="45.56983" lon="4.60811">
        <ele>419.20001220703</ele>
        <time>2022-04-24T10:54:37.000Z</time>
      </trkpt>
      <trkpt lat="45.56984" lon="4.60807">
        <ele>419.39999389648</ele>
        <time>2022-04-24T10:54:38.000Z</time>
      </trkpt>
      <trkpt lat="45.56988" lon="4.60787">
        <ele>420.39999389648</ele>
        <time>2022-04-24T10:54:44.000Z</time>
      </trkpt>
      <trkpt lat="45.56991" lon="4.60767">
        <ele>421.20001220703</ele>
        <time>2022-04-24T10:54:49.000Z</time>
      </trkpt>
      <trkpt lat="45.56995" lon="4.60743">
        <ele>422.39999389648</ele>
        <time>2022-04-24T10:54:55.000Z</time>
      </trkpt>
      <trkpt lat="45.56998" lon="4.6072">
        <ele>422.79998779297</ele>
        <time>2022-04-24T10:55:00.000Z</time>
      </trkpt>
      <trkpt lat="45.56998" lon="4.60717">
        <ele>422.79998779297</ele>
        <time>2022-04-24T10:55:01.000Z</time>
      </trkpt>
      <trkpt lat="45.56998" lon="4.60684">
        <ele>424.39999389648</ele>
        <time>2022-04-24T10:55:09.000Z</time>
      </trkpt>
      <trkpt lat="45.57" lon="4.60661">
        <ele>425.20001220703</ele>
        <time>2022-04-24T10:55:15.000Z</time>
      </trkpt>
      <trkpt lat="45.57" lon="4.60651">
        <ele>425.79998779297</ele>
        <time>2022-04-24T10:55:18.000Z</time>
      </trkpt>
      <trkpt lat="45.57" lon="4.60645">
        <ele>426.20001220703</ele>
        <time>2022-04-24T10:55:20.000Z</time>
      </trkpt>
      <trkpt lat="45.56999" lon="4.60636">
        <ele>427</ele>
        <time>2022-04-24T10:55:23.000Z</time>
      </trkpt>
      <trkpt lat="45.56999" lon="4.60633">
        <ele>427.20001220703</ele>
        <time>2022-04-24T10:55:24.000Z</time>
      </trkpt>
      <trkpt lat="45.56996" lon="4.60614">
        <ele>428.39999389648</ele>
        <time>2022-04-24T10:55:30.000Z</time>
      </trkpt>
      <trkpt lat="45.56993" lon="4.60595">
        <ele>429.20001220703</ele>
        <time>2022-04-24T10:55:36.000Z</time>
      </trkpt>
      <trkpt lat="45.56988" lon="4.60574">
        <ele>430.60000610352</ele>
        <time>2022-04-24T10:55:41.000Z</time>
      </trkpt>
      <trkpt lat="45.56989" lon="4.60551">
        <ele>431.39999389648</ele>
        <time>2022-04-24T10:55:46.000Z</time>
      </trkpt>
      <trkpt lat="45.56992" lon="4.60528">
        <ele>431.60000610352</ele>
        <time>2022-04-24T10:55:51.000Z</time>
      </trkpt>
      <trkpt lat="45.56997" lon="4.60508">
        <ele>431.20001220703</ele>
        <time>2022-04-24T10:55:56.000Z</time>
      </trkpt>
      <trkpt lat="45.57001" lon="4.60489">
        <ele>430.79998779297</ele>
        <time>2022-04-24T10:56:01.000Z</time>
      </trkpt>
      <trkpt lat="45.57001" lon="4.60465">
        <ele>430.39999389648</ele>
        <time>2022-04-24T10:56:06.000Z</time>
      </trkpt>
      <trkpt lat="45.56999" lon="4.60448">
        <ele>429.60000610352</ele>
        <time>2022-04-24T10:56:08.000Z</time>
      </trkpt>
      <trkpt lat="45.56994" lon="4.60426">
        <ele>426.79998779297</ele>
        <time>2022-04-24T10:56:10.000Z</time>
      </trkpt>
      <trkpt lat="45.56987" lon="4.60412">
        <ele>426.20001220703</ele>
        <time>2022-04-24T10:56:12.000Z</time>
      </trkpt>
      <trkpt lat="45.56971" lon="4.6039">
        <ele>426.39999389648</ele>
        <time>2022-04-24T10:56:15.000Z</time>
      </trkpt>
      <trkpt lat="45.56951" lon="4.60365">
        <ele>426.39999389648</ele>
        <time>2022-04-24T10:56:19.000Z</time>
      </trkpt>
      <trkpt lat="45.56945" lon="4.60359">
        <ele>426</ele>
        <time>2022-04-24T10:56:20.000Z</time>
      </trkpt>
      <trkpt lat="45.56932" lon="4.60342">
        <ele>423.39999389648</ele>
        <time>2022-04-24T10:56:23.000Z</time>
      </trkpt>
      <trkpt lat="45.56916" lon="4.60327">
        <ele>421.20001220703</ele>
        <time>2022-04-24T10:56:26.000Z</time>
      </trkpt>
      <trkpt lat="45.56893" lon="4.60313">
        <ele>419.79998779297</ele>
        <time>2022-04-24T10:56:30.000Z</time>
      </trkpt>
      <trkpt lat="45.56864" lon="4.603">
        <ele>421.20001220703</ele>
        <time>2022-04-24T10:56:35.000Z</time>
      </trkpt>
      <trkpt lat="45.56853" lon="4.60295">
        <ele>422.79998779297</ele>
        <time>2022-04-24T10:56:37.000Z</time>
      </trkpt>
      <trkpt lat="45.56845" lon="4.60292">
        <ele>424</ele>
        <time>2022-04-24T10:56:39.000Z</time>
      </trkpt>
      <trkpt lat="45.56834" lon="4.60288">
        <ele>425.39999389648</ele>
        <time>2022-04-24T10:56:41.000Z</time>
      </trkpt>
      <trkpt lat="45.56825" lon="4.60283">
        <ele>427.20001220703</ele>
        <time>2022-04-24T10:56:43.000Z</time>
      </trkpt>
      <trkpt lat="45.56818" lon="4.60278">
        <ele>428.60000610352</ele>
        <time>2022-04-24T10:56:45.000Z</time>
      </trkpt>
      <trkpt lat="45.56814" lon="4.60274">
        <ele>428.79998779297</ele>
        <time>2022-04-24T10:56:46.000Z</time>
      </trkpt>
      <trkpt lat="45.56806" lon="4.60263">
        <ele>429</ele>
        <time>2022-04-24T10:56:48.000Z</time>
      </trkpt>
      <trkpt lat="45.56803" lon="4.60258">
        <ele>428.79998779297</ele>
        <time>2022-04-24T10:56:49.000Z</time>
      </trkpt>
      <trkpt lat="45.56799" lon="4.60251">
        <ele>428.20001220703</ele>
        <time>2022-04-24T10:56:50.000Z</time>
      </trkpt>
      <trkpt lat="45.56793" lon="4.60231">
        <ele>426.39999389648</ele>
        <time>2022-04-24T10:56:53.000Z</time>
      </trkpt>
      <trkpt lat="45.56786" lon="4.60213">
        <ele>425.60000610352</ele>
        <time>2022-04-24T10:56:56.000Z</time>
      </trkpt>
      <trkpt lat="45.56779" lon="4.60203">
        <ele>425.79998779297</ele>
        <time>2022-04-24T10:56:58.000Z</time>
      </trkpt>
      <trkpt lat="45.56765" lon="4.60197">
        <ele>427.79998779297</ele>
        <time>2022-04-24T10:57:01.000Z</time>
      </trkpt>
      <trkpt lat="45.56759" lon="4.60197">
        <ele>428.60000610352</ele>
        <time>2022-04-24T10:57:02.000Z</time>
      </trkpt>
      <trkpt lat="45.5675" lon="4.60197">
        <ele>430.39999389648</ele>
        <time>2022-04-24T10:57:04.000Z</time>
      </trkpt>
      <trkpt lat="45.56741" lon="4.60198">
        <ele>433</ele>
        <time>2022-04-24T10:57:06.000Z</time>
      </trkpt>
      <trkpt lat="45.5674" lon="4.60168">
        <ele>432.79998779297</ele>
        <time>2022-04-24T10:57:08.000Z</time>
      </trkpt>
      <trkpt lat="45.5674" lon="4.60165">
        <ele>433</ele>
        <time>2022-04-24T10:57:09.000Z</time>
      </trkpt>
      <trkpt lat="45.56738" lon="4.60162">
        <ele>433.79998779297</ele>
        <time>2022-04-24T10:57:10.000Z</time>
      </trkpt>
      <trkpt lat="45.56733" lon="4.60154">
        <ele>435.60000610352</ele>
        <time>2022-04-24T10:57:12.000Z</time>
      </trkpt>
      <trkpt lat="45.56736" lon="4.60145">
        <ele>434.39999389648</ele>
        <time>2022-04-24T10:57:14.000Z</time>
      </trkpt>
      <trkpt lat="45.56737" lon="4.60141">
        <ele>433.79998779297</ele>
        <time>2022-04-24T10:57:15.000Z</time>
      </trkpt>
      <trkpt lat="45.5674" lon="4.6012">
        <ele>431</ele>
        <time>2022-04-24T10:57:19.000Z</time>
      </trkpt>
      <trkpt lat="45.56739" lon="4.60105">
        <ele>430.20001220703</ele>
        <time>2022-04-24T10:57:21.000Z</time>
      </trkpt>
      <trkpt lat="45.56737" lon="4.60089">
        <ele>430.79998779297</ele>
        <time>2022-04-24T10:57:23.000Z</time>
      </trkpt>
      <trkpt lat="45.56734" lon="4.60074">
        <ele>430.79998779297</ele>
        <time>2022-04-24T10:57:25.000Z</time>
      </trkpt>
      <trkpt lat="45.56728" lon="4.60055">
        <ele>431.79998779297</ele>
        <time>2022-04-24T10:57:28.000Z</time>
      </trkpt>
      <trkpt lat="45.56714" lon="4.60041">
        <ele>433.79998779297</ele>
        <time>2022-04-24T10:57:31.000Z</time>
      </trkpt>
      <trkpt lat="45.5671" lon="4.60034">
        <ele>434</ele>
        <time>2022-04-24T10:57:32.000Z</time>
      </trkpt>
      <trkpt lat="45.56701" lon="4.60017">
        <ele>435.20001220703</ele>
        <time>2022-04-24T10:57:34.000Z</time>
      </trkpt>
      <trkpt lat="45.56703" lon="4.60007">
        <ele>434.20001220703</ele>
        <time>2022-04-24T10:57:36.000Z</time>
      </trkpt>
      <trkpt lat="45.56702" lon="4.59986">
        <ele>433.79998779297</ele>
        <time>2022-04-24T10:57:40.000Z</time>
      </trkpt>
      <trkpt lat="45.56695" lon="4.59962">
        <ele>435.39999389648</ele>
        <time>2022-04-24T10:57:45.000Z</time>
      </trkpt>
      <trkpt lat="45.5669" lon="4.59953">
        <ele>437.60000610352</ele>
        <time>2022-04-24T10:57:47.000Z</time>
      </trkpt>
      <trkpt lat="45.56688" lon="4.59948">
        <ele>438.39999389648</ele>
        <time>2022-04-24T10:57:48.000Z</time>
      </trkpt>
      <trkpt lat="45.56684" lon="4.59938">
        <ele>439.79998779297</ele>
        <time>2022-04-24T10:57:50.000Z</time>
      </trkpt>
      <trkpt lat="45.5668" lon="4.59926">
        <ele>441.20001220703</ele>
        <time>2022-04-24T10:57:52.000Z</time>
      </trkpt>
      <trkpt lat="45.5668" lon="4.5992">
        <ele>441</ele>
        <time>2022-04-24T10:57:53.000Z</time>
      </trkpt>
      <trkpt lat="45.56678" lon="4.59909">
        <ele>442</ele>
        <time>2022-04-24T10:57:55.000Z</time>
      </trkpt>
      <trkpt lat="45.56676" lon="4.5989">
        <ele>442.79998779297</ele>
        <time>2022-04-24T10:57:58.000Z</time>
      </trkpt>
      <trkpt lat="45.56677" lon="4.59883">
        <ele>441.79998779297</ele>
        <time>2022-04-24T10:57:59.000Z</time>
      </trkpt>
      <trkpt lat="45.56674" lon="4.59876">
        <ele>442.39999389648</ele>
        <time>2022-04-24T10:58:00.000Z</time>
      </trkpt>
      <trkpt lat="45.56672" lon="4.59858">
        <ele>442.20001220703</ele>
        <time>2022-04-24T10:58:02.000Z</time>
      </trkpt>
      <trkpt lat="45.56674" lon="4.59837">
        <ele>440.60000610352</ele>
        <time>2022-04-24T10:58:06.000Z</time>
      </trkpt>
      <trkpt lat="45.56681" lon="4.59838">
        <ele>438.39999389648</ele>
        <time>2022-04-24T10:58:08.000Z</time>
      </trkpt>
      <trkpt lat="45.56684" lon="4.5984">
        <ele>437.60000610352</ele>
        <time>2022-04-24T10:58:09.000Z</time>
      </trkpt>
      <trkpt lat="45.56696" lon="4.59859">
        <ele>434</ele>
        <time>2022-04-24T10:58:14.000Z</time>
      </trkpt>
      <trkpt lat="45.5671" lon="4.59873">
        <ele>432</ele>
        <time>2022-04-24T10:58:18.000Z</time>
      </trkpt>
      <trkpt lat="45.56717" lon="4.59883">
        <ele>430.39999389648</ele>
        <time>2022-04-24T10:58:21.000Z</time>
      </trkpt>
      <trkpt lat="45.56726" lon="4.59901">
        <ele>428.79998779297</ele>
        <time>2022-04-24T10:58:27.000Z</time>
      </trkpt>
      <trkpt lat="45.56741" lon="4.59911">
        <ele>428.79998779297</ele>
        <time>2022-04-24T10:58:32.000Z</time>
      </trkpt>
      <trkpt lat="45.56756" lon="4.59921">
        <ele>429.60000610352</ele>
        <time>2022-04-24T10:58:38.000Z</time>
      </trkpt>
      <trkpt lat="45.56767" lon="4.59934">
        <ele>430</ele>
        <time>2022-04-24T10:58:43.000Z</time>
      </trkpt>
      <trkpt lat="45.56778" lon="4.59947">
        <ele>430.79998779297</ele>
        <time>2022-04-24T10:58:48.000Z</time>
      </trkpt>
      <trkpt lat="45.56783" lon="4.59951">
        <ele>431</ele>
        <time>2022-04-24T10:58:50.000Z</time>
      </trkpt>
      <trkpt lat="45.56789" lon="4.59955">
        <ele>431.20001220703</ele>
        <time>2022-04-24T10:58:52.000Z</time>
      </trkpt>
      <trkpt lat="45.568" lon="4.59965">
        <ele>431.39999389648</ele>
        <time>2022-04-24T10:58:57.000Z</time>
      </trkpt>
      <trkpt lat="45.56812" lon="4.59975">
        <ele>431.20001220703</ele>
        <time>2022-04-24T10:59:02.000Z</time>
      </trkpt>
      <trkpt lat="45.56824" lon="4.59983">
        <ele>430.39999389648</ele>
        <time>2022-04-24T10:59:07.000Z</time>
      </trkpt>
      <trkpt lat="45.56831" lon="4.59991">
        <ele>429.60000610352</ele>
        <time>2022-04-24T10:59:11.000Z</time>
      </trkpt>
      <trkpt lat="45.56841" lon="4.59996">
        <ele>429.39999389648</ele>
        <time>2022-04-24T10:59:15.000Z</time>
      </trkpt>
      <trkpt lat="45.56858" lon="4.59993">
        <ele>430.79998779297</ele>
        <time>2022-04-24T10:59:21.000Z</time>
      </trkpt>
      <trkpt lat="45.56868" lon="4.59984">
        <ele>431.60000610352</ele>
        <time>2022-04-24T10:59:26.000Z</time>
      </trkpt>
      <trkpt lat="45.56883" lon="4.59964">
        <ele>431.60000610352</ele>
        <time>2022-04-24T10:59:33.000Z</time>
      </trkpt>
      <trkpt lat="45.56893" lon="4.59941">
        <ele>432.39999389648</ele>
        <time>2022-04-24T10:59:40.000Z</time>
      </trkpt>
      <trkpt lat="45.56904" lon="4.59915">
        <ele>433.60000610352</ele>
        <time>2022-04-24T10:59:47.000Z</time>
      </trkpt>
      <trkpt lat="45.56908" lon="4.59906">
        <ele>434</ele>
        <time>2022-04-24T10:59:50.000Z</time>
      </trkpt>
      <trkpt lat="45.56909" lon="4.59903">
        <ele>434</ele>
        <time>2022-04-24T10:59:51.000Z</time>
      </trkpt>
      <trkpt lat="45.56909" lon="4.599">
        <ele>434</ele>
        <time>2022-04-24T10:59:52.000Z</time>
      </trkpt>
      <trkpt lat="45.56914" lon="4.5989">
        <ele>434</ele>
        <time>2022-04-24T10:59:55.000Z</time>
      </trkpt>
      <trkpt lat="45.56918" lon="4.59882">
        <ele>434.20001220703</ele>
        <time>2022-04-24T10:59:59.000Z</time>
      </trkpt>
      <trkpt lat="45.56921" lon="4.59879">
        <ele>434.20001220703</ele>
        <time>2022-04-24T11:00:03.000Z</time>
      </trkpt>
      <trkpt lat="45.56921" lon="4.59879">
        <ele>434.20001220703</ele>
        <time>2022-04-24T11:02:37.000Z</time>
      </trkpt>
      <trkpt lat="45.56922" lon="4.59876">
        <ele>434.39999389648</ele>
        <time>2022-04-24T11:02:38.000Z</time>
      </trkpt>
      <trkpt lat="45.56926" lon="4.59866">
        <ele>434.60000610352</ele>
        <time>2022-04-24T11:02:41.000Z</time>
      </trkpt>
      <trkpt lat="45.56936" lon="4.59839">
        <ele>435</ele>
        <time>2022-04-24T11:02:47.000Z</time>
      </trkpt>
      <trkpt lat="45.56949" lon="4.59802">
        <ele>435.39999389648</ele>
        <time>2022-04-24T11:02:55.000Z</time>
      </trkpt>
      <trkpt lat="45.5696" lon="4.59767">
        <ele>434.20001220703</ele>
        <time>2022-04-24T11:03:02.000Z</time>
      </trkpt>
      <trkpt lat="45.56973" lon="4.59726">
        <ele>434.20001220703</ele>
        <time>2022-04-24T11:03:10.000Z</time>
      </trkpt>
      <trkpt lat="45.56976" lon="4.59715">
        <ele>434.39999389648</ele>
        <time>2022-04-24T11:03:12.000Z</time>
      </trkpt>
      <trkpt lat="45.56983" lon="4.59692">
        <ele>434.60000610352</ele>
        <time>2022-04-24T11:03:16.000Z</time>
      </trkpt>
      <trkpt lat="45.56998" lon="4.59643">
        <ele>431.60000610352</ele>
        <time>2022-04-24T11:03:24.000Z</time>
      </trkpt>
      <trkpt lat="45.57" lon="4.59637">
        <ele>431.20001220703</ele>
        <time>2022-04-24T11:03:25.000Z</time>
      </trkpt>
      <trkpt lat="45.57005" lon="4.5962">
        <ele>430.60000610352</ele>
        <time>2022-04-24T11:03:28.000Z</time>
      </trkpt>
      <trkpt lat="45.57013" lon="4.59591">
        <ele>430.39999389648</ele>
        <time>2022-04-24T11:03:33.000Z</time>
      </trkpt>
      <trkpt lat="45.57014" lon="4.59585">
        <ele>430.79998779297</ele>
        <time>2022-04-24T11:03:34.000Z</time>
      </trkpt>
      <trkpt lat="45.57028" lon="4.59529">
        <ele>432.20001220703</ele>
        <time>2022-04-24T11:03:42.000Z</time>
      </trkpt>
      <trkpt lat="45.57039" lon="4.59482">
        <ele>433.60000610352</ele>
        <time>2022-04-24T11:03:49.000Z</time>
      </trkpt>
      <trkpt lat="45.57048" lon="4.5944">
        <ele>433.39999389648</ele>
        <time>2022-04-24T11:03:55.000Z</time>
      </trkpt>
      <trkpt lat="45.5705" lon="4.59432">
        <ele>433.39999389648</ele>
        <time>2022-04-24T11:03:56.000Z</time>
      </trkpt>
      <trkpt lat="45.57051" lon="4.59409">
        <ele>433.60000610352</ele>
        <time>2022-04-24T11:03:59.000Z</time>
      </trkpt>
      <trkpt lat="45.57053" lon="4.59378">
        <ele>432.39999389648</ele>
        <time>2022-04-24T11:04:03.000Z</time>
      </trkpt>
      <trkpt lat="45.57056" lon="4.59341">
        <ele>431.39999389648</ele>
        <time>2022-04-24T11:04:08.000Z</time>
      </trkpt>
      <trkpt lat="45.57061" lon="4.59328">
        <ele>430.39999389648</ele>
        <time>2022-04-24T11:04:10.000Z</time>
      </trkpt>
      <trkpt lat="45.57067" lon="4.59316">
        <ele>429.39999389648</ele>
        <time>2022-04-24T11:04:12.000Z</time>
      </trkpt>
      <trkpt lat="45.57076" lon="4.59297">
        <ele>428.20001220703</ele>
        <time>2022-04-24T11:04:15.000Z</time>
      </trkpt>
      <trkpt lat="45.57088" lon="4.5925">
        <ele>430.39999389648</ele>
        <time>2022-04-24T11:04:22.000Z</time>
      </trkpt>
      <trkpt lat="45.57089" lon="4.59244">
        <ele>430.79998779297</ele>
        <time>2022-04-24T11:04:23.000Z</time>
      </trkpt>
      <trkpt lat="45.57092" lon="4.59229">
        <ele>431.60000610352</ele>
        <time>2022-04-24T11:04:26.000Z</time>
      </trkpt>
      <trkpt lat="45.57092" lon="4.59224">
        <ele>431.79998779297</ele>
        <time>2022-04-24T11:04:29.000Z</time>
      </trkpt>
      <trkpt lat="45.57092" lon="4.59224">
        <ele>431.79998779297</ele>
        <time>2022-04-24T11:04:30.000Z</time>
      </trkpt>
      <trkpt lat="45.57092" lon="4.59224">
        <ele>431.79998779297</ele>
        <time>2022-04-24T11:04:31.000Z</time>
      </trkpt>
      <trkpt lat="45.57092" lon="4.59224">
        <ele>431.79998779297</ele>
        <time>2022-04-24T11:04:33.000Z</time>
      </trkpt>
      <trkpt lat="45.5711" lon="4.59173">
        <ele>432.39999389648</ele>
        <time>2022-04-24T11:04:35.000Z</time>
      </trkpt>
      <trkpt lat="45.57115" lon="4.59161">
        <ele>431.60000610352</ele>
        <time>2022-04-24T11:04:36.000Z</time>
      </trkpt>
      <trkpt lat="45.57122" lon="4.59136">
        <ele>429.20001220703</ele>
        <time>2022-04-24T11:04:38.000Z</time>
      </trkpt>
      <trkpt lat="45.57125" lon="4.59111">
        <ele>427.20001220703</ele>
        <time>2022-04-24T11:04:40.000Z</time>
      </trkpt>
      <trkpt lat="45.57125" lon="4.59075">
        <ele>428</ele>
        <time>2022-04-24T11:04:43.000Z</time>
      </trkpt>
      <trkpt lat="45.57124" lon="4.59062">
        <ele>428.39999389648</ele>
        <time>2022-04-24T11:04:44.000Z</time>
      </trkpt>
      <trkpt lat="45.57123" lon="4.59031">
        <ele>426.79998779297</ele>
        <time>2022-04-24T11:04:47.000Z</time>
      </trkpt>
      <trkpt lat="45.57123" lon="4.59025">
        <ele>426.20001220703</ele>
        <time>2022-04-24T11:04:48.000Z</time>
      </trkpt>
      <trkpt lat="45.57124" lon="4.59002">
        <ele>423.20001220703</ele>
        <time>2022-04-24T11:04:53.000Z</time>
      </trkpt>
      <trkpt lat="45.5713" lon="4.58994">
        <ele>420.79998779297</ele>
        <time>2022-04-24T11:04:56.000Z</time>
      </trkpt>
      <trkpt lat="45.57132" lon="4.58993">
        <ele>420.20001220703</ele>
        <time>2022-04-24T11:04:57.000Z</time>
      </trkpt>
      <trkpt lat="45.57144" lon="4.58992">
        <ele>418.79998779297</ele>
        <time>2022-04-24T11:05:01.000Z</time>
      </trkpt>
      <trkpt lat="45.57152" lon="4.59004">
        <ele>419.39999389648</ele>
        <time>2022-04-24T11:05:05.000Z</time>
      </trkpt>
      <trkpt lat="45.57163" lon="4.59016">
        <ele>420.20001220703</ele>
        <time>2022-04-24T11:05:10.000Z</time>
      </trkpt>
      <trkpt lat="45.57171" lon="4.59028">
        <ele>421.20001220703</ele>
        <time>2022-04-24T11:05:14.000Z</time>
      </trkpt>
      <trkpt lat="45.57177" lon="4.59043">
        <ele>421.39999389648</ele>
        <time>2022-04-24T11:05:18.000Z</time>
      </trkpt>
      <trkpt lat="45.5718" lon="4.59058">
        <ele>421.20001220703</ele>
        <time>2022-04-24T11:05:21.000Z</time>
      </trkpt>
      <trkpt lat="45.57186" lon="4.59074">
        <ele>420.79998779297</ele>
        <time>2022-04-24T11:05:24.000Z</time>
      </trkpt>
      <trkpt lat="45.57196" lon="4.59094">
        <ele>420.39999389648</ele>
        <time>2022-04-24T11:05:29.000Z</time>
      </trkpt>
      <trkpt lat="45.57201" lon="4.59107">
        <ele>420.60000610352</ele>
        <time>2022-04-24T11:05:33.000Z</time>
      </trkpt>
      <trkpt lat="45.57204" lon="4.59127">
        <ele>420.20001220703</ele>
        <time>2022-04-24T11:05:37.000Z</time>
      </trkpt>
      <trkpt lat="45.57207" lon="4.59143">
        <ele>420.20001220703</ele>
        <time>2022-04-24T11:05:41.000Z</time>
      </trkpt>
      <trkpt lat="45.57209" lon="4.59146">
        <ele>420.20001220703</ele>
        <time>2022-04-24T11:05:42.000Z</time>
      </trkpt>
      <trkpt lat="45.5721" lon="4.59153">
        <ele>420.60000610352</ele>
        <time>2022-04-24T11:05:44.000Z</time>
      </trkpt>
      <trkpt lat="45.57212" lon="4.59159">
        <ele>421</ele>
        <time>2022-04-24T11:05:46.000Z</time>
      </trkpt>
      <trkpt lat="45.57214" lon="4.59167">
        <ele>421.60000610352</ele>
        <time>2022-04-24T11:05:48.000Z</time>
      </trkpt>
      <trkpt lat="45.57221" lon="4.59181">
        <ele>423</ele>
        <time>2022-04-24T11:05:54.000Z</time>
      </trkpt>
      <trkpt lat="45.57222" lon="4.59183">
        <ele>423.39999389648</ele>
        <time>2022-04-24T11:05:55.000Z</time>
      </trkpt>
      <trkpt lat="45.57224" lon="4.59188">
        <ele>424</ele>
        <time>2022-04-24T11:05:57.000Z</time>
      </trkpt>
      <trkpt lat="45.57225" lon="4.5919">
        <ele>424.20001220703</ele>
        <time>2022-04-24T11:05:58.000Z</time>
      </trkpt>
      <trkpt lat="45.57232" lon="4.59201">
        <ele>425.20001220703</ele>
        <time>2022-04-24T11:06:03.000Z</time>
      </trkpt>
      <trkpt lat="45.57235" lon="4.59206">
        <ele>425.60000610352</ele>
        <time>2022-04-24T11:06:05.000Z</time>
      </trkpt>
      <trkpt lat="45.57238" lon="4.5921">
        <ele>426</ele>
        <time>2022-04-24T11:06:07.000Z</time>
      </trkpt>
      <trkpt lat="45.57245" lon="4.59225">
        <ele>427</ele>
        <time>2022-04-24T11:06:12.000Z</time>
      </trkpt>
      <trkpt lat="45.57245" lon="4.59234">
        <ele>427</ele>
        <time>2022-04-24T11:06:14.000Z</time>
      </trkpt>
      <trkpt lat="45.57245" lon="4.59239">
        <ele>427</ele>
        <time>2022-04-24T11:06:15.000Z</time>
      </trkpt>
      <trkpt lat="45.57245" lon="4.59241">
        <ele>427</ele>
        <time>2022-04-24T11:06:16.000Z</time>
      </trkpt>
      <trkpt lat="45.57241" lon="4.59243">
        <ele>426.39999389648</ele>
        <time>2022-04-24T11:06:18.000Z</time>
      </trkpt>
      <trkpt lat="45.57239" lon="4.59244">
        <ele>426</ele>
        <time>2022-04-24T11:06:19.000Z</time>
      </trkpt>
      <trkpt lat="45.57235" lon="4.59246">
        <ele>425.60000610352</ele>
        <time>2022-04-24T11:06:21.000Z</time>
      </trkpt>
      <trkpt lat="45.57225" lon="4.5925">
        <ele>424</ele>
        <time>2022-04-24T11:06:26.000Z</time>
      </trkpt>
      <trkpt lat="45.57217" lon="4.59254">
        <ele>422.60000610352</ele>
        <time>2022-04-24T11:06:32.000Z</time>
      </trkpt>
      <trkpt lat="45.57215" lon="4.59256">
        <ele>422.39999389648</ele>
        <time>2022-04-24T11:06:33.000Z</time>
      </trkpt>
      <trkpt lat="45.57215" lon="4.59257">
        <ele>422.20001220703</ele>
        <time>2022-04-24T11:06:35.000Z</time>
      </trkpt>
      <trkpt lat="45.57215" lon="4.59259">
        <ele>422.20001220703</ele>
        <time>2022-04-24T11:06:36.000Z</time>
      </trkpt>
      <trkpt lat="45.57217" lon="4.59271">
        <ele>422.60000610352</ele>
        <time>2022-04-24T11:06:41.000Z</time>
      </trkpt>
      <trkpt lat="45.5722" lon="4.59284">
        <ele>423.39999389648</ele>
        <time>2022-04-24T11:06:46.000Z</time>
      </trkpt>
      <trkpt lat="45.57225" lon="4.59302">
        <ele>424.20001220703</ele>
        <time>2022-04-24T11:06:52.000Z</time>
      </trkpt>
      <trkpt lat="45.57229" lon="4.59317">
        <ele>424.79998779297</ele>
        <time>2022-04-24T11:06:57.000Z</time>
      </trkpt>
      <trkpt lat="45.57236" lon="4.59342">
        <ele>426.39999389648</ele>
        <time>2022-04-24T11:07:06.000Z</time>
      </trkpt>
      <trkpt lat="45.57242" lon="4.59363">
        <ele>427.39999389648</ele>
        <time>2022-04-24T11:07:13.000Z</time>
      </trkpt>
      <trkpt lat="45.57245" lon="4.59388">
        <ele>428.79998779297</ele>
        <time>2022-04-24T11:07:20.000Z</time>
      </trkpt>
      <trkpt lat="45.57246" lon="4.59422">
        <ele>429</ele>
        <time>2022-04-24T11:07:27.000Z</time>
      </trkpt>
      <trkpt lat="45.57245" lon="4.59452">
        <ele>428.79998779297</ele>
        <time>2022-04-24T11:07:33.000Z</time>
      </trkpt>
      <trkpt lat="45.57242" lon="4.5948">
        <ele>428.79998779297</ele>
        <time>2022-04-24T11:07:39.000Z</time>
      </trkpt>
      <trkpt lat="45.57239" lon="4.59504">
        <ele>428.60000610352</ele>
        <time>2022-04-24T11:07:44.000Z</time>
      </trkpt>
      <trkpt lat="45.57237" lon="4.5954">
        <ele>427</ele>
        <time>2022-04-24T11:07:50.000Z</time>
      </trkpt>
      <trkpt lat="45.57237" lon="4.59552">
        <ele>427.20001220703</ele>
        <time>2022-04-24T11:07:52.000Z</time>
      </trkpt>
      <trkpt lat="45.57239" lon="4.59567">
        <ele>427.60000610352</ele>
        <time>2022-04-24T11:07:54.000Z</time>
      </trkpt>
      <trkpt lat="45.5724" lon="4.59574">
        <ele>427.60000610352</ele>
        <time>2022-04-24T11:07:55.000Z</time>
      </trkpt>
      <trkpt lat="45.57244" lon="4.59603">
        <ele>427</ele>
        <time>2022-04-24T11:07:59.000Z</time>
      </trkpt>
      <trkpt lat="45.57248" lon="4.59624">
        <ele>427</ele>
        <time>2022-04-24T11:08:02.000Z</time>
      </trkpt>
      <trkpt lat="45.57249" lon="4.59631">
        <ele>426.79998779297</ele>
        <time>2022-04-24T11:08:03.000Z</time>
      </trkpt>
      <trkpt lat="45.57256" lon="4.59665">
        <ele>427.20001220703</ele>
        <time>2022-04-24T11:08:07.000Z</time>
      </trkpt>
      <trkpt lat="45.57254" lon="4.59684">
        <ele>427</ele>
        <time>2022-04-24T11:08:09.000Z</time>
      </trkpt>
      <trkpt lat="45.57237" lon="4.59701">
        <ele>424</ele>
        <time>2022-04-24T11:08:12.000Z</time>
      </trkpt>
      <trkpt lat="45.57228" lon="4.59712">
        <ele>422.39999389648</ele>
        <time>2022-04-24T11:08:14.000Z</time>
      </trkpt>
      <trkpt lat="45.57226" lon="4.59719">
        <ele>422.20001220703</ele>
        <time>2022-04-24T11:08:15.000Z</time>
      </trkpt>
      <trkpt lat="45.57227" lon="4.59727">
        <ele>422.79998779297</ele>
        <time>2022-04-24T11:08:16.000Z</time>
      </trkpt>
      <trkpt lat="45.5723" lon="4.5974">
        <ele>424</ele>
        <time>2022-04-24T11:08:18.000Z</time>
      </trkpt>
      <trkpt lat="45.57232" lon="4.59765">
        <ele>426</ele>
        <time>2022-04-24T11:08:23.000Z</time>
      </trkpt>
      <trkpt lat="45.57233" lon="4.59783">
        <ele>427.39999389648</ele>
        <time>2022-04-24T11:08:27.000Z</time>
      </trkpt>
      <trkpt lat="45.57234" lon="4.59792">
        <ele>428.20001220703</ele>
        <time>2022-04-24T11:08:29.000Z</time>
      </trkpt>
      <trkpt lat="45.57235" lon="4.59823">
        <ele>430.20001220703</ele>
        <time>2022-04-24T11:08:36.000Z</time>
      </trkpt>
      <trkpt lat="45.57235" lon="4.59827">
        <ele>430.60000610352</ele>
        <time>2022-04-24T11:08:37.000Z</time>
      </trkpt>
      <trkpt lat="45.57235" lon="4.59853">
        <ele>431.79998779297</ele>
        <time>2022-04-24T11:08:43.000Z</time>
      </trkpt>
      <trkpt lat="45.57235" lon="4.59858">
        <ele>432.20001220703</ele>
        <time>2022-04-24T11:08:44.000Z</time>
      </trkpt>
      <trkpt lat="45.57236" lon="4.59884">
        <ele>434.39999389648</ele>
        <time>2022-04-24T11:08:50.000Z</time>
      </trkpt>
      <trkpt lat="45.57236" lon="4.59892">
        <ele>435.20001220703</ele>
        <time>2022-04-24T11:08:52.000Z</time>
      </trkpt>
      <trkpt lat="45.57237" lon="4.59916">
        <ele>438</ele>
        <time>2022-04-24T11:08:59.000Z</time>
      </trkpt>
      <trkpt lat="45.5724" lon="4.59925">
        <ele>439.39999389648</ele>
        <time>2022-04-24T11:09:02.000Z</time>
      </trkpt>
      <trkpt lat="45.57243" lon="4.59926">
        <ele>439.79998779297</ele>
        <time>2022-04-24T11:09:03.000Z</time>
      </trkpt>
      <trkpt lat="45.57255" lon="4.59928">
        <ele>441</ele>
        <time>2022-04-24T11:09:08.000Z</time>
      </trkpt>
      <trkpt lat="45.57269" lon="4.59935">
        <ele>442.39999389648</ele>
        <time>2022-04-24T11:09:13.000Z</time>
      </trkpt>
      <trkpt lat="45.57275" lon="4.59957">
        <ele>443.79998779297</ele>
        <time>2022-04-24T11:09:19.000Z</time>
      </trkpt>
      <trkpt lat="45.57284" lon="4.59983">
        <ele>443.39999389648</ele>
        <time>2022-04-24T11:09:25.000Z</time>
      </trkpt>
      <trkpt lat="45.57301" lon="4.59989">
        <ele>443</ele>
        <time>2022-04-24T11:09:30.000Z</time>
      </trkpt>
      <trkpt lat="45.57316" lon="4.59993">
        <ele>442.39999389648</ele>
        <time>2022-04-24T11:09:34.000Z</time>
      </trkpt>
      <trkpt lat="45.57325" lon="4.59995">
        <ele>442</ele>
        <time>2022-04-24T11:09:36.000Z</time>
      </trkpt>
      <trkpt lat="45.57356" lon="4.60004">
        <ele>441</ele>
        <time>2022-04-24T11:09:43.000Z</time>
      </trkpt>
      <trkpt lat="45.57361" lon="4.60005">
        <ele>440.79998779297</ele>
        <time>2022-04-24T11:09:44.000Z</time>
      </trkpt>
      <trkpt lat="45.574" lon="4.60019">
        <ele>441.79998779297</ele>
        <time>2022-04-24T11:09:52.000Z</time>
      </trkpt>
      <trkpt lat="45.57409" lon="4.60022">
        <ele>442.20001220703</ele>
        <time>2022-04-24T11:09:54.000Z</time>
      </trkpt>
      <trkpt lat="45.57447" lon="4.60042">
        <ele>441.79998779297</ele>
        <time>2022-04-24T11:10:02.000Z</time>
      </trkpt>
      <trkpt lat="45.5747" lon="4.60055">
        <ele>442</ele>
        <time>2022-04-24T11:10:07.000Z</time>
      </trkpt>
      <trkpt lat="45.57478" lon="4.6006">
        <ele>442.60000610352</ele>
        <time>2022-04-24T11:10:09.000Z</time>
      </trkpt>
      <trkpt lat="45.57504" lon="4.60082">
        <ele>445.39999389648</ele>
        <time>2022-04-24T11:10:17.000Z</time>
      </trkpt>
      <trkpt lat="45.57522" lon="4.60104">
        <ele>446.39999389648</ele>
        <time>2022-04-24T11:10:25.000Z</time>
      </trkpt>
      <trkpt lat="45.57538" lon="4.60125">
        <ele>446.39999389648</ele>
        <time>2022-04-24T11:10:32.000Z</time>
      </trkpt>
      <trkpt lat="45.57548" lon="4.60138">
        <ele>446</ele>
        <time>2022-04-24T11:10:37.000Z</time>
      </trkpt>
      <trkpt lat="45.57544" lon="4.6015">
        <ele>444.79998779297</ele>
        <time>2022-04-24T11:10:39.000Z</time>
      </trkpt>
      <trkpt lat="45.5754" lon="4.60154">
        <ele>444.60000610352</ele>
        <time>2022-04-24T11:10:40.000Z</time>
      </trkpt>
      <trkpt lat="45.57521" lon="4.60175">
        <ele>442.20001220703</ele>
        <time>2022-04-24T11:10:44.000Z</time>
      </trkpt>
      <trkpt lat="45.57504" lon="4.60194">
        <ele>440.39999389648</ele>
        <time>2022-04-24T11:10:47.000Z</time>
      </trkpt>
      <trkpt lat="45.57495" lon="4.60204">
        <ele>439</ele>
        <time>2022-04-24T11:10:49.000Z</time>
      </trkpt>
      <trkpt lat="45.57491" lon="4.60209">
        <ele>438.39999389648</ele>
        <time>2022-04-24T11:10:50.000Z</time>
      </trkpt>
      <trkpt lat="45.57492" lon="4.60222">
        <ele>437.60000610352</ele>
        <time>2022-04-24T11:10:51.000Z</time>
      </trkpt>
      <trkpt lat="45.57495" lon="4.60228">
        <ele>437.39999389648</ele>
        <time>2022-04-24T11:10:52.000Z</time>
      </trkpt>
      <trkpt lat="45.57501" lon="4.60238">
        <ele>437</ele>
        <time>2022-04-24T11:10:54.000Z</time>
      </trkpt>
      <trkpt lat="45.57509" lon="4.60253">
        <ele>436.60000610352</ele>
        <time>2022-04-24T11:10:57.000Z</time>
      </trkpt>
      <trkpt lat="45.57519" lon="4.60274">
        <ele>435.79998779297</ele>
        <time>2022-04-24T11:11:01.000Z</time>
      </trkpt>
      <trkpt lat="45.57539" lon="4.60313">
        <ele>435.39999389648</ele>
        <time>2022-04-24T11:11:08.000Z</time>
      </trkpt>
      <trkpt lat="45.57541" lon="4.60318">
        <ele>435.39999389648</ele>
        <time>2022-04-24T11:11:09.000Z</time>
      </trkpt>
      <trkpt lat="45.57548" lon="4.60346">
        <ele>435.39999389648</ele>
        <time>2022-04-24T11:11:13.000Z</time>
      </trkpt>
      <trkpt lat="45.57554" lon="4.60396">
        <ele>433.39999389648</ele>
        <time>2022-04-24T11:11:19.000Z</time>
      </trkpt>
      <trkpt lat="45.57557" lon="4.60446">
        <ele>431</ele>
        <time>2022-04-24T11:11:24.000Z</time>
      </trkpt>
      <trkpt lat="45.57559" lon="4.6049">
        <ele>428</ele>
        <time>2022-04-24T11:11:28.000Z</time>
      </trkpt>
      <trkpt lat="45.57562" lon="4.6054">
        <ele>423.39999389648</ele>
        <time>2022-04-24T11:11:32.000Z</time>
      </trkpt>
      <trkpt lat="45.57566" lon="4.60628">
        <ele>417.20001220703</ele>
        <time>2022-04-24T11:11:38.000Z</time>
      </trkpt>
      <trkpt lat="45.57568" lon="4.60707">
        <ele>410.79998779297</ele>
        <time>2022-04-24T11:11:43.000Z</time>
      </trkpt>
      <trkpt lat="45.57563" lon="4.60753">
        <ele>407.39999389648</ele>
        <time>2022-04-24T11:11:46.000Z</time>
      </trkpt>
      <trkpt lat="45.57557" lon="4.60841">
        <ele>406.79998779297</ele>
        <time>2022-04-24T11:11:52.000Z</time>
      </trkpt>
      <trkpt lat="45.57554" lon="4.60866">
        <ele>405.20001220703</ele>
        <time>2022-04-24T11:11:55.000Z</time>
      </trkpt>
      <trkpt lat="45.57554" lon="4.60883">
        <ele>403.39999389648</ele>
        <time>2022-04-24T11:11:57.000Z</time>
      </trkpt>
      <trkpt lat="45.57553" lon="4.60911">
        <ele>400</ele>
        <time>2022-04-24T11:12:00.000Z</time>
      </trkpt>
      <trkpt lat="45.57552" lon="4.60985">
        <ele>394.60000610352</ele>
        <time>2022-04-24T11:12:07.000Z</time>
      </trkpt>
      <trkpt lat="45.57554" lon="4.61031">
        <ele>390.60000610352</ele>
        <time>2022-04-24T11:12:11.000Z</time>
      </trkpt>
      <trkpt lat="45.57554" lon="4.61043">
        <ele>389.39999389648</ele>
        <time>2022-04-24T11:12:12.000Z</time>
      </trkpt>
      <trkpt lat="45.57553" lon="4.61066">
        <ele>387.39999389648</ele>
        <time>2022-04-24T11:12:14.000Z</time>
      </trkpt>
      <trkpt lat="45.5755" lon="4.61074">
        <ele>386.60000610352</ele>
        <time>2022-04-24T11:12:15.000Z</time>
      </trkpt>
      <trkpt lat="45.57551" lon="4.61081">
        <ele>386.20001220703</ele>
        <time>2022-04-24T11:12:16.000Z</time>
      </trkpt>
      <trkpt lat="45.57553" lon="4.6109">
        <ele>385.60000610352</ele>
        <time>2022-04-24T11:12:18.000Z</time>
      </trkpt>
      <trkpt lat="45.57563" lon="4.61082">
        <ele>386.20001220703</ele>
        <time>2022-04-24T11:12:21.000Z</time>
      </trkpt>
      <trkpt lat="45.57588" lon="4.6107">
        <ele>386.60000610352</ele>
        <time>2022-04-24T11:12:28.000Z</time>
      </trkpt>
      <trkpt lat="45.57619" lon="4.61056">
        <ele>386</ele>
        <time>2022-04-24T11:12:36.000Z</time>
      </trkpt>
      <trkpt lat="45.57635" lon="4.61048">
        <ele>385.79998779297</ele>
        <time>2022-04-24T11:12:40.000Z</time>
      </trkpt>
      <trkpt lat="45.57644" lon="4.61043">
        <ele>386.20001220703</ele>
        <time>2022-04-24T11:12:42.000Z</time>
      </trkpt>
      <trkpt lat="45.57657" lon="4.61031">
        <ele>386.79998779297</ele>
        <time>2022-04-24T11:12:46.000Z</time>
      </trkpt>
      <trkpt lat="45.57669" lon="4.61017">
        <ele>387.60000610352</ele>
        <time>2022-04-24T11:12:50.000Z</time>
      </trkpt>
      <trkpt lat="45.57674" lon="4.6101">
        <ele>387.79998779297</ele>
        <time>2022-04-24T11:12:52.000Z</time>
      </trkpt>
      <trkpt lat="45.57689" lon="4.60993">
        <ele>388.39999389648</ele>
        <time>2022-04-24T11:12:57.000Z</time>
      </trkpt>
      <trkpt lat="45.57705" lon="4.6098">
        <ele>389.39999389648</ele>
        <time>2022-04-24T11:13:02.000Z</time>
      </trkpt>
      <trkpt lat="45.57721" lon="4.60966">
        <ele>391.79998779297</ele>
        <time>2022-04-24T11:13:07.000Z</time>
      </trkpt>
      <trkpt lat="45.57739" lon="4.60949">
        <ele>391.79998779297</ele>
        <time>2022-04-24T11:13:13.000Z</time>
      </trkpt>
      <trkpt lat="45.57746" lon="4.60942">
        <ele>391.20001220703</ele>
        <time>2022-04-24T11:13:15.000Z</time>
      </trkpt>
      <trkpt lat="45.57757" lon="4.60931">
        <ele>390.79998779297</ele>
        <time>2022-04-24T11:13:18.000Z</time>
      </trkpt>
      <trkpt lat="45.57774" lon="4.60914">
        <ele>389.79998779297</ele>
        <time>2022-04-24T11:13:23.000Z</time>
      </trkpt>
      <trkpt lat="45.57777" lon="4.60911">
        <ele>389.79998779297</ele>
        <time>2022-04-24T11:13:24.000Z</time>
      </trkpt>
      <trkpt lat="45.57791" lon="4.60898">
        <ele>390</ele>
        <time>2022-04-24T11:13:28.000Z</time>
      </trkpt>
      <trkpt lat="45.57799" lon="4.60893">
        <ele>390.39999389648</ele>
        <time>2022-04-24T11:13:30.000Z</time>
      </trkpt>
      <trkpt lat="45.57815" lon="4.60881">
        <ele>391.39999389648</ele>
        <time>2022-04-24T11:13:34.000Z</time>
      </trkpt>
      <trkpt lat="45.57818" lon="4.60877">
        <ele>392</ele>
        <time>2022-04-24T11:13:35.000Z</time>
      </trkpt>
      <trkpt lat="45.57834" lon="4.60857">
        <ele>392.20001220703</ele>
        <time>2022-04-24T11:13:40.000Z</time>
      </trkpt>
      <trkpt lat="45.5784" lon="4.60848">
        <ele>392.60000610352</ele>
        <time>2022-04-24T11:13:42.000Z</time>
      </trkpt>
      <trkpt lat="45.57844" lon="4.60838">
        <ele>393.39999389648</ele>
        <time>2022-04-24T11:13:44.000Z</time>
      </trkpt>
      <trkpt lat="45.57846" lon="4.60833">
        <ele>394</ele>
        <time>2022-04-24T11:13:45.000Z</time>
      </trkpt>
      <trkpt lat="45.5785" lon="4.60822">
        <ele>394.79998779297</ele>
        <time>2022-04-24T11:13:47.000Z</time>
      </trkpt>
      <trkpt lat="45.57856" lon="4.6081">
        <ele>396.60000610352</ele>
        <time>2022-04-24T11:13:50.000Z</time>
      </trkpt>
      <trkpt lat="45.57857" lon="4.60805">
        <ele>397.20001220703</ele>
        <time>2022-04-24T11:13:51.000Z</time>
      </trkpt>
      <trkpt lat="45.57861" lon="4.60795">
        <ele>397.79998779297</ele>
        <time>2022-04-24T11:13:53.000Z</time>
      </trkpt>
      <trkpt lat="45.57869" lon="4.60776">
        <ele>398.60000610352</ele>
        <time>2022-04-24T11:13:57.000Z</time>
      </trkpt>
      <trkpt lat="45.57871" lon="4.60771">
        <ele>399</ele>
        <time>2022-04-24T11:13:58.000Z</time>
      </trkpt>
      <trkpt lat="45.57875" lon="4.60762">
        <ele>399.60000610352</ele>
        <time>2022-04-24T11:14:00.000Z</time>
      </trkpt>
      <trkpt lat="45.5788" lon="4.60746">
        <ele>400</ele>
        <time>2022-04-24T11:14:03.000Z</time>
      </trkpt>
      <trkpt lat="45.57889" lon="4.60733">
        <ele>400</ele>
        <time>2022-04-24T11:14:06.000Z</time>
      </trkpt>
      <trkpt lat="45.57899" lon="4.60722">
        <ele>400.39999389648</ele>
        <time>2022-04-24T11:14:09.000Z</time>
      </trkpt>
      <trkpt lat="45.5792" lon="4.60714">
        <ele>399.60000610352</ele>
        <time>2022-04-24T11:14:14.000Z</time>
      </trkpt>
      <trkpt lat="45.57934" lon="4.60713">
        <ele>399.79998779297</ele>
        <time>2022-04-24T11:14:19.000Z</time>
      </trkpt>
      <trkpt lat="45.57944" lon="4.60712">
        <ele>400</ele>
        <time>2022-04-24T11:14:23.000Z</time>
      </trkpt>
      <trkpt lat="45.5796" lon="4.60709">
        <ele>399.79998779297</ele>
        <time>2022-04-24T11:14:28.000Z</time>
      </trkpt>
      <trkpt lat="45.57979" lon="4.60706">
        <ele>399.79998779297</ele>
        <time>2022-04-24T11:14:33.000Z</time>
      </trkpt>
      <trkpt lat="45.57998" lon="4.60695">
        <ele>401.60000610352</ele>
        <time>2022-04-24T11:14:38.000Z</time>
      </trkpt>
      <trkpt lat="45.5801" lon="4.60687">
        <ele>402.20001220703</ele>
        <time>2022-04-24T11:14:42.000Z</time>
      </trkpt>
      <trkpt lat="45.58028" lon="4.60677">
        <ele>403.39999389648</ele>
        <time>2022-04-24T11:14:47.000Z</time>
      </trkpt>
      <trkpt lat="45.58048" lon="4.60665">
        <ele>404.39999389648</ele>
        <time>2022-04-24T11:14:53.000Z</time>
      </trkpt>
      <trkpt lat="45.58066" lon="4.60644">
        <ele>406.79998779297</ele>
        <time>2022-04-24T11:15:00.000Z</time>
      </trkpt>
      <trkpt lat="45.58076" lon="4.60626">
        <ele>408.39999389648</ele>
        <time>2022-04-24T11:15:05.000Z</time>
      </trkpt>
      <trkpt lat="45.58089" lon="4.606">
        <ele>409.79998779297</ele>
        <time>2022-04-24T11:15:12.000Z</time>
      </trkpt>
      <trkpt lat="45.581" lon="4.60583">
        <ele>409.20001220703</ele>
        <time>2022-04-24T11:15:17.000Z</time>
      </trkpt>
      <trkpt lat="45.58121" lon="4.60563">
        <ele>408.60000610352</ele>
        <time>2022-04-24T11:15:24.000Z</time>
      </trkpt>
      <trkpt lat="45.58134" lon="4.6056">
        <ele>407.60000610352</ele>
        <time>2022-04-24T11:15:28.000Z</time>
      </trkpt>
      <trkpt lat="45.58146" lon="4.60559">
        <ele>407.20001220703</ele>
        <time>2022-04-24T11:15:32.000Z</time>
      </trkpt>
      <trkpt lat="45.58148" lon="4.60559">
        <ele>407.20001220703</ele>
        <time>2022-04-24T11:15:33.000Z</time>
      </trkpt>
      <trkpt lat="45.58155" lon="4.60559">
        <ele>407.39999389648</ele>
        <time>2022-04-24T11:15:35.000Z</time>
      </trkpt>
      <trkpt lat="45.58176" lon="4.60556">
        <ele>409.20001220703</ele>
        <time>2022-04-24T11:15:41.000Z</time>
      </trkpt>
      <trkpt lat="45.58193" lon="4.60557">
        <ele>411.60000610352</ele>
        <time>2022-04-24T11:15:46.000Z</time>
      </trkpt>
      <trkpt lat="45.58206" lon="4.6056">
        <ele>413.60000610352</ele>
        <time>2022-04-24T11:15:50.000Z</time>
      </trkpt>
      <trkpt lat="45.58209" lon="4.60561">
        <ele>414.20001220703</ele>
        <time>2022-04-24T11:15:51.000Z</time>
      </trkpt>
      <trkpt lat="45.58223" lon="4.60565">
        <ele>416.39999389648</ele>
        <time>2022-04-24T11:15:55.000Z</time>
      </trkpt>
      <trkpt lat="45.58248" lon="4.60575">
        <ele>418.60000610352</ele>
        <time>2022-04-24T11:16:02.000Z</time>
      </trkpt>
      <trkpt lat="45.58256" lon="4.60578">
        <ele>419.20001220703</ele>
        <time>2022-04-24T11:16:05.000Z</time>
      </trkpt>
      <trkpt lat="45.58274" lon="4.60577">
        <ele>420.60000610352</ele>
        <time>2022-04-24T11:16:10.000Z</time>
      </trkpt>
      <trkpt lat="45.58297" lon="4.60577">
        <ele>421.60000610352</ele>
        <time>2022-04-24T11:16:16.000Z</time>
      </trkpt>
      <trkpt lat="45.583" lon="4.60577">
        <ele>421.79998779297</ele>
        <time>2022-04-24T11:16:17.000Z</time>
      </trkpt>
      <trkpt lat="45.58306" lon="4.60578">
        <ele>422.39999389648</ele>
        <time>2022-04-24T11:16:19.000Z</time>
      </trkpt>
      <trkpt lat="45.58322" lon="4.6058">
        <ele>424.60000610352</ele>
        <time>2022-04-24T11:16:24.000Z</time>
      </trkpt>
      <trkpt lat="45.58339" lon="4.60585">
        <ele>426</ele>
        <time>2022-04-24T11:16:30.000Z</time>
      </trkpt>
      <trkpt lat="45.58354" lon="4.60589">
        <ele>423.79998779297</ele>
        <time>2022-04-24T11:16:35.000Z</time>
      </trkpt>
      <trkpt lat="45.58361" lon="4.60591">
        <ele>422.79998779297</ele>
        <time>2022-04-24T11:16:39.000Z</time>
      </trkpt>
      <trkpt lat="45.58375" lon="4.6059">
        <ele>422.79998779297</ele>
        <time>2022-04-24T11:16:42.000Z</time>
      </trkpt>
      <trkpt lat="45.5839" lon="4.60588">
        <ele>422.60000610352</ele>
        <time>2022-04-24T11:16:46.000Z</time>
      </trkpt>
      <trkpt lat="45.5841" lon="4.60586">
        <ele>424.60000610352</ele>
        <time>2022-04-24T11:16:51.000Z</time>
      </trkpt>
      <trkpt lat="45.58428" lon="4.60584">
        <ele>426.20001220703</ele>
        <time>2022-04-24T11:16:56.000Z</time>
      </trkpt>
      <trkpt lat="45.58449" lon="4.60579">
        <ele>428</ele>
        <time>2022-04-24T11:17:01.000Z</time>
      </trkpt>
      <trkpt lat="45.58467" lon="4.60574">
        <ele>428.20001220703</ele>
        <time>2022-04-24T11:17:06.000Z</time>
      </trkpt>
      <trkpt lat="45.58483" lon="4.60569">
        <ele>429.39999389648</ele>
        <time>2022-04-24T11:17:11.000Z</time>
      </trkpt>
      <trkpt lat="45.58504" lon="4.60562">
        <ele>430.20001220703</ele>
        <time>2022-04-24T11:17:17.000Z</time>
      </trkpt>
      <trkpt lat="45.58519" lon="4.60549">
        <ele>430.79998779297</ele>
        <time>2022-04-24T11:17:22.000Z</time>
      </trkpt>
      <trkpt lat="45.58533" lon="4.60536">
        <ele>432.20001220703</ele>
        <time>2022-04-24T11:17:27.000Z</time>
      </trkpt>
      <trkpt lat="45.58545" lon="4.60524">
        <ele>431.20001220703</ele>
        <time>2022-04-24T11:17:31.000Z</time>
      </trkpt>
      <trkpt lat="45.58559" lon="4.60503">
        <ele>433.79998779297</ele>
        <time>2022-04-24T11:17:36.000Z</time>
      </trkpt>
      <trkpt lat="45.58567" lon="4.6048">
        <ele>434.39999389648</ele>
        <time>2022-04-24T11:17:41.000Z</time>
      </trkpt>
      <trkpt lat="45.58574" lon="4.60457">
        <ele>435.79998779297</ele>
        <time>2022-04-24T11:17:46.000Z</time>
      </trkpt>
      <trkpt lat="45.58576" lon="4.60448">
        <ele>436</ele>
        <time>2022-04-24T11:17:48.000Z</time>
      </trkpt>
      <trkpt lat="45.58578" lon="4.60439">
        <ele>435.60000610352</ele>
        <time>2022-04-24T11:17:50.000Z</time>
      </trkpt>
      <trkpt lat="45.58585" lon="4.60412">
        <ele>435.60000610352</ele>
        <time>2022-04-24T11:17:56.000Z</time>
      </trkpt>
      <trkpt lat="45.58589" lon="4.60398">
        <ele>435.60000610352</ele>
        <time>2022-04-24T11:18:00.000Z</time>
      </trkpt>
      <trkpt lat="45.58594" lon="4.60385">
        <ele>435.39999389648</ele>
        <time>2022-04-24T11:18:04.000Z</time>
      </trkpt>
      <trkpt lat="45.586" lon="4.60368">
        <ele>435.79998779297</ele>
        <time>2022-04-24T11:18:09.000Z</time>
      </trkpt>
      <trkpt lat="45.5861" lon="4.60343">
        <ele>437</ele>
        <time>2022-04-24T11:18:14.000Z</time>
      </trkpt>
      <trkpt lat="45.58616" lon="4.60331">
        <ele>436.79998779297</ele>
        <time>2022-04-24T11:18:17.000Z</time>
      </trkpt>
      <trkpt lat="45.58618" lon="4.60328">
        <ele>436.39999389648</ele>
        <time>2022-04-24T11:18:18.000Z</time>
      </trkpt>
      <trkpt lat="45.5863" lon="4.60309">
        <ele>436.60000610352</ele>
        <time>2022-04-24T11:18:23.000Z</time>
      </trkpt>
      <trkpt lat="45.58635" lon="4.60299">
        <ele>437.39999389648</ele>
        <time>2022-04-24T11:18:25.000Z</time>
      </trkpt>
      <trkpt lat="45.58639" lon="4.6029">
        <ele>438.39999389648</ele>
        <time>2022-04-24T11:18:27.000Z</time>
      </trkpt>
      <trkpt lat="45.58643" lon="4.60282">
        <ele>439.20001220703</ele>
        <time>2022-04-24T11:18:29.000Z</time>
      </trkpt>
      <trkpt lat="45.58648" lon="4.60272">
        <ele>440.39999389648</ele>
        <time>2022-04-24T11:18:32.000Z</time>
      </trkpt>
      <trkpt lat="45.58655" lon="4.60261">
        <ele>441</ele>
        <time>2022-04-24T11:18:35.000Z</time>
      </trkpt>
      <trkpt lat="45.58659" lon="4.60252">
        <ele>441.20001220703</ele>
        <time>2022-04-24T11:18:37.000Z</time>
      </trkpt>
      <trkpt lat="45.58666" lon="4.60242">
        <ele>440.60000610352</ele>
        <time>2022-04-24T11:18:41.000Z</time>
      </trkpt>
      <trkpt lat="45.58671" lon="4.60228">
        <ele>441</ele>
        <time>2022-04-24T11:18:46.000Z</time>
      </trkpt>
      <trkpt lat="45.58672" lon="4.60225">
        <ele>441.20001220703</ele>
        <time>2022-04-24T11:18:47.000Z</time>
      </trkpt>
      <trkpt lat="45.58673" lon="4.6022">
        <ele>441.20001220703</ele>
        <time>2022-04-24T11:18:51.000Z</time>
      </trkpt>
      <trkpt lat="45.58673" lon="4.6022">
        <ele>441.20001220703</ele>
        <time>2022-04-24T11:18:52.000Z</time>
      </trkpt>
      <trkpt lat="45.58674" lon="4.60218">
        <ele>441.20001220703</ele>
        <time>2022-04-24T11:19:09.000Z</time>
      </trkpt>
      <trkpt lat="45.58676" lon="4.60211">
        <ele>441.20001220703</ele>
        <time>2022-04-24T11:19:10.000Z</time>
      </trkpt>
      <trkpt lat="45.58676" lon="4.60211">
        <ele>441.20001220703</ele>
        <time>2022-04-24T11:19:11.000Z</time>
      </trkpt>
      <trkpt lat="45.58681" lon="4.60195">
        <ele>441.20001220703</ele>
        <time>2022-04-24T11:19:15.000Z</time>
      </trkpt>
      <trkpt lat="45.58678" lon="4.60174">
        <ele>444.60000610352</ele>
        <time>2022-04-24T11:19:18.000Z</time>
      </trkpt>
      <trkpt lat="45.58678" lon="4.60167">
        <ele>445</ele>
        <time>2022-04-24T11:19:19.000Z</time>
      </trkpt>
      <trkpt lat="45.58678" lon="4.60159">
        <ele>445.60000610352</ele>
        <time>2022-04-24T11:19:20.000Z</time>
      </trkpt>
      <trkpt lat="45.58678" lon="4.60143">
        <ele>446.60000610352</ele>
        <time>2022-04-24T11:19:22.000Z</time>
      </trkpt>
      <trkpt lat="45.58696" lon="4.60127">
        <ele>440</ele>
        <time>2022-04-24T11:19:24.000Z</time>
      </trkpt>
      <trkpt lat="45.587" lon="4.60107">
        <ele>439.79998779297</ele>
        <time>2022-04-24T11:19:26.000Z</time>
      </trkpt>
      <trkpt lat="45.58705" lon="4.60086">
        <ele>439</ele>
        <time>2022-04-24T11:19:28.000Z</time>
      </trkpt>
      <trkpt lat="45.58714" lon="4.6003">
        <ele>437</ele>
        <time>2022-04-24T11:19:33.000Z</time>
      </trkpt>
      <trkpt lat="45.58717" lon="4.60017">
        <ele>436.20001220703</ele>
        <time>2022-04-24T11:19:34.000Z</time>
      </trkpt>
      <trkpt lat="45.58726" lon="4.59984">
        <ele>435.20001220703</ele>
        <time>2022-04-24T11:19:37.000Z</time>
      </trkpt>
      <trkpt lat="45.5873" lon="4.59975">
        <ele>435.39999389648</ele>
        <time>2022-04-24T11:19:38.000Z</time>
      </trkpt>
      <trkpt lat="45.58736" lon="4.5996">
        <ele>434.79998779297</ele>
        <time>2022-04-24T11:19:40.000Z</time>
      </trkpt>
      <trkpt lat="45.58749" lon="4.59958">
        <ele>433.79998779297</ele>
        <time>2022-04-24T11:19:42.000Z</time>
      </trkpt>
      <trkpt lat="45.58751" lon="4.59971">
        <ele>433.20001220703</ele>
        <time>2022-04-24T11:19:44.000Z</time>
      </trkpt>
      <trkpt lat="45.58751" lon="4.59977">
        <ele>433</ele>
        <time>2022-04-24T11:19:45.000Z</time>
      </trkpt>
      <trkpt lat="45.58751" lon="4.59988">
        <ele>432.20001220703</ele>
        <time>2022-04-24T11:19:47.000Z</time>
      </trkpt>
      <trkpt lat="45.58752" lon="4.60015">
        <ele>430.20001220703</ele>
        <time>2022-04-24T11:19:51.000Z</time>
      </trkpt>
      <trkpt lat="45.58753" lon="4.6002">
        <ele>429.79998779297</ele>
        <time>2022-04-24T11:19:52.000Z</time>
      </trkpt>
      <trkpt lat="45.58757" lon="4.60035">
        <ele>429.39999389648</ele>
        <time>2022-04-24T11:19:55.000Z</time>
      </trkpt>
      <trkpt lat="45.58758" lon="4.60041">
        <ele>429.39999389648</ele>
        <time>2022-04-24T11:19:56.000Z</time>
      </trkpt>
      <trkpt lat="45.58766" lon="4.60069">
        <ele>428.79998779297</ele>
        <time>2022-04-24T11:20:02.000Z</time>
      </trkpt>
      <trkpt lat="45.58775" lon="4.60094">
        <ele>427.20001220703</ele>
        <time>2022-04-24T11:20:07.000Z</time>
      </trkpt>
      <trkpt lat="45.58784" lon="4.60121">
        <ele>425.79998779297</ele>
        <time>2022-04-24T11:20:12.000Z</time>
      </trkpt>
      <trkpt lat="45.58788" lon="4.60132">
        <ele>425.79998779297</ele>
        <time>2022-04-24T11:20:14.000Z</time>
      </trkpt>
      <trkpt lat="45.58793" lon="4.60172">
        <ele>424.39999389648</ele>
        <time>2022-04-24T11:20:21.000Z</time>
      </trkpt>
      <trkpt lat="45.58795" lon="4.60213">
        <ele>424.20001220703</ele>
        <time>2022-04-24T11:20:29.000Z</time>
      </trkpt>
      <trkpt lat="45.58795" lon="4.60252">
        <ele>424.79998779297</ele>
        <time>2022-04-24T11:20:36.000Z</time>
      </trkpt>
      <trkpt lat="45.58802" lon="4.60272">
        <ele>425.79998779297</ele>
        <time>2022-04-24T11:20:41.000Z</time>
      </trkpt>
      <trkpt lat="45.58804" lon="4.60275">
        <ele>426.39999389648</ele>
        <time>2022-04-24T11:20:42.000Z</time>
      </trkpt>
      <trkpt lat="45.5881" lon="4.60278">
        <ele>427.60000610352</ele>
        <time>2022-04-24T11:20:44.000Z</time>
      </trkpt>
      <trkpt lat="45.58823" lon="4.60285">
        <ele>431</ele>
        <time>2022-04-24T11:20:48.000Z</time>
      </trkpt>
      <trkpt lat="45.58836" lon="4.60292">
        <ele>434</ele>
        <time>2022-04-24T11:20:52.000Z</time>
      </trkpt>
      <trkpt lat="45.58857" lon="4.60309">
        <ele>435</ele>
        <time>2022-04-24T11:20:58.000Z</time>
      </trkpt>
      <trkpt lat="45.5886" lon="4.60332">
        <ele>434.60000610352</ele>
        <time>2022-04-24T11:21:02.000Z</time>
      </trkpt>
      <trkpt lat="45.58853" lon="4.60347">
        <ele>434.20001220703</ele>
        <time>2022-04-24T11:21:06.000Z</time>
      </trkpt>
      <trkpt lat="45.58833" lon="4.60359">
        <ele>432.39999389648</ele>
        <time>2022-04-24T11:21:13.000Z</time>
      </trkpt>
      <trkpt lat="45.58816" lon="4.60368">
        <ele>431.79998779297</ele>
        <time>2022-04-24T11:21:20.000Z</time>
      </trkpt>
      <trkpt lat="45.58801" lon="4.60378">
        <ele>431</ele>
        <time>2022-04-24T11:21:26.000Z</time>
      </trkpt>
      <trkpt lat="45.5879" lon="4.60385">
        <ele>430.20001220703</ele>
        <time>2022-04-24T11:21:31.000Z</time>
      </trkpt>
      <trkpt lat="45.58779" lon="4.60397">
        <ele>430.20001220703</ele>
        <time>2022-04-24T11:21:37.000Z</time>
      </trkpt>
      <trkpt lat="45.58771" lon="4.60411">
        <ele>429.60000610352</ele>
        <time>2022-04-24T11:21:43.000Z</time>
      </trkpt>
      <trkpt lat="45.58766" lon="4.60431">
        <ele>430.39999389648</ele>
        <time>2022-04-24T11:21:49.000Z</time>
      </trkpt>
      <trkpt lat="45.58762" lon="4.60452">
        <ele>431.39999389648</ele>
        <time>2022-04-24T11:21:55.000Z</time>
      </trkpt>
      <trkpt lat="45.5876" lon="4.60476">
        <ele>431</ele>
        <time>2022-04-24T11:22:03.000Z</time>
      </trkpt>
      <trkpt lat="45.5877" lon="4.60485">
        <ele>431.79998779297</ele>
        <time>2022-04-24T11:22:08.000Z</time>
      </trkpt>
      <trkpt lat="45.58781" lon="4.60485">
        <ele>433.39999389648</ele>
        <time>2022-04-24T11:22:13.000Z</time>
      </trkpt>
      <trkpt lat="45.58804" lon="4.60483">
        <ele>435.20001220703</ele>
        <time>2022-04-24T11:22:23.000Z</time>
      </trkpt>
      <trkpt lat="45.58829" lon="4.6048">
        <ele>436.39999389648</ele>
        <time>2022-04-24T11:22:33.000Z</time>
      </trkpt>
      <trkpt lat="45.58853" lon="4.60478">
        <ele>439.20001220703</ele>
        <time>2022-04-24T11:22:42.000Z</time>
      </trkpt>
      <trkpt lat="45.58868" lon="4.60477">
        <ele>441.60000610352</ele>
        <time>2022-04-24T11:22:48.000Z</time>
      </trkpt>
      <trkpt lat="45.58887" lon="4.60475">
        <ele>444.39999389648</ele>
        <time>2022-04-24T11:22:56.000Z</time>
      </trkpt>
      <trkpt lat="45.58907" lon="4.60479">
        <ele>447</ele>
        <time>2022-04-24T11:23:04.000Z</time>
      </trkpt>
      <trkpt lat="45.58929" lon="4.60479">
        <ele>449.20001220703</ele>
        <time>2022-04-24T11:23:13.000Z</time>
      </trkpt>
      <trkpt lat="45.58945" lon="4.60475">
        <ele>450.79998779297</ele>
        <time>2022-04-24T11:23:20.000Z</time>
      </trkpt>
      <trkpt lat="45.58958" lon="4.60469">
        <ele>451.39999389648</ele>
        <time>2022-04-24T11:23:26.000Z</time>
      </trkpt>
      <trkpt lat="45.58971" lon="4.60462">
        <ele>452.20001220703</ele>
        <time>2022-04-24T11:23:32.000Z</time>
      </trkpt>
      <trkpt lat="45.58986" lon="4.60451">
        <ele>453.20001220703</ele>
        <time>2022-04-24T11:23:40.000Z</time>
      </trkpt>
      <trkpt lat="45.58987" lon="4.6045">
        <ele>453.39999389648</ele>
        <time>2022-04-24T11:23:41.000Z</time>
      </trkpt>
      <trkpt lat="45.58991" lon="4.60447">
        <ele>453.60000610352</ele>
        <time>2022-04-24T11:23:44.000Z</time>
      </trkpt>
      <trkpt lat="45.58991" lon="4.60447">
        <ele>453.60000610352</ele>
        <time>2022-04-24T11:23:48.000Z</time>
      </trkpt>
      <trkpt lat="45.58991" lon="4.60447">
        <ele>453.60000610352</ele>
        <time>2022-04-24T11:24:07.000Z</time>
      </trkpt>
      <trkpt lat="45.59007" lon="4.60445">
        <ele>454.20001220703</ele>
        <time>2022-04-24T11:24:11.000Z</time>
      </trkpt>
      <trkpt lat="45.59027" lon="4.60442">
        <ele>455</ele>
        <time>2022-04-24T11:24:16.000Z</time>
      </trkpt>
      <trkpt lat="45.59031" lon="4.60442">
        <ele>455.20001220703</ele>
        <time>2022-04-24T11:24:17.000Z</time>
      </trkpt>
      <trkpt lat="45.5905" lon="4.60459">
        <ele>456.79998779297</ele>
        <time>2022-04-24T11:24:22.000Z</time>
      </trkpt>
      <trkpt lat="45.59057" lon="4.60475">
        <ele>457</ele>
        <time>2022-04-24T11:24:28.000Z</time>
      </trkpt>
      <trkpt lat="45.59062" lon="4.60486">
        <ele>457.20001220703</ele>
        <time>2022-04-24T11:24:33.000Z</time>
      </trkpt>
      <trkpt lat="45.59067" lon="4.60492">
        <ele>457.60000610352</ele>
        <time>2022-04-24T11:24:36.000Z</time>
      </trkpt>
      <trkpt lat="45.59072" lon="4.60497">
        <ele>458.20001220703</ele>
        <time>2022-04-24T11:24:39.000Z</time>
      </trkpt>
      <trkpt lat="45.59079" lon="4.60502">
        <ele>459</ele>
        <time>2022-04-24T11:24:43.000Z</time>
      </trkpt>
      <trkpt lat="45.59084" lon="4.60506">
        <ele>459.60000610352</ele>
        <time>2022-04-24T11:24:46.000Z</time>
      </trkpt>
      <trkpt lat="45.59095" lon="4.60516">
        <ele>461.39999389648</ele>
        <time>2022-04-24T11:24:53.000Z</time>
      </trkpt>
      <trkpt lat="45.59112" lon="4.6053">
        <ele>463.79998779297</ele>
        <time>2022-04-24T11:25:02.000Z</time>
      </trkpt>
      <trkpt lat="45.59114" lon="4.60532">
        <ele>464</ele>
        <time>2022-04-24T11:25:03.000Z</time>
      </trkpt>
      <trkpt lat="45.59132" lon="4.60543">
        <ele>464.79998779297</ele>
        <time>2022-04-24T11:25:12.000Z</time>
      </trkpt>
      <trkpt lat="45.59144" lon="4.60554">
        <ele>465.60000610352</ele>
        <time>2022-04-24T11:25:19.000Z</time>
      </trkpt>
      <trkpt lat="45.59157" lon="4.60573">
        <ele>466.20001220703</ele>
        <time>2022-04-24T11:25:28.000Z</time>
      </trkpt>
      <trkpt lat="45.59165" lon="4.60591">
        <ele>466.39999389648</ele>
        <time>2022-04-24T11:25:35.000Z</time>
      </trkpt>
      <trkpt lat="45.59175" lon="4.60613">
        <ele>468.20001220703</ele>
        <time>2022-04-24T11:25:43.000Z</time>
      </trkpt>
      <trkpt lat="45.59183" lon="4.60625">
        <ele>469.60000610352</ele>
        <time>2022-04-24T11:25:49.000Z</time>
      </trkpt>
      <trkpt lat="45.59192" lon="4.6064">
        <ele>471.20001220703</ele>
        <time>2022-04-24T11:25:55.000Z</time>
      </trkpt>
      <trkpt lat="45.592" lon="4.60653">
        <ele>471.20001220703</ele>
        <time>2022-04-24T11:26:01.000Z</time>
      </trkpt>
      <trkpt lat="45.59209" lon="4.60664">
        <ele>471.39999389648</ele>
        <time>2022-04-24T11:26:07.000Z</time>
      </trkpt>
      <trkpt lat="45.59222" lon="4.60674">
        <ele>471.39999389648</ele>
        <time>2022-04-24T11:26:13.000Z</time>
      </trkpt>
      <trkpt lat="45.5924" lon="4.60683">
        <ele>471.39999389648</ele>
        <time>2022-04-24T11:26:21.000Z</time>
      </trkpt>
      <trkpt lat="45.59257" lon="4.60688">
        <ele>472.39999389648</ele>
        <time>2022-04-24T11:26:28.000Z</time>
      </trkpt>
      <trkpt lat="45.59277" lon="4.60693">
        <ele>474.39999389648</ele>
        <time>2022-04-24T11:26:35.000Z</time>
      </trkpt>
      <trkpt lat="45.59291" lon="4.60697">
        <ele>476</ele>
        <time>2022-04-24T11:26:41.000Z</time>
      </trkpt>
      <trkpt lat="45.59307" lon="4.60701">
        <ele>478.20001220703</ele>
        <time>2022-04-24T11:26:48.000Z</time>
      </trkpt>
      <trkpt lat="45.59326" lon="4.60703">
        <ele>480.20001220703</ele>
        <time>2022-04-24T11:26:55.000Z</time>
      </trkpt>
      <trkpt lat="45.59341" lon="4.60704">
        <ele>481.20001220703</ele>
        <time>2022-04-24T11:27:01.000Z</time>
      </trkpt>
      <trkpt lat="45.5936" lon="4.60706">
        <ele>481.60000610352</ele>
        <time>2022-04-24T11:27:08.000Z</time>
      </trkpt>
      <trkpt lat="45.59375" lon="4.60709">
        <ele>481.79998779297</ele>
        <time>2022-04-24T11:27:13.000Z</time>
      </trkpt>
      <trkpt lat="45.59395" lon="4.60721">
        <ele>480.79998779297</ele>
        <time>2022-04-24T11:27:19.000Z</time>
      </trkpt>
      <trkpt lat="45.59409" lon="4.6074">
        <ele>479</ele>
        <time>2022-04-24T11:27:24.000Z</time>
      </trkpt>
      <trkpt lat="45.59419" lon="4.60766">
        <ele>477.60000610352</ele>
        <time>2022-04-24T11:27:30.000Z</time>
      </trkpt>
      <trkpt lat="45.59421" lon="4.60792">
        <ele>477.79998779297</ele>
        <time>2022-04-24T11:27:37.000Z</time>
      </trkpt>
      <trkpt lat="45.59419" lon="4.60823">
        <ele>479.39999389648</ele>
        <time>2022-04-24T11:27:45.000Z</time>
      </trkpt>
      <trkpt lat="45.59411" lon="4.60849">
        <ele>482.20001220703</ele>
        <time>2022-04-24T11:27:52.000Z</time>
      </trkpt>
      <trkpt lat="45.59397" lon="4.60867">
        <ele>482.39999389648</ele>
        <time>2022-04-24T11:27:59.000Z</time>
      </trkpt>
      <trkpt lat="45.59379" lon="4.60877">
        <ele>481</ele>
        <time>2022-04-24T11:28:06.000Z</time>
      </trkpt>
      <trkpt lat="45.5936" lon="4.60885">
        <ele>479.20001220703</ele>
        <time>2022-04-24T11:28:12.000Z</time>
      </trkpt>
      <trkpt lat="45.59335" lon="4.60901">
        <ele>479.60000610352</ele>
        <time>2022-04-24T11:28:19.000Z</time>
      </trkpt>
      <trkpt lat="45.59308" lon="4.60921">
        <ele>481</ele>
        <time>2022-04-24T11:28:28.000Z</time>
      </trkpt>
      <trkpt lat="45.59282" lon="4.6093">
        <ele>479.79998779297</ele>
        <time>2022-04-24T11:28:35.000Z</time>
      </trkpt>
      <trkpt lat="45.59268" lon="4.60935">
        <ele>477.79998779297</ele>
        <time>2022-04-24T11:28:39.000Z</time>
      </trkpt>
      <trkpt lat="45.59263" lon="4.60948">
        <ele>478</ele>
        <time>2022-04-24T11:28:42.000Z</time>
      </trkpt>
      <trkpt lat="45.59261" lon="4.60956">
        <ele>478.39999389648</ele>
        <time>2022-04-24T11:28:44.000Z</time>
      </trkpt>
      <trkpt lat="45.59254" lon="4.60977">
        <ele>479.39999389648</ele>
        <time>2022-04-24T11:28:50.000Z</time>
      </trkpt>
      <trkpt lat="45.59248" lon="4.60995">
        <ele>480</ele>
        <time>2022-04-24T11:28:55.000Z</time>
      </trkpt>
      <trkpt lat="45.59246" lon="4.61003">
        <ele>480.60000610352</ele>
        <time>2022-04-24T11:28:57.000Z</time>
      </trkpt>
      <trkpt lat="45.5924" lon="4.61038">
        <ele>484.20001220703</ele>
        <time>2022-04-24T11:29:06.000Z</time>
      </trkpt>
      <trkpt lat="45.59236" lon="4.61064">
        <ele>487.39999389648</ele>
        <time>2022-04-24T11:29:13.000Z</time>
      </trkpt>
      <trkpt lat="45.59234" lon="4.61093">
        <ele>489.79998779297</ele>
        <time>2022-04-24T11:29:21.000Z</time>
      </trkpt>
      <trkpt lat="45.59233" lon="4.61118">
        <ele>491.39999389648</ele>
        <time>2022-04-24T11:29:27.000Z</time>
      </trkpt>
      <trkpt lat="45.59243" lon="4.61139">
        <ele>492.60000610352</ele>
        <time>2022-04-24T11:29:34.000Z</time>
      </trkpt>
      <trkpt lat="45.59256" lon="4.61156">
        <ele>493</ele>
        <time>2022-04-24T11:29:41.000Z</time>
      </trkpt>
      <trkpt lat="45.59275" lon="4.61172">
        <ele>493</ele>
        <time>2022-04-24T11:29:49.000Z</time>
      </trkpt>
      <trkpt lat="45.59286" lon="4.61182">
        <ele>493</ele>
        <time>2022-04-24T11:29:54.000Z</time>
      </trkpt>
      <trkpt lat="45.59298" lon="4.61192">
        <ele>493</ele>
        <time>2022-04-24T11:30:00.000Z</time>
      </trkpt>
      <trkpt lat="45.59314" lon="4.61187">
        <ele>492.60000610352</ele>
        <time>2022-04-24T11:30:06.000Z</time>
      </trkpt>
      <trkpt lat="45.59336" lon="4.61171">
        <ele>493</ele>
        <time>2022-04-24T11:30:13.000Z</time>
      </trkpt>
      <trkpt lat="45.59365" lon="4.61148">
        <ele>495.60000610352</ele>
        <time>2022-04-24T11:30:22.000Z</time>
      </trkpt>
      <trkpt lat="45.59392" lon="4.6112">
        <ele>496.60000610352</ele>
        <time>2022-04-24T11:30:32.000Z</time>
      </trkpt>
      <trkpt lat="45.59408" lon="4.61097">
        <ele>497</ele>
        <time>2022-04-24T11:30:39.000Z</time>
      </trkpt>
      <trkpt lat="45.59413" lon="4.6109">
        <ele>497</ele>
        <time>2022-04-24T11:30:41.000Z</time>
      </trkpt>
      <trkpt lat="45.59428" lon="4.6106">
        <ele>498.20001220703</ele>
        <time>2022-04-24T11:30:49.000Z</time>
      </trkpt>
      <trkpt lat="45.5944" lon="4.61028">
        <ele>499.20001220703</ele>
        <time>2022-04-24T11:30:57.000Z</time>
      </trkpt>
      <trkpt lat="45.59448" lon="4.60999">
        <ele>500.20001220703</ele>
        <time>2022-04-24T11:31:04.000Z</time>
      </trkpt>
      <trkpt lat="45.59476" lon="4.60976">
        <ele>504.20001220703</ele>
        <time>2022-04-24T11:31:13.000Z</time>
      </trkpt>
      <trkpt lat="45.59493" lon="4.60957">
        <ele>508.20001220703</ele>
        <time>2022-04-24T11:31:20.000Z</time>
      </trkpt>
      <trkpt lat="45.59496" lon="4.6096">
        <ele>508.60000610352</ele>
        <time>2022-04-24T11:31:22.000Z</time>
      </trkpt>
      <trkpt lat="45.595" lon="4.60963">
        <ele>509.20001220703</ele>
        <time>2022-04-24T11:31:24.000Z</time>
      </trkpt>
      <trkpt lat="45.59517" lon="4.60977">
        <ele>510.79998779297</ele>
        <time>2022-04-24T11:31:32.000Z</time>
      </trkpt>
      <trkpt lat="45.59537" lon="4.60988">
        <ele>512.59997558594</ele>
        <time>2022-04-24T11:31:40.000Z</time>
      </trkpt>
      <trkpt lat="45.59554" lon="4.60992">
        <ele>514.40002441406</ele>
        <time>2022-04-24T11:31:46.000Z</time>
      </trkpt>
      <trkpt lat="45.59571" lon="4.60986">
        <ele>516.20001220703</ele>
        <time>2022-04-24T11:31:52.000Z</time>
      </trkpt>
      <trkpt lat="45.5959" lon="4.60973">
        <ele>519</ele>
        <time>2022-04-24T11:31:59.000Z</time>
      </trkpt>
      <trkpt lat="45.59606" lon="4.60955">
        <ele>520.20001220703</ele>
        <time>2022-04-24T11:32:06.000Z</time>
      </trkpt>
      <trkpt lat="45.59626" lon="4.60933">
        <ele>521.20001220703</ele>
        <time>2022-04-24T11:32:14.000Z</time>
      </trkpt>
      <trkpt lat="45.59642" lon="4.60915">
        <ele>522.20001220703</ele>
        <time>2022-04-24T11:32:21.000Z</time>
      </trkpt>
      <trkpt lat="45.59658" lon="4.60893">
        <ele>522.20001220703</ele>
        <time>2022-04-24T11:32:28.000Z</time>
      </trkpt>
      <trkpt lat="45.5967" lon="4.60878">
        <ele>522.40002441406</ele>
        <time>2022-04-24T11:32:33.000Z</time>
      </trkpt>
      <trkpt lat="45.59691" lon="4.60858">
        <ele>523.20001220703</ele>
        <time>2022-04-24T11:32:41.000Z</time>
      </trkpt>
      <trkpt lat="45.59706" lon="4.60844">
        <ele>523.79998779297</ele>
        <time>2022-04-24T11:32:47.000Z</time>
      </trkpt>
      <trkpt lat="45.59724" lon="4.60824">
        <ele>525</ele>
        <time>2022-04-24T11:32:54.000Z</time>
      </trkpt>
      <trkpt lat="45.59746" lon="4.60799">
        <ele>526</ele>
        <time>2022-04-24T11:33:03.000Z</time>
      </trkpt>
      <trkpt lat="45.59771" lon="4.60771">
        <ele>527</ele>
        <time>2022-04-24T11:33:13.000Z</time>
      </trkpt>
      <trkpt lat="45.5979" lon="4.60742">
        <ele>528.40002441406</ele>
        <time>2022-04-24T11:33:22.000Z</time>
      </trkpt>
      <trkpt lat="45.59803" lon="4.60718">
        <ele>529</ele>
        <time>2022-04-24T11:33:29.000Z</time>
      </trkpt>
      <trkpt lat="45.59823" lon="4.60687">
        <ele>529.59997558594</ele>
        <time>2022-04-24T11:33:38.000Z</time>
      </trkpt>
      <trkpt lat="45.59844" lon="4.60654">
        <ele>531.79998779297</ele>
        <time>2022-04-24T11:33:48.000Z</time>
      </trkpt>
      <trkpt lat="45.59861" lon="4.60626">
        <ele>532.40002441406</ele>
        <time>2022-04-24T11:33:56.000Z</time>
      </trkpt>
      <trkpt lat="45.59878" lon="4.60599">
        <ele>532.40002441406</ele>
        <time>2022-04-24T11:34:04.000Z</time>
      </trkpt>
      <trkpt lat="45.59897" lon="4.60567">
        <ele>532.40002441406</ele>
        <time>2022-04-24T11:34:13.000Z</time>
      </trkpt>
      <trkpt lat="45.59911" lon="4.60544">
        <ele>533</ele>
        <time>2022-04-24T11:34:19.000Z</time>
      </trkpt>
      <trkpt lat="45.59926" lon="4.60519">
        <ele>534.40002441406</ele>
        <time>2022-04-24T11:34:26.000Z</time>
      </trkpt>
      <trkpt lat="45.59931" lon="4.60511">
        <ele>534.59997558594</ele>
        <time>2022-04-24T11:34:29.000Z</time>
      </trkpt>
      <trkpt lat="45.59937" lon="4.60512">
        <ele>534.40002441406</ele>
        <time>2022-04-24T11:34:31.000Z</time>
      </trkpt>
      <trkpt lat="45.59944" lon="4.6052">
        <ele>534.20001220703</ele>
        <time>2022-04-24T11:34:36.000Z</time>
      </trkpt>
      <trkpt lat="45.59948" lon="4.60525">
        <ele>534</ele>
        <time>2022-04-24T11:34:41.000Z</time>
      </trkpt>
      <trkpt lat="45.59949" lon="4.60526">
        <ele>534</ele>
        <time>2022-04-24T11:34:42.000Z</time>
      </trkpt>
      <trkpt lat="45.59961" lon="4.60516">
        <ele>534</ele>
        <time>2022-04-24T11:34:45.000Z</time>
      </trkpt>
      <trkpt lat="45.5996" lon="4.60516">
        <ele>534</ele>
        <time>2022-04-24T11:34:46.000Z</time>
      </trkpt>
      <trkpt lat="45.5996" lon="4.60515">
        <ele>534</ele>
        <time>2022-04-24T11:34:48.000Z</time>
      </trkpt>
    </trkseg>
  </trk>
</gpx>